# Wetter Temperatur Luftdruck Luftfeuchtigkeit Sichtweite Windgeschwindigkeit Windrichtung Zeit
1 Clouds 11 1006 68 0 7.89 93 06:53 11.07.2020
2 Clouds 11 1006 70 0 7.35 92 06:20 11.07.2020
3 Clouds 11 1007 71 0 6.27 91 05:21 11.07.2020
4 Clouds 11 1007 71 0 6.27 91 04:55 11.07.2020
5 Clouds 11 1007 71 0 6.27 91 04:31 11.07.2020
6 Clouds 10 1008 75 0 3.93 89 02:59 11.07.2020
7 Clouds 10 1008 75 0 3.93 89 02:36 11.07.2020
8 Clouds 10 1008 76 0 4.83 86 01:32 11.07.2020
9 Clouds 9 1008 77 0 4.84 98 00:59 11.07.2020
10 Clouds 9 1008 77 0 4.84 98 00:40 11.07.2020
11 Clouds 9 1008 78 0 5.26 100 00:21 11.07.2020
12 Clouds 9 1008 78 0 5.26 100 23:57 10.07.2020
13 Clouds 9 1008 78 0 5.26 100 23:38 10.07.2020
14 Clouds 9 1008 78 0 5.26 100 23:38 10.07.2020
15 Clouds 9 1008 77 0 5.94 96 23:18 10.07.2020
16 Clouds 9 1008 77 0 5.94 96 22:43 10.07.2020
17 Clouds 9 1009 77 0 5.87 97 22:19 10.07.2020
18 Clouds 9 1009 77 0 5.87 97 21:41 10.07.2020
19 Clouds 9 1009 76 0 6.06 99 21:21 10.07.2020
20 Clear 9 1009 79 0 6.27 92 20:59 10.07.2020
21 Clear 9 1009 79 0 6.27 92 20:41 10.07.2020
22 Clouds 9 1010 78 0 5.63 100 20:21 10.07.2020
23 Clouds 9 1010 78 0 5.63 100 19:57 10.07.2020
24 Clouds 9 1010 78 0 5.63 100 19:39 10.07.2020
25 Clouds 10 1010 77 0 6.53 97 19:20 10.07.2020
26 Clouds 10 1010 77 0 6.53 97 18:41 10.07.2020
27 Clouds 10 1011 75 0 7.63 93 18:20 10.07.2020
28 Clouds 10 1011 75 0 7.63 93 17:57 10.07.2020
29 Clouds 10 1011 75 0 7.63 93 17:38 10.07.2020
30 Clouds 10 1011 73 0 7.67 91 17:20 10.07.2020
31 Clouds 10 1011 73 0 7.67 91 16:42 10.07.2020
32 Clouds 11 1011 71 0 7.7 89 16:20 10.07.2020
33 Clouds 11 1011 71 0 7.7 89 15:47 10.07.2020
34 Clouds 11 1011 70 0 8.13 88 15:26 10.07.2020
35 Clouds 11 1011 70 0 8.13 88 14:56 10.07.2020
36 Clouds 11 1011 70 0 8.13 88 14:38 10.07.2020
37 Clear 12 1012 70 0 8.36 89 14:20 10.07.2020
38 Clear 12 1012 70 0 8.36 89 13:57 10.07.2020
39 Clear 12 1012 70 0 8.36 89 13:38 10.07.2020
40 Clear 13 1013 70 0 8.09 89 13:20 10.07.2020
41 Clear 13 1013 70 0 8.09 89 12:55 10.07.2020
42 Clear 13 1013 70 0 8.09 89 12:37 10.07.2020
43 Clear 12 1013 71 0 7.99 85 12:18 10.07.2020
44 Clear 12 1013 71 0 7.99 85 11:38 10.07.2020
45 Clear 13 1013 72 0 7.91 86 11:19 10.07.2020
46 Clear 13 1013 72 0 7.91 86 10:55 10.07.2020
47 Clear 13 1013 72 0 7.91 86 10:37 10.07.2020
48 Clear 12 1013 73 0 8.21 86 10:18 10.07.2020
49 Clear 12 1013 73 0 8.21 86 09:39 10.07.2020
50 Clouds 13 1014 72 0 6.93 88 09:20 10.07.2020
51 Clouds 13 1013 70 0 7.02 89 08:58 10.07.2020
52 Clouds 13 1013 70 0 7.02 89 08:40 10.07.2020
53 Clear 12 1014 70 0 7.15 90 08:21 10.07.2020
54 Clear 12 1014 70 0 7.15 90 07:43 10.07.2020
55 Clear 12 1015 70 0 6.77 91 07:23 10.07.2020
56 Clear 12 1015 70 0 6.77 91 06:51 10.07.2020
57 Clear 12 1015 70 0 5.99 94 06:27 10.07.2020
58 Clear 11 1015 71 0 5.74 102 05:19 10.07.2020
59 Clear 11 1016 72 0 5.67 107 03:42 10.07.2020
60 Clear 10 1016 74 0 5.15 112 02:53 10.07.2020
61 Clear 9 1017 76 0 4.78 112 01:53 10.07.2020
62 Clear 9 1017 79 0 4.66 111 00:49 10.07.2020
63 Clear 8 1017 81 0 5.06 112 00:21 10.07.2020
64 Clear 8 1017 81 0 5.06 112 23:55 09.07.2020
65 Clear 8 1017 81 0 5.06 112 23:36 09.07.2020
66 Clear 8 1016 82 0 5.72 107 23:18 09.07.2020
67 Clear 8 1016 82 0 5.72 107 22:41 09.07.2020
68 Clear 8 1016 85 0 5.73 103 22:21 09.07.2020
69 Clear 8 1016 85 0 5.73 103 21:59 09.07.2020
70 Clear 8 1016 85 0 5.73 103 21:39 09.07.2020
71 Clear 7 1016 88 0 5.63 99 21:19 09.07.2020
72 Clear 7 1016 88 0 5.63 99 20:58 09.07.2020
73 Clear 7 1016 88 0 5.63 99 20:39 09.07.2020
74 Clear 7 1017 87 0 6.12 93 20:21 09.07.2020
75 Clear 7 1017 87 0 6.12 93 19:42 09.07.2020
76 Clear 8 1017 86 0 6.67 87 19:21 09.07.2020
77 Clear 8 1017 86 0 6.67 87 18:43 09.07.2020
78 Clear 8 1017 86 0 5.91 83 18:25 09.07.2020
79 Clear 8 1017 86 0 5.91 83 17:56 09.07.2020
80 Clear 8 1017 86 0 5.91 83 17:38 09.07.2020
81 Clear 7 1017 87 0 5.85 82 17:20 09.07.2020
82 Clear 7 1017 87 0 5.85 82 16:56 09.07.2020
83 Clear 7 1017 87 0 5.85 82 16:38 09.07.2020
84 Clear 8 1017 87 0 5.84 76 16:19 09.07.2020
85 Clear 8 1017 87 0 5.84 76 15:56 09.07.2020
86 Clear 8 1017 87 0 5.84 76 15:37 09.07.2020
87 Clear 8 1017 85 0 5.44 74 15:18 09.07.2020
88 Clear 8 1017 85 0 5.44 74 14:57 09.07.2020
89 Clear 8 1017 85 0 5.44 74 14:39 09.07.2020
90 Clear 8 1018 82 0 5.83 70 14:20 09.07.2020
91 Clear 8 1017 83 0 5.22 70 13:56 09.07.2020
92 Clear 8 1017 83 0 5.22 70 13:37 09.07.2020
93 Clear 8 1017 82 0 5.62 65 13:18 09.07.2020
94 Clear 8 1017 82 0 5.62 65 12:41 09.07.2020
95 Clear 8 1017 79 0 4.78 60 12:22 09.07.2020
96 Clear 8 1017 79 0 4.78 60 11:56 09.07.2020
97 Clear 8 1017 79 0 4.78 60 11:38 09.07.2020
98 Clear 8 1016 78 0 5.26 63 11:18 09.07.2020
99 Clear 8 1016 78 0 5.26 63 10:55 09.07.2020
100 Clear 8 1016 78 0 5.26 63 10:37 09.07.2020
101 Clear 8 1016 79 0 5.14 52 10:18 09.07.2020
102 Clear 8 1016 79 0 5.14 52 09:41 09.07.2020
103 Clear 9 1016 76 0 4.67 43 09:22 09.07.2020
104 Clear 9 1016 74 0 4.32 57 08:49 09.07.2020
105 Clouds 9 1016 75 0 4.57 53 08:26 09.07.2020
106 Clouds 9 1016 75 0 4.57 53 07:50 09.07.2020
107 Clouds 9 1016 74 0 4 49 07:26 09.07.2020
108 Clouds 9 1016 74 0 4 49 06:57 09.07.2020
109 Clouds 9 1016 74 0 3.66 57 06:20 09.07.2020
110 Clouds 9 1016 74 0 3.66 57 05:46 09.07.2020
111 Clouds 9 1016 73 0 2.34 45 04:28 09.07.2020
112 Clouds 9 1016 76 0 0.93 61 02:33 09.07.2020
113 Clouds 9 1015 76 0 1.31 33 01:39 09.07.2020
114 Clouds 9 1016 76 0 1.63 33 00:56 09.07.2020
115 Clouds 9 1015 75 0 1.65 37 00:25 09.07.2020
116 Clouds 9 1015 75 0 1.65 37 23:58 08.07.2020
117 Clouds 9 1015 75 0 1.65 37 23:39 08.07.2020
118 Clouds 8 1015 76 0 0.56 289 23:21 08.07.2020
119 Clouds 8 1015 76 0 0.56 289 22:54 08.07.2020
120 Clouds 8 1015 76 0 0.56 289 22:36 08.07.2020
121 Clouds 8 1015 76 0 0.56 289 22:36 08.07.2020
122 Clouds 8 1015 76 0 0.43 257 22:18 08.07.2020
123 Clouds 8 1015 76 0 0.43 257 21:39 08.07.2020
124 Clouds 9 1015 78 0 1.11 293 21:21 08.07.2020
125 Clouds 9 1015 78 0 1.11 293 20:58 08.07.2020
126 Clouds 9 1015 78 0 1.11 293 20:39 08.07.2020
127 Clear 9 1015 77 0 1.32 303 20:21 08.07.2020
128 Clear 9 1015 77 0 1.32 303 19:43 08.07.2020
129 Clear 9 1015 76 0 1.34 327 19:24 08.07.2020
130 Clear 9 1015 76 0 1.34 327 18:58 08.07.2020
131 Clear 9 1015 76 0 1.34 327 18:40 08.07.2020
132 Clear 10 1015 74 0 1.42 341 18:20 08.07.2020
133 Clear 10 1015 74 0 1.42 341 17:56 08.07.2020
134 Clear 10 1015 74 0 1.42 341 17:37 08.07.2020
135 Clear 10 1015 73 0 1.79 344 17:19 08.07.2020
136 Clear 10 1015 73 0 1.79 344 16:43 08.07.2020
137 Clear 10 1014 72 0 1.86 342 16:24 08.07.2020
138 Clear 10 1014 72 0 1.86 342 15:59 08.07.2020
139 Clear 10 1014 72 0 1.86 342 15:41 08.07.2020
140 Clear 10 1014 72 0 2.04 349 15:20 08.07.2020
141 Clear 10 1014 72 0 2.04 349 14:58 08.07.2020
142 Clear 10 1014 72 0 2.04 349 14:40 08.07.2020
143 Clear 11 1014 70 0 2.26 3 14:19 08.07.2020
144 Clear 11 1014 70 0 2.26 3 13:45 08.07.2020
145 Clear 11 1014 68 0 3.08 350 13:26 08.07.2020
146 Clear 11 1014 68 0 3.08 350 12:46 08.07.2020
147 Clear 12 1014 66 0 3.74 336 12:22 08.07.2020
148 Clear 12 1014 66 0 3.74 336 11:59 08.07.2020
149 Clear 12 1014 66 0 3.74 336 11:38 08.07.2020
150 Clear 12 1013 64 0 4.48 328 11:20 08.07.2020
151 Clear 12 1013 64 0 4.48 328 10:54 08.07.2020
152 Clear 12 1013 64 0 4.48 328 10:36 08.07.2020
153 Clear 13 1013 64 0 4.77 315 10:18 08.07.2020
154 Clear 13 1013 64 0 4.77 315 09:41 08.07.2020
155 Clear 13 1012 64 0 5.03 308 09:21 08.07.2020
156 Clear 13 1012 64 0 4.75 301 08:43 08.07.2020
157 Clear 13 1012 65 0 5.12 291 08:24 08.07.2020
158 Clear 13 1012 65 0 5.12 291 07:47 08.07.2020
159 Clear 13 1012 66 0 5.55 285 07:24 08.07.2020
160 Clear 13 1012 66 0 5.55 285 06:55 08.07.2020
161 Clear 13 1012 66 0 5.55 285 06:35 08.07.2020
162 Clear 12 1011 67 0 6.02 278 05:55 08.07.2020
163 Clear 12 1011 67 0 6.72 272 05:20 08.07.2020
164 Clear 12 1011 67 0 6.72 272 04:32 08.07.2020
165 Clouds 10 1009 72 0 7.51 248 02:22 08.07.2020
166 Clouds 10 1009 73 0 7.5 251 01:46 08.07.2020
167 Clouds 10 1009 75 0 7.77 247 01:23 08.07.2020
168 Clouds 9 1008 77 0 7.77 243 00:26 08.07.2020
169 Clouds 9 1008 77 0 7.77 243 23:56 07.07.2020
170 Clouds 9 1008 77 0 7.77 243 23:37 07.07.2020
171 Clouds 9 1007 79 0 7.49 237 23:19 07.07.2020
172 Clouds 9 1007 79 0 7.49 237 22:43 07.07.2020
173 Clouds 9 1007 80 0 6.67 240 22:23 07.07.2020
174 Clouds 9 1007 80 0 6.67 240 21:59 07.07.2020
175 Clouds 9 1007 80 0 6.67 240 21:40 07.07.2020
176 Clouds 10 1007 78 0 6.37 237 21:21 07.07.2020
177 Clouds 10 1007 78 0 6.37 237 20:57 07.07.2020
178 Clouds 10 1007 78 0 6.37 237 20:39 07.07.2020
179 Clear 11 1007 76 0 6.58 241 20:20 07.07.2020
180 Clear 11 1007 76 0 6.58 241 19:41 07.07.2020
181 Clear 11 1006 73 0 7.07 252 19:21 07.07.2020
182 Clear 11 1006 73 0 7.07 252 18:57 07.07.2020
183 Clear 11 1006 73 0 7.07 252 18:38 07.07.2020
184 Clear 11 1006 73 0 7.07 252 18:38 07.07.2020
185 Clear 12 1006 70 0 8.1 253 18:20 07.07.2020
186 Clear 12 1006 70 0 8.1 253 17:58 07.07.2020
187 Clear 12 1006 70 0 8.1 253 17:38 07.07.2020
188 Clear 13 1006 69 0 8.71 259 17:20 07.07.2020
189 Clear 13 1006 69 0 8.71 259 17:20 07.07.2020
190 Clear 13 1006 69 0 8.71 259 16:43 07.07.2020
191 Clear 15 1006 65 0 9.81 253 16:24 07.07.2020
192 Clear 15 1006 65 0 9.81 253 15:58 07.07.2020
193 Clear 15 1006 65 0 9.81 253 15:39 07.07.2020
194 Rain 15 1005 74 0 8.28 261 15:20 07.07.2020
195 Rain 15 1005 74 0 8.28 261 14:47 07.07.2020
196 Rain 16 1005 68 0 7.79 272 14:26 07.07.2020
197 Clear 15 1005 67 0 8.94 267 13:59 07.07.2020
198 Clear 15 1005 67 0 8.94 267 13:38 07.07.2020
199 Clear 16 1004 66 0 7.32 265 13:18 07.07.2020
200 Clear 16 1004 66 0 7.32 265 12:40 07.07.2020
201 Clear 15 1003 70 0 7.71 269 12:22 07.07.2020
202 Clear 15 1003 70 0 7.71 269 11:50 07.07.2020
203 Clear 16 1002 68 0 7.94 263 11:26 07.07.2020
204 Clear 16 1002 68 0 7.94 263 10:59 07.07.2020
205 Clear 16 1002 68 0 7.94 263 10:41 07.07.2020
206 Clear 16 1002 75 0 7.97 263 10:22 07.07.2020
207 Clear 16 1002 75 0 7.97 263 09:59 07.07.2020
208 Clear 16 1002 75 0 7.97 263 09:38 07.07.2020
209 Clear 16 1001 81 0 7.79 252 09:19 07.07.2020
210 Clear 16 1001 81 0 7.79 252 08:42 07.07.2020
211 Rain 16 1001 83 0 8.43 253 08:23 07.07.2020
212 Rain 16 1001 83 0 8.43 253 07:43 07.07.2020
213 Rain 15 1001 88 0 8.02 234 07:22 07.07.2020
214 Rain 15 1001 88 0 8.02 234 06:49 07.07.2020
215 Rain 17 1001 79 0 8.47 222 06:29 07.07.2020
216 Rain 17 1001 79 0 8.47 222 05:53 07.07.2020
217 Rain 17 1001 78 0 7.29 204 05:22 07.07.2020
218 Rain 17 1001 78 0 7.29 204 04:38 07.07.2020
219 Clouds 16 1001 78 0 6.62 189 03:35 07.07.2020
220 Rain 15 1001 78 0 5.44 173 02:27 07.07.2020
221 Clouds 14 1002 82 0 5.07 172 01:23 07.07.2020
222 Clouds 14 1002 82 0 5.07 172 00:43 07.07.2020
223 Clouds 14 1002 83 0 4.89 174 00:24 07.07.2020
224 Clouds 14 1002 83 0 4.89 174 23:55 06.07.2020
225 Clouds 14 1002 83 0 4.89 174 23:37 06.07.2020
226 Clouds 15 1003 80 0 5.5 179 23:18 06.07.2020
227 Clouds 15 1003 80 0 5.5 179 22:41 06.07.2020
228 Clouds 14 1003 80 0 4.38 169 22:20 06.07.2020
229 Clouds 14 1003 80 0 4.38 169 21:57 06.07.2020
230 Clouds 14 1003 80 0 4.38 169 21:39 06.07.2020
231 Clouds 14 1003 80 0 4.38 169 21:39 06.07.2020
232 Clouds 15 1003 75 0 3.38 152 21:19 06.07.2020
233 Clouds 15 1003 75 0 3.38 152 20:59 06.07.2020
234 Clouds 15 1003 75 0 3.38 152 20:38 06.07.2020
235 Clouds 15 1003 72 0 3.74 129 20:20 06.07.2020
236 Clouds 15 1003 72 0 3.74 129 19:56 06.07.2020
237 Clouds 15 1003 72 0 3.74 129 19:38 06.07.2020
238 Clouds 15 1003 71 0 4.07 115 19:20 06.07.2020
239 Clouds 15 1003 71 0 4.07 115 18:55 06.07.2020
240 Clouds 15 1003 71 0 4.07 115 18:36 06.07.2020
241 Clouds 16 1004 70 0 3.68 101 18:18 06.07.2020
242 Clouds 16 1004 70 0 3.68 101 17:41 06.07.2020
243 Clouds 16 1004 67 0 3.37 102 17:23 06.07.2020
244 Clouds 16 1004 67 0 3.37 102 16:55 06.07.2020
245 Clouds 16 1004 67 0 3.37 102 16:37 06.07.2020
246 Clouds 16 1004 65 0 3.53 107 16:18 06.07.2020
247 Clouds 16 1004 65 0 3.53 107 15:42 06.07.2020
248 Clouds 16 1004 64 0 3.41 95 15:24 06.07.2020
249 Clouds 16 1004 64 0 3.41 95 14:56 06.07.2020
250 Clouds 16 1004 64 0 3.41 95 14:37 06.07.2020
251 Clouds 14 1004 73 0 3.41 82 14:19 06.07.2020
252 Clouds 14 1004 73 0 3.41 82 13:46 06.07.2020
253 Clouds 14 1004 74 0 2.31 65 13:27 06.07.2020
254 Clouds 14 1004 74 0 2.31 65 12:57 06.07.2020
255 Clouds 14 1004 74 0 2.31 65 12:39 06.07.2020
256 Clouds 14 1004 73 0 2.05 71 12:18 06.07.2020
257 Clouds 14 1004 73 0 2.05 71 11:57 06.07.2020
258 Clouds 14 1004 73 0 2.05 71 11:37 06.07.2020
259 Clouds 14 1004 68 0 2.84 63 11:18 06.07.2020
260 Clouds 14 1004 68 0 2.84 63 10:42 06.07.2020
261 Clouds 15 1004 63 0 1.64 20 10:21 06.07.2020
262 Clouds 15 1004 63 0 1.64 20 09:56 06.07.2020
263 Clouds 15 1004 63 0 1.64 20 09:38 06.07.2020
264 Clouds 15 1004 64 0 1.39 284 09:20 06.07.2020
265 Clouds 15 1004 64 0 1.39 284 08:41 06.07.2020
266 Clouds 14 1004 70 0 1.73 261 08:23 06.07.2020
267 Clouds 14 1004 70 0 1.73 261 07:54 06.07.2020
268 Clouds 14 1004 70 0 1.73 261 07:36 06.07.2020
269 Clouds 14 1004 77 0 2.2 247 06:57 06.07.2020
270 Clouds 14 1004 77 0 2.2 247 06:39 06.07.2020
271 Clouds 14 1005 81 0 2.71 233 06:19 06.07.2020
272 Clouds 13 1005 84 0 2.7 216 05:29 06.07.2020
273 Clouds 13 1005 84 0 2.7 216 04:36 06.07.2020
274 Clear 12 1005 83 0 1.86 151 02:50 06.07.2020
275 Clouds 12 1005 85 0 2.54 168 02:19 06.07.2020
276 Clouds 12 1005 83 0 3.29 149 00:59 06.07.2020
277 Clouds 12 1005 83 0 3.29 149 00:32 06.07.2020
278 Clouds 12 1005 82 0 4.5 130 23:59 05.07.2020
279 Clouds 12 1005 82 0 4.5 130 23:40 05.07.2020
280 Rain 12 1005 83 0 6.02 120 23:22 05.07.2020
281 Rain 12 1005 83 0 6.02 120 22:58 05.07.2020
282 Rain 12 1005 83 0 6.02 120 22:38 05.07.2020
283 Clouds 12 1005 86 0 6.53 114 22:19 05.07.2020
284 Clouds 12 1005 86 0 6.53 114 21:56 05.07.2020
285 Clouds 12 1005 86 0 6.53 114 21:37 05.07.2020
286 Rain 12 1005 77 0 4.61 94 21:18 05.07.2020
287 Rain 12 1005 77 0 4.61 94 20:42 05.07.2020
288 Rain 12 1005 80 0 3.13 92 20:24 05.07.2020
289 Rain 12 1005 80 0 3.13 92 19:58 05.07.2020
290 Rain 12 1005 80 0 3.13 92 19:40 05.07.2020
291 Clouds 12 1006 74 0 5.97 110 19:20 05.07.2020
292 Clouds 12 1006 74 0 5.97 110 18:55 05.07.2020
293 Clouds 12 1006 74 0 5.97 110 18:36 05.07.2020
294 Clouds 12 1006 71 0 7.95 98 18:18 05.07.2020
295 Clouds 12 1006 71 0 7.95 98 17:41 05.07.2020
296 Clouds 12 1006 71 0 7.95 98 17:41 05.07.2020
297 Clouds 11 1006 72 0 8.05 95 17:19 05.07.2020
298 Clouds 11 1006 72 0 8.05 95 16:45 05.07.2020
299 Clouds 12 1007 70 0 7.55 88 16:26 05.07.2020
300 Clouds 12 1007 70 0 7.55 88 15:59 05.07.2020
301 Clouds 12 1007 70 0 7.55 88 15:39 05.07.2020
302 Clouds 13 1007 68 0 7.01 87 15:19 05.07.2020
303 Clouds 13 1007 68 0 7.01 87 14:42 05.07.2020
304 Clouds 13 1007 68 0 7.01 87 14:42 05.07.2020
305 Clouds 13 1007 69 0 6.51 79 14:23 05.07.2020
306 Clouds 12 1007 71 0 8.39 79 13:58 05.07.2020
307 Clouds 12 1007 71 0 8.39 79 13:40 05.07.2020
308 Clouds 13 1007 68 0 6.83 80 13:20 05.07.2020
309 Clouds 13 1007 68 0 6.83 80 12:42 05.07.2020
310 Clouds 14 1007 66 0 5.64 81 12:20 05.07.2020
311 Clouds 14 1007 66 0 5.64 81 11:55 05.07.2020
312 Clouds 14 1007 66 0 5.64 81 11:37 05.07.2020
313 Clouds 15 1008 60 0 4.04 88 11:18 05.07.2020
314 Clouds 15 1008 60 0 4.04 88 10:42 05.07.2020
315 Clouds 14 1008 61 0 3.42 96 10:20 05.07.2020
316 Clouds 14 1008 61 0 3.42 96 10:20 05.07.2020
317 Clouds 14 1008 61 0 3.42 96 09:59 05.07.2020
318 Clouds 14 1008 61 0 3.42 96 09:41 05.07.2020
319 Clouds 14 1008 62 0 3.13 123 09:20 05.07.2020
320 Clouds 14 1008 62 0 3.13 123 08:53 05.07.2020
321 Clouds 14 1008 62 0 3.13 123 08:34 05.07.2020
322 Clouds 14 1009 63 0 3.48 106 07:51 05.07.2020
323 Clouds 14 1009 63 0 3.48 106 07:30 05.07.2020
324 Clouds 12 1008 74 0 3.5 91 06:54 05.07.2020
325 Clouds 12 1009 72 0 3.31 86 06:20 05.07.2020
326 Clear 11 1009 74 0 1.06 99 03:54 05.07.2020
327 Clear 11 1009 77 0 0.96 106 02:47 05.07.2020
328 Clear 10 1009 80 0 1.06 113 02:29 05.07.2020
329 Clouds 11 1009 80 0 2.55 112 01:42 05.07.2020
330 Clouds 11 1009 82 0 1.97 123 01:20 05.07.2020
331 Clouds 11 1009 82 0 1.97 123 00:42 05.07.2020
332 Clouds 10 1009 83 0 1.8 125 00:24 05.07.2020
333 Clouds 10 1009 83 0 1.8 125 23:53 04.07.2020
334 Clouds 10 1009 83 0 1.8 125 23:31 04.07.2020
335 Clear 10 1009 83 0 2.4 127 22:58 04.07.2020
336 Clear 10 1009 83 0 2.4 127 22:40 04.07.2020
337 Clear 10 1010 81 0 3.31 108 22:21 04.07.2020
338 Clear 10 1010 81 0 3.31 108 21:55 04.07.2020
339 Clear 10 1010 78 0 3.13 99 21:36 04.07.2020
340 Clear 10 1010 75 0 3.95 93 21:18 04.07.2020
341 Clear 10 1010 75 0 3.95 93 20:41 04.07.2020
342 Clear 10 1010 74 0 4.13 91 20:20 04.07.2020
343 Clear 10 1010 74 0 4.13 91 19:55 04.07.2020
344 Clear 10 1010 74 0 4.13 91 19:36 04.07.2020
345 Clear 11 1010 73 0 4.64 87 19:18 04.07.2020
346 Clear 11 1010 73 0 4.64 87 18:42 04.07.2020
347 Clear 11 1010 72 0 5.08 85 18:22 04.07.2020
348 Clear 11 1010 72 0 5.08 85 17:44 04.07.2020
349 Clear 12 1010 71 0 5.2 81 17:26 04.07.2020
350 Clear 12 1010 71 0 5.2 81 16:58 04.07.2020
351 Clear 12 1010 71 0 5.2 81 16:39 04.07.2020
352 Clear 12 1010 70 0 5.29 81 16:21 04.07.2020
353 Clear 12 1010 70 0 5.29 81 15:56 04.07.2020
354 Clear 12 1010 70 0 5.29 81 15:37 04.07.2020
355 Clear 12 1011 68 0 5.66 83 15:19 04.07.2020
356 Clear 12 1011 68 0 5.66 83 14:39 04.07.2020
357 Clouds 14 1011 71 0 3.67 88 14:20 04.07.2020
358 Clouds 14 1011 71 0 3.67 88 13:59 04.07.2020
359 Clouds 14 1011 71 0 3.67 88 13:41 04.07.2020
360 Clouds 14 1011 69 0 2.18 75 13:18 04.07.2020
361 Clouds 14 1011 69 0 2.18 75 12:43 04.07.2020
362 Rain 14 1010 69 0 1.38 85 12:22 04.07.2020
363 Rain 14 1010 69 0 1.38 85 11:57 04.07.2020
364 Rain 14 1010 69 0 1.38 85 11:38 04.07.2020
365 Rain 15 1010 67 0 1.74 75 11:19 04.07.2020
366 Rain 15 1010 67 0 1.74 75 10:42 04.07.2020
367 Rain 15 1011 67 0 1.83 75 10:22 04.07.2020
368 Rain 15 1011 67 0 1.83 75 09:59 04.07.2020
369 Rain 15 1011 67 0 1.83 75 09:38 04.07.2020
370 Rain 14 1011 66 0 1.9 107 09:20 04.07.2020
371 Rain 14 1011 66 0 1.9 107 08:48 04.07.2020
372 Rain 14 1011 66 0 1.9 107 08:30 04.07.2020
373 Rain 14 1011 66 0 1.9 107 08:30 04.07.2020
374 Clouds 14 1012 66 0 1.66 129 07:50 04.07.2020
375 Clouds 14 1012 66 0 1.66 129 07:31 04.07.2020
376 Clouds 14 1011 67 0 2.17 124 06:56 04.07.2020
377 Clouds 14 1011 67 0 2.18 143 06:23 04.07.2020
378 Clouds 14 1011 67 0 2.18 143 05:36 04.07.2020
379 Clouds 13 1011 70 0 2.14 170 04:50 04.07.2020
380 Clouds 11 1011 79 0 2.34 196 03:19 04.07.2020
381 Clear 11 1011 78 0 2.04 194 02:27 04.07.2020
382 Clear 11 1011 78 0 2.04 194 01:35 04.07.2020
383 Clear 11 1011 80 0 2.35 204 00:44 04.07.2020
384 Clear 11 1011 81 0 2.33 213 00:26 04.07.2020
385 Clear 11 1011 81 0 2.33 213 23:41 03.07.2020
386 Clear 11 1011 80 0 2.41 213 23:19 03.07.2020
387 Clear 11 1011 80 0 2.41 213 22:59 03.07.2020
388 Clear 11 1011 80 0 2.41 213 22:39 03.07.2020
389 Clear 11 1011 79 0 2.57 193 22:21 03.07.2020
390 Clear 11 1011 79 0 2.57 193 21:43 03.07.2020
391 Clear 12 1011 75 0 2.78 186 21:20 03.07.2020
392 Clear 12 1011 75 0 2.78 186 20:58 03.07.2020
393 Clear 12 1011 75 0 2.78 186 20:39 03.07.2020
394 Clouds 13 1011 71 0 3.51 133 20:21 03.07.2020
395 Clouds 13 1011 71 0 3.51 133 19:42 03.07.2020
396 Clouds 13 1011 68 0 4.23 110 19:21 03.07.2020
397 Clouds 13 1011 68 0 4.23 110 18:57 03.07.2020
398 Clouds 13 1011 68 0 4.23 110 18:39 03.07.2020
399 Clouds 14 1011 61 0 3.47 114 18:20 03.07.2020
400 Clouds 14 1011 61 0 3.47 114 17:44 03.07.2020
401 Clouds 14 1011 58 0 3.48 125 17:22 03.07.2020
402 Clouds 14 1011 58 0 3.48 125 16:47 03.07.2020
403 Clouds 14 1011 59 0 4.23 132 16:29 03.07.2020
404 Clouds 14 1011 59 0 4.23 132 15:57 03.07.2020
405 Clouds 14 1011 59 0 4.23 132 15:38 03.07.2020
406 Clouds 14 1011 59 0 6.59 114 15:20 03.07.2020
407 Clouds 14 1011 59 0 6.59 114 14:41 03.07.2020
408 Clouds 15 1012 54 0 5.93 107 14:22 03.07.2020
409 Clouds 15 1011 57 0 7.55 119 13:59 03.07.2020
410 Clouds 15 1011 57 0 7.55 119 13:40 03.07.2020
411 Clouds 16 1011 53 0 6.76 118 13:21 03.07.2020
412 Clouds 16 1011 53 0 6.76 118 12:40 03.07.2020
413 Clouds 16 1011 54 0 6.56 114 12:21 03.07.2020
414 Clouds 16 1011 54 0 6.56 114 11:44 03.07.2020
415 Clouds 16 1011 51 0 6.04 111 11:25 03.07.2020
416 Clouds 16 1011 51 0 6.04 111 10:59 03.07.2020
417 Clouds 16 1011 51 0 6.04 111 10:41 03.07.2020
418 Clouds 16 1011 50 0 5.26 115 10:21 03.07.2020
419 Clouds 16 1011 50 0 5.26 115 09:58 03.07.2020
420 Clouds 16 1011 50 0 5.26 115 09:38 03.07.2020
421 Clouds 16 1011 50 0 5.26 115 09:38 03.07.2020
422 Clouds 15 1011 52 0 4.78 136 09:19 03.07.2020
423 Clouds 15 1011 52 0 4.78 136 08:55 03.07.2020
424 Clouds 15 1011 52 0 4.78 136 08:37 03.07.2020
425 Clouds 15 1011 52 0 4.78 136 08:37 03.07.2020
426 Clouds 15 1011 52 0 4.57 144 08:18 03.07.2020
427 Clouds 15 1011 52 0 4.57 144 07:41 03.07.2020
428 Clouds 15 1011 52 0 4.21 145 07:21 03.07.2020
429 Clouds 14 1011 53 0 3.83 156 06:25 03.07.2020
430 Clouds 14 1012 56 0 4.06 173 05:28 03.07.2020
431 Clouds 14 1012 58 0 4.84 178 03:54 03.07.2020
432 Clouds 13 1012 60 0 5.32 173 02:50 03.07.2020
433 Clouds 13 1012 60 0 5.32 173 02:30 03.07.2020
434 Clouds 12 1012 65 0 4.67 163 01:30 03.07.2020
435 Clouds 12 1012 66 0 4.3 154 00:58 03.07.2020
436 Clouds 12 1012 66 0 4.3 154 00:40 03.07.2020
437 Clouds 12 1012 66 0 4.52 155 23:53 02.07.2020
438 Clouds 12 1012 66 0 4.52 155 23:53 02.07.2020
439 Clouds 12 1012 68 0 4.55 156 23:21 02.07.2020
440 Clouds 12 1012 68 0 4.55 156 22:59 02.07.2020
441 Clouds 12 1012 68 0 4.55 156 22:41 02.07.2020
442 Clouds 13 1012 67 0 4.42 155 22:21 02.07.2020
443 Clouds 13 1012 67 0 4.42 155 21:58 02.07.2020
444 Clouds 13 1012 67 0 4.42 155 21:39 02.07.2020
445 Clouds 13 1012 67 0 4.58 164 21:19 02.07.2020
446 Clouds 13 1012 67 0 4.58 164 20:58 02.07.2020
447 Clouds 13 1012 67 0 4.58 164 20:39 02.07.2020
448 Clouds 14 1012 68 0 4.23 159 20:19 02.07.2020
449 Clouds 14 1012 68 0 4.23 159 19:42 02.07.2020
450 Clouds 14 1012 66 0 2.75 161 19:24 02.07.2020
451 Clouds 14 1012 66 0 2.75 161 18:58 02.07.2020
452 Clouds 14 1012 66 0 2.75 161 18:40 02.07.2020
453 Clouds 14 1012 62 0 2.61 179 18:21 02.07.2020
454 Clouds 14 1012 62 0 2.61 179 17:55 02.07.2020
455 Clouds 14 1012 62 0 2.61 179 17:37 02.07.2020
456 Clouds 15 1012 58 0 2.61 192 17:18 02.07.2020
457 Clouds 15 1012 58 0 2.61 192 16:41 02.07.2020
458 Clouds 16 1012 54 0 3.56 202 16:20 02.07.2020
459 Clouds 16 1012 54 0 3.56 202 15:56 02.07.2020
460 Clouds 16 1012 54 0 3.56 202 15:38 02.07.2020
461 Clouds 16 1012 51 0 4.69 203 15:19 02.07.2020
462 Clouds 16 1012 51 0 4.69 203 14:44 02.07.2020
463 Clouds 16 1011 51 0 5.35 205 14:22 02.07.2020
464 Clouds 16 1012 53 0 5.02 211 13:57 02.07.2020
465 Clouds 16 1012 53 0 5.02 211 13:38 02.07.2020
466 Clouds 16 1012 53 0 5.69 214 13:18 02.07.2020
467 Clouds 16 1012 53 0 5.69 214 12:41 02.07.2020
468 Clouds 16 1011 53 0 6.49 215 12:22 02.07.2020
469 Clouds 16 1011 53 0 6.49 215 11:59 02.07.2020
470 Clouds 16 1011 53 0 6.49 215 11:40 02.07.2020
471 Clouds 16 1011 54 0 6.99 214 11:22 02.07.2020
472 Clouds 16 1011 54 0 6.99 214 10:43 02.07.2020
473 Clouds 16 1011 54 0 7.47 213 10:25 02.07.2020
474 Clouds 16 1011 54 0 7.47 213 09:55 02.07.2020
475 Clouds 16 1011 54 0 7.47 213 09:36 02.07.2020
476 Clouds 16 1011 54 0 8 211 09:18 02.07.2020
477 Clouds 16 1011 54 0 8 211 08:42 02.07.2020
478 Clouds 15 1010 55 0 8.05 207 08:21 02.07.2020
479 Clouds 15 1010 55 0 8.05 207 07:43 02.07.2020
480 Clouds 14 1010 59 0 7.47 203 07:23 02.07.2020
481 Clouds 14 1010 59 0 7.47 203 06:53 02.07.2020
482 Clouds 14 1010 59 0 7.47 203 06:34 02.07.2020
483 Clouds 13 1010 62 0 7.57 197 05:50 02.07.2020
484 Clouds 12 1010 65 0 7.73 194 05:19 02.07.2020
485 Clouds 12 1009 67 0 7.71 190 03:35 02.07.2020
486 Clouds 11 1009 70 0 7.9 189 01:53 02.07.2020
487 Clouds 11 1009 71 0 7.79 192 00:45 02.07.2020
488 Clouds 11 1009 72 0 7.85 192 00:21 02.07.2020
489 Clouds 11 1009 72 0 7.85 192 23:45 01.07.2020
490 Clouds 11 1009 73 0 8 193 23:26 01.07.2020
491 Clouds 11 1009 73 0 8 193 22:55 01.07.2020
492 Clouds 11 1009 73 0 8 193 22:37 01.07.2020
493 Clouds 11 1009 73 0 8.08 191 22:18 01.07.2020
494 Clouds 11 1009 73 0 8.08 191 22:18 01.07.2020
495 Clouds 11 1009 73 0 8.08 191 21:56 01.07.2020
496 Clouds 11 1009 73 0 8.08 191 21:38 01.07.2020
497 Clouds 11 1008 71 0 7.85 196 21:19 01.07.2020
498 Clouds 11 1008 68 0 7.58 200 20:46 01.07.2020
499 Clouds 11 1008 70 0 6.79 201 20:26 01.07.2020
500 Clouds 11 1008 70 0 6.79 201 19:58 01.07.2020
501 Clouds 11 1008 70 0 6.79 201 19:39 01.07.2020
502 Clouds 11 1008 71 0 6.59 210 19:20 01.07.2020
503 Clouds 11 1008 71 0 6.59 210 18:56 01.07.2020
504 Clouds 11 1008 71 0 6.59 210 18:38 01.07.2020
505 Clouds 12 1008 69 0 6.5 213 18:20 01.07.2020
506 Clouds 12 1008 69 0 6.5 213 17:41 01.07.2020
507 Clouds 12 1008 67 0 6.36 220 17:20 01.07.2020
508 Clouds 12 1008 67 0 6.36 220 16:49 01.07.2020
509 Clouds 13 1008 65 0 6.31 222 16:29 01.07.2020
510 Clouds 13 1008 65 0 6.31 222 15:59 01.07.2020
511 Clouds 13 1008 65 0 6.31 222 15:41 01.07.2020
512 Clouds 13 1007 63 0 6.36 225 15:22 01.07.2020
513 Clouds 13 1007 63 0 6.36 225 14:55 01.07.2020
514 Clouds 13 1007 63 0 6.36 225 14:37 01.07.2020
515 Clouds 13 1007 62 0 6.86 228 14:19 01.07.2020
516 Clouds 13 1007 64 0 6.87 227 13:40 01.07.2020
517 Clouds 13 1007 65 0 7.94 233 13:22 01.07.2020
518 Clouds 13 1007 65 0 7.94 233 12:59 01.07.2020
519 Clouds 13 1007 65 0 7.94 233 12:40 01.07.2020
520 Clouds 13 1007 66 0 9 237 12:22 01.07.2020
521 Clouds 13 1007 66 0 9 237 11:56 01.07.2020
522 Clouds 13 1007 66 0 9 237 11:56 01.07.2020
523 Clouds 13 1007 66 0 9 237 11:37 01.07.2020
524 Clouds 13 1007 69 0 9.48 226 11:18 01.07.2020
525 Clouds 13 1007 69 0 9.48 226 10:42 01.07.2020
526 Clouds 9 1007 86 0 9.21 212 10:23 01.07.2020
527 Clouds 9 1007 86 0 9.21 212 09:59 01.07.2020
528 Clouds 9 1007 86 0 9.21 212 09:59 01.07.2020
529 Clouds 9 1007 86 0 9.21 212 09:38 01.07.2020
530 Clouds 9 1007 84 0 9.73 214 09:19 01.07.2020
531 Clouds 9 1007 84 0 9.73 214 08:55 01.07.2020
532 Clouds 9 1007 84 0 9.73 214 08:37 01.07.2020
533 Rain 8 1007 90 0 9.17 212 08:18 01.07.2020
534 Rain 8 1007 90 0 9.17 212 07:39 01.07.2020
535 Rain 7 1007 91 0 8.56 217 07:20 01.07.2020
536 Rain 7 1007 91 0 8.56 217 06:50 01.07.2020
537 Rain 6 1006 86 0 8.39 223 06:28 01.07.2020
538 Clouds 6 1006 82 0 7.3 218 05:23 01.07.2020
539 Clouds 5 1006 84 0 6.52 223 03:48 01.07.2020
540 Clouds 5 1006 78 0 6.82 230 03:27 01.07.2020
541 Clouds 5 1006 78 0 6.82 230 02:41 01.07.2020
542 Clouds 4 1005 78 0 7.06 234 01:48 01.07.2020
543 Clouds 3 1005 83 0 7.06 233 00:43 01.07.2020
544 Clouds 3 1004 86 0 7.02 234 00:25 01.07.2020
545 Clouds 3 1004 86 0 7.02 234 23:42 30.06.2020
546 Clouds 3 1004 87 0 7.44 238 23:23 30.06.2020
547 Clouds 3 1004 87 0 7.44 238 22:59 30.06.2020
548 Clouds 3 1004 87 0 7.44 238 22:40 30.06.2020
549 Clouds 3 1004 86 0 7.79 239 22:18 30.06.2020
550 Clouds 3 1004 86 0 7.79 239 21:41 30.06.2020
551 Clouds 3 1003 83 0 8.81 242 21:19 30.06.2020
552 Clouds 3 1003 83 0 8.81 242 20:54 30.06.2020
553 Clouds 3 1003 83 0 8.81 242 20:36 30.06.2020
554 Clouds 3 1003 83 0 9.05 243 20:18 30.06.2020
555 Clouds 3 1003 83 0 9.05 243 19:41 30.06.2020
556 Clouds 4 1003 81 0 9.35 245 19:19 30.06.2020
557 Clouds 4 1003 81 0 9.35 245 18:43 30.06.2020
558 Clouds 4 1002 80 0 9.74 247 18:21 30.06.2020
559 Clouds 4 1002 80 0 9.74 247 17:59 30.06.2020
560 Clouds 4 1002 80 0 9.74 247 17:37 30.06.2020
561 Clouds 4 1002 80 0 10.14 249 17:19 30.06.2020
562 Clouds 4 1002 80 0 10.14 249 16:43 30.06.2020
563 Clouds 4 1001 81 0 10.54 251 16:24 30.06.2020
564 Clouds 4 1001 81 0 10.54 251 15:59 30.06.2020
565 Clouds 4 1001 81 0 10.54 251 15:40 30.06.2020
566 Clouds 4 1001 82 0 11.01 253 15:21 30.06.2020
567 Clouds 4 1001 82 0 11.01 253 14:54 30.06.2020
568 Clouds 4 1001 82 0 11.01 253 14:36 30.06.2020
569 Clouds 5 1001 83 0 10.28 257 14:18 30.06.2020
570 Clouds 5 1001 83 0 10.28 257 13:40 30.06.2020
571 Clouds 5 1000 84 0 10.21 259 13:20 30.06.2020
572 Clouds 5 1000 84 0 10.21 259 12:57 30.06.2020
573 Clouds 5 1000 84 0 10.21 259 12:39 30.06.2020
574 Clouds 5 1000 84 0 10.08 260 12:20 30.06.2020
575 Clouds 5 1000 84 0 10.08 260 11:57 30.06.2020
576 Clouds 5 1000 84 0 10.08 260 11:38 30.06.2020
577 Clouds 5 1000 84 0 10.08 260 11:38 30.06.2020
578 Clouds 5 999 83 0 9.96 261 11:19 30.06.2020
579 Clouds 5 999 83 0 9.96 261 10:55 30.06.2020
580 Clouds 4 1002 93 0 4.97 299 16:38 28.06.2020
581 Clouds 5 1002 92 0 5.17 289 16:19 28.06.2020
582 Clouds 5 1002 92 0 5.17 289 15:55 28.06.2020
583 Clouds 5 1002 92 0 5.17 289 15:37 28.06.2020
584 Clouds 4 1002 92 0 6 286 15:18 28.06.2020
585 Clouds 4 1002 92 0 6 286 14:42 28.06.2020
586 Clouds 4 1002 92 0 6.23 286 14:24 28.06.2020
587 Clouds 3 1002 95 0 5.13 283 13:55 28.06.2020
588 Clouds 3 1002 95 0 5.13 283 13:36 28.06.2020
589 Clouds 3 1002 95 0 5.17 294 13:18 28.06.2020
590 Clouds 3 1002 95 0 5.17 294 13:18 28.06.2020
591 Clouds 3 1002 95 0 5.17 294 12:55 28.06.2020
592 Clouds 3 1002 95 0 5.17 294 12:55 28.06.2020
593 Clouds 3 1002 95 0 5.17 294 12:36 28.06.2020
594 Clouds 3 1001 95 0 5.25 305 12:18 28.06.2020
595 Clouds 3 1001 95 0 5.25 305 11:42 28.06.2020
596 Clouds 3 1001 95 0 5.54 310 11:21 28.06.2020
597 Clouds 3 1001 95 0 5.54 310 11:21 28.06.2020
598 -273 0 0 0 0 0 10:59 28.06.2020
599 Clouds 3 1001 95 0 5.54 310 10:40 28.06.2020
600 Clouds 3 1000 96 0 5.6 312 10:22 28.06.2020
601 Clouds 3 1000 96 0 5.6 312 09:42 28.06.2020
602 Rain 3 1000 96 0 5.26 319 09:23 28.06.2020
603 Rain 3 1000 96 0 5.26 319 08:57 28.06.2020
604 Rain 3 1000 96 0 5.26 319 08:38 28.06.2020
605 Rain 3 999 96 0 4.06 318 08:20 28.06.2020
606 Rain 3 999 96 0 4.06 318 07:33 28.06.2020
607 Rain 3 999 96 0 4.31 331 06:56 28.06.2020
608 Rain 3 999 96 0 4.31 331 06:32 28.06.2020
609 Rain 3 998 97 0 4.99 333 05:45 28.06.2020
610 Rain 3 998 97 0 5.81 332 04:27 28.06.2020
611 Rain 3 997 97 0 5.99 332 02:57 28.06.2020
612 Rain 3 998 96 0 6.23 338 02:20 28.06.2020
613 Rain 3 998 95 0 6.4 348 01:27 28.06.2020
614 Rain 3 998 95 0 6.4 348 00:55 28.06.2020
615 Rain 3 998 95 0 6.4 348 00:29 28.06.2020
616 Rain 2 997 95 0 7.96 352 23:46 27.06.2020
617 Rain 2 997 95 0 8.31 354 23:24 27.06.2020
618 Rain 2 997 95 0 8.31 354 22:59 27.06.2020
619 Rain 2 997 95 0 8.31 354 22:41 27.06.2020
620 Rain 2 997 95 0 9.36 357 22:23 27.06.2020
621 Rain 2 997 95 0 9.36 357 21:58 27.06.2020
622 Rain 2 997 95 0 9.36 357 21:40 27.06.2020
623 Rain 3 996 96 0 9.04 358 21:20 27.06.2020
624 Rain 3 996 96 0 9.04 358 20:45 27.06.2020
625 Rain 3 996 95 0 9.63 0 20:20 27.06.2020
626 Rain 3 996 95 0 9.63 0 19:59 27.06.2020
627 Rain 3 996 95 0 9.63 0 19:37 27.06.2020
628 Rain 3 996 94 0 10.13 2 19:19 27.06.2020
629 Rain 3 996 94 0 10.13 2 18:48 27.06.2020
630 Rain 3 995 95 0 9.49 3 18:28 27.06.2020
631 Rain 3 995 95 0 9.49 3 17:59 27.06.2020
632 Rain 3 995 95 0 9.49 3 17:40 27.06.2020
633 Rain 3 995 96 0 9.28 3 17:20 27.06.2020
634 Rain 3 995 96 0 9.28 3 16:56 27.06.2020
635 Rain 3 995 96 0 9.28 3 16:38 27.06.2020
636 Rain 3 996 96 0 8.88 357 16:18 27.06.2020
637 Rain 3 996 96 0 8.88 357 15:42 27.06.2020
638 Rain 3 996 95 0 8.54 352 15:23 27.06.2020
639 Rain 3 996 95 0 8.54 352 14:54 27.06.2020
640 Rain 3 996 95 0 8.54 352 14:36 27.06.2020
641 Rain 3 997 96 0 8.23 359 14:18 27.06.2020
642 Rain 3 997 96 0 8.23 359 13:39 27.06.2020
643 Rain 3 996 97 0 8.51 359 13:20 27.06.2020
644 Rain 3 996 97 0 8.51 359 12:58 27.06.2020
645 Rain 3 996 97 0 8.51 359 12:40 27.06.2020
646 Rain 3 996 96 0 8.85 356 12:21 27.06.2020
647 Rain 3 996 96 0 8.85 356 11:55 27.06.2020
648 Rain 3 996 96 0 8.85 356 11:37 27.06.2020
649 Rain 3 996 96 0 9.59 355 11:18 27.06.2020
650 Rain 3 996 96 0 9.59 355 11:18 27.06.2020
651 Rain 3 996 96 0 9.59 355 11:18 27.06.2020
652 Rain 3 996 96 0 9.59 355 10:39 27.06.2020
653 Rain 3 996 96 0 9.62 352 10:19 27.06.2020
654 Rain 3 996 96 0 9.62 352 09:41 27.06.2020
655 Rain 3 996 96 0 9.07 351 09:23 27.06.2020
656 Rain 3 997 96 0 8.56 357 08:59 27.06.2020
657 Rain 3 997 96 0 8.56 357 08:39 27.06.2020
658 Rain 3 998 95 0 9.45 349 08:21 27.06.2020
659 Rain 3 998 95 0 9.45 349 07:45 27.06.2020
660 Rain 3 998 95 0 10.33 356 07:24 27.06.2020
661 Rain 3 998 95 0 10.33 356 06:50 27.06.2020
662 Rain 3 998 95 0 10.33 356 06:29 27.06.2020
663 Rain 3 999 95 0 7.9 355 04:24 27.06.2020
664 Rain 3 999 95 0 7.9 355 03:53 27.06.2020
665 Rain 4 1000 93 0 6.21 349 03:23 27.06.2020
666 Rain 3 999 96 0 6.89 357 02:36 27.06.2020
667 Rain 4 1000 95 0 5.52 6 01:45 27.06.2020
668 Rain 4 1000 93 0 5.27 360 01:22 27.06.2020
669 Rain 4 1000 93 0 5.27 360 00:36 27.06.2020
670 Clouds 4 1000 95 0 6.26 344 23:46 26.06.2020
671 Rain 3 1001 97 0 6.9 343 23:26 26.06.2020
672 Rain 3 1001 97 0 6.9 343 22:57 26.06.2020
673 Rain 3 1001 97 0 6.9 343 22:38 26.06.2020
674 Rain 4 1002 98 0 6.94 343 22:19 26.06.2020
675 Rain 4 1002 98 0 6.94 343 21:57 26.06.2020
676 Rain 4 1002 98 0 6.94 343 21:37 26.06.2020
677 Rain 4 1003 97 0 6.71 341 21:19 26.06.2020
678 Rain 4 1003 97 0 6.71 341 20:43 26.06.2020
679 Rain 4 1004 97 0 6.5 341 20:21 26.06.2020
680 Rain 4 1004 97 0 6.5 341 19:47 26.06.2020
681 Rain 4 1005 95 0 6.03 345 19:23 26.06.2020
682 Rain 4 1005 95 0 6.03 345 18:57 26.06.2020
683 Rain 4 1005 95 0 6.03 345 18:37 26.06.2020
684 Rain 4 1005 93 0 5.44 350 18:19 26.06.2020
685 Rain 4 1005 93 0 5.44 350 17:44 26.06.2020
686 Rain 4 1006 90 0 5.18 354 17:24 26.06.2020
687 Rain 4 1006 90 0 5.18 354 16:49 26.06.2020
688 Clouds 5 1006 87 0 5.2 350 16:26 26.06.2020
689 Clouds 5 1006 87 0 5.2 350 15:55 26.06.2020
690 Clouds 5 1006 87 0 5.2 350 15:37 26.06.2020
691 Clouds 5 1007 87 0 4.87 356 15:19 26.06.2020
692 Clouds 5 1007 87 0 4.87 356 14:56 26.06.2020
693 Clouds 5 1007 87 0 4.87 356 14:38 26.06.2020
694 Clouds 5 1007 85 0 4.16 1 14:19 26.06.2020
695 Clouds 5 1007 85 0 4.16 1 13:44 26.06.2020
696 Clouds 5 1008 84 0 4.34 2 13:19 26.06.2020
697 Clouds 5 1008 84 0 4.34 2 12:42 26.06.2020
698 Clouds 5 1008 84 0 4.09 3 12:24 26.06.2020
699 Clouds 5 1008 84 0 4.09 3 11:59 26.06.2020
700 Clouds 5 1008 84 0 4.09 3 11:41 26.06.2020
701 Clouds 5 1008 84 0 3.62 11 11:22 26.06.2020
702 Clouds 5 1008 84 0 3.62 11 10:58 26.06.2020
703 Clouds 5 1008 84 0 3.62 11 10:58 26.06.2020
704 Clouds 5 1008 84 0 3.62 11 10:39 26.06.2020
705 Clouds 5 1008 87 0 3.7 26 10:19 26.06.2020
706 Clouds 5 1008 87 0 3.7 26 09:45 26.06.2020
707 Clouds 5 1008 89 0 3.3 27 09:26 26.06.2020
708 Clouds 5 1008 89 0 3.3 27 08:59 26.06.2020
709 Clouds 5 1008 89 0 3.3 27 08:41 26.06.2020
710 Clouds 4 1009 91 0 3.04 18 08:23 26.06.2020
711 Clouds 5 1009 93 0 2.28 24 07:44 26.06.2020
712 Rain 4 1009 93 0 2.95 18 07:22 26.06.2020
713 Rain 4 1009 93 0 2.95 18 06:47 26.06.2020
714 Rain 4 1009 94 0 2.53 35 06:28 26.06.2020
715 Rain 4 1009 94 0 2.53 35 05:51 26.06.2020
716 Rain 5 1009 95 0 2.37 30 04:44 26.06.2020
717 Clouds 5 1010 93 0 1.59 49 02:27 26.06.2020
718 Clouds 5 1010 93 0 1.29 59 01:25 26.06.2020
719 Clouds 5 1010 93 0 1.29 59 00:42 26.06.2020
720 Clouds 5 1009 93 0 0.97 71 00:20 26.06.2020
721 Clouds 5 1009 93 0 0.97 71 23:46 25.06.2020
722 Clouds 5 1009 93 0 0.71 84 23:21 25.06.2020
723 Clouds 5 1009 93 0 0.71 84 22:57 25.06.2020
724 Clouds 5 1009 93 0 0.71 84 22:38 25.06.2020
725 Clouds 5 1009 93 0 0.75 104 22:19 25.06.2020
726 Clouds 5 1009 93 0 0.75 104 21:56 25.06.2020
727 Clouds 5 1009 93 0 0.75 104 21:38 25.06.2020
728 Clouds 5 1010 91 0 0.5 98 21:20 25.06.2020
729 Clouds 5 1010 91 0 0.5 98 20:45 25.06.2020
730 Clouds 5 1010 91 0 0.68 106 20:24 25.06.2020
731 Clouds 5 1010 91 0 0.68 106 19:59 25.06.2020
732 Clouds 5 1010 91 0 0.68 106 19:40 25.06.2020
733 Clouds 5 1010 92 0 0.72 99 19:19 25.06.2020
734 Clouds 5 1010 92 0 0.72 99 19:19 25.06.2020
735 Clouds 5 1010 92 0 0.72 99 18:58 25.06.2020
736 Clouds 5 1010 92 0 0.72 99 18:38 25.06.2020
737 Clouds 5 1010 91 0 0.38 69 18:19 25.06.2020
738 Clouds 5 1010 91 0 0.38 69 17:42 25.06.2020
739 Clouds 5 1010 91 0 0.5 339 17:20 25.06.2020
740 Clouds 5 1010 91 0 0.5 339 17:20 25.06.2020
741 Clouds 5 1010 91 0 0.5 339 16:57 25.06.2020
742 Clouds 5 1010 91 0 0.5 339 16:57 25.06.2020
743 Clouds 5 1010 91 0 0.5 339 16:37 25.06.2020
744 Clouds 5 1010 91 0 1.66 327 16:18 25.06.2020
745 Clouds 5 1010 91 0 1.66 327 15:41 25.06.2020
746 Clouds 6 1010 87 0 2.56 309 15:22 25.06.2020
747 Clouds 6 1010 87 0 2.56 309 14:44 25.06.2020
748 Clouds 6 1010 84 0 0.67 248 14:25 25.06.2020
749 Clouds 6 1010 84 0 0.67 248 13:59 25.06.2020
750 Clouds 6 1010 84 0 0.67 248 13:41 25.06.2020
751 Clouds 6 1010 84 0 1.12 218 13:19 25.06.2020
752 Clouds 6 1010 84 0 1.12 218 12:46 25.06.2020
753 Clouds 6 1009 87 0 1.59 226 12:21 25.06.2020
754 Clouds 6 1009 87 0 1.59 226 11:59 25.06.2020
755 Clouds 6 1009 87 0 1.59 226 11:40 25.06.2020
756 Clouds 5 1009 88 0 2.21 240 11:21 25.06.2020
757 Clouds 5 1009 88 0 2.21 240 10:43 25.06.2020
758 Clouds 5 1009 90 0 2.58 243 10:25 25.06.2020
759 Clouds 5 1009 90 0 2.58 243 09:42 25.06.2020
760 Rain 5 1009 90 0 2.04 258 09:23 25.06.2020
761 Rain 5 1009 90 0 2.56 242 09:23 25.06.2020
762 Rain 5 1009 90 0 2.04 258 08:59 25.06.2020
763 Rain 5 1009 90 0 2.04 258 08:41 25.06.2020
764 Rain 5 1009 91 0 2.22 260 08:18 25.06.2020
765 Rain 5 1009 91 0 2.22 260 07:42 25.06.2020
766 Rain 5 1010 92 0 2.25 260 07:24 25.06.2020
767 Rain 5 1010 92 0 2.25 260 06:44 25.06.2020
768 Rain 5 1009 92 0 2.1 262 06:24 25.06.2020
769 Rain 5 1009 92 0 2.1 262 05:32 25.06.2020
770 Rain 5 1010 91 0 2.2 263 03:42 25.06.2020
771 Rain 5 1010 91 0 2.46 262 02:56 25.06.2020
772 Rain 5 1010 91 0 2.46 262 02:37 25.06.2020
773 Clouds 5 1009 88 0 2.89 254 01:42 25.06.2020
774 Clouds 5 1010 87 0 3.19 249 00:51 25.06.2020
775 Clouds 5 1010 87 0 3.19 249 00:51 25.06.2020
776 Clouds 5 1009 86 0 3.35 247 00:24 25.06.2020
777 Clouds 5 1009 86 0 3.35 247 23:58 24.06.2020
778 Clouds 5 1009 86 0 3.35 247 23:38 24.06.2020
779 Clouds 5 1009 85 0 3.29 242 23:19 24.06.2020
780 Clouds 5 1009 85 0 3.29 242 22:42 24.06.2020
781 Clouds 5 1009 85 0 3.29 242 22:42 24.06.2020
782 Clouds 5 1009 84 0 3.35 238 22:21 24.06.2020
783 Clouds 5 1009 84 0 3.35 238 21:57 24.06.2020
784 Clouds 5 1009 84 0 3.35 238 21:37 24.06.2020
785 Clouds 5 1010 85 0 3.1 254 21:19 24.06.2020
786 Clouds 5 1010 85 0 3.1 254 20:59 24.06.2020
787 Clouds 5 1010 85 0 3.1 254 20:40 24.06.2020
788 Clouds 5 1010 85 0 3.1 254 20:40 24.06.2020
789 Clouds 5 1010 83 0 3.6 270 20:21 24.06.2020
790 Clouds 5 1010 83 0 3.6 270 19:59 24.06.2020
791 Clouds 5 1010 83 0 3.6 270 19:39 24.06.2020
792 Rain 5 1010 81 0 3.77 265 19:20 24.06.2020
793 Rain 5 1010 81 0 3.77 265 18:58 24.06.2020
794 Rain 5 1010 81 0 3.77 265 18:39 24.06.2020
795 Rain 5 1010 81 0 3.77 265 18:39 24.06.2020
796 Rain 6 1010 77 0 4.32 263 18:20 24.06.2020
797 Rain 6 1010 77 0 4.32 263 17:56 24.06.2020
798 Rain 6 1010 77 0 4.32 263 17:37 24.06.2020
799 Clouds 6 1010 72 0 5.17 268 17:18 24.06.2020
800 Clouds 6 1010 72 0 5.17 268 17:18 24.06.2020
801 Clouds 6 1010 72 0 5.17 268 16:56 24.06.2020
802 Clouds 6 1010 72 0 5.17 268 16:56 24.06.2020
803 Clouds 6 1010 72 0 5.17 268 16:37 24.06.2020
804 Clouds 7 1010 66 0 4.9 268 16:19 24.06.2020
805 Clouds 7 1010 66 0 4.9 268 15:55 24.06.2020
806 Clouds 7 1010 66 0 4.9 268 15:37 24.06.2020
807 Clouds 8 1010 63 0 4.37 267 15:18 24.06.2020
808 Clouds 8 1010 63 0 4.37 267 14:42 24.06.2020
809 Clouds 8 1010 62 0 4.26 269 14:22 24.06.2020
810 Clouds 8 1010 62 0 4.26 269 13:43 24.06.2020
811 Clouds 8 1010 61 0 4.53 273 13:22 24.06.2020
812 Clouds 8 1010 61 0 4.53 273 12:54 24.06.2020
813 Clouds 8 1010 61 0 4.53 273 12:36 24.06.2020
814 Clouds 8 1010 60 0 4.69 267 12:18 24.06.2020
815 Clouds 8 1010 60 0 4.69 267 11:42 24.06.2020
816 Clouds 8 1010 60 0 4.74 256 11:24 24.06.2020
817 Clouds 8 1010 60 0 4.74 256 10:55 24.06.2020
818 Clouds 8 1010 60 0 4.74 256 10:36 24.06.2020
819 Clouds 7 1009 62 0 4.91 245 10:18 24.06.2020
820 Clouds 7 1009 62 0 4.91 245 09:42 24.06.2020
821 Clouds 7 1009 67 0 5.1 238 09:20 24.06.2020
822 Clouds 7 1009 67 0 5.1 238 08:41 24.06.2020
823 Clouds 7 1009 68 0 4.64 238 08:20 24.06.2020
824 Clouds 7 1009 68 0 4.64 238 08:20 24.06.2020
825 Clouds 7 1009 68 0 4.64 238 07:50 24.06.2020
826 Clouds 6 1009 69 0 4.44 237 07:26 24.06.2020
827 Clouds 6 1009 69 0 4.44 237 06:49 24.06.2020
828 Clouds 6 1009 71 0 4.65 230 06:25 24.06.2020
829 Clouds 6 1009 71 0 4.65 230 05:46 24.06.2020
830 Clouds 5 1009 74 0 4.96 228 04:41 24.06.2020
831 Clouds 5 1008 78 0 5.04 227 03:41 24.06.2020
832 Clouds 4 1009 81 0 4.85 223 03:19 24.06.2020
833 Clouds 4 1009 81 0 4.85 223 02:41 24.06.2020
834 Clouds 3 1008 81 0 4.15 209 00:58 24.06.2020
835 Clouds 3 1008 81 0 4.15 209 00:39 24.06.2020
836 Clouds 2 1008 84 0 3.92 211 00:21 24.06.2020
837 Clouds 2 1008 84 0 3.92 211 23:40 23.06.2020
838 Clouds 2 1008 84 0 3.89 221 23:18 23.06.2020
839 Clouds 2 1008 84 0 3.89 221 22:41 23.06.2020
840 Clouds 3 1008 79 0 3.79 233 22:19 23.06.2020
841 Clouds 3 1008 79 0 3.79 233 21:59 23.06.2020
842 Clouds 3 1008 79 0 3.79 233 21:38 23.06.2020
843 Clouds 4 1008 77 0 3.1 244 21:18 23.06.2020
844 Clouds 4 1008 77 0 3.1 244 20:55 23.06.2020
845 Clouds 4 1008 77 0 3.1 244 20:37 23.06.2020
846 Clouds 4 1008 75 0 3.29 258 20:18 23.06.2020
847 Clouds 4 1008 75 0 3.29 258 19:43 23.06.2020
848 Clouds 4 1008 75 0 3.29 258 19:43 23.06.2020
849 Clouds 4 1008 75 0 3.73 268 19:24 23.06.2020
850 Clouds 4 1008 75 0 3.73 268 18:40 23.06.2020
851 Clouds 5 1008 74 0 3.83 274 18:19 23.06.2020
852 Clouds 5 1008 74 0 3.83 274 17:44 23.06.2020
853 Clouds 5 1007 73 0 3.16 273 17:25 23.06.2020
854 Clouds 5 1007 73 0 3.16 273 16:57 23.06.2020
855 Clouds 5 1007 73 0 3.16 273 16:39 23.06.2020
856 Clouds 5 1007 72 0 2.3 273 16:21 23.06.2020
857 Clouds 5 1007 72 0 2.3 273 15:59 23.06.2020
858 Clouds 5 1007 72 0 2.3 273 15:41 23.06.2020
859 Clouds 6 1008 71 0 1.24 235 15:23 23.06.2020
860 Clouds 6 1008 71 0 1.24 235 14:54 23.06.2020
861 Clouds 6 1008 71 0 1.24 235 14:36 23.06.2020
862 Clouds 5 1007 70 0 1.05 169 14:18 23.06.2020
863 Clouds 5 1007 72 0 0.83 118 13:42 23.06.2020
864 Clouds 5 1007 72 0 0.32 88 13:23 23.06.2020
865 Clouds 5 1007 72 0 0.32 88 13:23 23.06.2020
866 Clouds 5 1007 72 0 0.32 88 12:46 23.06.2020
867 Clouds 5 1007 74 0 0.18 312 12:23 23.06.2020
868 Clouds 5 1007 74 0 0.18 312 11:59 23.06.2020
869 Clouds 5 1007 74 0 0.18 312 11:40 23.06.2020
870 Clouds 5 1006 73 0 0.34 330 11:20 23.06.2020
871 Clouds 5 1006 73 0 0.34 330 10:58 23.06.2020
872 Clouds 5 1006 73 0 0.34 330 10:39 23.06.2020
873 Clouds 5 1006 73 0 0.55 321 10:21 23.06.2020
874 Clouds 5 1006 73 0 0.55 321 09:55 23.06.2020
875 Clouds 5 1006 73 0 0.55 321 09:36 23.06.2020
876 Clouds 4 1006 76 0 0.51 43 09:18 23.06.2020
877 Clouds 4 1006 76 0 0.51 43 08:42 23.06.2020
878 Clouds 5 1006 77 0 0.48 334 08:22 23.06.2020
879 Clouds 5 1006 77 0 0.48 334 07:44 23.06.2020
880 Clouds 4 1006 76 0 0.81 286 07:24 23.06.2020
881 Clouds 4 1006 76 0 0.81 286 06:51 23.06.2020
882 Clouds 4 1006 76 0 0.81 286 06:31 23.06.2020
883 Clouds 4 1005 76 0 0.96 261 05:48 23.06.2020
884 Clouds 4 1005 75 0 1.1 254 04:41 23.06.2020
885 Clouds 3 1005 78 0 1.47 254 03:19 23.06.2020
886 Clouds 3 1005 78 0 1.47 254 02:46 23.06.2020
887 Clouds 3 1005 80 0 1.39 247 02:26 23.06.2020
888 Clouds 3 1005 81 0 1.45 243 01:44 23.06.2020
889 Clouds 2 1005 83 0 0.92 237 01:20 23.06.2020
890 Clouds 2 1005 84 0 0.64 246 00:25 23.06.2020
891 Clouds 2 1005 84 0 0.64 246 23:59 22.06.2020
892 Clouds 2 1005 84 0 0.64 246 23:39 22.06.2020
893 Clouds 2 1005 85 0 0.63 294 23:19 22.06.2020
894 Clouds 2 1005 85 0 0.63 294 22:58 22.06.2020
895 Clouds 2 1005 85 0 0.63 294 22:40 22.06.2020
896 Clouds 2 1005 83 0 1.01 319 22:20 22.06.2020
897 Clouds 2 1005 83 0 1.01 319 21:58 22.06.2020
898 Clouds 2 1005 83 0 1.01 319 21:39 22.06.2020
899 Clouds 2 1005 86 0 0.87 326 21:21 22.06.2020
900 Clouds 2 1005 86 0 0.87 326 20:44 22.06.2020
901 Clouds 2 1005 86 0 0.87 326 20:44 22.06.2020
902 Clouds 2 1005 84 0 1.59 338 20:26 22.06.2020
903 Clouds 2 1005 84 0 1.59 338 19:59 22.06.2020
904 Clouds 2 1005 84 0 1.59 338 19:41 22.06.2020
905 Clouds 2 1006 82 0 2.28 338 19:19 22.06.2020
906 Clouds 2 1006 82 0 2.28 338 18:42 22.06.2020
907 Clouds 3 1006 81 0 2.57 331 18:24 22.06.2020
908 Clouds 3 1006 81 0 2.57 331 17:57 22.06.2020
909 Clouds 3 1006 81 0 2.57 331 17:39 22.06.2020
910 Clouds 3 1006 80 0 2.96 325 17:21 22.06.2020
911 Clouds 3 1006 80 0 2.96 325 16:59 22.06.2020
912 Clouds 3 1006 80 0 2.96 325 16:40 22.06.2020
913 Clouds 3 1006 80 0 3.33 326 16:18 22.06.2020
914 Clouds 3 1006 80 0 3.33 326 15:44 22.06.2020
915 Clouds 3 1006 80 0 3.81 327 15:26 22.06.2020
916 Clouds 3 1006 80 0 3.81 327 14:58 22.06.2020
917 Clouds 3 1006 80 0 3.81 327 14:39 22.06.2020
918 Clouds 3 1006 80 0 4.38 329 14:20 22.06.2020
919 Clouds 3 1006 80 0 4.38 329 13:54 22.06.2020
920 Clouds 3 1006 80 0 4.38 329 13:36 22.06.2020
921 Clouds 3 1006 79 0 4.84 328 13:18 22.06.2020
922 Clouds 3 1006 79 0 4.84 328 12:41 22.06.2020
923 Clouds 3 1006 79 0 5.07 324 12:22 22.06.2020
924 Clouds 3 1006 79 0 5.07 324 11:38 22.06.2020
925 Clouds 3 1006 79 0 5.17 323 11:19 22.06.2020
926 Clouds 3 1006 79 0 5.17 323 10:57 22.06.2020
927 Clouds 3 1006 79 0 5.17 323 10:39 22.06.2020
928 Clouds 3 1006 81 0 5.24 321 10:19 22.06.2020
929 Clouds 3 1006 81 0 5.24 321 09:58 22.06.2020
930 Clouds 3 1006 81 0 5.24 321 09:39 22.06.2020
931 Clouds 2 1006 84 0 5.35 316 09:19 22.06.2020
932 Clouds 2 1006 84 0 5.35 316 08:56 22.06.2020
933 Clouds 2 1006 84 0 5.35 316 08:38 22.06.2020
934 Clouds 2 1006 86 0 5.56 316 08:19 22.06.2020
935 Clouds 2 1006 86 0 5.56 316 07:48 22.06.2020
936 Clouds 2 1007 87 0 5.98 314 07:26 22.06.2020
937 Clouds 2 1007 87 0 5.98 314 06:39 22.06.2020
938 Clouds 1 1006 88 0 6.16 313 06:21 22.06.2020
939 Clouds 1 1006 88 0 6.16 313 05:42 22.06.2020
940 Clouds 1 1006 90 0 6.25 317 03:47 22.06.2020
941 Clouds 1 1007 91 0 6.71 323 02:19 22.06.2020
942 Clouds 1 1007 91 0 6.87 326 01:18 22.06.2020
943 Clouds 1 1007 91 0 6.87 326 00:39 22.06.2020
944 Clouds 1 1007 90 0 7.17 330 23:57 21.06.2020
945 Clouds 1 1007 90 0 7.17 330 23:38 21.06.2020
946 Clouds 1 1007 89 0 7.49 333 23:20 21.06.2020
947 Clouds 1 1007 89 0 7.49 333 22:56 21.06.2020
948 Clouds 1 1007 89 0 7.49 333 22:36 21.06.2020
949 Clouds 2 1007 88 0 7.7 332 22:18 21.06.2020
950 Clouds 2 1007 88 0 7.7 332 21:56 21.06.2020
951 Clouds 2 1007 88 0 7.7 332 21:37 21.06.2020
952 Clouds 2 1007 89 0 7.37 338 21:19 21.06.2020
953 Clouds 2 1007 89 0 7.37 338 20:57 21.06.2020
954 Clouds 2 1007 89 0 7.37 338 20:36 21.06.2020
955 Clouds 2 1008 88 0 7.72 339 20:18 21.06.2020
956 Clouds 2 1008 88 0 7.72 339 19:41 21.06.2020
957 Clouds 2 1008 88 0 7.46 339 19:22 21.06.2020
958 Clouds 2 1008 88 0 7.46 339 18:57 21.06.2020
959 Clouds 2 1008 88 0 7.46 339 18:39 21.06.2020
960 Clouds 2 1009 88 0 7.56 341 18:21 21.06.2020
961 Clouds 2 1009 88 0 7.56 341 17:57 21.06.2020
962 Clouds 2 1009 88 0 7.56 341 17:38 21.06.2020
963 Clouds 2 1009 86 0 7.67 342 17:19 21.06.2020
964 Clouds 2 1009 86 0 7.67 342 16:41 21.06.2020
965 Clouds 2 1009 85 0 7.83 348 16:22 21.06.2020
966 Clouds 2 1009 85 0 7.83 348 15:56 21.06.2020
967 Clouds 2 1009 85 0 7.83 348 15:36 21.06.2020
968 Clouds 2 1009 85 0 8.11 353 15:18 21.06.2020
969 Clouds 2 1009 85 0 8.11 353 14:39 21.06.2020
970 Clouds 3 1010 85 0 7.87 352 14:20 21.06.2020
971 Clouds 3 1010 85 0 7.87 352 13:56 21.06.2020
972 Clouds 3 1010 85 0 7.87 352 13:38 21.06.2020
973 Clouds 3 1010 87 0 7.94 354 13:19 21.06.2020
974 Clouds 3 1010 87 0 7.94 354 12:44 21.06.2020
975 Clouds 3 1010 88 0 8.02 358 12:25 21.06.2020
976 Clouds 3 1010 88 0 8.02 358 11:55 21.06.2020
977 Clouds 3 1010 88 0 8.02 358 11:36 21.06.2020
978 Clouds 3 1010 88 0 8.24 2 11:18 21.06.2020
979 Clouds 3 1010 88 0 8.24 2 10:54 21.06.2020
980 Clouds 3 1010 88 0 8.24 2 10:36 21.06.2020
981 Clouds 3 1010 87 0 8.21 7 10:18 21.06.2020
982 Clouds 3 1010 87 0 8.21 7 09:40 21.06.2020
983 Clouds 3 1011 87 0 7.4 9 09:19 21.06.2020
984 Clouds 3 1011 87 0 7.4 9 08:55 21.06.2020
985 Clouds 3 1011 87 0 7.4 9 08:37 21.06.2020
986 Clouds 3 1011 86 0 7.45 12 08:19 21.06.2020
987 Clouds 3 1011 86 0 7.45 12 07:41 21.06.2020
988 Clouds 3 1011 83 0 7.47 10 07:22 21.06.2020
989 Clouds 3 1011 83 0 7.47 10 06:48 21.06.2020
990 Clouds 3 1011 83 0 7.26 15 05:59 21.06.2020
991 Clouds 3 1011 83 0 7.26 15 05:30 21.06.2020
992 Clouds 4 1011 81 0 6.37 28 03:21 21.06.2020
993 Clouds 4 1011 81 0 6.37 28 02:59 21.06.2020
994 Clouds 4 1011 81 0 6.56 30 01:54 21.06.2020
995 Clouds 4 1011 81 0 6.26 31 01:21 21.06.2020
996 Clouds 4 1011 81 0 6.26 31 00:56 21.06.2020
997 Clouds 4 1011 81 0 6.26 31 00:38 21.06.2020
998 Clouds 4 1011 82 0 5.96 36 00:18 21.06.2020
999 Clouds 4 1011 82 0 5.96 36 23:43 20.06.2020
1000 Clouds 4 1010 81 0 5.97 42 23:22 20.06.2020
1001 Clouds 4 1010 81 0 5.97 42 22:55 20.06.2020
1002 Clouds 4 1010 81 0 5.97 42 22:37 20.06.2020
1003 Clouds 4 1010 81 0 6.97 41 22:18 20.06.2020
1004 Clouds 4 1010 81 0 6.97 41 21:56 20.06.2020
1005 Clouds 4 1010 81 0 6.97 41 21:38 20.06.2020
1006 Clouds 4 1009 78 0 8.35 43 21:19 20.06.2020
1007 Clouds 4 1009 78 0 8.35 43 20:56 20.06.2020
1008 Clouds 4 1009 78 0 8.35 43 20:38 20.06.2020
1009 Clouds 5 1009 76 0 8.96 48 20:19 20.06.2020
1010 Clouds 5 1009 76 0 8.96 48 20:19 20.06.2020
1011 Clouds 5 1009 76 0 8.96 48 19:43 20.06.2020
1012 Clouds 5 1009 79 0 8.79 53 19:22 20.06.2020
1013 Clouds 5 1009 79 0 8.79 53 18:55 20.06.2020
1014 Clouds 5 1009 79 0 8.79 53 18:37 20.06.2020
1015 Clouds 5 1008 78 0 8.69 62 18:18 20.06.2020
1016 Clouds 5 1008 78 0 8.69 62 17:55 20.06.2020
1017 Clouds 5 1008 78 0 8.69 62 17:37 20.06.2020
1018 Clouds 5 1007 79 0 8.72 66 17:18 20.06.2020
1019 Clouds 5 1007 79 0 8.72 66 16:39 20.06.2020
1020 Clouds 5 1006 78 0 9.04 72 16:18 20.06.2020
1021 Clouds 5 1006 78 0 9.04 72 15:42 20.06.2020
1022 Rain 5 1006 83 0 8.76 78 15:19 20.06.2020
1023 Rain 5 1006 83 0 8.76 78 14:57 20.06.2020
1024 Rain 5 1006 83 0 8.76 78 14:39 20.06.2020
1025 Rain 4 1005 91 0 9.48 84 14:19 20.06.2020
1026 Rain 4 1005 91 0 9.48 84 13:41 20.06.2020
1027 Rain 4 1004 91 0 9.39 79 13:20 20.06.2020
1028 Rain 4 1004 91 0 9.39 79 12:55 20.06.2020
1029 Rain 4 1004 91 0 9.39 79 12:36 20.06.2020
1030 Rain 4 1003 94 0 7.74 76 12:18 20.06.2020
1031 Rain 4 1003 94 0 7.74 76 11:38 20.06.2020
1032 Rain 4 1002 95 0 6.73 78 11:20 20.06.2020
1033 Rain 4 1002 95 0 6.73 78 10:57 20.06.2020
1034 Rain 4 1002 95 0 6.73 78 10:38 20.06.2020
1035 Rain 4 1002 95 0 6.73 78 10:38 20.06.2020
1036 Rain 3 1001 96 0 7.98 76 10:18 20.06.2020
1037 Rain 3 1001 96 0 7.98 76 09:41 20.06.2020
1038 Rain 3 1001 96 0 8.57 69 09:23 20.06.2020
1039 Rain 3 1001 96 0 8.57 69 08:57 20.06.2020
1040 Rain 3 1001 96 0 8.57 69 08:38 20.06.2020
1041 Rain 3 1000 97 0 9.27 67 08:20 20.06.2020
1042 Rain 3 1000 97 0 9.27 67 07:50 20.06.2020
1043 Rain 3 999 97 0 10.27 68 07:25 20.06.2020
1044 Rain 3 999 97 0 10.27 68 07:25 20.06.2020
1045 Rain 3 999 97 0 10.27 68 06:40 20.06.2020
1046 Rain 3 999 97 0 10.05 68 06:18 20.06.2020
1047 Rain 3 999 97 0 10.05 68 05:47 20.06.2020
1048 Rain 4 998 97 0 9.14 78 03:22 20.06.2020
1049 Rain 5 998 97 0 8.84 76 01:53 20.06.2020
1050 Rain 5 998 97 0 8.84 76 01:35 20.06.2020
1051 Rain 5 998 98 0 7.16 81 00:42 20.06.2020
1052 Rain 6 998 98 0 5.68 91 00:19 20.06.2020
1053 Rain 6 998 98 0 5.68 91 23:40 19.06.2020
1054 Rain 6 998 98 0 4.34 102 23:19 19.06.2020
1055 Rain 6 998 98 0 4.34 102 22:55 19.06.2020
1056 Rain 6 998 98 0 4.34 102 22:37 19.06.2020
1057 Rain 6 999 97 0 3.12 118 22:18 19.06.2020
1058 Rain 6 999 97 0 3.12 118 21:54 19.06.2020
1059 Rain 6 999 97 0 3.12 118 21:36 19.06.2020
1060 Rain 7 999 95 0 3.46 134 21:18 19.06.2020
1061 Rain 6 1000 94 0 4.73 123 20:55 19.06.2020
1062 Rain 6 1000 94 0 4.73 123 20:37 19.06.2020
1063 Rain 6 1001 95 0 5.13 120 20:18 19.06.2020
1064 Rain 6 1001 95 0 5.13 120 19:42 19.06.2020
1065 Rain 6 1001 95 0 5.13 120 19:42 19.06.2020
1066 Rain 6 1002 95 0 5.74 117 19:23 19.06.2020
1067 -273 0 0 0 0 0 18:59 19.06.2020
1068 Rain 6 1002 95 0 5.74 117 18:39 19.06.2020
1069 Rain 6 1002 94 0 6.04 109 18:20 19.06.2020
1070 Rain 6 1002 94 0 6.04 109 18:20 19.06.2020
1071 Rain 6 1002 94 0 6.04 109 17:42 19.06.2020
1072 Rain 6 1002 94 0 6.04 109 17:42 19.06.2020
1073 Rain 6 1003 92 0 5.79 113 17:23 19.06.2020
1074 Rain 6 1003 92 0 5.79 113 16:58 19.06.2020
1075 Rain 6 1003 92 0 5.79 113 16:39 19.06.2020
1076 Rain 6 1004 90 0 4.97 115 16:21 19.06.2020
1077 Rain 6 1004 90 0 4.97 115 15:45 19.06.2020
1078 Rain 6 1005 87 0 4.99 122 15:26 19.06.2020
1079 Rain 6 1005 87 0 4.99 122 14:58 19.06.2020
1080 Rain 6 1005 87 0 4.99 122 14:40 19.06.2020
1081 Rain 7 1006 75 0 3.81 136 14:21 19.06.2020
1082 Rain 7 1006 75 0 3.81 136 13:58 19.06.2020
1083 Rain 7 1006 75 0 3.81 136 13:40 19.06.2020
1084 Clouds 7 1007 66 0 5.63 108 13:22 19.06.2020
1085 Clouds 7 1007 66 0 5.63 108 12:45 19.06.2020
1086 Clouds 7 1007 63 0 5.26 95 12:21 19.06.2020
1087 Clouds 7 1007 63 0 5.26 95 11:55 19.06.2020
1088 Clouds 7 1007 63 0 5.26 95 11:36 19.06.2020
1089 Clouds 7 1008 62 0 3.34 99 11:18 19.06.2020
1090 Clouds 7 1008 62 0 3.34 99 10:41 19.06.2020
1091 Clouds 7 1009 62 0 2.43 107 10:21 19.06.2020
1092 Clouds 7 1009 62 0 2.43 107 09:54 19.06.2020
1093 Clouds 7 1009 62 0 1.99 115 09:36 19.06.2020
1094 Clouds 6 1010 64 0 1.44 141 09:18 19.06.2020
1095 Clouds 6 1010 64 0 1.44 141 08:39 19.06.2020
1096 Clouds 5 1011 68 0 1.76 205 08:21 19.06.2020
1097 Clouds 5 1011 68 0 1.76 205 07:41 19.06.2020
1098 Clouds 5 1012 70 0 3.21 232 07:22 19.06.2020
1099 Clouds 5 1012 70 0 3.21 232 06:50 19.06.2020
1100 Clouds 4 1012 74 0 4.34 240 06:22 19.06.2020
1101 Clouds 4 1013 76 0 5.14 249 05:29 19.06.2020
1102 Clouds 4 1013 77 0 5.99 253 03:45 19.06.2020
1103 Clouds 3 1014 80 0 6.34 250 02:22 19.06.2020
1104 Clouds 3 1014 81 0 6.42 255 00:45 19.06.2020
1105 Clouds 3 1014 82 0 6.52 256 00:22 19.06.2020
1106 Clouds 3 1014 82 0 6.52 256 23:57 18.06.2020
1107 Clouds 3 1014 82 0 6.52 256 23:39 18.06.2020
1108 Clouds 2 1015 84 0 6.69 255 23:20 18.06.2020
1109 Clouds 2 1015 84 0 6.69 255 22:41 18.06.2020
1110 Clouds 2 1015 85 0 6.54 251 22:20 18.06.2020
1111 Clouds 2 1015 85 0 6.54 251 21:56 18.06.2020
1112 Clouds 2 1015 85 0 6.54 251 21:37 18.06.2020
1113 Clouds 3 1015 82 0 6.62 262 21:19 18.06.2020
1114 Clouds 3 1015 82 0 6.62 262 20:41 18.06.2020
1115 Clouds 3 1015 80 0 7.08 271 20:21 18.06.2020
1116 Clouds 3 1015 80 0 7.08 271 19:57 18.06.2020
1117 Clouds 3 1015 80 0 7.08 271 19:39 18.06.2020
1118 Clouds 3 1015 77 0 7.17 276 19:19 18.06.2020
1119 Clouds 3 1015 77 0 7.17 276 19:19 18.06.2020
1120 Clouds 3 1015 77 0 7.17 276 18:41 18.06.2020
1121 Clouds 4 1015 76 0 5.87 280 18:22 18.06.2020
1122 Clouds 4 1015 76 0 5.87 280 17:55 18.06.2020
1123 Clouds 4 1015 76 0 5.87 280 17:37 18.06.2020
1124 Clouds 3 1015 77 0 5.57 296 17:18 18.06.2020
1125 Clouds 3 1015 77 0 5.57 296 16:42 18.06.2020
1126 Clouds 3 1015 77 0 6.85 308 16:24 18.06.2020
1127 Clouds 3 1015 77 0 6.85 308 15:58 18.06.2020
1128 Clouds 3 1015 77 0 6.85 308 15:39 18.06.2020
1129 Clouds 3 1015 78 0 7.68 308 15:20 18.06.2020
1130 Clouds 3 1015 78 0 7.68 308 14:56 18.06.2020
1131 Clouds 3 1015 78 0 7.68 308 14:38 18.06.2020
1132 Clouds 3 1014 79 0 8.24 306 14:20 18.06.2020
1133 Clouds 3 1014 79 0 8.24 306 13:47 18.06.2020
1134 Clouds 3 1014 79 0 7.88 305 13:28 18.06.2020
1135 Clouds 3 1014 79 0 7.88 305 12:57 18.06.2020
1136 Clouds 3 1014 79 0 7.88 305 12:39 18.06.2020
1137 Clouds 3 1014 78 0 7.78 304 12:20 18.06.2020
1138 Clouds 3 1014 78 0 7.78 304 11:57 18.06.2020
1139 Clouds 3 1014 78 0 7.78 304 11:38 18.06.2020
1140 Clouds 3 1013 80 0 8.26 304 11:18 18.06.2020
1141 Clouds 3 1013 80 0 8.26 304 10:40 18.06.2020
1142 Clouds 3 1012 79 0 8.7 306 10:18 18.06.2020
1143 Clouds 3 1012 79 0 8.7 306 09:46 18.06.2020
1144 Clouds 3 1013 78 0 8.06 310 09:27 18.06.2020
1145 Clouds 3 1013 78 0 8.06 310 08:57 18.06.2020
1146 Clouds 3 1013 78 0 8.06 310 08:37 18.06.2020
1147 Clouds 3 1012 79 0 8.24 310 08:19 18.06.2020
1148 Clouds 3 1012 79 0 8.24 310 07:44 18.06.2020
1149 Clouds 3 1012 80 0 7.98 306 07:25 18.06.2020
1150 Clouds 3 1012 80 0 7.98 306 06:42 18.06.2020
1151 Clouds 3 1012 80 0 7.63 300 05:31 18.06.2020
1152 Clouds 2 1011 82 0 6.96 299 04:20 18.06.2020
1153 Clouds 2 1010 84 0 6.87 299 01:48 18.06.2020
1154 Clouds 2 1009 85 0 6.63 301 01:27 18.06.2020
1155 Clouds 2 1009 85 0 6.63 301 00:52 18.06.2020
1156 Clouds 2 1009 85 0 6.63 301 00:31 18.06.2020
1157 Clouds 2 1009 87 0 5.89 304 23:56 17.06.2020
1158 Clouds 2 1009 87 0 5.89 304 23:37 17.06.2020
1159 Clouds 2 1008 87 0 5.32 311 23:19 17.06.2020
1160 Clouds 2 1008 87 0 5.32 311 22:55 17.06.2020
1161 Clouds 2 1008 87 0 5.32 311 22:37 17.06.2020
1162 Clouds 2 1008 85 0 5.62 318 22:19 17.06.2020
1163 Clouds 2 1008 85 0 5.62 318 21:40 17.06.2020
1164 Clouds 2 1007 83 0 5.33 311 21:21 17.06.2020
1165 Clouds 2 1007 83 0 5.33 311 20:56 17.06.2020
1166 Clouds 2 1007 83 0 5.33 311 20:37 17.06.2020
1167 Clouds 2 1006 83 0 3.63 316 20:19 17.06.2020
1168 Clouds 2 1006 83 0 3.63 316 19:43 17.06.2020
1169 Clouds 2 1006 82 0 5 330 19:22 17.06.2020
1170 Clouds 2 1006 82 0 5 330 19:22 17.06.2020
1171 Clouds 2 1006 82 0 5 330 18:56 17.06.2020
1172 Clouds 2 1006 82 0 5 330 18:38 17.06.2020
1173 Clouds 2 1006 82 0 5 330 18:38 17.06.2020
1174 Clouds 3 1005 81 0 5.86 326 18:19 17.06.2020
1175 Clouds 3 1005 81 0 5.86 326 17:42 17.06.2020
1176 Clouds 3 1005 80 0 6.67 327 17:21 17.06.2020
1177 Clouds 3 1005 80 0 6.67 327 16:56 17.06.2020
1178 Clouds 3 1005 80 0 6.67 327 16:38 17.06.2020
1179 Clouds 3 1005 80 0 7.19 323 16:20 17.06.2020
1180 Clouds 3 1005 80 0 7.19 323 15:40 17.06.2020
1181 Clouds 3 1005 78 0 7.71 319 15:21 17.06.2020
1182 Clouds 3 1005 78 0 7.71 319 14:59 17.06.2020
1183 Clouds 3 1005 78 0 7.71 319 14:40 17.06.2020
1184 Clouds 3 1004 77 0 6.77 314 14:21 17.06.2020
1185 Clouds 3 1004 77 0 6.77 314 13:58 17.06.2020
1186 Clouds 3 1004 77 0 6.77 314 13:40 17.06.2020
1187 Clouds 3 1003 76 0 7.65 313 13:21 17.06.2020
1188 Clouds 3 1003 76 0 7.65 313 12:55 17.06.2020
1189 Clouds 3 1003 76 0 7.65 313 12:36 17.06.2020
1190 Clouds 3 1003 76 0 8.86 313 12:18 17.06.2020
1191 Clouds 3 1003 76 0 8.86 313 11:44 17.06.2020
1192 Clouds 3 1002 76 0 9.6 309 11:24 17.06.2020
1193 Clouds 3 1002 76 0 9.6 309 10:39 17.06.2020
1194 Clouds 3 1002 77 0 9.41 308 10:20 17.06.2020
1195 Clouds 3 1002 77 0 9.41 308 10:20 17.06.2020
1196 Clouds 3 1002 77 0 9.41 308 10:00 17.06.2020
1197 Clouds 3 1002 77 0 9.41 308 09:41 17.06.2020
1198 Clouds 3 1002 77 0 9.18 311 09:21 17.06.2020
1199 Clouds 3 1002 77 0 9.18 311 08:56 17.06.2020
1200 Clouds 3 1002 77 0 9.18 311 08:38 17.06.2020
1201 Clouds 3 1002 78 0 9.13 311 08:18 17.06.2020
1202 Clouds 3 1002 78 0 9.13 311 07:43 17.06.2020
1203 Clouds 2 1001 79 0 8.75 311 07:21 17.06.2020
1204 Clouds 2 1001 79 0 8.75 311 06:56 17.06.2020
1205 Clouds 2 1001 79 0 8.75 311 06:37 17.06.2020
1206 Clouds 3 1001 78 0 8.74 308 06:19 17.06.2020
1207 Snow 2 1001 80 0 8.7 299 04:58 17.06.2020
1208 Clouds 2 1002 82 0 9.41 292 02:59 17.06.2020
1209 Clouds 2 1001 82 0 9.13 291 01:43 17.06.2020
1210 Clouds 2 1001 83 0 8.68 290 00:41 17.06.2020
1211 Clouds 2 1001 82 0 8.47 289 00:23 17.06.2020
1212 Clouds 2 1001 82 0 8.47 289 23:56 16.06.2020
1213 Clouds 2 1001 82 0 8.47 289 23:56 16.06.2020
1214 Clouds 2 1001 82 0 8.47 289 23:37 16.06.2020
1215 Clouds 2 1001 81 0 8.84 291 23:19 16.06.2020
1216 Clouds 2 1001 81 0 8.84 291 22:54 16.06.2020
1217 Clouds 2 1001 81 0 8.84 291 22:36 16.06.2020
1218 Snow 2 1002 81 0 9.09 288 22:18 16.06.2020
1219 Snow 2 1002 81 0 9.09 288 21:45 16.06.2020
1220 Snow 2 1001 83 0 10.06 278 21:23 16.06.2020
1221 Snow 2 1001 83 0 10.06 278 20:57 16.06.2020
1222 Snow 2 1001 83 0 10.06 278 20:39 16.06.2020
1223 Clouds 3 1001 79 0 9.3 284 20:19 16.06.2020
1224 Clouds 3 1001 79 0 9.3 284 19:56 16.06.2020
1225 Clouds 3 1001 79 0 9.3 284 19:38 16.06.2020
1226 Snow 2 1001 82 0 9.61 274 19:19 16.06.2020
1227 Snow 2 1001 82 0 9.61 274 18:45 16.06.2020
1228 Clouds 3 1002 77 0 9.36 270 18:22 16.06.2020
1229 Clouds 3 1002 77 0 9.36 270 17:59 16.06.2020
1230 Clouds 3 1002 77 0 9.36 270 17:39 16.06.2020
1231 Clouds 3 1003 75 0 9.11 273 17:21 16.06.2020
1232 Clouds 3 1003 75 0 9.11 273 16:59 16.06.2020
1233 Clouds 3 1003 75 0 9.11 273 16:40 16.06.2020
1234 Clouds 3 1003 75 0 9.3 276 16:20 16.06.2020
1235 Clouds 3 1003 75 0 9.3 276 15:57 16.06.2020
1236 Clouds 3 1003 75 0 9.3 276 15:39 16.06.2020
1237 Clouds 4 1004 74 0 8.89 278 15:21 16.06.2020
1238 Clouds 4 1004 74 0 8.89 278 14:56 16.06.2020
1239 Clouds 4 1004 74 0 8.89 278 14:38 16.06.2020
1240 Clouds 4 1004 74 0 8.36 279 14:19 16.06.2020
1241 Clouds 3 1005 76 0 7.68 291 13:45 16.06.2020
1242 Clouds 3 1005 76 0 7.5 292 13:25 16.06.2020
1243 Clouds 3 1005 76 0 7.5 292 12:43 16.06.2020
1244 Clouds 3 1005 77 0 7.12 296 12:23 16.06.2020
1245 Clouds 3 1005 77 0 7.12 296 11:59 16.06.2020
1246 Clouds 3 1005 77 0 7.12 296 11:40 16.06.2020
1247 Clouds 3 1005 76 0 7.27 295 11:22 16.06.2020
1248 Clouds 3 1005 76 0 7.27 295 10:58 16.06.2020
1249 Clouds 3 1005 76 0 7.27 295 10:39 16.06.2020
1250 Clouds 3 1005 76 0 7.76 294 10:20 16.06.2020
1251 Clouds 3 1005 76 0 7.76 294 09:45 16.06.2020
1252 Clouds 3 1005 77 0 8.17 298 09:23 16.06.2020
1253 Clouds 3 1006 78 0 8.12 305 08:53 16.06.2020
1254 Clouds 3 1006 78 0 8.12 305 08:33 16.06.2020
1255 Clouds 3 1005 79 0 8.53 308 07:52 16.06.2020
1256 Clouds 3 1005 79 0 8.53 308 07:30 16.06.2020
1257 Clouds 3 1005 79 0 8.78 309 06:57 16.06.2020
1258 Clouds 3 1005 79 0 8.78 309 06:34 16.06.2020
1259 Clouds 3 1004 78 0 9 308 05:52 16.06.2020
1260 Clouds 3 1004 78 0 8.67 309 04:58 16.06.2020
1261 Clouds 3 1003 77 0 8.59 300 04:25 16.06.2020
1262 Clouds 4 1003 75 0 8.74 292 02:46 16.06.2020
1263 Clouds 4 1003 75 0 9.23 287 01:34 16.06.2020
1264 Clouds 4 1002 75 0 9.68 287 00:57 16.06.2020
1265 Clouds 4 1002 75 0 9.24 279 00:25 16.06.2020
1266 Clouds 4 1002 75 0 9.24 279 23:56 15.06.2020
1267 Clouds 4 1002 75 0 9.24 279 23:38 15.06.2020
1268 Clouds 5 1002 72 0 8.84 275 23:19 15.06.2020
1269 Clouds 5 1002 72 0 8.84 275 22:42 15.06.2020
1270 Clouds 5 1002 75 0 9.03 271 22:22 15.06.2020
1271 Clouds 5 1002 75 0 9.03 271 21:58 15.06.2020
1272 Clouds 5 1002 75 0 9.03 271 21:38 15.06.2020
1273 Clouds 5 1002 76 0 9.44 275 21:20 15.06.2020
1274 Clouds 5 1002 76 0 9.44 275 20:58 15.06.2020
1275 Clouds 5 1002 76 0 9.44 275 20:39 15.06.2020
1276 Clouds 5 1003 81 0 8.86 272 20:19 15.06.2020
1277 Clouds 5 1003 81 0 8.86 272 19:57 15.06.2020
1278 Clouds 5 1003 81 0 8.86 272 19:39 15.06.2020
1279 Clouds 6 1003 85 0 8.09 266 19:21 15.06.2020
1280 Clouds 6 1003 85 0 8.09 266 18:56 15.06.2020
1281 Clouds 6 1003 85 0 8.09 266 18:38 15.06.2020
1282 Clouds 6 1003 83 0 6.45 269 18:19 15.06.2020
1283 Clouds 6 1003 83 0 6.45 269 17:56 15.06.2020
1284 Clouds 6 1003 83 0 6.45 269 17:37 15.06.2020
1285 Clouds 5 1003 88 0 5.74 285 17:18 15.06.2020
1286 Clouds 5 1003 88 0 5.74 285 16:41 15.06.2020
1287 Rain 6 1003 90 0 6.22 276 16:19 15.06.2020
1288 Rain 6 1003 90 0 6.22 276 15:56 15.06.2020
1289 Rain 6 1003 90 0 6.22 276 15:38 15.06.2020
1290 Rain 6 1004 90 0 4.6 272 15:19 15.06.2020
1291 Rain 6 1004 90 0 4.6 272 14:42 15.06.2020
1292 Rain 7 1003 84 0 6.38 279 14:21 15.06.2020
1293 Rain 7 1003 84 0 6.38 279 13:59 15.06.2020
1294 Rain 7 1003 84 0 6.38 279 13:41 15.06.2020
1295 Rain 7 1003 84 0 6.38 279 13:41 15.06.2020
1296 Clouds 8 1003 71 0 7.76 276 13:23 15.06.2020
1297 Clouds 8 1003 71 0 7.76 276 12:58 15.06.2020
1298 Clouds 8 1003 71 0 7.76 276 12:39 15.06.2020
1299 Clouds 10 1004 63 0 8.64 264 12:21 15.06.2020
1300 Clouds 10 1004 63 0 8.64 264 11:44 15.06.2020
1301 Clouds 10 1004 63 0 9.28 259 11:25 15.06.2020
1302 Clouds 10 1004 63 0 9.28 259 10:56 15.06.2020
1303 Clouds 10 1004 63 0 9.28 259 10:36 15.06.2020
1304 Clouds 10 1005 64 0 9.99 252 10:18 15.06.2020
1305 Clouds 10 1005 64 0 9.99 252 09:41 15.06.2020
1306 Clouds 10 1006 66 0 10.47 247 09:21 15.06.2020
1307 Clouds 10 1005 66 0 10.47 248 08:42 15.06.2020
1308 Clouds 9 1006 67 0 10.12 240 08:23 15.06.2020
1309 Clouds 9 1006 67 0 10.12 240 07:48 15.06.2020
1310 Clouds 8 1006 71 0 8.94 239 07:29 15.06.2020
1311 Clouds 8 1006 71 0 8.94 239 06:50 15.06.2020
1312 Clouds 7 1006 76 0 7.6 237 06:26 15.06.2020
1313 Clouds 7 1006 76 0 7.6 237 05:47 15.06.2020
1314 Clouds 6 1007 81 0 7.43 241 05:27 15.06.2020
1315 Clouds 5 1008 83 0 7.06 252 04:21 15.06.2020
1316 Clouds 5 1008 83 0 7.06 252 03:47 15.06.2020
1317 Clouds 5 1009 86 0 6.34 260 02:55 15.06.2020
1318 Clouds 4 1009 84 0 6.91 262 01:58 15.06.2020
1319 Clouds 4 1009 84 0 6.91 262 01:39 15.06.2020
1320 Clouds 4 1010 84 0 6.68 259 01:21 15.06.2020
1321 Clouds 4 1010 84 0 6.68 259 00:40 15.06.2020
1322 Clouds 4 1010 86 0 6.37 257 00:20 15.06.2020
1323 Clouds 4 1010 86 0 6.37 257 23:47 14.06.2020
1324 Clouds 4 1010 85 0 6.49 259 23:26 14.06.2020
1325 Clouds 4 1010 85 0 6.49 259 22:58 14.06.2020
1326 Clouds 4 1010 85 0 6.49 259 22:40 14.06.2020
1327 Clouds 4 1011 85 0 6.31 253 22:20 14.06.2020
1328 Clouds 4 1011 85 0 6.31 253 21:58 14.06.2020
1329 Clouds 4 1011 85 0 6.31 253 21:40 14.06.2020
1330 Clouds 4 1011 81 0 6.29 263 21:19 14.06.2020
1331 Clouds 4 1011 81 0 6.29 263 20:59 14.06.2020
1332 Clouds 4 1011 81 0 6.29 263 20:40 14.06.2020
1333 Clouds 5 1012 77 0 4.69 269 20:21 14.06.2020
1334 Clouds 5 1012 77 0 4.69 269 19:59 14.06.2020
1335 Clouds 5 1012 77 0 4.69 269 19:40 14.06.2020
1336 Clouds 5 1012 76 0 3.45 274 19:20 14.06.2020
1337 Clouds 5 1012 76 0 3.45 274 18:57 14.06.2020
1338 Clouds 5 1012 76 0 3.45 274 18:39 14.06.2020
1339 Clouds 5 1012 74 0 3.65 293 18:20 14.06.2020
1340 Clouds 5 1012 74 0 3.65 293 17:58 14.06.2020
1341 Clouds 5 1012 74 0 3.65 293 17:39 14.06.2020
1342 Clouds 5 1012 73 0 4.7 306 17:20 14.06.2020
1343 Clouds 5 1012 73 0 4.7 306 16:41 14.06.2020
1344 Clouds 5 1012 72 0 5.14 307 16:22 14.06.2020
1345 -273 0 0 0 0 0 16:00 14.06.2020
1346 Clouds 5 1012 72 0 5.14 307 15:41 14.06.2020
1347 Clouds 5 1013 72 0 5.05 314 15:19 14.06.2020
1348 Clouds 5 1013 72 0 5.05 314 14:59 14.06.2020
1349 Clouds 5 1013 72 0 5.05 314 14:40 14.06.2020
1350 Clouds 5 1012 74 0 5.49 321 14:21 14.06.2020
1351 Clouds 5 1012 74 0 5.49 321 13:57 14.06.2020
1352 Clouds 5 1012 74 0 5.49 321 13:39 14.06.2020
1353 Clouds 5 1012 73 0 6.11 320 13:21 14.06.2020
1354 Clouds 5 1012 73 0 6.11 320 12:55 14.06.2020
1355 Clouds 5 1012 73 0 6.11 320 12:37 14.06.2020
1356 Clouds 5 1011 73 0 6.37 320 12:18 14.06.2020
1357 Clouds 5 1011 73 0 6.37 320 11:56 14.06.2020
1358 Clouds 5 1011 73 0 6.37 320 11:37 14.06.2020
1359 Clear 5 1011 73 0 6.27 319 11:18 14.06.2020
1360 Clear 5 1011 73 0 6.27 319 10:42 14.06.2020
1361 Clear 5 1010 74 0 6.78 320 10:19 14.06.2020
1362 Clear 5 1010 74 0 6.78 320 09:45 14.06.2020
1363 Clear 5 1010 78 0 6.99 329 09:25 14.06.2020
1364 Clear 5 1010 78 0 6.99 329 08:56 14.06.2020
1365 Clear 5 1010 78 0 6.99 329 08:38 14.06.2020
1366 Clouds 5 1009 78 0 7.29 327 08:18 14.06.2020
1367 Clouds 5 1009 78 0 7.29 327 07:44 14.06.2020
1368 Clouds 5 1009 78 0 6.74 323 07:26 14.06.2020
1369 Clouds 4 1008 82 0 6.71 316 06:26 14.06.2020
1370 Clouds 4 1008 82 0 6.71 316 05:40 14.06.2020
1371 Clouds 4 1007 84 0 7.54 317 04:53 14.06.2020
1372 Clouds 4 1007 84 0 8.21 315 04:28 14.06.2020
1373 Clouds 4 1007 84 0 9.05 312 02:56 14.06.2020
1374 Clouds 4 1007 83 0 9.57 307 02:27 14.06.2020
1375 Clouds 4 1007 83 0 9.57 307 01:36 14.06.2020
1376 Clouds 4 1007 81 0 9.02 298 00:55 14.06.2020
1377 Clouds 4 1007 81 0 9.02 298 00:36 14.06.2020
1378 Clouds 4 1006 81 0 8.46 290 00:18 14.06.2020
1379 Clouds 4 1006 81 0 8.46 290 23:41 13.06.2020
1380 Clouds 4 1007 82 0 7.69 288 23:23 13.06.2020
1381 Clouds 4 1007 82 0 7.69 288 22:56 13.06.2020
1382 Clouds 4 1007 82 0 7.69 288 22:36 13.06.2020
1383 Clouds 4 1007 83 0 7.57 282 22:18 13.06.2020
1384 Clouds 4 1007 83 0 7.57 282 21:43 13.06.2020
1385 Clouds 4 1007 83 0 8.19 277 21:24 13.06.2020
1386 Clouds 4 1007 83 0 8.19 277 20:59 13.06.2020
1387 Clouds 4 1007 83 0 8.19 277 20:41 13.06.2020
1388 Clouds 4 1008 83 0 8.77 272 20:19 13.06.2020
1389 Clouds 4 1008 83 0 8.77 272 19:42 13.06.2020
1390 Clouds 4 1008 82 0 8.9 266 19:21 13.06.2020
1391 Clouds 4 1008 82 0 8.9 266 18:59 13.06.2020
1392 Clouds 4 1008 82 0 8.9 266 18:40 13.06.2020
1393 Clouds 5 1009 82 0 9.85 269 18:20 13.06.2020
1394 Clouds 5 1009 82 0 9.85 269 17:58 13.06.2020
1395 Clouds 5 1009 82 0 9.85 269 17:40 13.06.2020
1396 Clouds 6 1009 85 0 9.28 262 17:22 13.06.2020
1397 Clouds 6 1009 85 0 9.28 262 16:55 13.06.2020
1398 Clouds 6 1009 85 0 9.28 262 16:37 13.06.2020
1399 Clouds 6 1010 82 0 8.46 257 16:18 13.06.2020
1400 Clouds 6 1010 82 0 8.46 257 15:44 13.06.2020
1401 Clouds 6 1011 80 0 8.32 257 15:26 13.06.2020
1402 Clouds 6 1011 80 0 8.32 257 14:55 13.06.2020
1403 Clouds 6 1011 80 0 8.32 257 14:36 13.06.2020
1404 Clouds 6 1012 80 0 8 260 14:18 13.06.2020
1405 Clouds 6 1012 80 0 8 260 13:41 13.06.2020
1406 Clouds 7 1013 75 0 7.67 262 13:23 13.06.2020
1407 Clouds 7 1013 75 0 7.67 262 12:44 13.06.2020
1408 Clouds 7 1013 70 0 7.47 264 12:26 13.06.2020
1409 Clouds 7 1013 70 0 7.47 264 11:59 13.06.2020
1410 Clouds 7 1013 70 0 7.47 264 11:40 13.06.2020
1411 Clouds 7 1013 65 0 6.25 263 11:19 13.06.2020
1412 Clouds 7 1013 65 0 6.25 263 10:57 13.06.2020
1413 Clouds 7 1013 65 0 6.25 263 10:38 13.06.2020
1414 Clouds 7 1014 67 0 4.47 267 10:19 13.06.2020
1415 Clouds 7 1014 67 0 4.47 267 09:45 13.06.2020
1416 Clouds 6 1014 71 0 3.66 285 09:27 13.06.2020
1417 Clouds 6 1014 70 0 3.82 284 08:50 13.06.2020
1418 Clouds 6 1014 70 0 3.82 284 08:32 13.06.2020
1419 Clouds 6 1014 74 0 3.77 296 07:56 13.06.2020
1420 Clouds 6 1014 74 0 3.77 296 07:30 13.06.2020
1421 Clouds 6 1014 72 0 4.27 295 06:56 13.06.2020
1422 Clouds 6 1014 72 0 4.27 295 06:36 13.06.2020
1423 Clear 6 1015 71 0 3.24 275 05:53 13.06.2020
1424 Clear 5 1014 71 0 2.63 258 05:25 13.06.2020
1425 Clear 4 1015 72 0 2.54 256 03:55 13.06.2020
1426 Clear 4 1015 76 0 2.37 251 02:55 13.06.2020
1427 Clear 4 1015 76 0 2.37 251 02:36 13.06.2020
1428 Clear 3 1016 79 0 1.54 263 01:47 13.06.2020
1429 Clear 3 1015 82 0 1.32 286 01:21 13.06.2020
1430 Clear 3 1015 82 0 1.32 286 00:44 13.06.2020
1431 Clear 3 1015 85 0 1 305 00:26 13.06.2020
1432 Clear 3 1015 85 0 1 305 23:42 12.06.2020
1433 Clear 3 1015 86 0 0.95 335 23:19 12.06.2020
1434 Clear 3 1015 86 0 0.95 335 22:59 12.06.2020
1435 Clear 3 1015 86 0 0.95 335 22:40 12.06.2020
1436 Clear 3 1015 86 0 1.26 360 22:19 12.06.2020
1437 Clear 3 1015 86 0 1.26 360 21:50 12.06.2020
1438 Clear 3 1015 86 0 2.08 9 21:27 12.06.2020
1439 Clear 3 1015 86 0 2.08 9 20:59 12.06.2020
1440 Clear 3 1015 86 0 2.08 9 20:41 12.06.2020
1441 Clear 3 1015 83 0 2.58 24 20:22 12.06.2020
1442 Clear 3 1015 83 0 2.58 24 19:56 12.06.2020
1443 Clear 3 1015 83 0 2.58 24 19:38 12.06.2020
1444 Clear 3 1015 81 0 3.06 30 19:18 12.06.2020
1445 Clear 3 1015 81 0 3.06 30 18:39 12.06.2020
1446 Clear 3 1015 79 0 3.46 35 18:19 12.06.2020
1447 Clear 3 1015 79 0 3.46 35 17:54 12.06.2020
1448 Clear 3 1015 79 0 3.46 35 17:36 12.06.2020
1449 Clear 4 1015 77 0 4 37 17:18 12.06.2020
1450 Clear 4 1015 77 0 4 37 16:40 12.06.2020
1451 Clear 4 1015 76 0 4.49 37 16:19 12.06.2020
1452 Clear 4 1015 76 0 4.49 37 15:47 12.06.2020
1453 Clear 4 1014 75 0 4.85 39 15:25 12.06.2020
1454 Clear 4 1014 75 0 4.85 39 14:56 12.06.2020
1455 Clear 4 1014 75 0 4.85 39 14:38 12.06.2020
1456 Clouds 4 1014 73 0 4.95 49 14:19 12.06.2020
1457 Clouds 4 1014 73 0 4.95 49 13:41 12.06.2020
1458 Clouds 4 1014 73 0 5.24 56 13:21 12.06.2020
1459 Clouds 4 1014 73 0 5.24 56 12:41 12.06.2020
1460 Clouds 4 1014 72 0 5.51 62 12:20 12.06.2020
1461 Clouds 4 1014 72 0 5.51 62 11:58 12.06.2020
1462 Clouds 4 1014 72 0 5.51 62 11:38 12.06.2020
1463 Clouds 4 1014 72 0 5.89 66 11:19 12.06.2020
1464 Clouds 4 1014 72 0 5.89 66 10:45 12.06.2020
1465 Clouds 4 1013 73 0 5.97 68 10:24 12.06.2020
1466 Clouds 4 1013 73 0 5.97 68 09:46 12.06.2020
1467 Clouds 4 1013 74 0 5.76 65 09:21 12.06.2020
1468 Clouds 4 1013 74 0 5.76 65 08:45 12.06.2020
1469 Clouds 4 1013 76 0 4.93 65 08:25 12.06.2020
1470 Clouds 4 1013 76 0 4.93 65 07:44 12.06.2020
1471 Clouds 4 1013 76 0 4.93 65 07:44 12.06.2020
1472 Clouds 4 1013 80 0 3.8 77 07:26 12.06.2020
1473 Clouds 4 1013 80 0 3.8 77 06:55 12.06.2020
1474 Clouds 4 1013 80 0 3.8 77 06:30 12.06.2020
1475 Clouds 4 1012 85 0 3.57 77 05:55 12.06.2020
1476 Clouds 4 1012 85 0 3.57 77 05:31 12.06.2020
1477 Clouds 4 1012 86 0 2.87 71 04:59 12.06.2020
1478 Clouds 4 1012 83 0 1.21 140 03:24 12.06.2020
1479 Clouds 4 1012 77 0 1.69 174 01:56 12.06.2020
1480 Clouds 4 1012 76 0 2.24 178 01:27 12.06.2020
1481 Clouds 4 1012 76 0 2.24 178 00:47 12.06.2020
1482 Clouds 4 1012 75 0 2.35 188 00:26 12.06.2020
1483 Clouds 4 1012 75 0 2.35 188 23:59 11.06.2020
1484 Clouds 4 1012 75 0 2.35 188 23:41 11.06.2020
1485 Clouds 4 1012 76 0 2.13 196 23:21 11.06.2020
1486 Clouds 4 1012 76 0 2.13 196 22:59 11.06.2020
1487 Clouds 4 1012 76 0 2.13 196 22:39 11.06.2020
1488 Clouds 4 1012 75 0 1.67 180 22:20 11.06.2020
1489 Clouds 4 1012 75 0 1.67 180 21:56 11.06.2020
1490 Clouds 4 1012 75 0 1.67 180 21:38 11.06.2020
1491 Clouds 4 1013 75 0 0.86 180 21:20 11.06.2020
1492 Clouds 4 1013 75 0 2.66 127 20:45 11.06.2020
1493 Clouds 4 1013 73 0 1.79 129 20:22 11.06.2020
1494 Clouds 4 1013 73 0 1.79 129 19:55 11.06.2020
1495 Clouds 4 1013 73 0 1.79 129 19:37 11.06.2020
1496 Clouds 4 1013 73 0 1.31 151 19:18 11.06.2020
1497 Clouds 4 1013 73 0 1.31 151 18:42 11.06.2020
1498 Clouds 4 1013 74 0 1.56 150 18:22 11.06.2020
1499 Clouds 4 1013 74 0 1.56 150 17:57 11.06.2020
1500 Clouds 4 1013 74 0 1.56 150 17:38 11.06.2020
1501 Clouds 4 1013 77 0 1.74 149 17:19 11.06.2020
1502 Clouds 4 1013 77 0 1.74 149 16:56 11.06.2020
1503 Clouds 4 1013 77 0 1.74 149 16:38 11.06.2020
1504 Clouds 3 1013 80 0 1.39 136 16:20 11.06.2020
1505 Clouds 3 1013 80 0 1.39 136 15:42 11.06.2020
1506 Clouds 3 1014 81 0 0.97 47 15:24 11.06.2020
1507 Clouds 3 1014 81 0 0.97 47 14:56 11.06.2020
1508 Clouds 3 1014 81 0 0.97 47 14:56 11.06.2020
1509 Clouds 3 1014 81 0 0.97 47 14:38 11.06.2020
1510 Clouds 3 1015 77 0 2.11 356 14:20 11.06.2020
1511 Clouds 4 1015 75 0 2.12 24 13:55 11.06.2020
1512 Clouds 4 1015 75 0 2.12 24 13:37 11.06.2020
1513 Clouds 4 1015 72 0 2.54 7 13:18 11.06.2020
1514 Clouds 4 1015 72 0 2.54 7 12:54 11.06.2020
1515 Clouds 4 1015 72 0 2.54 7 12:36 11.06.2020
1516 Clouds 5 1015 70 0 2.32 347 12:18 11.06.2020
1517 Clouds 5 1015 70 0 2.32 347 11:41 11.06.2020
1518 Clouds 4 1015 71 0 2.22 334 11:23 11.06.2020
1519 Clouds 4 1015 71 0 2.22 334 10:59 11.06.2020
1520 Clouds 4 1015 71 0 2.22 334 10:41 11.06.2020
1521 Clouds 4 1015 73 0 2.94 345 10:19 11.06.2020
1522 Clouds 4 1015 73 0 2.94 345 09:44 11.06.2020
1523 Clouds 4 1015 73 0 3.86 353 09:26 11.06.2020
1524 Clouds 4 1015 73 0 3.86 353 08:54 11.06.2020
1525 Clouds 4 1015 73 0 3.86 353 08:36 11.06.2020
1526 Clouds 5 1015 71 0 3.78 341 08:18 11.06.2020
1527 Clouds 5 1015 71 0 3.78 341 07:41 11.06.2020
1528 Clouds 5 1015 70 0 3.23 327 07:22 11.06.2020
1529 Clouds 5 1015 70 0 3.23 327 06:31 11.06.2020
1530 Clouds 5 1015 70 0 2.33 309 06:31 11.06.2020
1531 Clouds 5 1015 70 0 2.33 309 05:54 11.06.2020
1532 Clouds 5 1015 71 0 2.56 288 04:37 11.06.2020
1533 Clouds 4 1017 74 0 2.35 283 03:25 11.06.2020
1534 Clouds 4 1017 74 0 2.35 283 02:46 11.06.2020
1535 Clouds 3 1017 77 0 2.88 301 01:56 11.06.2020
1536 Clouds 3 1017 77 0 2.88 301 01:35 11.06.2020
1537 Clouds 3 1018 79 0 3.23 277 00:56 11.06.2020
1538 Clouds 3 1018 79 0 3.23 277 00:38 11.06.2020
1539 Clouds 3 1018 81 0 3.17 287 00:18 11.06.2020
1540 Clouds 3 1018 81 0 3.17 287 23:39 10.06.2020
1541 Clouds 3 1018 81 0 3.27 283 23:21 10.06.2020
1542 Clouds 3 1018 81 0 3.27 283 22:40 10.06.2020
1543 Clouds 3 1018 81 0 3.51 301 22:22 10.06.2020
1544 Clouds 3 1018 81 0 3.51 301 21:59 10.06.2020
1545 Clouds 3 1018 81 0 3.51 301 21:40 10.06.2020
1546 Clouds 3 1019 81 0 3.9 301 21:19 10.06.2020
1547 Clear 3 1019 81 0 3.65 300 20:58 10.06.2020
1548 Clear 3 1019 81 0 3.65 300 20:40 10.06.2020
1549 Clear 3 1019 80 0 4.35 308 20:21 10.06.2020
1550 Clear 3 1019 80 0 4.35 308 19:58 10.06.2020
1551 Clear 3 1019 80 0 4.35 308 19:37 10.06.2020
1552 Clear 3 1019 79 0 5 316 19:18 10.06.2020
1553 Clear 3 1019 79 0 5 316 18:42 10.06.2020
1554 Clear 3 1019 78 0 5.54 315 18:22 10.06.2020
1555 Clear 3 1019 78 0 5.54 315 17:59 10.06.2020
1556 Clear 3 1019 78 0 5.54 315 17:41 10.06.2020
1557 Clear 3 1019 76 0 5.94 315 17:20 10.06.2020
1558 Clear 3 1019 76 0 5.94 315 16:58 10.06.2020
1559 Clear 3 1019 76 0 5.94 315 16:40 10.06.2020
1560 Clear 4 1019 75 0 6.18 314 16:20 10.06.2020
1561 Clear 4 1019 75 0 6.18 314 15:56 10.06.2020
1562 Clear 4 1019 75 0 6.18 314 15:37 10.06.2020
1563 Clear 4 1019 74 0 7.71 314 15:18 10.06.2020
1564 Clear 4 1019 74 0 7.71 314 14:40 10.06.2020
1565 Clouds 4 1019 75 0 6.19 314 14:21 10.06.2020
1566 Clouds 4 1019 75 0 6.19 314 13:56 10.06.2020
1567 Clouds 4 1019 75 0 6.19 314 13:38 10.06.2020
1568 Clouds 4 1019 74 0 6.56 319 13:19 10.06.2020
1569 Clouds 4 1019 74 0 6.56 319 12:40 10.06.2020
1570 Clouds 4 1018 75 0 6.11 317 12:18 10.06.2020
1571 Clouds 4 1018 75 0 6.11 317 11:44 10.06.2020
1572 Clouds 4 1017 76 0 5.92 319 11:20 10.06.2020
1573 Clouds 4 1017 76 0 5.92 319 10:58 10.06.2020
1574 Clouds 4 1017 76 0 5.92 319 10:40 10.06.2020
1575 Clouds 4 1017 76 0 6.19 320 10:22 10.06.2020
1576 Clouds 4 1017 76 0 6.19 320 09:44 10.06.2020
1577 Clear 4 1016 78 0 6.29 319 09:26 10.06.2020
1578 Clear 4 1016 78 0 6.29 319 08:59 10.06.2020
1579 Clear 4 1016 78 0 6.29 319 08:41 10.06.2020
1580 Clouds 4 1016 77 0 6.78 315 08:22 10.06.2020
1581 Clouds 4 1016 77 0 6.78 315 07:42 10.06.2020
1582 Clouds 4 1015 77 0 7.62 314 07:23 10.06.2020
1583 Clouds 4 1015 77 0 7.62 314 06:52 10.06.2020
1584 Clouds 4 1015 77 0 7.62 314 06:33 10.06.2020
1585 Clouds 4 1013 77 0 7.88 313 05:59 10.06.2020
1586 Clouds 4 1013 77 0 7.88 313 05:30 10.06.2020
1587 Clouds 4 1013 81 0 6.99 313 04:48 10.06.2020
1588 Clouds 4 1012 86 0 5.43 317 04:28 10.06.2020
1589 Rain 5 1010 97 0 6.69 341 02:24 10.06.2020
1590 Rain 5 1010 97 0 6.69 341 01:41 10.06.2020
1591 Rain 6 1009 97 0 4.77 352 00:43 10.06.2020
1592 Rain 6 1008 98 0 3.95 18 00:24 10.06.2020
1593 Rain 6 1008 98 0 3.95 18 23:59 09.06.2020
1594 Rain 6 1008 98 0 3.95 18 23:41 09.06.2020
1595 Rain 6 1008 97 0 3.52 30 23:23 09.06.2020
1596 Rain 6 1008 97 0 3.52 30 22:57 09.06.2020
1597 Rain 6 1008 97 0 3.52 30 22:38 09.06.2020
1598 Rain 7 1009 93 0 4.57 7 22:20 09.06.2020
1599 Rain 7 1009 93 0 4.57 7 21:57 09.06.2020
1600 Rain 7 1009 93 0 4.57 7 21:39 09.06.2020
1601 Rain 8 1011 90 0 2.98 356 21:20 09.06.2020
1602 Rain 8 1011 90 0 2.98 356 20:57 09.06.2020
1603 Rain 8 1011 90 0 2.98 356 20:57 09.06.2020
1604 Rain 8 1011 90 0 2.98 356 20:38 09.06.2020
1605 Rain 10 1012 79 0 3.2 259 20:20 09.06.2020
1606 Rain 10 1012 79 0 3.2 259 19:57 09.06.2020
1607 Rain 10 1012 79 0 3.2 259 19:39 09.06.2020
1608 Clouds 11 1013 67 0 3.03 225 19:20 09.06.2020
1609 Clouds 11 1013 67 0 3.03 225 19:20 09.06.2020
1610 Clouds 11 1013 67 0 3.03 225 18:57 09.06.2020
1611 Clouds 11 1013 67 0 3.03 225 18:38 09.06.2020
1612 Clouds 11 1014 63 0 3.9 239 18:19 09.06.2020
1613 Clouds 11 1014 63 0 3.9 239 17:55 09.06.2020
1614 Clouds 11 1014 63 0 3.9 239 17:36 09.06.2020
1615 Clouds 12 1015 60 0 4.85 249 17:18 09.06.2020
1616 Clouds 12 1015 60 0 4.85 249 16:42 09.06.2020
1617 Clouds 12 1015 58 0 5.56 254 16:22 09.06.2020
1618 Clouds 12 1015 58 0 5.56 254 15:55 09.06.2020
1619 Clouds 12 1015 58 0 5.56 254 15:37 09.06.2020
1620 Clouds 13 1016 55 0 6.38 256 15:18 09.06.2020
1621 Clouds 13 1016 55 0 6.38 256 14:41 09.06.2020
1622 Clouds 13 1016 56 0 6.77 258 14:21 09.06.2020
1623 Clouds 13 1016 59 0 6.61 257 13:58 09.06.2020
1624 Clouds 13 1016 59 0 6.61 257 13:58 09.06.2020
1625 Clouds 13 1016 59 0 6.61 257 13:39 09.06.2020
1626 Clouds 12 1016 60 0 7.33 260 13:20 09.06.2020
1627 Clouds 12 1016 60 0 7.33 260 12:44 09.06.2020
1628 Clouds 13 1016 59 0 7.66 261 12:21 09.06.2020
1629 Clouds 13 1016 59 0 7.66 261 11:59 09.06.2020
1630 Clouds 13 1016 59 0 7.66 261 11:41 09.06.2020
1631 Clear 13 1016 59 0 7.95 260 11:20 09.06.2020
1632 Clear 13 1016 59 0 7.95 260 11:20 09.06.2020
1633 Clear 13 1016 59 0 7.95 260 10:58 09.06.2020
1634 Clear 13 1016 59 0 7.95 260 10:40 09.06.2020
1635 Clear 13 1016 60 0 8.1 256 10:22 09.06.2020
1636 Clear 13 1016 60 0 8.1 256 09:44 09.06.2020
1637 Clear 13 1015 67 0 8.11 251 09:24 09.06.2020
1638 Clear 13 1015 67 0 8.11 251 08:56 09.06.2020
1639 Clear 13 1015 67 0 8.11 251 08:38 09.06.2020
1640 Clear 12 1015 66 0 7.58 249 08:19 09.06.2020
1641 Clear 12 1015 66 0 7.58 249 07:38 09.06.2020
1642 Clear 12 1015 63 0 7.23 248 07:19 09.06.2020
1643 Clear 12 1015 63 0 7.23 248 06:53 09.06.2020
1644 Clear 12 1015 63 0 7.23 248 06:53 09.06.2020
1645 Clear 12 1015 63 0 7.23 248 06:33 09.06.2020
1646 Clear 11 1015 62 0 6.96 247 05:34 09.06.2020
1647 Clear 9 1014 75 0 8.43 250 03:21 09.06.2020
1648 Clouds 9 1014 71 0 8.23 244 01:43 09.06.2020
1649 Clouds 9 1014 62 0 7.74 239 01:19 09.06.2020
1650 Clouds 9 1014 62 0 7.74 239 00:50 09.06.2020
1651 Clouds 9 1014 61 0 7.79 234 00:21 09.06.2020
1652 Clouds 9 1014 61 0 7.79 234 23:58 08.06.2020
1653 Clouds 9 1014 61 0 7.79 234 23:38 08.06.2020
1654 Clouds 9 1013 63 0 6.87 229 23:19 08.06.2020
1655 Clouds 9 1013 63 0 6.87 229 22:42 08.06.2020
1656 Clouds 9 1013 65 0 7.19 227 22:23 08.06.2020
1657 Clouds 9 1013 65 0 7.19 227 21:59 08.06.2020
1658 Clouds 9 1013 65 0 7.19 227 21:41 08.06.2020
1659 Clouds 9 1014 66 0 7.48 235 21:22 08.06.2020
1660 Clouds 10 1014 71 0 7.88 243 20:57 08.06.2020
1661 Clouds 10 1014 71 0 7.88 243 20:39 08.06.2020
1662 Clouds 10 1014 71 0 7.88 243 20:39 08.06.2020
1663 Clouds 11 1014 69 0 9.27 245 20:20 08.06.2020
1664 Clouds 11 1014 69 0 9.27 245 19:55 08.06.2020
1665 Clouds 11 1014 69 0 9.27 245 19:37 08.06.2020
1666 Clouds 12 1015 68 0 9.53 226 19:19 08.06.2020
1667 Clouds 12 1015 68 0 9.53 226 18:41 08.06.2020
1668 Clouds 12 1015 55 0 8.13 222 18:18 08.06.2020
1669 Clouds 12 1015 55 0 8.13 222 17:56 08.06.2020
1670 Clouds 12 1015 55 0 8.13 222 17:38 08.06.2020
1671 Clouds 13 1014 48 0 6.44 219 17:19 08.06.2020
1672 Clouds 13 1014 48 0 6.44 219 16:45 08.06.2020
1673 Clouds 13 1014 46 0 5.18 239 16:25 08.06.2020
1674 Clouds 13 1014 46 0 5.18 239 15:58 08.06.2020
1675 Clouds 13 1014 46 0 5.18 239 15:40 08.06.2020
1676 Clouds 13 1015 49 0 5.75 236 15:20 08.06.2020
1677 Clouds 13 1015 49 0 5.75 236 15:20 08.06.2020
1678 Clouds 13 1015 49 0 5.75 236 14:42 08.06.2020
1679 Clouds 13 1015 51 0 6.9 252 14:23 08.06.2020
1680 Clouds 13 1015 51 0 6.47 258 13:57 08.06.2020
1681 Clouds 13 1015 51 0 6.47 258 13:38 08.06.2020
1682 Clouds 13 1015 57 0 7.04 264 13:19 08.06.2020
1683 Clouds 13 1015 57 0 7.04 264 12:40 08.06.2020
1684 Clouds 13 1015 72 0 7.64 270 12:19 08.06.2020
1685 Clouds 13 1015 72 0 7.64 270 11:54 08.06.2020
1686 Clouds 13 1015 72 0 7.64 270 11:36 08.06.2020
1687 Clouds 14 1014 79 0 6.77 258 11:18 08.06.2020
1688 Clouds 14 1014 79 0 6.77 258 10:55 08.06.2020
1689 Clouds 14 1014 79 0 6.77 258 10:37 08.06.2020
1690 Clouds 14 1014 79 0 6.77 258 10:37 08.06.2020
1691 Rain 13 1014 80 0 4.35 224 10:18 08.06.2020
1692 Rain 13 1014 80 0 4.35 224 09:43 08.06.2020
1693 Clouds 14 1014 74 0 6.87 236 09:23 08.06.2020
1694 Clouds 14 1014 74 0 6.87 236 08:49 08.06.2020
1695 Rain 14 1014 77 0 5.42 222 08:23 08.06.2020
1696 Rain 14 1014 77 0 5.42 222 07:48 08.06.2020
1697 Rain 13 1014 75 0 4.51 221 07:29 08.06.2020
1698 Rain 13 1014 75 0 4.51 221 06:58 08.06.2020
1699 Rain 13 1014 75 0 4.51 221 06:36 08.06.2020
1700 Clouds 13 1014 68 0 4.22 195 05:54 08.06.2020
1701 Clouds 12 1014 70 0 3.81 201 04:36 08.06.2020
1702 Clouds 9 1015 80 0 2.09 197 03:22 08.06.2020
1703 Clouds 9 1015 83 0 2.07 181 02:26 08.06.2020
1704 Clouds 9 1015 84 0 2.28 183 01:42 08.06.2020
1705 Clouds 8 1016 86 0 1.95 176 00:45 08.06.2020
1706 Clouds 8 1015 87 0 2.31 146 00:23 08.06.2020
1707 Clouds 8 1015 87 0 2.31 146 23:38 07.06.2020
1708 Clouds 8 1015 88 0 1.68 122 23:18 07.06.2020
1709 Clouds 8 1015 88 0 1.68 122 22:56 07.06.2020
1710 Clouds 8 1015 88 0 1.68 122 22:36 07.06.2020
1711 Clouds 8 1016 88 0 1.36 114 22:18 07.06.2020
1712 Clouds 8 1016 88 0 1.36 114 21:57 07.06.2020
1713 Clouds 8 1016 88 0 1.36 114 21:36 07.06.2020
1714 Clouds 8 1016 86 0 1.16 96 21:18 07.06.2020
1715 Clouds 8 1016 86 0 1.75 236 21:18 07.06.2020
1716 Clouds 8 1016 86 0 1.75 236 20:39 07.06.2020
1717 Clouds 9 1016 84 0 1.61 241 20:20 07.06.2020
1718 Clouds 9 1016 84 0 1.61 241 19:57 07.06.2020
1719 Clouds 9 1016 84 0 1.61 241 19:38 07.06.2020
1720 Clouds 9 1016 82 0 1.52 262 19:19 07.06.2020
1721 Clouds 9 1016 82 0 1.52 262 18:56 07.06.2020
1722 Clouds 9 1016 82 0 1.52 262 18:38 07.06.2020
1723 Clouds 10 1015 80 0 1.42 280 18:19 07.06.2020
1724 Clouds 10 1015 80 0 1.42 280 17:56 07.06.2020
1725 Clouds 10 1015 80 0 1.42 280 17:37 07.06.2020
1726 Clouds 10 1015 79 0 1.65 277 17:19 07.06.2020
1727 Clouds 10 1015 79 0 1.65 277 16:42 07.06.2020
1728 Clouds 10 1015 78 0 2.05 281 16:21 07.06.2020
1729 Clouds 10 1015 78 0 2.05 281 15:40 07.06.2020
1730 Clouds 11 1015 77 0 1.75 290 15:21 07.06.2020
1731 Clouds 11 1015 77 0 1.75 290 14:41 07.06.2020
1732 Clouds 11 1015 77 0 1.75 290 14:41 07.06.2020
1733 Clouds 11 1015 77 0 1.75 290 14:41 07.06.2020
1734 Clouds 11 1015 77 0 1.75 290 14:41 07.06.2020
1735 Clouds 10 1016 82 0 2.74 327 14:22 07.06.2020
1736 Clouds 10 1016 82 0 2.74 327 13:48 07.06.2020
1737 Clouds 10 1015 81 0 2.69 341 13:22 07.06.2020
1738 Clouds 10 1015 81 0 2.69 341 12:57 07.06.2020
1739 Clouds 10 1015 81 0 2.69 341 12:39 07.06.2020
1740 Clouds 10 1015 80 0 2.33 338 12:19 07.06.2020
1741 Clouds 10 1015 80 0 2.33 338 11:55 07.06.2020
1742 Clouds 10 1015 80 0 2.33 338 11:36 07.06.2020
1743 Clouds 10 1014 79 0 1.93 352 11:18 07.06.2020
1744 Clouds 10 1014 79 0 1.93 352 10:45 07.06.2020
1745 Clouds 10 1013 79 0 1.65 344 10:20 07.06.2020
1746 Clouds 10 1013 79 0 1.65 344 10:20 07.06.2020
1747 Clouds 10 1013 79 0 1.65 344 09:59 07.06.2020
1748 Clouds 10 1013 79 0 1.65 344 09:39 07.06.2020
1749 Clouds 11 1014 73 0 2.43 331 09:20 07.06.2020
1750 Clouds 11 1014 73 0 2.43 331 08:57 07.06.2020
1751 Clouds 11 1014 73 0 2.43 331 08:39 07.06.2020
1752 Clouds 11 1014 74 0 0.92 329 08:21 07.06.2020
1753 Clouds 11 1014 74 0 0.92 329 07:38 07.06.2020
1754 Clouds 11 1014 76 0 0.9 39 06:54 07.06.2020
1755 Clouds 11 1013 78 0 0.89 63 05:53 07.06.2020
1756 Clouds 8 1013 86 0 4.32 111 04:21 07.06.2020
1757 Clouds 8 1013 86 0 4.32 111 03:46 07.06.2020
1758 Rain 7 1015 90 0 4.75 95 02:18 07.06.2020
1759 Rain 8 1015 87 0 5.45 101 01:25 07.06.2020
1760 Rain 8 1015 87 0 5.45 101 00:48 07.06.2020
1761 Rain 7 1015 89 0 5.28 100 00:20 07.06.2020
1762 Rain 7 1015 89 0 5.28 100 23:59 06.06.2020
1763 Rain 7 1015 89 0 5.28 100 23:38 06.06.2020
1764 Rain 7 1015 91 0 5.01 105 23:20 06.06.2020
1765 Rain 7 1015 91 0 5.01 105 22:56 06.06.2020
1766 Rain 7 1015 91 0 5.01 105 22:38 06.06.2020
1767 Rain 7 1015 86 0 5.48 110 22:19 06.06.2020
1768 Rain 7 1015 86 0 5.48 110 21:47 06.06.2020
1769 Clouds 7 1017 63 0 7.86 97 21:23 06.06.2020
1770 Clouds 7 1017 63 0 7.86 97 20:58 06.06.2020
1771 Clouds 7 1017 63 0 7.86 97 20:40 06.06.2020
1772 Clouds 8 1018 61 0 7.46 105 20:19 06.06.2020
1773 Clouds 8 1018 61 0 7.46 105 19:57 06.06.2020
1774 Clouds 8 1018 61 0 7.46 105 19:38 06.06.2020
1775 Clouds 7 1018 62 0 7.94 105 19:20 06.06.2020
1776 Clouds 7 1018 62 0 7.94 105 18:55 06.06.2020
1777 Clouds 7 1018 62 0 7.94 105 18:36 06.06.2020
1778 Clouds 7 1018 64 0 8.2 101 18:18 06.06.2020
1779 Clouds 7 1018 64 0 8.2 101 17:41 06.06.2020
1780 Clouds 7 1018 65 0 8.69 93 17:20 06.06.2020
1781 Clouds 7 1018 65 0 8.69 93 16:55 06.06.2020
1782 Clouds 7 1018 65 0 8.69 93 16:37 06.06.2020
1783 Clouds 7 1018 64 0 8.33 98 16:19 06.06.2020
1784 Clouds 7 1018 64 0 8.33 98 15:44 06.06.2020
1785 Clouds 7 1019 65 0 9.38 94 15:20 06.06.2020
1786 Clouds 7 1019 65 0 9.38 94 14:56 06.06.2020
1787 Clouds 7 1019 65 0 9.38 94 14:56 06.06.2020
1788 Clouds 7 1019 65 0 9.38 94 14:37 06.06.2020
1789 Clouds 7 1020 66 0 9.52 89 14:19 06.06.2020
1790 Clouds 7 1020 64 0 9 90 13:45 06.06.2020
1791 Clouds 7 1021 64 0 8.66 84 13:19 06.06.2020
1792 Clouds 7 1021 64 0 8.66 84 12:56 06.06.2020
1793 Clouds 7 1021 64 0 8.66 84 12:38 06.06.2020
1794 Clouds 7 1021 63 0 8.28 85 12:18 06.06.2020
1795 Clouds 7 1021 63 0 8.28 85 11:40 06.06.2020
1796 Clouds 6 1021 64 0 7.89 83 11:21 06.06.2020
1797 Clouds 6 1021 64 0 7.89 83 11:21 06.06.2020
1798 Clouds 6 1021 64 0 7.89 83 10:59 06.06.2020
1799 Clouds 6 1021 64 0 7.89 83 10:40 06.06.2020
1800 Clouds 6 1021 66 0 7.68 86 10:22 06.06.2020
1801 Clouds 6 1021 66 0 7.68 86 09:59 06.06.2020
1802 Clouds 6 1021 66 0 7.68 86 09:41 06.06.2020
1803 Clouds 5 1022 69 0 8 84 09:22 06.06.2020
1804 Clouds 5 1021 68 0 7.98 83 08:45 06.06.2020
1805 Clouds 5 1022 70 0 7.37 83 08:24 06.06.2020
1806 Clouds 5 1022 70 0 7.37 83 07:55 06.06.2020
1807 Clouds 5 1022 70 0 7.37 83 07:36 06.06.2020
1808 Clouds 4 1022 72 0 7.46 86 07:18 06.06.2020
1809 Clouds 4 1022 72 0 7.46 86 06:42 06.06.2020
1810 Clouds 4 1022 74 0 7.18 86 06:23 06.06.2020
1811 Clouds 4 1022 74 0 7.18 86 05:32 06.06.2020
1812 Clouds 3 1022 77 0 7.41 87 04:49 06.06.2020
1813 Clouds 3 1022 78 0 7.08 88 03:29 06.06.2020
1814 Clouds 3 1023 81 0 6.41 86 01:59 06.06.2020
1815 Clouds 2 1023 82 0 6.35 83 01:21 06.06.2020
1816 Clouds 2 1023 82 0 6.35 83 00:56 06.06.2020
1817 Clouds 2 1023 82 0 6.35 83 00:37 06.06.2020
1818 Clouds 2 1023 82 0 5.94 82 00:19 06.06.2020
1819 Clouds 2 1023 82 0 5.94 82 23:39 05.06.2020
1820 Clouds 3 1022 82 0 5.74 83 23:19 05.06.2020
1821 Clouds 3 1022 82 0 5.74 83 22:56 05.06.2020
1822 Clouds 3 1022 82 0 5.74 83 22:37 05.06.2020
1823 Clouds 3 1022 82 0 5.9 85 22:19 05.06.2020
1824 Clouds 3 1022 82 0 5.9 85 21:43 05.06.2020
1825 Clouds 3 1022 80 0 5.95 84 21:23 05.06.2020
1826 Clear 3 1021 81 0 5.67 86 20:58 05.06.2020
1827 Clear 3 1021 81 0 5.67 86 20:39 05.06.2020
1828 Clear 3 1021 80 0 5.66 81 20:21 05.06.2020
1829 Clear 3 1021 80 0 5.66 81 19:44 05.06.2020
1830 Clear 3 1021 82 0 5.64 81 19:24 05.06.2020
1831 Clear 3 1021 82 0 5.64 81 18:58 05.06.2020
1832 Clear 3 1021 82 0 5.64 81 18:39 05.06.2020
1833 Clear 4 1021 86 0 5.55 75 18:20 05.06.2020
1834 Clear 4 1021 86 0 5.55 75 17:58 05.06.2020
1835 Clear 4 1021 86 0 5.55 75 17:39 05.06.2020
1836 Clear 4 1020 89 0 5.63 67 17:19 05.06.2020
1837 Clear 4 1020 89 0 5.63 67 16:39 05.06.2020
1838 Clear 4 1020 88 0 5.35 65 16:21 05.06.2020
1839 Clear 4 1020 88 0 5.35 65 15:56 05.06.2020
1840 Clear 4 1020 88 0 5.35 65 15:37 05.06.2020
1841 Clear 4 1020 87 0 5.33 60 15:19 05.06.2020
1842 Clear 4 1020 87 0 5.33 60 15:19 05.06.2020
1843 Clear 4 1020 87 0 5.33 60 14:41 05.06.2020
1844 Clouds 5 1020 82 0 5.14 56 14:22 05.06.2020
1845 Clouds 5 1020 82 0 5.14 56 13:59 05.06.2020
1846 Clouds 5 1020 82 0 5.14 56 13:41 05.06.2020
1847 Clouds 5 1020 81 0 4.76 55 13:22 05.06.2020
1848 Clouds 5 1020 81 0 4.76 55 12:43 05.06.2020
1849 Clouds 5 1019 82 0 4.75 50 12:20 05.06.2020
1850 Clouds 5 1019 82 0 4.75 50 11:57 05.06.2020
1851 Clouds 5 1019 82 0 4.75 50 11:39 05.06.2020
1852 Clouds 6 1019 80 0 4.13 54 11:20 05.06.2020
1853 Clouds 6 1019 80 0 4.13 54 10:54 05.06.2020
1854 Clouds 6 1019 80 0 4.13 54 10:36 05.06.2020
1855 Clouds 6 1019 81 0 4.12 60 10:18 05.06.2020
1856 Clouds 6 1019 81 0 4.12 60 09:55 05.06.2020
1857 Clouds 6 1019 81 0 4.12 60 09:36 05.06.2020
1858 Clouds 6 1019 81 0 4.27 58 09:18 05.06.2020
1859 Clouds 6 1019 79 0 3.65 48 08:41 05.06.2020
1860 Clouds 7 1019 77 0 3.29 38 08:19 05.06.2020
1861 Clouds 7 1019 77 0 3.29 38 07:55 05.06.2020
1862 Clouds 7 1019 77 0 3.29 38 07:37 05.06.2020
1863 Clouds 7 1019 71 0 3.21 24 06:56 05.06.2020
1864 Clouds 8 1018 67 0 2.26 9 05:41 05.06.2020
1865 Clouds 8 1018 68 0 1.56 348 05:18 05.06.2020
1866 Clouds 7 1017 70 0 0.83 324 03:53 05.06.2020
1867 Clouds 7 1018 72 0 0.85 343 02:44 05.06.2020
1868 Clouds 7 1018 73 0 1.32 342 02:21 05.06.2020
1869 Clouds 7 1018 72 0 0.95 334 01:52 05.06.2020
1870 Clouds 7 1018 73 0 1.92 327 00:59 05.06.2020
1871 Clouds 7 1018 73 0 1.92 327 00:39 05.06.2020
1872 Clouds 7 1017 73 0 1.96 301 00:19 05.06.2020
1873 Clouds 7 1017 73 0 1.96 301 23:46 04.06.2020
1874 Clouds 7 1017 71 0 2.65 270 23:25 04.06.2020
1875 Clouds 7 1017 71 0 2.65 270 22:45 04.06.2020
1876 Clear 8 1017 69 0 3.34 262 22:23 04.06.2020
1877 Clear 8 1017 69 0 3.34 262 21:59 04.06.2020
1878 Clear 8 1017 69 0 3.34 262 21:41 04.06.2020
1879 Clear 9 1018 66 0 3.82 247 21:22 04.06.2020
1880 Clouds 8 1018 68 0 3.24 247 20:59 04.06.2020
1881 Clouds 8 1018 68 0 3.24 247 20:40 04.06.2020
1882 Clear 9 1018 66 0 3.26 248 20:21 04.06.2020
1883 Clear 9 1018 66 0 3.26 248 19:58 04.06.2020
1884 Clear 9 1018 66 0 3.26 248 19:38 04.06.2020
1885 Clear 9 1018 63 0 3.18 256 19:20 04.06.2020
1886 Clear 9 1018 63 0 3.18 256 18:40 04.06.2020
1887 Clear 10 1018 59 0 3.54 260 18:21 04.06.2020
1888 Clear 10 1018 59 0 3.54 260 17:59 04.06.2020
1889 Clear 10 1018 59 0 3.54 260 17:41 04.06.2020
1890 Clear 10 1018 59 0 3.54 260 17:41 04.06.2020
1891 Clouds 11 1018 56 0 4.34 266 17:20 04.06.2020
1892 Clouds 11 1018 56 0 4.34 266 16:41 04.06.2020
1893 Clear 11 1018 53 0 5.52 265 16:21 04.06.2020
1894 Clear 11 1018 53 0 5.52 265 15:56 04.06.2020
1895 Clear 11 1018 53 0 5.52 265 15:37 04.06.2020
1896 Clear 11 1018 53 0 6.3 265 15:19 04.06.2020
1897 Clear 11 1018 53 0 6.3 265 14:39 04.06.2020
1898 Clouds 11 1019 56 0 6.17 264 14:19 04.06.2020
1899 Clouds 11 1019 56 0 6.17 264 13:56 04.06.2020
1900 Clouds 11 1019 56 0 6.17 264 13:37 04.06.2020
1901 Clouds 11 1019 57 0 6.35 262 13:18 04.06.2020
1902 Clouds 11 1019 57 0 6.35 262 12:42 04.06.2020
1903 Clouds 11 1019 60 0 6.4 263 12:23 04.06.2020
1904 Clouds 11 1019 60 0 6.4 263 12:00 04.06.2020
1905 Clouds 11 1019 60 0 6.4 263 11:39 04.06.2020
1906 Clouds 11 1019 61 0 6.57 265 11:20 04.06.2020
1907 Clouds 11 1019 61 0 6.57 265 10:57 04.06.2020
1908 Clouds 11 1019 61 0 6.57 265 10:38 04.06.2020
1909 Clouds 11 1018 62 0 6.8 263 10:19 04.06.2020
1910 Clouds 11 1018 62 0 6.8 263 09:45 04.06.2020
1911 Clouds 11 1018 61 0 6.77 261 09:27 04.06.2020
1912 Clouds 11 1018 61 0 6.77 261 08:46 04.06.2020
1913 Clouds 10 1018 63 0 7.07 261 08:27 04.06.2020
1914 Clouds 10 1018 63 0 7.07 261 07:52 04.06.2020
1915 Clouds 10 1018 63 0 7.07 261 07:29 04.06.2020
1916 Clouds 10 1018 63 0 7.52 257 06:44 04.06.2020
1917 Clouds 9 1018 65 0 7.58 255 06:26 04.06.2020
1918 Clouds 9 1018 65 0 7.58 255 05:39 04.06.2020
1919 Clouds 9 1018 69 0 7.49 252 05:20 04.06.2020
1920 Clouds 7 1018 71 0 7.24 236 03:25 04.06.2020
1921 Clouds 7 1018 75 0 7.72 231 01:57 04.06.2020
1922 Clouds 6 1018 77 0 7.92 230 01:20 04.06.2020
1923 Clouds 6 1018 77 0 7.92 230 00:49 04.06.2020
1924 Clouds 6 1017 76 0 8.1 228 23:55 03.06.2020
1925 Clouds 6 1017 76 0 8.1 228 23:36 03.06.2020
1926 Clouds 6 1017 76 0 8.1 228 23:36 03.06.2020
1927 Clouds 6 1017 76 0 7.41 227 23:18 03.06.2020
1928 Clouds 6 1017 76 0 7.41 227 22:39 03.06.2020
1929 Clouds 5 1018 78 0 6.78 225 22:19 03.06.2020
1930 Clouds 5 1018 78 0 6.78 225 22:19 03.06.2020
1931 Clouds 5 1018 78 0 6.78 225 22:19 03.06.2020
1932 Clouds 5 1018 78 0 6.78 225 21:58 03.06.2020
1933 Clouds 5 1018 78 0 6.78 225 21:39 03.06.2020
1934 Clouds 5 1018 84 0 5.88 233 21:21 03.06.2020
1935 Clouds 5 1018 84 0 5.88 233 20:56 03.06.2020
1936 Clouds 5 1018 84 0 5.88 233 20:38 03.06.2020
1937 Clouds 6 1018 83 0 5.97 241 20:19 03.06.2020
1938 Clouds 6 1018 83 0 5.97 241 19:56 03.06.2020
1939 Clouds 6 1018 83 0 5.97 241 19:37 03.06.2020
1940 Clouds 6 1018 83 0 5.92 237 19:19 03.06.2020
1941 Clouds 6 1018 83 0 5.92 237 18:54 03.06.2020
1942 Clouds 6 1018 83 0 5.92 237 18:36 03.06.2020
1943 Clouds 6 1018 83 0 6.05 244 18:18 03.06.2020
1944 Clouds 6 1018 83 0 6.05 244 17:41 03.06.2020
1945 Clouds 7 1018 80 0 6.44 249 17:21 03.06.2020
1946 Clouds 7 1018 80 0 6.44 249 16:55 03.06.2020
1947 Clouds 7 1018 80 0 6.44 249 16:37 03.06.2020
1948 Clouds 7 1018 78 0 6.55 245 16:18 03.06.2020
1949 Clouds 7 1018 78 0 6.55 245 15:41 03.06.2020
1950 Clouds 7 1019 76 0 6.59 241 15:20 03.06.2020
1951 Clouds 7 1019 76 0 6.59 241 14:48 03.06.2020
1952 Clouds 7 1019 73 0 6.56 241 14:26 03.06.2020
1953 Clouds 7 1019 73 0 6.47 244 13:59 03.06.2020
1954 Clouds 7 1019 73 0 6.47 244 13:38 03.06.2020
1955 Clouds 7 1019 72 0 6.32 238 13:18 03.06.2020
1956 Clouds 7 1019 72 0 6.32 238 12:43 03.06.2020
1957 Clouds 6 1019 72 0 6.07 234 12:21 03.06.2020
1958 Clouds 6 1019 72 0 6.07 234 11:46 03.06.2020
1959 Clouds 5 1019 73 0 6.31 237 11:27 03.06.2020
1960 Clouds 5 1019 73 0 6.31 237 10:57 03.06.2020
1961 Clouds 5 1019 73 0 6.31 237 10:39 03.06.2020
1962 Clouds 5 1018 75 0 6.33 235 10:20 03.06.2020
1963 Clouds 5 1018 75 0 6.33 235 09:44 03.06.2020
1964 Clouds 4 1018 80 0 5.94 238 09:20 03.06.2020
1965 Clouds 4 1018 80 0 5.94 238 08:48 03.06.2020
1966 Clouds 4 1018 82 0 6.36 242 08:28 03.06.2020
1967 Clouds 4 1018 82 0 6.36 242 07:59 03.06.2020
1968 Clouds 4 1018 82 0 6.36 242 07:41 03.06.2020
1969 Clouds 4 1019 83 0 6.35 241 07:19 03.06.2020
1970 Clouds 4 1019 83 0 6.35 241 06:49 03.06.2020
1971 Clouds 4 1019 83 0 6.35 241 06:30 03.06.2020
1972 Clouds 4 1018 82 0 6.07 244 05:46 03.06.2020
1973 Clouds 3 1018 83 0 5.53 247 04:44 03.06.2020
1974 Clouds 3 1018 83 0 5.41 248 03:50 03.06.2020
1975 Clouds 3 1018 85 0 5.4 248 02:47 03.06.2020
1976 Clouds 3 1018 87 0 5.23 246 01:51 03.06.2020
1977 Clouds 2 1018 87 0 4.77 247 00:43 03.06.2020
1978 Clouds 2 1018 88 0 4.7 252 00:24 03.06.2020
1979 Clouds 2 1018 88 0 4.7 252 23:51 02.06.2020
1980 Clouds 2 1018 85 0 4.06 244 23:28 02.06.2020
1981 Clouds 2 1018 85 0 4.06 244 23:28 02.06.2020
1982 Clouds 2 1018 85 0 4.06 244 23:28 02.06.2020
1983 Clouds 2 1018 85 0 4.06 244 22:56 02.06.2020
1984 Clouds 2 1018 85 0 4.06 244 22:38 02.06.2020
1985 Clouds 2 1018 83 0 2.79 237 22:18 02.06.2020
1986 Clouds 2 1018 83 0 2.79 237 21:56 02.06.2020
1987 Clouds 2 1018 83 0 2.79 237 21:37 02.06.2020
1988 Clouds 3 1018 81 0 2.34 240 21:19 02.06.2020
1989 Clouds 3 1018 81 0 2.34 240 20:55 02.06.2020
1990 Clouds 3 1018 81 0 2.34 240 20:36 02.06.2020
1991 Clouds 3 1018 80 0 1.46 250 20:18 02.06.2020
1992 Clouds 3 1018 80 0 1.46 250 19:42 02.06.2020
1993 Clouds 3 1018 80 0 0.9 270 19:24 02.06.2020
1994 Clouds 3 1018 80 0 0.9 270 18:57 02.06.2020
1995 Clouds 3 1018 80 0 0.9 270 18:39 02.06.2020
1996 Clear 3 1018 79 0 0.95 295 18:20 02.06.2020
1997 Clear 3 1018 79 0 0.95 295 17:55 02.06.2020
1998 Clear 3 1018 79 0 0.95 295 17:37 02.06.2020
1999 Clear 3 1018 80 0 0.99 318 17:18 02.06.2020
2000 Clear 3 1018 80 0 0.99 318 16:40 02.06.2020
2001 Clear 3 1018 81 0 1.16 344 16:21 02.06.2020
2002 Clear 3 1018 81 0 1.16 344 16:21 02.06.2020
2003 Clear 3 1018 81 0 1.16 344 15:57 02.06.2020
2004 Clear 3 1018 81 0 1.16 344 15:37 02.06.2020
2005 Clear 2 1018 82 0 1.69 1 15:19 02.06.2020
2006 Clear 2 1018 82 0 1.69 1 14:45 02.06.2020
2007 Clouds 2 1019 82 0 2.25 7 14:26 02.06.2020
2008 Clouds 3 1019 79 0 2.27 355 13:54 02.06.2020
2009 Clouds 3 1019 79 0 2.27 355 13:36 02.06.2020
2010 Clouds 3 1019 79 0 2.57 352 13:18 02.06.2020
2011 Clouds 3 1019 79 0 2.57 352 12:40 02.06.2020
2012 Clouds 3 1018 80 0 2.45 337 12:22 02.06.2020
2013 Clouds 3 1018 80 0 2.45 337 11:59 02.06.2020
2014 Clouds 3 1018 80 0 2.45 337 11:39 02.06.2020
2015 Clouds 3 1018 82 0 2.26 326 11:20 02.06.2020
2016 Clouds 3 1018 82 0 2.26 326 10:50 02.06.2020
2017 Clouds 3 1018 82 0 2.26 326 10:28 02.06.2020
2018 Clouds 2 1017 83 0 2.11 315 09:59 02.06.2020
2019 Clouds 2 1017 83 0 2.11 315 09:40 02.06.2020
2020 Clouds 3 1018 81 0 2.31 327 09:20 02.06.2020
2021 Clouds 3 1018 81 0 2.31 327 08:51 02.06.2020
2022 Clouds 3 1018 81 0 2.54 318 08:23 02.06.2020
2023 Clouds 3 1018 81 0 2.54 318 07:53 02.06.2020
2024 Clouds 3 1018 81 0 2.54 318 07:28 02.06.2020
2025 Clouds 2 1018 82 0 2.94 311 06:48 02.06.2020
2026 Clouds 2 1018 84 0 3.21 309 06:24 02.06.2020
2027 Clouds 2 1017 86 0 3.77 312 05:27 02.06.2020
2028 Clouds 2 1017 87 0 4.09 309 03:29 02.06.2020
2029 Clear 1 1018 90 0 3.82 299 02:30 02.06.2020
2030 Clouds 1 1019 94 0 3.58 283 01:33 02.06.2020
2031 Clouds 0 1019 96 0 3.39 284 00:26 02.06.2020
2032 Clouds 0 1019 96 0 3.39 284 23:58 01.06.2020
2033 Clouds 0 1019 96 0 3.39 284 23:37 01.06.2020
2034 Clear -1 1019 96 0 3.1 291 23:18 01.06.2020
2035 Clear -1 1019 96 0 3.1 291 22:54 01.06.2020
2036 Clear -1 1019 96 0 3.1 291 22:36 01.06.2020
2037 Clear -1 1019 96 0 3.66 300 22:18 01.06.2020
2038 Clear -1 1019 96 0 3.66 300 21:40 01.06.2020
2039 Clear 0 1019 96 0 3.88 298 21:20 01.06.2020
2040 Clear -1 1019 96 0 3.25 303 20:58 01.06.2020
2041 Clear -1 1019 96 0 3.25 303 20:39 01.06.2020
2042 Clouds 0 1020 96 0 3.01 316 20:19 01.06.2020
2043 Clouds 0 1020 96 0 3.01 316 19:55 01.06.2020
2044 Clouds 0 1020 96 0 3.01 316 19:37 01.06.2020
2045 Clouds 0 1020 95 0 3.49 329 19:19 01.06.2020
2046 Clouds 0 1020 95 0 3.49 329 18:55 01.06.2020
2047 Clouds 0 1020 95 0 3.49 329 18:37 01.06.2020
2048 Clouds 0 1020 93 0 3.65 336 18:18 01.06.2020
2049 Clouds 0 1020 93 0 3.65 336 17:40 01.06.2020
2050 Clouds 0 1020 93 0 4.21 346 17:19 01.06.2020
2051 Clouds 0 1020 93 0 4.21 346 16:42 01.06.2020
2052 Clouds 1 1020 93 0 4.59 351 16:22 01.06.2020
2053 Clouds 1 1020 93 0 4.59 351 15:59 01.06.2020
2054 Clouds 1 1020 93 0 4.59 351 15:39 01.06.2020
2055 Clouds 1 1021 93 0 4.81 354 15:20 01.06.2020
2056 Clouds 1 1021 93 0 4.81 354 14:57 01.06.2020
2057 Clouds 1 1021 93 0 4.81 354 14:39 01.06.2020
2058 Clear 1 1021 91 0 4.75 358 14:21 01.06.2020
2059 Clear 1 1021 91 0 4.75 358 13:54 01.06.2020
2060 Clear 1 1021 91 0 4.75 358 13:36 01.06.2020
2061 Clear 1 1021 92 0 4.77 2 13:18 01.06.2020
2062 Clear 1 1021 92 0 4.77 2 12:54 01.06.2020
2063 Clear 1 1021 92 0 4.77 2 12:36 01.06.2020
2064 Clear 1 1021 92 0 4.95 2 12:18 01.06.2020
2065 Clear 1 1021 92 0 4.95 2 11:38 01.06.2020
2066 Clear 1 1021 92 0 4.73 2 11:19 01.06.2020
2067 Clear 1 1021 92 0 4.73 2 10:57 01.06.2020
2068 Clear 1 1021 92 0 4.73 2 10:37 01.06.2020
2069 Clear 1 1021 93 0 4.57 8 10:18 01.06.2020
2070 Clear 1 1021 93 0 4.57 8 09:46 01.06.2020
2071 Clouds 1 1020 92 0 4.34 18 09:27 01.06.2020
2072 Clouds 1 1020 92 0 4.34 18 08:57 01.06.2020
2073 Clouds 1 1020 92 0 4.34 18 08:37 01.06.2020
2074 Clouds 1 1020 92 0 4.07 25 08:19 01.06.2020
2075 Clouds 1 1020 92 0 4.07 25 07:41 01.06.2020
2076 Clouds 1 1020 92 0 4.07 25 07:41 01.06.2020
2077 Clouds 0 1020 94 0 4.2 34 07:22 01.06.2020
2078 Clouds 0 1020 94 0 4.2 34 06:49 01.06.2020
2079 Clouds 0 1019 96 0 4.64 36 05:57 01.06.2020
2080 Clouds 0 1019 97 0 5.23 31 05:18 01.06.2020
2081 Clouds 0 1019 98 0 5.17 26 03:57 01.06.2020
2082 Clouds 0 1019 98 0 5.17 26 03:39 01.06.2020
2083 Clouds 0 1019 98 0 5.28 25 02:56 01.06.2020
2084 Clouds 0 1019 96 0 5.18 20 01:40 01.06.2020
2085 Clouds 0 1019 96 0 5.23 22 01:18 01.06.2020
2086 Clouds 0 1019 96 0 5.23 22 00:46 01.06.2020
2087 Clouds 0 1018 98 0 5.22 22 00:22 01.06.2020
2088 Clouds 0 1018 98 0 5.22 22 23:59 31.05.2020
2089 Clouds 0 1018 98 0 5.22 22 23:41 31.05.2020
2090 Snow -1 1018 98 0 5.56 21 23:22 31.05.2020
2091 Snow -1 1018 98 0 5.56 21 22:58 31.05.2020
2092 Snow -1 1018 98 0 5.56 21 22:40 31.05.2020
2093 Snow 0 1017 99 0 5.45 8 22:22 31.05.2020
2094 Snow 0 1017 99 0 5.45 8 21:57 31.05.2020
2095 Snow 0 1017 99 0 5.45 8 21:39 31.05.2020
2096 Clouds 0 1017 99 0 5.36 345 21:20 31.05.2020
2097 Clouds 0 1017 99 0 5.36 345 20:44 31.05.2020
2098 Clouds 0 1017 96 0 4.83 340 20:25 31.05.2020
2099 Clouds 0 1017 96 0 4.83 340 19:56 31.05.2020
2100 Clouds 0 1017 96 0 4.83 340 19:38 31.05.2020
2101 Clouds 0 1017 96 0 4.94 350 19:19 31.05.2020
2102 Clouds 0 1017 96 0 4.94 350 18:44 31.05.2020
2103 Clouds 0 1016 96 0 5.1 354 18:25 31.05.2020
2104 Clouds 0 1016 96 0 5.1 354 17:59 31.05.2020
2105 Clouds 0 1016 96 0 5.1 354 17:40 31.05.2020
2106 Clouds 0 1016 96 0 5.11 357 17:20 31.05.2020
2107 Clouds 0 1016 96 0 5.11 357 16:41 31.05.2020
2108 Clouds 0 1016 96 0 5.11 1 16:21 31.05.2020
2109 Clouds 0 1016 96 0 5.11 1 15:55 31.05.2020
2110 Clouds 0 1016 96 0 5.11 1 15:36 31.05.2020
2111 Clouds 0 1016 96 0 5.33 5 15:18 31.05.2020
2112 Clouds 0 1016 96 0 5.33 5 14:40 31.05.2020
2113 Clouds 0 1016 95 0 5.48 10 14:19 31.05.2020
2114 Clouds 0 1016 95 0 5.48 10 13:55 31.05.2020
2115 Clouds 0 1016 95 0 5.48 10 13:37 31.05.2020
2116 Clouds 0 1016 97 0 5.22 16 13:18 31.05.2020
2117 Clouds 0 1016 97 0 5.22 16 12:43 31.05.2020
2118 Clouds 1 1015 96 0 5.16 2 12:23 31.05.2020
2119 Clouds 1 1015 96 0 5.16 2 11:55 31.05.2020
2120 Clouds 1 1015 96 0 5.16 2 11:36 31.05.2020
2121 Clouds 1 1015 97 0 4.77 343 11:18 31.05.2020
2122 Clouds 1 1015 97 0 4.77 343 10:43 31.05.2020
2123 Clouds 1 1014 97 0 4.99 337 10:25 31.05.2020
2124 Clouds 1 1014 97 0 4.99 337 10:25 31.05.2020
2125 Clouds 1 1014 97 0 4.99 337 09:58 31.05.2020
2126 Clouds 1 1014 97 0 4.99 337 09:40 31.05.2020
2127 Clouds 1 1014 97 0 5.03 332 09:20 31.05.2020
2128 Clouds 2 1015 90 0 4.81 340 08:42 31.05.2020
2129 Clouds 1 1015 92 0 3.97 340 08:24 31.05.2020
2130 Clouds 1 1015 92 0 3.97 340 07:49 31.05.2020
2131 Clouds 1 1015 95 0 3.69 353 07:22 31.05.2020
2132 Clouds 1 1015 95 0 3.69 353 06:57 31.05.2020
2133 Clouds 1 1015 95 0 3.69 353 06:35 31.05.2020
2134 Clouds 1 1014 96 0 3.69 358 05:49 31.05.2020
2135 Clouds 1 1014 96 0 3.69 358 05:31 31.05.2020
2136 Clouds 0 1013 97 0 4.59 0 04:18 31.05.2020
2137 Clouds 0 1013 97 0 4.59 0 03:29 31.05.2020
2138 Clouds 1 1013 93 0 4.63 352 02:46 31.05.2020
2139 Clouds 1 1014 96 0 4.34 356 01:46 31.05.2020
2140 Clouds 1 1014 96 0 4.2 346 00:40 31.05.2020
2141 Clouds 1 1013 96 0 3.99 339 00:20 31.05.2020
2142 Clouds 1 1013 96 0 3.99 339 23:42 30.05.2020
2143 Clouds 1 1013 96 0 3.99 339 23:42 30.05.2020
2144 Clouds 0 1012 97 0 3.71 332 23:23 30.05.2020
2145 Clouds 0 1012 97 0 3.71 332 22:54 30.05.2020
2146 Clouds 0 1012 97 0 3.71 332 22:36 30.05.2020
2147 Clouds 0 1012 97 0 3.89 331 22:18 30.05.2020
2148 Clouds 0 1012 97 0 3.89 331 21:42 30.05.2020
2149 Clouds 1 1012 98 0 4.66 346 21:22 30.05.2020
2150 Clouds 1 1012 98 0 4.66 346 20:57 30.05.2020
2151 Clouds 1 1012 98 0 4.66 346 20:39 30.05.2020
2152 Clouds 1 1012 97 0 4.9 334 20:21 30.05.2020
2153 Clouds 1 1012 97 0 4.9 334 19:55 30.05.2020
2154 Clouds 1 1012 97 0 4.9 334 19:37 30.05.2020
2155 Clouds 1 1011 96 0 5.05 333 19:18 30.05.2020
2156 Clouds 1 1011 96 0 5.05 333 18:43 30.05.2020
2157 Clouds 1 1011 95 0 4.83 330 18:19 30.05.2020
2158 Clouds 1 1011 95 0 4.83 330 17:42 30.05.2020
2159 Clouds 1 1010 95 0 4.93 328 17:24 30.05.2020
2160 Clouds 1 1010 95 0 4.93 328 16:57 30.05.2020
2161 Clouds 1 1010 95 0 4.93 328 16:38 30.05.2020
2162 Clouds 1 1011 94 0 5.03 325 16:20 30.05.2020
2163 Clouds 1 1011 94 0 5.03 325 15:42 30.05.2020
2164 Clouds 1 1011 94 0 5.15 325 15:24 30.05.2020
2165 Clouds 1 1011 94 0 5.15 325 14:43 30.05.2020
2166 Clouds 1 1011 93 0 5.52 325 14:24 30.05.2020
2167 Clouds 1 1011 93 0 5.52 325 13:44 30.05.2020
2168 Rain 1 1011 94 0 5.51 325 13:24 30.05.2020
2169 Rain 1 1011 94 0 5.51 325 12:42 30.05.2020
2170 Rain 2 1010 96 0 5.41 323 12:21 30.05.2020
2171 Rain 2 1010 96 0 5.41 323 11:58 30.05.2020
2172 Rain 2 1010 96 0 5.41 323 11:39 30.05.2020
2173 Rain 2 1010 97 0 4.94 327 11:21 30.05.2020
2174 Rain 2 1010 97 0 4.94 327 10:41 30.05.2020
2175 Rain 2 1009 97 0 4.89 332 10:21 30.05.2020
2176 Rain 2 1009 97 0 4.89 332 09:51 30.05.2020
2177 Clouds 2 1010 95 0 5.47 321 09:32 30.05.2020
2178 Rain 2 1010 96 0 5.37 324 08:52 30.05.2020
2179 Rain 2 1010 96 0 5.37 324 08:33 30.05.2020
2180 Clouds 2 1009 96 0 5.14 328 07:50 30.05.2020
2181 Clouds 2 1009 97 0 4.93 337 07:26 30.05.2020
2182 Clouds 2 1009 97 0 4.93 337 06:59 30.05.2020
2183 Clouds 2 1009 97 0 5.01 337 06:25 30.05.2020
2184 Clouds 2 1009 97 0 5.01 337 05:49 30.05.2020
2185 Clouds 2 1008 94 0 4.04 330 04:21 30.05.2020
2186 Rain 2 1008 97 0 4.6 320 02:33 30.05.2020
2187 Clouds 2 1008 97 0 3.95 318 01:52 30.05.2020
2188 Clouds 2 1008 97 0 3.74 315 00:42 30.05.2020
2189 Clouds 3 1007 98 0 2.95 313 00:21 30.05.2020
2190 Clouds 3 1007 98 0 2.95 313 23:58 29.05.2020
2191 Clouds 3 1007 98 0 2.95 313 23:38 29.05.2020
2192 Clouds 2 1007 98 0 2.1 311 23:19 29.05.2020
2193 Clouds 2 1007 98 0 2.1 311 22:42 29.05.2020
2194 Clouds 2 1008 97 0 1.8 314 22:21 29.05.2020
2195 Clouds 2 1008 97 0 1.8 314 21:59 29.05.2020
2196 Clouds 2 1008 97 0 1.8 314 21:39 29.05.2020
2197 Clouds 2 1008 98 0 1.79 333 21:20 29.05.2020
2198 Clouds 2 1008 95 0 2.04 313 20:55 29.05.2020
2199 Clouds 2 1008 95 0 2.04 313 20:37 29.05.2020
2200 Clouds 3 1008 95 0 1.97 326 20:18 29.05.2020
2201 Clouds 3 1008 95 0 1.97 326 19:42 29.05.2020
2202 Clouds 3 1008 96 0 2.35 331 19:23 29.05.2020
2203 Clouds 3 1008 96 0 2.35 331 18:47 29.05.2020
2204 Clouds 3 1009 94 0 2.59 322 18:21 29.05.2020
2205 Clouds 3 1009 94 0 2.59 322 17:57 29.05.2020
2206 Clouds 3 1009 94 0 2.59 322 17:38 29.05.2020
2207 Clouds 3 1009 94 0 2.59 322 17:38 29.05.2020
2208 Clouds 3 1009 93 0 2.58 324 17:20 29.05.2020
2209 Clouds 3 1009 93 0 2.58 324 16:45 29.05.2020
2210 Clouds 3 1009 94 0 3.08 325 16:27 29.05.2020
2211 Clouds 3 1009 94 0 3.08 325 15:58 29.05.2020
2212 Clouds 3 1009 94 0 3.08 325 15:40 29.05.2020
2213 Clouds 3 1009 94 0 2.98 316 15:20 29.05.2020
2214 Clouds 3 1009 94 0 2.98 316 14:51 29.05.2020
2215 Clouds 3 1009 98 0 2.21 323 14:25 29.05.2020
2216 Clouds 3 1009 98 0 2.21 323 13:59 29.05.2020
2217 Clouds 3 1009 98 0 2.21 323 13:41 29.05.2020
2218 Clouds 2 1009 98 0 1.97 359 13:21 29.05.2020
2219 Clouds 2 1009 98 0 1.97 359 12:45 29.05.2020
2220 Rain 2 1009 98 0 2.66 23 12:26 29.05.2020
2221 Rain 2 1009 98 0 2.66 23 11:58 29.05.2020
2222 Rain 2 1009 98 0 2.66 23 11:40 29.05.2020
2223 Rain 2 1009 98 0 3.38 33 11:22 29.05.2020
2224 Rain 2 1009 98 0 3.38 33 10:42 29.05.2020
2225 Rain 2 1009 99 0 3.16 44 10:21 29.05.2020
2226 Rain 2 1009 99 0 3.16 44 09:56 29.05.2020
2227 Rain 2 1009 99 0 3.16 44 09:37 29.05.2020
2228 Rain 3 1009 98 0 3.58 55 09:18 29.05.2020
2229 Rain 3 1008 98 0 3.28 46 08:44 29.05.2020
2230 Rain 3 1008 98 0 3.73 64 08:22 29.05.2020
2231 Rain 3 1008 98 0 3.73 64 07:46 29.05.2020
2232 Rain 3 1008 98 0 4.47 74 07:28 29.05.2020
2233 Rain 3 1008 98 0 4.47 74 06:52 29.05.2020
2234 Rain 3 1008 98 0 4.47 74 06:30 29.05.2020
2235 Rain 3 1008 98 0 5.38 74 05:58 29.05.2020
2236 Rain 3 1008 98 0 5.98 75 04:53 29.05.2020
2237 Rain 3 1009 97 0 5.7 75 01:48 29.05.2020
2238 Rain 4 1009 96 0 5.65 77 01:26 29.05.2020
2239 Rain 4 1009 96 0 5.65 77 00:50 29.05.2020
2240 Rain 4 1009 97 0 5.88 74 00:23 29.05.2020
2241 Rain 4 1009 97 0 5.88 74 23:41 28.05.2020
2242 Rain 4 1008 97 0 6.08 77 23:20 28.05.2020
2243 Rain 4 1008 97 0 6.08 77 22:59 28.05.2020
2244 Rain 4 1008 97 0 6.08 77 22:40 28.05.2020
2245 Rain 4 1009 96 0 5.52 73 22:20 28.05.2020
2246 Rain 4 1009 96 0 5.52 73 21:55 28.05.2020
2247 Rain 4 1009 96 0 5.52 73 21:36 28.05.2020
2248 Rain 4 1010 84 0 5.01 62 21:18 28.05.2020
2249 Rain 4 1010 84 0 5.01 62 20:41 28.05.2020
2250 Rain 3 1010 87 0 4.18 54 20:20 28.05.2020
2251 Rain 3 1010 87 0 4.18 54 19:58 28.05.2020
2252 Rain 3 1010 87 0 4.18 54 19:40 28.05.2020
2253 Rain 3 1010 90 0 4.13 55 19:20 28.05.2020
2254 Rain 3 1010 90 0 4.13 55 18:57 28.05.2020
2255 Rain 3 1010 90 0 4.13 55 18:38 28.05.2020
2256 Rain 3 1011 88 0 4.17 58 18:20 28.05.2020
2257 Rain 3 1011 88 0 4.17 58 17:40 28.05.2020
2258 Clouds 4 1011 82 0 4.49 56 17:21 28.05.2020
2259 Clouds 4 1011 82 0 4.49 56 16:47 28.05.2020
2260 Clouds 3 1011 83 0 3.79 64 16:21 28.05.2020
2261 Clouds 3 1011 83 0 3.79 64 15:56 28.05.2020
2262 Clouds 3 1011 83 0 3.79 64 15:38 28.05.2020
2263 Clouds 3 1012 86 0 4.28 65 15:19 28.05.2020
2264 Clouds 3 1012 86 0 4.28 65 14:42 28.05.2020
2265 Clouds 4 1013 86 0 4.23 75 14:22 28.05.2020
2266 Rain 3 1013 91 0 4.69 69 13:46 28.05.2020
2267 Rain 4 1014 88 0 4.79 75 13:28 28.05.2020
2268 Rain 4 1014 88 0 4.79 75 12:56 28.05.2020
2269 Rain 4 1014 88 0 4.79 75 12:37 28.05.2020
2270 Clouds 4 1014 86 0 5.05 80 12:18 28.05.2020
2271 Clouds 4 1014 86 0 5.05 80 11:40 28.05.2020
2272 Clouds 4 1014 86 0 5.68 83 11:22 28.05.2020
2273 Clouds 4 1014 86 0 5.68 83 10:50 28.05.2020
2274 Clouds 4 1015 88 0 5.58 89 10:28 28.05.2020
2275 Clouds 4 1015 88 0 5.58 89 10:28 28.05.2020
2276 Clouds 4 1015 88 0 5.58 89 09:59 28.05.2020
2277 Clouds 4 1015 88 0 5.58 89 09:38 28.05.2020
2278 Clouds 6 1015 74 0 5.66 80 09:18 28.05.2020
2279 Clouds 6 1015 74 0 5.66 80 08:44 28.05.2020
2280 Clouds 6 1016 71 0 4.59 87 08:25 28.05.2020
2281 Clouds 6 1016 71 0 4.59 87 07:45 28.05.2020
2282 Clouds 6 1017 71 0 3.42 93 07:23 28.05.2020
2283 Clouds 6 1017 71 0 3.42 93 06:45 28.05.2020
2284 Clouds 6 1017 73 0 2.36 104 06:27 28.05.2020
2285 Clouds 6 1017 73 0 2.36 104 05:40 28.05.2020
2286 Clouds 5 1018 77 0 2.03 119 04:46 28.05.2020
2287 Clouds 4 1018 81 0 2.54 125 04:22 28.05.2020
2288 Clouds 4 1018 81 0 2.54 125 03:42 28.05.2020
2289 Clouds 4 1019 84 0 2.26 117 02:45 28.05.2020
2290 Clouds 3 1020 85 0 2.12 116 01:46 28.05.2020
2291 Clouds 3 1021 85 0 1.7 114 00:50 28.05.2020
2292 Clouds 3 1021 85 0 1.11 124 00:22 28.05.2020
2293 Clouds 3 1021 85 0 1.11 124 23:56 27.05.2020
2294 Clouds 3 1021 85 0 1.11 124 23:38 27.05.2020
2295 Clouds 2 1022 85 0 0.77 127 23:19 27.05.2020
2296 Clouds 2 1022 85 0 0.77 127 22:43 27.05.2020
2297 Clear 2 1022 86 0 0.76 200 22:24 27.05.2020
2298 Clear 2 1022 86 0 0.76 200 21:58 27.05.2020
2299 Clear 2 1022 86 0 0.76 200 21:40 27.05.2020
2300 Clear 2 1022 86 0 0.83 222 21:21 27.05.2020
2301 Clear 2 1022 86 0 0.83 222 20:58 27.05.2020
2302 Clear 2 1022 86 0 0.83 222 20:40 27.05.2020
2303 Clear 2 1022 86 0 0.83 222 20:40 27.05.2020
2304 Clear 2 1022 86 0 0.83 222 20:40 27.05.2020
2305 Clear 3 1023 85 0 1.65 234 20:20 27.05.2020
2306 Clear 3 1023 85 0 1.65 234 19:46 27.05.2020
2307 Clear 4 1024 84 0 2.19 236 19:21 27.05.2020
2308 Clear 4 1024 84 0 2.19 236 18:58 27.05.2020
2309 Clear 4 1024 84 0 2.19 236 18:39 27.05.2020
2310 Clear 4 1024 83 0 1.78 234 18:19 27.05.2020
2311 Clear 4 1024 83 0 1.78 234 17:43 27.05.2020
2312 Clear 5 1024 82 0 1.28 270 17:24 27.05.2020
2313 Clear 5 1024 82 0 1.28 270 16:57 27.05.2020
2314 Clear 5 1024 82 0 1.28 270 16:38 27.05.2020
2315 Clear 5 1024 82 0 1.28 270 16:38 27.05.2020
2316 Clear 6 1024 79 0 1.93 271 16:20 27.05.2020
2317 Clear 6 1024 79 0 1.93 271 15:49 27.05.2020
2318 Clear 6 1025 77 0 2.36 289 15:23 27.05.2020
2319 Clear 6 1025 77 0 2.36 289 14:58 27.05.2020
2320 Clear 6 1025 77 0 2.36 289 14:39 27.05.2020
2321 Clear 6 1026 76 0 3.26 276 14:20 27.05.2020
2322 Clear 6 1026 76 0 3.26 276 13:42 27.05.2020
2323 Clear 6 1027 77 0 3.84 268 13:24 27.05.2020
2324 Clear 6 1027 77 0 3.84 268 12:43 27.05.2020
2325 Clear 6 1026 80 0 4.17 265 12:24 27.05.2020
2326 Clear 6 1026 80 0 4.17 265 11:59 27.05.2020
2327 Clear 6 1026 80 0 4.17 265 11:39 27.05.2020
2328 Clear 5 1026 83 0 4.52 259 11:21 27.05.2020
2329 Clear 5 1026 83 0 4.52 259 10:55 27.05.2020
2330 Clear 5 1026 83 0 4.52 259 10:37 27.05.2020
2331 Clear 5 1027 87 0 5.04 250 10:18 27.05.2020
2332 Clear 5 1027 87 0 5.04 250 09:40 27.05.2020
2333 Clouds 4 1027 91 0 5.49 244 09:21 27.05.2020
2334 Clouds 6 1027 71 0 4.89 249 08:43 27.05.2020
2335 Clouds 6 1027 73 0 4.95 252 08:25 27.05.2020
2336 Clouds 6 1027 73 0 4.95 252 07:59 27.05.2020
2337 Clouds 6 1027 73 0 4.95 252 07:40 27.05.2020
2338 Clouds 5 1027 76 0 5.52 244 07:22 27.05.2020
2339 Clouds 5 1027 76 0 5.52 244 06:43 27.05.2020
2340 Clouds 5 1027 78 0 5.66 239 06:19 27.05.2020
2341 Clouds 5 1027 78 0 5.66 239 05:47 27.05.2020
2342 Clouds 3 1028 82 0 5.73 236 04:20 27.05.2020
2343 Clouds 3 1028 83 0 5.33 238 02:30 27.05.2020
2344 Clouds 2 1029 84 0 5.7 243 01:53 27.05.2020
2345 Clouds 2 1029 87 0 6.17 243 01:24 27.05.2020
2346 Clouds 2 1029 87 0 6.17 243 00:45 27.05.2020
2347 Clouds 1 1029 89 0 6.69 240 00:19 27.05.2020
2348 Clouds 1 1029 89 0 6.69 240 23:44 26.05.2020
2349 Clear 1 1029 90 0 6.74 238 23:26 26.05.2020
2350 Clear 1 1029 90 0 6.74 238 22:59 26.05.2020
2351 Clear 1 1029 90 0 6.74 238 22:39 26.05.2020
2352 Clear 1 1029 91 0 7.01 238 22:20 26.05.2020
2353 Clear 1 1029 91 0 7.01 238 22:20 26.05.2020
2354 Clear 1 1029 91 0 7.01 238 21:57 26.05.2020
2355 Clear 1 1029 91 0 7.01 238 21:39 26.05.2020
2356 Clear 1 1030 91 0 6.96 239 21:20 26.05.2020
2357 Clear 1 1030 91 0 6.96 239 20:43 26.05.2020
2358 Clear 1 1030 91 0 6.96 239 20:43 26.05.2020
2359 Clear 1 1030 89 0 7.06 238 20:21 26.05.2020
2360 Clear 1 1030 89 0 7.06 238 19:57 26.05.2020
2361 Clear 1 1030 89 0 7.06 238 19:37 26.05.2020
2362 Clear 1 1030 87 0 7.05 238 19:18 26.05.2020
2363 Clear 1 1030 87 0 7.05 238 18:42 26.05.2020
2364 Clear 2 1031 84 0 6.88 238 18:22 26.05.2020
2365 Clear 2 1031 84 0 6.88 238 17:55 26.05.2020
2366 Clear 2 1031 84 0 6.88 238 17:37 26.05.2020
2367 Clear 2 1031 81 0 6.66 240 17:19 26.05.2020
2368 Clear 2 1031 81 0 6.66 240 16:41 26.05.2020
2369 Clear 3 1031 79 0 6.49 243 16:19 26.05.2020
2370 Clear 3 1031 79 0 6.49 243 16:19 26.05.2020
2371 Clear 3 1031 79 0 6.49 243 15:44 26.05.2020
2372 Clear 3 1032 78 0 6.19 245 15:21 26.05.2020
2373 Clear 3 1032 78 0 6.19 245 14:59 26.05.2020
2374 Clear 3 1032 78 0 6.19 245 14:41 26.05.2020
2375 Clear 3 1032 78 0 5.74 249 14:22 26.05.2020
2376 Clear 3 1032 78 0 5.74 249 13:42 26.05.2020
2377 Clear 3 1032 78 0 5.74 249 13:42 26.05.2020
2378 Clear 3 1032 79 0 5.49 253 13:24 26.05.2020
2379 Clear 3 1032 79 0 5.49 253 12:59 26.05.2020
2380 Clear 3 1032 79 0 5.49 253 12:39 26.05.2020
2381 Clear 3 1032 80 0 5.26 254 12:19 26.05.2020
2382 Clear 3 1032 80 0 5.26 254 11:41 26.05.2020
2383 Clear 2 1032 82 0 5.3 255 11:21 26.05.2020
2384 Clear 2 1032 82 0 5.3 255 10:59 26.05.2020
2385 Clear 2 1032 82 0 5.3 255 10:39 26.05.2020
2386 Clear 2 1032 83 0 4.68 255 10:18 26.05.2020
2387 Clear 2 1032 83 0 4.68 255 09:39 26.05.2020
2388 Clear 2 1032 86 0 3.76 259 09:20 26.05.2020
2389 Clear 3 1032 77 0 2.62 285 08:43 26.05.2020
2390 Clear 2 1032 81 0 2.25 286 08:22 26.05.2020
2391 Clear 2 1032 81 0 2.25 286 07:44 26.05.2020
2392 Clear 1 1032 85 0 1.64 290 07:25 26.05.2020
2393 Clear 1 1032 85 0 1.64 290 06:57 26.05.2020
2394 Clear 1 1032 85 0 1.64 290 06:39 26.05.2020
2395 Clear 1 1032 88 0 0.85 341 05:55 26.05.2020
2396 Clear 1 1032 88 0 0.85 341 05:33 26.05.2020
2397 Clear 1 1031 90 0 1.78 21 04:52 26.05.2020
2398 Clear 1 1031 90 0 1.78 21 04:33 26.05.2020
2399 Clear 0 1031 92 0 2.58 14 03:55 26.05.2020
2400 Clear 0 1031 93 0 2.72 360 02:45 26.05.2020
2401 Clear 0 1031 95 0 2.38 337 01:48 26.05.2020
2402 Clear 0 1030 95 0 2.68 335 01:27 26.05.2020
2403 Clear 0 1030 95 0 2.68 335 00:37 26.05.2020
2404 Clear -1 1030 95 0 2.7 335 00:19 26.05.2020
2405 Clear -1 1030 95 0 2.7 335 23:55 25.05.2020
2406 Clear -1 1030 95 0 2.7 335 23:36 25.05.2020
2407 Clear -1 1029 95 0 2.43 330 23:18 25.05.2020
2408 Clear -1 1029 95 0 2.43 330 22:54 25.05.2020
2409 Clear -1 1029 95 0 2.43 330 22:36 25.05.2020
2410 Clear -1 1029 95 0 2.55 336 22:18 25.05.2020
2411 Clear -1 1029 95 0 2.55 336 21:54 25.05.2020
2412 Clear -1 1029 95 0 2.55 336 21:36 25.05.2020
2413 Clear -1 1029 96 0 2.47 341 21:18 25.05.2020
2414 Clear -1 1029 96 0 2.47 341 20:42 25.05.2020
2415 Clear -1 1029 96 0 2.29 345 20:21 25.05.2020
2416 Clear -1 1029 96 0 2.29 345 19:59 25.05.2020
2417 -273 0 0 0 0 0 19:59 25.05.2020
2418 Clear -1 1029 96 0 2.29 345 19:39 25.05.2020
2419 Clear 0 1029 96 0 2.92 355 19:18 25.05.2020
2420 Clear 0 1029 96 0 2.92 355 18:45 25.05.2020
2421 Clear 0 1028 96 0 3.73 360 18:22 25.05.2020
2422 Clear 0 1028 96 0 3.73 360 17:59 25.05.2020
2423 Clear 0 1028 96 0 3.73 360 17:40 25.05.2020
2424 Clear 0 1028 95 0 4.26 356 17:22 25.05.2020
2425 Clear 0 1028 95 0 4.26 356 16:56 25.05.2020
2426 Clear 0 1028 95 0 4.26 356 16:38 25.05.2020
2427 Clear 0 1028 94 0 4.99 352 16:19 25.05.2020
2428 Clear 0 1028 94 0 4.99 352 15:42 25.05.2020
2429 Clear 0 1028 93 0 5.41 343 15:19 25.05.2020
2430 Clear 0 1028 93 0 5.41 343 14:56 25.05.2020
2431 Clear 0 1028 94 0 5.59 351 14:38 25.05.2020
2432 Clear 0 1028 93 0 5.46 341 14:18 25.05.2020
2433 Clear 0 1028 93 0 5.46 341 13:39 25.05.2020
2434 Clear 0 1027 93 0 5.36 332 13:20 25.05.2020
2435 Clear 0 1027 93 0 5.36 332 12:57 25.05.2020
2436 Clear 0 1027 93 0 5.36 332 12:57 25.05.2020
2437 Clear 0 1027 93 0 5.36 332 12:37 25.05.2020
2438 Clear 0 1027 93 0 5.65 328 12:19 25.05.2020
2439 Clear 0 1027 93 0 5.65 328 11:39 25.05.2020
2440 Clear 0 1026 94 0 5.84 327 11:20 25.05.2020
2441 Clear 0 1026 94 0 5.84 327 10:54 25.05.2020
2442 Clear 0 1026 94 0 5.84 327 10:54 25.05.2020
2443 Clear 0 1026 94 0 5.84 327 10:36 25.05.2020
2444 Clear 0 1026 94 0 5.84 327 10:36 25.05.2020
2445 Clear 0 1025 94 0 6.26 327 10:18 25.05.2020
2446 Clear 0 1025 94 0 6.26 327 09:42 25.05.2020
2447 Clear 0 1025 94 0 6.5 327 09:20 25.05.2020
2448 Clear 0 1025 95 0 5.92 329 08:59 25.05.2020
2449 Clear 0 1025 95 0 5.92 329 08:38 25.05.2020
2450 Clear 0 1024 95 0 5.85 327 08:19 25.05.2020
2451 Clear 0 1024 95 0 5.85 327 07:46 25.05.2020
2452 Clear 0 1024 95 0 5.54 328 07:24 25.05.2020
2453 Clear 0 1024 95 0 5.54 328 06:55 25.05.2020
2454 Clear 0 1024 95 0 5.54 328 06:34 25.05.2020
2455 Clear 0 1021 96 0 6.19 328 04:19 25.05.2020
2456 Clear 0 1021 96 0 5.88 320 03:23 25.05.2020
2457 Clear 0 1021 96 0 5.88 320 02:45 25.05.2020
2458 Clear 0 1021 96 0 5.9 317 01:58 25.05.2020
2459 Clear 0 1021 96 0 5.9 317 01:30 25.05.2020
2460 Clear -1 1020 96 0 5.26 305 00:43 25.05.2020
2461 Clear -1 1019 97 0 5.21 295 00:23 25.05.2020
2462 Clear -1 1019 97 0 5.21 295 23:57 24.05.2020
2463 Clear -1 1019 97 0 5.21 295 23:38 24.05.2020
2464 Clear -2 1019 98 0 5.34 288 23:19 24.05.2020
2465 Clear -2 1019 98 0 5.34 288 22:41 24.05.2020
2466 Clear -2 1018 98 0 5.52 281 22:19 24.05.2020
2467 Clear -2 1018 98 0 5.52 281 21:57 24.05.2020
2468 Clear -2 1018 98 0 5.52 281 21:39 24.05.2020
2469 Clear -2 1018 97 0 6.25 274 21:20 24.05.2020
2470 Clear -2 1018 97 0 6.17 277 20:56 24.05.2020
2471 Clear -2 1018 97 0 6.17 277 20:38 24.05.2020
2472 Clouds -1 1019 97 0 6.83 270 20:18 24.05.2020
2473 Clouds -1 1019 97 0 6.83 270 19:42 24.05.2020
2474 Clouds -1 1018 97 0 7.12 266 19:20 24.05.2020
2475 Clouds -1 1018 97 0 7.12 266 18:59 24.05.2020
2476 Clouds -1 1018 97 0 7.12 266 18:41 24.05.2020
2477 Clouds -1 1018 97 0 7.37 266 18:22 24.05.2020
2478 Clouds -1 1018 97 0 7.37 266 17:56 24.05.2020
2479 Clouds -1 1018 97 0 7.37 266 17:37 24.05.2020
2480 Clouds -1 1018 97 0 7.37 266 17:37 24.05.2020
2481 Clouds 0 1018 97 0 7.35 267 17:18 24.05.2020
2482 Clouds 0 1018 97 0 7.35 267 16:39 24.05.2020
2483 Clouds 0 1018 96 0 7.61 269 16:21 24.05.2020
2484 Clouds 0 1018 96 0 7.61 269 15:58 24.05.2020
2485 Clouds 0 1018 96 0 7.61 269 15:39 24.05.2020
2486 Clouds 0 1019 96 0 7.85 271 15:19 24.05.2020
2487 Clouds 0 1019 96 0 7.85 271 14:55 24.05.2020
2488 Clouds 0 1019 96 0 7.85 271 14:37 24.05.2020
2489 Clouds 0 1019 95 0 7.6 275 14:18 24.05.2020
2490 Clouds 0 1019 95 0 7.6 275 13:44 24.05.2020
2491 Clouds 0 1018 96 0 7.58 277 13:23 24.05.2020
2492 Clouds 0 1018 96 0 7.58 277 13:23 24.05.2020
2493 Clouds 0 1018 96 0 7.58 277 13:00 24.05.2020
2494 Clouds 0 1018 96 0 7.58 277 12:41 24.05.2020
2495 Clouds 0 1018 97 0 7.47 277 12:23 24.05.2020
2496 Clouds 0 1018 97 0 7.47 277 11:59 24.05.2020
2497 Clouds 0 1018 97 0 7.47 277 11:41 24.05.2020
2498 Clouds 0 1018 97 0 7.26 274 11:23 24.05.2020
2499 Clouds 0 1018 97 0 7.26 274 11:23 24.05.2020
2500 Clouds 0 1018 97 0 7.26 274 10:59 24.05.2020
2501 Clouds 0 1018 97 0 7.26 274 10:39 24.05.2020
2502 Clouds 0 1018 96 0 7.08 274 10:21 24.05.2020
2503 Clouds 0 1018 96 0 7.08 274 09:42 24.05.2020
2504 Clear 0 1019 95 0 6.4 280 09:19 24.05.2020
2505 Clear 0 1019 95 0 6.4 280 08:59 24.05.2020
2506 Clear 0 1019 95 0 6.4 280 08:40 24.05.2020
2507 Clear 0 1019 95 0 6.4 280 08:40 24.05.2020
2508 Clouds 0 1019 96 0 6.75 284 08:22 24.05.2020
2509 Clouds 0 1019 96 0 6.75 284 07:52 24.05.2020
2510 Clouds 0 1019 96 0 6.9 281 07:27 24.05.2020
2511 Clouds 0 1019 96 0 6.9 281 06:58 24.05.2020
2512 Clouds 0 1019 96 0 6.9 281 06:37 24.05.2020
2513 Clouds 0 1018 95 0 6.73 279 05:43 24.05.2020
2514 Clear 0 1017 97 0 6.67 274 03:46 24.05.2020
2515 Clear -1 1017 97 0 6.59 273 02:52 24.05.2020
2516 Clouds -1 1017 97 0 6.7 275 02:18 24.05.2020
2517 Clouds -1 1017 97 0 7.04 281 00:49 24.05.2020
2518 Clouds -1 1016 98 0 6.73 279 00:27 24.05.2020
2519 Clouds -1 1016 98 0 6.73 279 00:27 24.05.2020
2520 Clouds -1 1016 98 0 6.73 279 23:59 23.05.2020
2521 Clouds -1 1016 98 0 6.73 279 23:37 23.05.2020
2522 Clouds -1 1015 98 0 6.68 283 23:19 23.05.2020
2523 Clouds -1 1015 98 0 6.68 283 22:55 23.05.2020
2524 Clouds -1 1015 98 0 6.68 283 22:37 23.05.2020
2525 Clouds -1 1014 97 0 6.93 291 22:18 23.05.2020
2526 Clouds -1 1014 97 0 6.93 291 21:54 23.05.2020
2527 Clouds -1 1014 97 0 6.93 291 21:36 23.05.2020
2528 Clouds 0 1014 97 0 7.53 300 21:18 23.05.2020
2529 Clouds 0 1014 97 0 6.85 299 20:39 23.05.2020
2530 Snow 0 1013 97 0 7.59 311 20:20 23.05.2020
2531 Snow 0 1013 97 0 7.59 311 19:59 23.05.2020
2532 Snow 0 1013 97 0 7.59 311 19:59 23.05.2020
2533 Snow 0 1013 97 0 7.59 311 19:40 23.05.2020
2534 Snow 0 1013 98 0 8.68 320 19:19 23.05.2020
2535 Snow 0 1013 98 0 8.68 320 18:41 23.05.2020
2536 Snow 0 1012 99 0 8.6 326 18:22 23.05.2020
2537 Snow 0 1012 99 0 8.6 326 17:58 23.05.2020
2538 Snow 0 1012 99 0 8.6 326 17:58 23.05.2020
2539 Snow 0 1012 99 0 8.6 326 17:40 23.05.2020
2540 Snow 0 1011 99 0 8.22 329 17:21 23.05.2020
2541 Snow 0 1011 99 0 8.22 329 16:59 23.05.2020
2542 Snow 0 1011 99 0 8.22 329 16:41 23.05.2020
2543 Snow 0 1010 99 0 7.6 327 16:20 23.05.2020
2544 Snow 0 1010 99 0 7.6 327 15:56 23.05.2020
2545 Snow 0 1010 99 0 7.6 327 15:38 23.05.2020
2546 Clouds 0 1010 98 0 6.5 330 15:20 23.05.2020
2547 Clouds 0 1010 98 0 6.5 330 14:41 23.05.2020
2548 Rain 0 1010 98 0 5.54 336 14:23 23.05.2020
2549 Rain 0 1010 98 0 6.04 334 13:42 23.05.2020
2550 Rain 0 1009 98 0 5.29 340 13:19 23.05.2020
2551 Rain 0 1009 98 0 5.29 340 12:59 23.05.2020
2552 Rain 0 1009 98 0 5.29 340 12:59 23.05.2020
2553 Rain 0 1009 98 0 5.29 340 12:40 23.05.2020
2554 Rain 0 1009 98 0 5.29 340 12:40 23.05.2020
2555 Rain 1 1009 98 0 5.17 345 12:19 23.05.2020
2556 Rain 1 1009 98 0 5.17 345 11:54 23.05.2020
2557 Rain 1 1009 98 0 5.17 345 11:36 23.05.2020
2558 Rain 1 1008 99 0 4.22 359 11:18 23.05.2020
2559 Rain 1 1008 99 0 4.22 359 10:54 23.05.2020
2560 Rain 1 1008 99 0 4.22 359 10:36 23.05.2020
2561 Rain 1 1008 98 0 4.24 7 10:18 23.05.2020
2562 Rain 1 1008 98 0 4.24 7 09:41 23.05.2020
2563 Clouds 1 1008 96 0 4.79 12 09:23 23.05.2020
2564 Clouds 1 1008 96 0 4.79 12 08:56 23.05.2020
2565 Clouds 1 1008 96 0 4.79 12 08:37 23.05.2020
2566 Rain 2 1008 96 0 4.84 17 08:18 23.05.2020
2567 Rain 2 1008 96 0 4.84 17 07:41 23.05.2020
2568 Clouds 2 1008 97 0 4.11 19 07:21 23.05.2020
2569 Clouds 2 1008 97 0 4.11 19 06:42 23.05.2020
2570 Clouds 2 1008 97 0 3.77 25 05:51 23.05.2020
2571 Clouds 1 1008 97 0 3.35 31 03:52 23.05.2020
2572 Clouds 1 1008 97 0 4 46 03:23 23.05.2020
2573 Clouds 1 1008 96 0 3.62 49 02:31 23.05.2020
2574 Clouds 1 1009 96 0 4.78 33 01:28 23.05.2020
2575 Clouds 1 1009 96 0 4.78 33 00:53 23.05.2020
2576 Clouds 1 1009 96 0 4.78 33 00:34 23.05.2020
2577 Clouds 2 1009 94 0 4.84 29 23:59 22.05.2020
2578 Clouds 2 1009 94 0 4.84 29 23:40 22.05.2020
2579 Clouds 2 1009 94 0 4.84 29 23:40 22.05.2020
2580 Clouds 2 1009 95 0 3.28 63 23:20 22.05.2020
2581 Clouds 2 1009 95 0 3.28 63 22:57 22.05.2020
2582 Clouds 2 1009 95 0 3.28 63 22:38 22.05.2020
2583 Rain 2 1009 95 0 6.13 32 22:19 22.05.2020
2584 Rain 2 1009 95 0 6.13 32 21:45 22.05.2020
2585 Rain 2 1010 94 0 5.87 38 21:22 22.05.2020
2586 Rain 2 1010 94 0 5.87 38 20:55 22.05.2020
2587 Rain 2 1010 94 0 5.87 38 20:36 22.05.2020
2588 Clouds 2 1011 92 0 6.02 30 20:18 22.05.2020
2589 Clouds 2 1011 92 0 6.02 30 19:43 22.05.2020
2590 Clouds 3 1011 92 0 5.5 30 19:24 22.05.2020
2591 Clouds 3 1011 92 0 5.5 30 18:40 22.05.2020
2592 Rain 3 1011 92 0 5.43 30 18:21 22.05.2020
2593 Rain 3 1011 92 0 5.43 30 17:59 22.05.2020
2594 Rain 3 1011 92 0 5.43 30 17:39 22.05.2020
2595 Rain 3 1011 89 0 4.62 35 17:18 22.05.2020
2596 Rain 3 1011 89 0 4.62 35 16:45 22.05.2020
2597 Clouds 3 1012 89 0 4.42 34 16:21 22.05.2020
2598 Clouds 3 1012 89 0 4.42 34 15:59 22.05.2020
2599 Clouds 3 1012 89 0 4.42 34 15:41 22.05.2020
2600 Clouds 3 1013 87 0 4.25 35 15:21 22.05.2020
2601 Clouds 3 1013 87 0 4.25 35 14:44 22.05.2020
2602 Clouds 4 1013 85 0 4.53 48 14:25 22.05.2020
2603 Clouds 4 1013 85 0 4.53 48 13:49 22.05.2020
2604 Clouds 4 1013 84 0 4.55 47 13:21 22.05.2020
2605 Clouds 4 1013 84 0 4.55 47 12:59 22.05.2020
2606 Clouds 4 1013 84 0 4.55 47 12:39 22.05.2020
2607 Clouds 4 1013 85 0 4.31 34 12:20 22.05.2020
2608 Clouds 4 1013 85 0 4.31 34 11:44 22.05.2020
2609 Clouds 4 1013 84 0 4.31 18 11:21 22.05.2020
2610 Clouds 4 1013 84 0 4.31 18 11:21 22.05.2020
2611 Clouds 4 1013 84 0 4.31 18 10:55 22.05.2020
2612 Clouds 4 1013 84 0 4.31 18 10:37 22.05.2020
2613 Clouds 5 1014 81 0 4.43 3 10:18 22.05.2020
2614 Clouds 5 1014 81 0 4.43 3 09:42 22.05.2020
2615 Clouds 7 1013 76 0 3.73 354 09:20 22.05.2020
2616 Clouds 7 1013 76 0 3.73 354 08:46 22.05.2020
2617 Clear 7 1013 74 0 4.45 332 08:22 22.05.2020
2618 Clear 7 1013 74 0 4.45 332 08:22 22.05.2020
2619 Clear 7 1013 74 0 4.45 332 07:58 22.05.2020
2620 Clear 7 1013 74 0 4.45 332 07:39 22.05.2020
2621 Clear 8 1014 71 0 3.45 311 07:21 22.05.2020
2622 Clear 8 1014 71 0 3.45 311 06:40 22.05.2020
2623 Clear 8 1013 73 0 2.8 276 05:58 22.05.2020
2624 Clear 8 1013 73 0 2.8 276 05:34 22.05.2020
2625 Clear 7 1013 75 0 3.53 253 04:45 22.05.2020
2626 Clear 7 1013 77 0 4.03 237 03:49 22.05.2020
2627 Clear 7 1013 79 0 3.86 233 03:28 22.05.2020
2628 Clouds 7 1013 79 0 3.67 223 01:57 22.05.2020
2629 Clouds 7 1013 79 0 3.67 223 01:30 22.05.2020
2630 Clouds 7 1013 78 0 3.57 197 00:50 22.05.2020
2631 Clouds 7 1012 79 0 4.22 182 00:28 22.05.2020
2632 Clouds 7 1012 79 0 4.22 182 23:54 21.05.2020
2633 Clouds 7 1012 79 0 4.22 182 23:36 21.05.2020
2634 Clouds 6 1012 81 0 4.08 186 23:18 21.05.2020
2635 Clouds 6 1012 81 0 4.08 186 22:55 21.05.2020
2636 Clouds 6 1012 81 0 4.08 186 22:36 21.05.2020
2637 Clouds 6 1012 84 0 4.53 181 22:18 21.05.2020
2638 Clouds 6 1012 84 0 4.53 181 21:43 21.05.2020
2639 Clouds 7 1012 86 0 4.79 182 21:25 21.05.2020
2640 Clouds 7 1012 84 0 4.6 176 20:46 21.05.2020
2641 Clear 7 1012 84 0 4.99 171 20:22 21.05.2020
2642 Clear 7 1012 84 0 4.99 171 19:57 21.05.2020
2643 Clear 7 1012 84 0 4.99 171 19:38 21.05.2020
2644 Clear 8 1012 81 0 4.23 163 19:19 21.05.2020
2645 Clear 8 1012 81 0 4.23 163 18:40 21.05.2020
2646 Clear 8 1011 80 0 3.84 167 18:20 21.05.2020
2647 Clear 8 1011 80 0 3.84 167 17:58 21.05.2020
2648 Clear 8 1011 80 0 3.84 167 17:40 21.05.2020
2649 Clear 9 1011 76 0 4.43 186 17:22 21.05.2020
2650 Clear 9 1011 76 0 4.43 186 16:47 21.05.2020
2651 Clear 9 1011 74 0 5.44 193 16:25 21.05.2020
2652 Clear 9 1011 74 0 5.44 193 15:55 21.05.2020
2653 Clear 9 1011 74 0 5.44 193 15:37 21.05.2020
2654 Clear 10 1011 72 0 6.25 191 15:18 21.05.2020
2655 Clear 10 1011 72 0 6.25 191 14:39 21.05.2020
2656 Clouds 10 1011 72 0 6.89 193 14:18 21.05.2020
2657 Clouds 10 1011 72 0 6.89 193 13:41 21.05.2020
2658 Clouds 9 1010 72 0 6.96 198 13:22 21.05.2020
2659 Clouds 9 1010 72 0 6.96 198 12:58 21.05.2020
2660 Clouds 9 1010 72 0 6.96 198 12:37 21.05.2020
2661 Clouds 9 1009 76 0 7.13 202 12:19 21.05.2020
2662 Clouds 9 1009 76 0 7.13 202 11:42 21.05.2020
2663 Clouds 9 1009 79 0 7.71 206 11:23 21.05.2020
2664 Clouds 9 1009 79 0 7.71 206 10:58 21.05.2020
2665 Clouds 9 1009 79 0 7.71 206 10:39 21.05.2020
2666 Clouds 8 1008 83 0 7.97 210 10:19 21.05.2020
2667 Clouds 8 1008 83 0 7.97 210 09:54 21.05.2020
2668 Clouds 8 1008 83 0 7.97 210 09:36 21.05.2020
2669 Clouds 6 1007 92 0 8.96 205 09:18 21.05.2020
2670 Clear 10 1006 81 0 8.51 203 08:45 21.05.2020
2671 Clouds 10 1006 80 0 8.49 188 08:26 21.05.2020
2672 Clouds 10 1006 80 0 8.49 188 07:46 21.05.2020
2673 Clouds 10 1005 79 0 8.16 184 07:27 21.05.2020
2674 Clouds 10 1005 79 0 8.16 184 06:52 21.05.2020
2675 Clouds 9 1004 81 0 8.01 181 05:54 21.05.2020
2676 Clouds 8 1004 83 0 6.07 178 04:58 21.05.2020
2677 Clear 7 1004 87 0 4.11 173 03:22 21.05.2020
2678 Clear 7 1004 87 0 4.11 173 03:22 21.05.2020
2679 Clear 7 1004 87 0 4.11 173 03:22 21.05.2020
2680 Clear 7 1004 87 0 4.11 173 02:42 21.05.2020
2681 Clouds 6 1004 90 0 3.66 170 02:21 21.05.2020
2682 Clouds 6 1004 91 0 3.73 165 01:43 21.05.2020
2683 Clouds 6 1004 95 0 3.49 167 01:19 21.05.2020
2684 Clouds 6 1004 95 0 3.49 167 00:45 21.05.2020
2685 Clouds 6 1004 99 0 3.54 167 00:22 21.05.2020
2686 Clouds 6 1004 99 0 3.54 167 23:41 20.05.2020
2687 Clouds 5 1004 99 0 4.53 118 23:20 20.05.2020
2688 Clouds 5 1004 99 0 4.53 118 22:57 20.05.2020
2689 Clouds 5 1004 99 0 4.53 118 22:38 20.05.2020
2690 Clouds 5 1004 100 0 5.32 94 22:20 20.05.2020
2691 Clouds 5 1004 100 0 5.32 94 21:40 20.05.2020
2692 Clouds 6 1005 99 0 3.49 110 21:21 20.05.2020
2693 Clouds 6 1005 99 0 3.49 110 20:44 20.05.2020
2694 Rain 5 1005 99 0 5.02 108 20:25 20.05.2020
2695 Rain 5 1005 99 0 5.02 108 19:57 20.05.2020
2696 Rain 5 1005 99 0 5.02 108 19:38 20.05.2020
2697 Rain 5 1005 99 0 5.92 97 19:19 20.05.2020
2698 Rain 5 1005 99 0 5.92 97 18:43 20.05.2020
2699 Rain 5 1005 99 0 5.58 95 18:24 20.05.2020
2700 Rain 5 1005 99 0 5.58 95 17:44 20.05.2020
2701 Rain 4 1005 99 0 7.11 96 17:24 20.05.2020
2702 Rain 4 1005 99 0 7.11 96 16:58 20.05.2020
2703 Rain 4 1005 99 0 7.11 96 16:39 20.05.2020
2704 Rain 4 1005 99 0 7.11 96 16:39 20.05.2020
2705 Rain 4 1006 99 0 6.98 87 16:21 20.05.2020
2706 Rain 4 1006 99 0 6.98 87 15:55 20.05.2020
2707 Rain 4 1006 99 0 6.98 87 15:36 20.05.2020
2708 Rain 5 1006 99 0 7.52 88 15:18 20.05.2020
2709 Rain 5 1006 99 0 7.52 88 14:38 20.05.2020
2710 Clouds 4 1007 100 0 7.65 89 14:19 20.05.2020
2711 Rain 4 1007 99 0 6.87 93 13:40 20.05.2020
2712 Clouds 4 1007 99 0 8.15 90 13:18 20.05.2020
2713 Clouds 4 1007 99 0 8.15 90 12:42 20.05.2020
2714 Clouds 3 1008 99 0 8.98 77 12:21 20.05.2020
2715 Clouds 3 1008 99 0 8.98 77 11:39 20.05.2020
2716 Clouds 2 1008 99 0 8.74 78 11:20 20.05.2020
2717 Clouds 2 1008 99 0 8.74 78 10:58 20.05.2020
2718 Clouds 2 1008 99 0 8.74 78 10:40 20.05.2020
2719 Rain 1 1009 99 0 8.52 63 10:19 20.05.2020
2720 Rain 1 1009 99 0 8.52 63 09:41 20.05.2020
2721 Rain 1 1010 98 0 8.64 60 09:21 20.05.2020
2722 Rain 1 1010 98 0 8.64 60 08:42 20.05.2020
2723 Rain 1 1010 98 0 8.64 60 08:42 20.05.2020
2724 Rain 1 1011 98 0 7.83 70 08:20 20.05.2020
2725 Rain 1 1011 98 0 7.83 70 07:54 20.05.2020
2726 Rain 1 1011 98 0 7.83 70 07:36 20.05.2020
2727 Clouds 0 1012 99 0 8.51 60 07:18 20.05.2020
2728 Clouds 1 1012 99 0 8.09 62 06:24 20.05.2020
2729 Clouds 1 1012 99 0 6.75 61 05:18 20.05.2020
2730 Clouds 0 1013 99 0 7.09 70 04:19 20.05.2020
2731 Clouds 0 1013 99 0 7.09 70 03:36 20.05.2020
2732 Clouds 0 1015 98 0 6.52 82 01:57 20.05.2020
2733 Clouds 0 1015 98 0 5.98 92 01:24 20.05.2020
2734 Clouds 0 1015 98 0 5.98 92 00:41 20.05.2020
2735 Clouds 0 1015 97 0 6.54 94 00:22 20.05.2020
2736 Clouds 0 1015 97 0 6.54 94 23:38 19.05.2020
2737 Clouds 0 1015 95 0 5.61 94 23:19 19.05.2020
2738 Clouds 0 1015 95 0 5.61 94 22:55 19.05.2020
2739 Clouds 0 1015 95 0 5.61 94 22:37 19.05.2020
2740 Clouds 1 1015 89 0 5.26 97 22:18 19.05.2020
2741 Clouds 1 1015 89 0 5.26 97 21:55 19.05.2020
2742 Clouds 1 1015 89 0 5.26 97 21:36 19.05.2020
2743 Clouds 2 1015 85 0 4.67 97 21:18 19.05.2020
2744 Clouds 2 1015 85 0 4.67 97 20:56 19.05.2020
2745 Clouds 2 1015 85 0 4.67 97 20:37 19.05.2020
2746 Clouds 3 1016 85 0 4.12 110 20:19 19.05.2020
2747 Clouds 3 1016 85 0 4.12 110 19:38 19.05.2020
2748 Clouds 3 1016 85 0 4.32 112 19:20 19.05.2020
2749 Clouds 3 1016 85 0 4.32 112 18:45 19.05.2020
2750 Clouds 4 1015 82 0 4.46 107 18:23 19.05.2020
2751 Clouds 4 1015 82 0 4.46 107 17:58 19.05.2020
2752 Clouds 4 1015 82 0 4.46 107 17:39 19.05.2020
2753 Clouds 4 1015 83 0 3.53 104 17:20 19.05.2020
2754 Clouds 4 1015 83 0 3.53 104 16:55 19.05.2020
2755 Clouds 4 1015 83 0 3.53 104 16:37 19.05.2020
2756 Clouds 4 1015 88 0 2.93 106 16:18 19.05.2020
2757 Clouds 4 1015 88 0 2.93 106 15:41 19.05.2020
2758 Clouds 4 1015 90 0 2.78 99 15:20 19.05.2020
2759 Clouds 4 1015 90 0 2.78 99 14:55 19.05.2020
2760 Clouds 4 1015 90 0 2.78 99 14:36 19.05.2020
2761 Clouds 4 1015 90 0 2.3 108 14:18 19.05.2020
2762 Clouds 4 1015 90 0 2.73 99 13:55 19.05.2020
2763 Clouds 4 1015 90 0 2.73 99 13:37 19.05.2020
2764 Clear 4 1015 91 0 2.86 119 13:18 19.05.2020
2765 Clear 4 1015 91 0 2.86 119 12:55 19.05.2020
2766 Clear 4 1015 91 0 2.86 119 12:36 19.05.2020
2767 Clear 4 1014 91 0 2.89 131 12:18 19.05.2020
2768 Clear 4 1014 91 0 2.89 131 11:40 19.05.2020
2769 Clear 4 1014 91 0 2.51 134 11:22 19.05.2020
2770 Clear 4 1014 91 0 2.51 134 11:22 19.05.2020
2771 Clear 4 1014 91 0 2.51 134 10:55 19.05.2020
2772 Clear 4 1014 91 0 2.51 134 10:37 19.05.2020
2773 Clear 4 1013 91 0 2.2 124 10:18 19.05.2020
2774 Clear 4 1013 91 0 2.2 124 09:42 19.05.2020
2775 Clear 3 1013 91 0 1.8 105 09:24 19.05.2020
2776 Clear 7 1014 65 0 2.75 113 08:47 19.05.2020
2777 Clear 7 1014 70 0 2.44 111 08:25 19.05.2020
2778 Clear 7 1014 70 0 2.44 111 07:47 19.05.2020
2779 Clear 6 1014 75 0 2.53 111 07:27 19.05.2020
2780 Clear 6 1014 75 0 2.53 111 06:55 19.05.2020
2781 Clear 5 1013 78 0 2.68 123 06:26 19.05.2020
2782 Clear 5 1013 78 0 2.68 123 05:42 19.05.2020
2783 Clear 4 1012 80 0 2.35 127 05:19 19.05.2020
2784 Clear 4 1012 80 0 2.35 127 04:35 19.05.2020
2785 Clouds 2 1013 85 0 2.51 127 02:23 19.05.2020
2786 Clear 1 1013 90 0 0.81 145 00:48 19.05.2020
2787 Clear 1 1012 90 0 1.02 209 00:28 19.05.2020
2788 Clear 1 1012 90 0 1.02 209 23:59 18.05.2020
2789 Clear 1 1012 90 0 1.02 209 23:40 18.05.2020
2790 Clear 1 1012 87 0 2.07 177 23:20 18.05.2020
2791 Clear 1 1012 87 0 2.07 177 22:42 18.05.2020
2792 Clear 2 1012 85 0 3.36 155 22:22 18.05.2020
2793 Clear 2 1012 85 0 3.36 155 21:59 18.05.2020
2794 Clear 2 1012 85 0 3.36 155 21:40 18.05.2020
2795 Clouds 2 1012 84 0 3.84 134 21:20 18.05.2020
2796 Clear 2 1012 84 0 4.04 148 20:57 18.05.2020
2797 Clear 2 1012 84 0 4.04 148 20:37 18.05.2020
2798 Clouds 2 1012 84 0 3.69 144 20:18 18.05.2020
2799 Clouds 2 1012 84 0 3.69 144 19:41 18.05.2020
2800 Clouds 2 1012 85 0 3.47 146 19:19 18.05.2020
2801 Clouds 2 1012 85 0 3.47 146 19:19 18.05.2020
2802 Clear 2 1012 87 0 3.03 151 18:55 18.05.2020
2803 Clouds 2 1012 85 0 3.47 146 18:36 18.05.2020
2804 Clouds 2 1012 90 0 3.2 163 18:18 18.05.2020
2805 Clear 2 1012 92 0 3.14 161 17:37 18.05.2020
2806 Clouds 3 1011 93 0 3.96 176 17:18 18.05.2020
2807 Clouds 3 1011 93 0 3.96 176 17:18 18.05.2020
2808 Clouds 3 1011 93 0 3.96 176 16:55 18.05.2020
2809 Clear 3 1011 92 0 2.96 151 16:36 18.05.2020
2810 Clouds 4 1011 93 0 3.37 162 16:18 18.05.2020
2811 Clouds 4 1011 93 0 3.37 162 15:42 18.05.2020
2812 Clear 4 1011 91 0 2.8 147 15:23 18.05.2020
2813 Clear 4 1011 91 0 2.8 147 14:58 18.05.2020
2814 Clear 3 1011 90 0 2.9 135 14:39 18.05.2020
2815 Clouds 4 1011 90 0 2.9 129 14:20 18.05.2020
2816 Clouds 3 1011 90 0 3.13 124 13:42 18.05.2020
2817 Clouds 3 1011 91 0 3.32 115 13:21 18.05.2020
2818 Clouds 3 1011 91 0 3.32 115 12:58 18.05.2020
2819 Clouds 3 1011 91 0 3.32 115 12:40 18.05.2020
2820 Clouds 3 1011 92 0 3.77 107 12:20 18.05.2020
2821 Clouds 3 1011 92 0 3.77 107 11:59 18.05.2020
2822 Clouds 3 1011 92 0 3.77 107 11:40 18.05.2020
2823 Clouds 2 1010 93 0 3.63 105 11:22 18.05.2020
2824 Clouds 2 1010 93 0 3.63 105 10:46 18.05.2020
2825 Clouds 2 1010 93 0 3.63 105 10:46 18.05.2020
2826 Clouds 2 1010 94 0 3.25 111 10:24 18.05.2020
2827 Clouds 2 1010 94 0 3.25 111 09:46 18.05.2020
2828 Clouds 2 1010 91 0 2.79 116 09:27 18.05.2020
2829 Clouds 2 1010 91 0 2.79 116 08:57 18.05.2020
2830 Clouds 2 1010 91 0 2.79 116 08:39 18.05.2020
2831 Clouds 1 1010 92 0 2.22 125 08:20 18.05.2020
2832 Clouds 1 1010 92 0 2.22 125 07:42 18.05.2020
2833 Clouds 1 1009 94 0 1.64 168 07:21 18.05.2020
2834 Clouds 1 1009 94 0 1.64 168 06:47 18.05.2020
2835 Clouds 1 1009 94 0 2.93 191 06:23 18.05.2020
2836 Clouds 1 1009 94 0 2.93 191 05:43 18.05.2020
2837 Clouds 0 1008 96 0 3.32 207 03:39 18.05.2020
2838 Clouds 0 1008 96 0 3.5 206 02:56 18.05.2020
2839 Clouds 0 1008 97 0 2.92 213 01:45 18.05.2020
2840 Clouds 0 1008 98 0 2.55 212 00:41 18.05.2020
2841 Clouds 0 1008 98 0 2.3 214 00:19 18.05.2020
2842 Clouds 0 1008 98 0 2.3 214 23:55 17.05.2020
2843 Clouds 0 1008 98 0 2.3 214 23:36 17.05.2020
2844 Clouds 0 1007 99 0 1.64 216 23:18 17.05.2020
2845 Clouds 0 1007 99 0 1.64 216 22:40 17.05.2020
2846 Clouds 0 1007 99 0 1.64 216 22:39 17.05.2020
2847 Clouds 0 1007 99 0 1.03 209 22:21 17.05.2020
2848 Clouds 0 1007 99 0 1.03 209 21:59 17.05.2020
2849 Clouds 0 1007 99 0 1.03 209 21:41 17.05.2020
2850 Clouds 0 1007 99 0 0.68 184 21:19 17.05.2020
2851 Clouds 0 1007 99 0 1.1 200 20:55 17.05.2020
2852 Clouds 0 1007 99 0 1.1 200 20:37 17.05.2020
2853 Clouds 0 1007 99 0 0.28 163 20:18 17.05.2020
2854 Clouds 0 1007 99 0 0.28 163 19:42 17.05.2020
2855 Clouds 0 1007 99 0 0.28 163 19:42 17.05.2020
2856 Clouds 0 1007 99 0 0.47 44 19:23 17.05.2020
2857 Clouds 0 1007 99 0 0.47 44 18:56 17.05.2020
2858 Clouds 0 1007 99 0 0.47 44 18:38 17.05.2020
2859 Clouds -1 1007 99 0 0.47 40 18:19 17.05.2020
2860 Clouds -1 1007 99 0 0.47 40 17:40 17.05.2020
2861 Clouds -1 1007 99 0 0.34 63 17:22 17.05.2020
2862 Clouds -1 1007 99 0 0.34 63 16:57 17.05.2020
2863 Clouds -1 1007 99 0 0.34 63 16:38 17.05.2020
2864 Clouds -1 1007 99 0 0.75 66 16:19 17.05.2020
2865 Clouds -1 1007 99 0 0.75 66 16:19 17.05.2020
2866 Clouds -1 1007 99 0 0.75 66 16:19 17.05.2020
2867 Clouds -1 1007 99 0 0.75 66 16:19 17.05.2020
2868 Clouds -1 1007 99 0 0.75 66 15:46 17.05.2020
2869 Snow -1 1006 99 0 1.15 59 15:24 17.05.2020
2870 Snow -1 1006 99 0 1.15 59 14:58 17.05.2020
2871 Snow -1 1006 99 0 1.15 59 14:58 17.05.2020
2872 Snow -1 1006 99 0 1.15 59 14:39 17.05.2020
2873 Snow -1 1007 99 0 1.41 63 14:19 17.05.2020
2874 Snow -1 1007 99 0 1.27 65 13:42 17.05.2020
2875 Snow -1 1007 99 0 1.68 63 13:20 17.05.2020
2876 Clouds -1 1006 98 0 4.67 70 05:25 17.05.2020
2877 Clouds -1 1006 98 0 4.75 70 03:34 17.05.2020
2878 Clouds -1 1008 98 0 4.8 77 02:27 17.05.2020
2879 Clouds -1 1008 98 0 4.39 83 01:54 17.05.2020
2880 Clouds -1 1008 98 0 4.46 85 00:52 17.05.2020
2881 Clouds -1 1008 98 0 4.46 85 00:30 17.05.2020
2882 Clouds -1 1007 99 0 4.38 85 23:56 16.05.2020
2883 Clouds -1 1007 99 0 4.38 85 23:38 16.05.2020
2884 Snow -1 1007 99 0 4.48 85 23:18 16.05.2020
2885 Snow -1 1007 99 0 4.48 85 22:42 16.05.2020
2886 Snow -1 1007 99 0 4.61 87 22:22 16.05.2020
2887 Snow -1 1007 99 0 4.61 87 21:57 16.05.2020
2888 Snow -1 1007 99 0 4.61 87 21:38 16.05.2020
2889 Clouds -1 1007 98 0 4.31 84 21:19 16.05.2020
2890 Clouds -1 1007 98 0 4.31 84 20:56 16.05.2020
2891 Clouds -1 1007 98 0 4.31 84 20:56 16.05.2020
2892 Clouds -1 1007 98 0 4.31 84 20:38 16.05.2020
2893 Clouds -1 1007 99 0 4.27 85 20:19 16.05.2020
2894 Clouds -1 1007 99 0 4.27 85 19:43 16.05.2020
2895 Clouds -1 1007 99 0 4.64 84 19:23 16.05.2020
2896 Clouds -1 1007 99 0 4.64 84 18:58 16.05.2020
2897 Clouds -1 1007 99 0 4.64 84 18:40 16.05.2020
2898 Snow -1 1007 99 0 4.94 86 18:21 16.05.2020
2899 Snow -1 1007 99 0 4.94 86 17:42 16.05.2020
2900 Snow -1 1007 99 0 4.94 86 17:42 16.05.2020
2901 Snow 0 1007 99 0 5.15 87 17:21 16.05.2020
2902 Snow 0 1007 99 0 5.15 87 16:56 16.05.2020
2903 Snow 0 1007 99 0 5.15 87 16:37 16.05.2020
2904 Clouds 0 1007 99 0 5.05 92 16:18 16.05.2020
2905 Clouds 0 1007 99 0 5.05 92 15:42 16.05.2020
2906 Snow 0 1007 99 0 5.52 97 15:21 16.05.2020
2907 Snow 0 1007 99 0 5.52 97 14:58 16.05.2020
2908 Snow 0 1007 99 0 5.52 97 14:38 16.05.2020
2909 Snow 0 1007 99 0 6.1 103 14:20 16.05.2020
2910 Snow 0 1007 99 0 6.1 103 13:43 16.05.2020
2911 Snow 0 1007 99 0 6.5 104 13:24 16.05.2020
2912 Snow 0 1007 99 0 6.5 104 12:59 16.05.2020
2913 Snow 0 1007 99 0 6.5 104 12:40 16.05.2020
2914 Snow 0 1006 99 0 7.22 103 12:19 16.05.2020
2915 Snow 0 1006 99 0 7.22 103 12:19 16.05.2020
2916 Snow 0 1006 99 0 7.22 103 11:42 16.05.2020
2917 Snow 0 1006 99 0 7.75 101 11:23 16.05.2020
2918 Snow 0 1006 99 0 7.75 101 10:58 16.05.2020
2919 Snow 0 1006 99 0 7.75 101 10:40 16.05.2020
2920 Snow -1 1006 99 0 8.29 101 10:21 16.05.2020
2921 Snow -1 1006 99 0 8.29 101 09:56 16.05.2020
2922 Snow -1 1006 99 0 8.29 101 09:38 16.05.2020
2923 Snow -1 1005 99 0 8.85 99 09:18 16.05.2020
2924 Snow 0 1005 99 0 8.53 108 08:42 16.05.2020
2925 Snow 0 1005 99 0 9 107 08:19 16.05.2020
2926 Snow 0 1005 99 0 9 107 07:43 16.05.2020
2927 Snow 0 1005 99 0 9.5 107 07:24 16.05.2020
2928 Snow 0 1005 99 0 9.5 107 06:49 16.05.2020
2929 Snow -1 1004 99 0 10.04 105 06:24 16.05.2020
2930 Snow -1 1004 99 0 10.04 105 05:56 16.05.2020
2931 Snow -1 1004 98 0 10.54 103 05:29 16.05.2020
2932 Snow -1 1004 98 0 11.17 101 03:34 16.05.2020
2933 Snow -1 1004 98 0 11.2 99 02:52 16.05.2020
2934 Snow -1 1004 98 0 10.58 98 02:20 16.05.2020
2935 Snow -1 1004 98 0 11.19 100 01:44 16.05.2020
2936 Clouds 0 1004 98 0 11.25 100 01:18 16.05.2020
2937 Clouds 0 1004 98 0 11.25 100 00:42 16.05.2020
2938 Clouds 0 1003 96 0 11.78 99 00:21 16.05.2020
2939 Clouds 0 1003 96 0 11.78 99 23:40 15.05.2020
2940 Clouds 1 1003 95 0 11.85 99 23:20 15.05.2020
2941 Clouds 1 1003 95 0 11.85 99 22:56 15.05.2020
2942 Clouds 1 1003 95 0 11.85 99 22:38 15.05.2020
2943 Snow 0 1003 96 0 12.32 99 22:18 15.05.2020
2944 Snow 0 1003 96 0 12.32 99 21:39 15.05.2020
2945 Clouds 0 1004 97 0 11.88 95 21:21 15.05.2020
2946 Clouds 0 1004 97 0 11.88 95 20:58 15.05.2020
2947 Clouds 0 1004 97 0 11.88 95 20:40 15.05.2020
2948 Snow 0 1004 98 0 11.87 95 20:22 15.05.2020
2949 Snow 0 1004 98 0 11.87 95 20:22 15.05.2020
2950 Snow 0 1004 98 0 11.87 95 19:55 15.05.2020
2951 Snow 0 1004 98 0 11.87 95 19:36 15.05.2020
2952 Snow 0 1005 98 0 11.59 92 19:18 15.05.2020
2953 Snow 0 1005 98 0 11.59 92 18:41 15.05.2020
2954 Snow 0 1005 98 0 11.1 93 18:23 15.05.2020
2955 Snow 0 1005 98 0 11.1 93 17:39 15.05.2020
2956 Snow 0 1005 98 0 11.44 94 17:19 15.05.2020
2957 Snow -1 1005 98 0 10.76 94 16:57 15.05.2020
2958 Snow -1 1005 98 0 10.76 94 16:38 15.05.2020
2959 Snow 0 1005 98 0 11.57 95 16:19 15.05.2020
2960 Snow 0 1005 98 0 11.37 95 15:42 15.05.2020
2961 Clouds 0 1006 98 0 11.02 94 15:24 15.05.2020
2962 Rain 0 1006 98 0 10.63 96 14:59 15.05.2020
2963 Rain 0 1006 98 0 10.63 96 14:41 15.05.2020
2964 Rain 0 1007 98 0 8.75 96 14:23 15.05.2020
2965 Clouds 0 1007 98 0 9.58 97 13:58 15.05.2020
2966 Clouds 0 1007 98 0 9.58 97 13:39 15.05.2020
2967 Rain 0 1007 97 0 8.26 100 13:19 15.05.2020
2968 Rain 0 1007 97 0 8.26 100 12:39 15.05.2020
2969 Rain 0 1008 99 0 5.86 99 12:18 15.05.2020
2970 Rain 0 1008 99 0 5.86 99 11:57 15.05.2020
2971 Rain 0 1008 99 0 5.86 99 11:38 15.05.2020
2972 Clouds 0 1008 99 0 2.55 65 11:19 15.05.2020
2973 Clouds 0 1008 99 0 2.55 65 10:57 15.05.2020
2974 Clouds 0 1008 99 0 2.55 65 10:38 15.05.2020
2975 Clouds 0 1008 99 0 2.55 65 10:38 15.05.2020
2976 Clouds 0 1009 99 0 3.93 336 10:20 15.05.2020
2977 Clouds 0 1009 99 0 3.93 336 09:56 15.05.2020
2978 Clouds 0 1009 98 0 5.76 337 09:36 15.05.2020
2979 Clouds 0 1010 97 0 7.76 335 09:18 15.05.2020
2980 Clouds 0 1010 97 0 7.76 335 08:38 15.05.2020
2981 Clouds 0 1011 97 0 7.81 329 08:20 15.05.2020
2982 Clouds 0 1011 97 0 7.81 329 07:47 15.05.2020
2983 Clouds 0 1012 97 0 8.1 328 07:28 15.05.2020
2984 Clouds 0 1012 97 0 8.1 328 06:59 15.05.2020
2985 Clouds 0 1012 96 0 6.9 326 05:56 15.05.2020
2986 Clouds 0 1012 98 0 6.87 325 04:38 15.05.2020
2987 Clouds 0 1012 98 0 7.13 319 03:50 15.05.2020
2988 Clouds 0 1013 97 0 6.57 314 02:49 15.05.2020
2989 Clouds 0 1013 98 0 6.44 325 01:36 15.05.2020
2990 Clouds 0 1013 97 0 7.07 317 00:58 15.05.2020
2991 Clouds 0 1013 97 0 7.07 317 00:39 15.05.2020
2992 Snow 1 1012 97 0 6.79 301 00:21 15.05.2020
2993 Snow 1 1012 97 0 6.79 301 23:41 14.05.2020
2994 Rain 1 1012 97 0 8.53 298 23:18 14.05.2020
2995 Rain 1 1012 97 0 8.53 298 23:18 14.05.2020
2996 Rain 1 1012 97 0 8.53 298 22:42 14.05.2020
2997 Rain 1 1011 96 0 9.74 298 22:23 14.05.2020
2998 Rain 1 1011 96 0 9.74 298 21:58 14.05.2020
2999 Rain 1 1011 96 0 9.74 298 21:40 14.05.2020
3000 Rain 1 1011 95 0 8.76 281 21:19 14.05.2020
3001 Rain 1 1011 95 0 8.76 281 20:56 14.05.2020
3002 Rain 1 1011 95 0 8.76 281 20:38 14.05.2020
3003 Rain 2 1011 95 0 8.04 259 20:19 14.05.2020
3004 Rain 2 1011 95 0 8.04 259 19:55 14.05.2020
3005 Rain 2 1011 95 0 8.04 259 19:37 14.05.2020
3006 Rain 4 1010 98 0 2.98 158 19:19 14.05.2020
3007 Rain 4 1010 98 0 2.98 158 18:54 14.05.2020
3008 Rain 4 1010 98 0 2.98 158 18:36 14.05.2020
3009 Rain 4 1009 98 0 3.03 138 18:18 14.05.2020
3010 Rain 4 1009 98 0 3.03 138 17:55 14.05.2020
3011 Rain 4 1009 98 0 3.03 138 17:36 14.05.2020
3012 Clouds 5 1007 96 0 4.15 166 17:18 14.05.2020
3013 Clouds 5 1007 96 0 4.15 166 16:39 14.05.2020
3014 Clouds 5 1007 96 0 5.08 143 16:20 14.05.2020
3015 Clouds 5 1007 96 0 5.08 143 15:57 14.05.2020
3016 Clouds 5 1007 96 0 5.08 143 15:39 14.05.2020
3017 Rain 5 1007 96 0 5.89 126 15:19 14.05.2020
3018 Rain 5 1007 96 0 5.89 126 14:56 14.05.2020
3019 Rain 5 1007 96 0 5.89 126 14:37 14.05.2020
3020 Clouds 5 1006 97 0 6.52 109 14:19 14.05.2020
3021 Clouds 5 1006 97 0 6.52 109 13:55 14.05.2020
3022 Clouds 5 1006 97 0 6.52 109 13:37 14.05.2020
3023 Clouds 5 1006 98 0 5.97 122 13:18 14.05.2020
3024 Clouds 5 1006 98 0 5.97 122 12:55 14.05.2020
3025 Clouds 5 1006 98 0 5.97 122 12:36 14.05.2020
3026 Clouds 5 1005 99 0 6.31 117 12:18 14.05.2020
3027 Clouds 5 1005 99 0 6.31 117 11:42 14.05.2020
3028 Clouds 5 1006 99 0 6.72 121 11:24 14.05.2020
3029 Clouds 5 1006 99 0 6.72 121 10:58 14.05.2020
3030 Clouds 5 1006 99 0 6.72 121 10:39 14.05.2020
3031 Clouds 5 1006 100 0 7.28 128 10:21 14.05.2020
3032 Clouds 5 1006 100 0 7.28 128 09:43 14.05.2020
3033 Clouds 6 1006 90 0 8.06 127 09:23 14.05.2020
3034 Clouds 6 1006 90 0 8.06 127 08:43 14.05.2020
3035 Clouds 7 1006 86 0 7.03 120 08:21 14.05.2020
3036 Clouds 7 1006 86 0 7.03 120 07:47 14.05.2020
3037 Clouds 6 1007 87 0 7.27 120 07:26 14.05.2020
3038 Clouds 6 1007 87 0 7.27 120 06:59 14.05.2020
3039 Clouds 6 1007 87 0 7.27 120 06:34 14.05.2020
3040 Clouds 5 1006 93 0 7.35 116 05:59 14.05.2020
3041 Clouds 5 1006 93 0 7.35 116 05:37 14.05.2020
3042 Rain 5 1006 93 0 7.44 121 04:42 14.05.2020
3043 Rain 5 1006 93 0 6.51 123 03:32 14.05.2020
3044 Rain 5 1007 94 0 6.3 125 02:43 14.05.2020
3045 Rain 4 1007 94 0 5.71 113 02:20 14.05.2020
3046 Rain 4 1007 94 0 5.71 113 01:44 14.05.2020
3047 Rain 3 1007 94 0 6.34 99 00:51 14.05.2020
3048 Rain 3 1007 94 0 6.34 99 00:51 14.05.2020
3049 Rain 3 1007 92 0 5.17 98 00:26 14.05.2020
3050 Rain 3 1007 92 0 5.17 98 23:45 13.05.2020
3051 Rain 3 1007 92 0 5.17 98 23:45 13.05.2020
3052 Clouds 3 1007 91 0 6.31 114 23:22 13.05.2020
3053 Clouds 3 1007 91 0 6.31 114 22:58 13.05.2020
3054 Clouds 3 1007 91 0 6.31 114 22:39 13.05.2020
3055 Clouds 3 1008 94 0 7.96 112 22:21 13.05.2020
3056 Clouds 3 1008 94 0 7.96 112 21:57 13.05.2020
3057 Clouds 3 1008 94 0 7.96 112 21:38 13.05.2020
3058 Clouds 3 1008 94 0 7.96 112 21:38 13.05.2020
3059 Clouds 3 1009 94 0 7.04 106 21:19 13.05.2020
3060 Clouds 3 1009 94 0 7.04 106 20:41 13.05.2020
3061 Clouds 3 1009 94 0 7.11 105 20:23 13.05.2020
3062 Clouds 3 1009 94 0 7.11 105 19:56 13.05.2020
3063 Clouds 3 1009 94 0 7.11 105 19:38 13.05.2020
3064 Clouds 3 1009 95 0 6.77 106 19:19 13.05.2020
3065 Clouds 3 1009 95 0 6.77 106 18:42 13.05.2020
3066 Clouds 3 1009 95 0 6.77 106 18:42 13.05.2020
3067 Clouds 4 1010 96 0 7.15 107 18:21 13.05.2020
3068 Clouds 4 1010 96 0 7.15 107 17:40 13.05.2020
3069 Clouds 4 1010 97 0 8.27 104 17:20 13.05.2020
3070 Clouds 4 1010 97 0 8.27 104 16:58 13.05.2020
3071 Clouds 4 1010 97 0 8.27 104 16:39 13.05.2020
3072 Clouds 4 1010 96 0 7.75 101 16:19 13.05.2020
3073 Clouds 4 1010 96 0 7.75 101 16:19 13.05.2020
3074 Clouds 4 1010 96 0 7.75 101 15:43 13.05.2020
3075 Clouds 5 1011 98 0 7.17 107 15:20 13.05.2020
3076 Clouds 5 1011 98 0 7.17 107 15:20 13.05.2020
3077 Clouds 5 1011 98 0 7.17 107 14:59 13.05.2020
3078 Clouds 5 1011 98 0 7.17 107 14:59 13.05.2020
3079 Clouds 5 1011 98 0 7.17 107 14:41 13.05.2020
3080 Clouds 5 1011 98 0 7.28 104 14:22 13.05.2020
3081 Clouds 5 1011 98 0 7.28 104 13:58 13.05.2020
3082 Clouds 5 1011 98 0 7.28 104 13:39 13.05.2020
3083 Clouds 5 1011 99 0 6.2 108 13:20 13.05.2020
3084 Clouds 5 1011 99 0 6.2 108 12:56 13.05.2020
3085 Clouds 5 1011 99 0 6.2 108 12:37 13.05.2020
3086 Clouds 5 1011 99 0 6.3 106 12:18 13.05.2020
3087 Clouds 5 1011 99 0 6.3 106 11:54 13.05.2020
3088 Clouds 5 1011 99 0 6.3 106 11:36 13.05.2020
3089 Clouds 5 1011 99 0 5.57 117 11:18 13.05.2020
3090 Clouds 5 1011 99 0 5.57 117 10:55 13.05.2020
3091 Clouds 5 1011 99 0 5.57 117 10:37 13.05.2020
3092 Clouds 4 1011 99 0 5.68 123 10:18 13.05.2020
3093 Clouds 4 1011 99 0 5.68 123 09:41 13.05.2020
3094 Clouds 8 1010 79 0 5.52 119 09:22 13.05.2020
3095 Clouds 8 1010 79 0 5.52 119 08:43 13.05.2020
3096 Clouds 8 1010 79 0 4.81 123 08:22 13.05.2020
3097 Clouds 8 1010 79 0 4.81 123 07:59 13.05.2020
3098 Clouds 8 1010 79 0 4.81 123 07:39 13.05.2020
3099 Clouds 7 1010 83 0 4.37 136 07:21 13.05.2020
3100 Clouds 7 1010 83 0 4.37 136 06:43 13.05.2020
3101 Clouds 6 1010 88 0 4.01 130 05:54 13.05.2020
3102 Clouds 5 1009 93 0 3.75 149 04:49 13.05.2020
3103 Clouds 4 1009 92 0 3.79 156 03:26 13.05.2020
3104 Clouds 4 1009 92 0 3.31 147 02:27 13.05.2020
3105 Clouds 3 1009 94 0 3.5 145 01:28 13.05.2020
3106 Clouds 3 1009 94 0 3.5 145 00:45 13.05.2020
3107 Clouds 3 1008 95 0 3.57 133 00:20 13.05.2020
3108 Clouds 3 1008 95 0 3.57 133 23:40 12.05.2020
3109 Clouds 3 1008 98 0 3.4 147 23:21 12.05.2020
3110 Clouds 3 1008 98 0 3.4 147 22:57 12.05.2020
3111 Clouds 3 1008 98 0 3.4 147 22:39 12.05.2020
3112 Clouds 4 1007 99 0 3.49 168 22:20 12.05.2020
3113 Clouds 4 1007 99 0 3.49 168 21:55 12.05.2020
3114 Clouds 4 1007 99 0 3.49 168 21:37 12.05.2020
3115 Clouds 4 1007 98 0 4.62 172 21:18 12.05.2020
3116 Clouds 4 1007 98 0 4.62 172 20:56 12.05.2020
3117 Clouds 4 1007 98 0 4.62 172 20:38 12.05.2020
3118 Clouds 4 1007 98 0 4.59 175 20:20 12.05.2020
3119 Clouds 4 1007 98 0 4.59 175 19:56 12.05.2020
3120 Clouds 4 1007 98 0 4.59 175 19:37 12.05.2020
3121 Clouds 4 1007 99 0 4.44 169 19:18 12.05.2020
3122 Clouds 4 1007 99 0 4.44 169 18:42 12.05.2020
3123 Clouds 4 1007 99 0 4.33 154 18:23 12.05.2020
3124 Clouds 4 1007 99 0 4.33 154 17:57 12.05.2020
3125 Clouds 4 1007 99 0 4.33 154 17:38 12.05.2020
3126 Clouds 4 1006 99 0 3.91 139 17:20 12.05.2020
3127 Clouds 4 1006 99 0 3.91 139 16:42 12.05.2020
3128 Clouds 4 1006 99 0 3.73 159 16:22 12.05.2020
3129 Clouds 4 1006 99 0 3.73 159 15:56 12.05.2020
3130 Clouds 4 1006 99 0 3.73 159 15:37 12.05.2020
3131 Clouds 4 1006 99 0 4.06 182 15:18 12.05.2020
3132 Clouds 4 1006 99 0 4.06 182 14:55 12.05.2020
3133 Clouds 4 1006 99 0 4.06 182 14:36 12.05.2020
3134 Clouds 4 1006 99 0 3.94 179 14:18 12.05.2020
3135 Clouds 4 1006 99 0 3.94 179 13:55 12.05.2020
3136 Clouds 4 1006 99 0 3.94 179 13:37 12.05.2020
3137 Clouds 4 1006 99 0 4.12 183 13:18 12.05.2020
3138 Clouds 4 1006 99 0 4.12 183 12:56 12.05.2020
3139 Clouds 4 1006 99 0 4.12 183 12:56 12.05.2020
3140 Clouds 4 1006 99 0 4.12 183 12:37 12.05.2020
3141 Clouds 4 1006 99 0 4.12 183 12:37 12.05.2020
3142 Clouds 4 1005 99 0 4.58 161 12:19 12.05.2020
3143 Clouds 4 1005 99 0 4.58 161 11:56 12.05.2020
3144 Clouds 4 1005 99 0 4.58 161 11:37 12.05.2020
3145 Clouds 4 1005 100 0 4.53 161 11:19 12.05.2020
3146 Clouds 4 1005 100 0 4.53 161 10:55 12.05.2020
3147 Clouds 4 1005 100 0 4.53 161 10:37 12.05.2020
3148 Clouds 3 1005 99 0 4.65 151 10:18 12.05.2020
3149 Clouds 3 1005 99 0 4.65 151 09:55 12.05.2020
3150 Clouds 3 1005 99 0 4.65 151 09:37 12.05.2020
3151 Clouds 3 1006 99 0 5.18 172 09:19 12.05.2020
3152 Clouds 3 1006 99 0 5.18 172 08:39 12.05.2020
3153 Clouds 3 1006 99 0 5.04 175 08:21 12.05.2020
3154 Clouds 3 1006 99 0 5.04 175 07:45 12.05.2020
3155 Clouds 3 1005 99 0 5.24 161 07:27 12.05.2020
3156 Clouds 3 1005 99 0 5.24 161 06:56 12.05.2020
3157 Clouds 3 1005 99 0 5.24 161 06:37 12.05.2020
3158 Clouds 3 1006 97 0 5.37 150 06:18 12.05.2020
3159 Clouds 3 1006 97 0 5.37 150 05:44 12.05.2020
3160 Rain 2 1006 95 0 5.52 152 03:49 12.05.2020
3161 Rain 2 1007 95 0 5.67 143 02:58 12.05.2020
3162 Rain 1 1008 91 0 5.35 132 02:26 12.05.2020
3163 Rain 1 1008 91 0 5.35 132 01:33 12.05.2020
3164 Clouds 1 1009 92 0 5.93 126 00:40 12.05.2020
3165 Clouds 0 1009 96 0 5.45 124 00:21 12.05.2020
3166 Clouds 0 1009 96 0 5.45 124 23:54 11.05.2020
3167 Clouds 0 1009 96 0 5.45 124 23:36 11.05.2020
3168 Clear -1 1010 97 0 5.8 124 23:18 11.05.2020
3169 Clear -1 1010 97 0 5.8 124 22:54 11.05.2020
3170 Clear -1 1010 97 0 5.8 124 22:36 11.05.2020
3171 Clear -1 1010 97 0 6.53 117 22:18 11.05.2020
3172 Clear -1 1010 97 0 6.53 117 21:54 11.05.2020
3173 Clouds -1 1011 97 0 7.24 115 21:36 11.05.2020
3174 Clouds -1 1012 97 0 7.42 116 21:18 11.05.2020
3175 Clouds -1 1012 97 0 7.42 116 20:42 11.05.2020
3176 Clouds -1 1012 97 0 7.46 116 20:21 11.05.2020
3177 Clouds -1 1012 97 0 7.46 116 19:58 11.05.2020
3178 Clouds -1 1012 97 0 7.46 116 19:40 11.05.2020
3179 Clouds -1 1013 97 0 7.17 111 19:21 11.05.2020
3180 Clouds -1 1013 97 0 7.17 111 18:56 11.05.2020
3181 Clouds -1 1013 97 0 7.17 111 18:37 11.05.2020
3182 Clouds -1 1014 98 0 6.42 102 18:18 11.05.2020
3183 Clouds -1 1014 98 0 6.42 102 17:55 11.05.2020
3184 Clouds -1 1014 98 0 6.42 102 17:37 11.05.2020
3185 Clouds -1 1014 97 0 4.82 98 17:19 11.05.2020
3186 Clouds -1 1014 97 0 4.82 98 16:42 11.05.2020
3187 Clouds -1 1015 97 0 2.77 111 16:23 11.05.2020
3188 Clouds -1 1015 97 0 2.77 111 15:59 11.05.2020
3189 Clouds -1 1015 97 0 2.77 111 15:40 11.05.2020
3190 Clouds -1 1015 98 0 1.78 142 15:19 11.05.2020
3191 Clouds -1 1015 98 0 1.78 142 14:56 11.05.2020
3192 Clouds -1 1015 98 0 1.78 142 14:38 11.05.2020
3193 Clouds -1 1016 98 0 0.3 158 14:19 11.05.2020
3194 Clouds -1 1016 98 0 0.3 158 13:42 11.05.2020
3195 Clouds 0 1016 98 0 1.98 251 13:22 11.05.2020
3196 Clouds 0 1016 98 0 1.98 251 12:58 11.05.2020
3197 Clouds 0 1016 98 0 1.98 251 12:40 11.05.2020
3198 Clouds -1 1016 99 0 3.51 248 12:22 11.05.2020
3199 Clouds -1 1016 99 0 3.51 248 11:57 11.05.2020
3200 Clouds -1 1016 99 0 3.51 248 11:57 11.05.2020
3201 Clouds -1 1016 99 0 3.51 248 11:38 11.05.2020
3202 Clouds -1 1016 99 0 3.51 248 11:38 11.05.2020
3203 Clouds -1 1015 99 0 4.16 246 11:20 11.05.2020
3204 Clouds -1 1015 99 0 4.16 246 10:56 11.05.2020
3205 Clouds -1 1015 99 0 4.16 246 10:38 11.05.2020
3206 Clouds -1 1015 99 0 4.81 247 10:20 11.05.2020
3207 Clouds -1 1015 99 0 4.81 247 09:56 11.05.2020
3208 Clouds -1 1015 99 0 4.81 247 09:37 11.05.2020
3209 Clouds 0 1015 98 0 4.85 258 09:18 11.05.2020
3210 Clouds 0 1015 98 0 4.85 258 08:42 11.05.2020
3211 Clouds 0 1014 98 0 5.63 264 08:23 11.05.2020
3212 Clouds 0 1014 98 0 5.63 264 07:56 11.05.2020
3213 Clouds 0 1014 98 0 5.63 264 07:38 11.05.2020
3214 Clouds 0 1013 98 0 6.5 265 07:19 11.05.2020
3215 Clouds 0 1013 98 0 6.5 265 06:33 11.05.2020
3216 Clouds 0 1012 96 0 7.44 260 05:49 11.05.2020
3217 Clouds 0 1012 96 0 8.18 256 05:20 11.05.2020
3218 Clouds 0 1011 97 0 8.28 251 03:52 11.05.2020
3219 Clouds 0 1010 96 0 7.69 248 02:36 11.05.2020
3220 Clouds 0 1010 96 0 8.36 253 01:55 11.05.2020
3221 Clouds 1 1009 95 0 8.3 243 00:56 11.05.2020
3222 Clouds 1 1009 95 0 8.3 243 00:38 11.05.2020
3223 Rain 1 1009 98 0 7.25 224 00:18 11.05.2020
3224 Rain 1 1009 98 0 7.25 224 23:39 10.05.2020
3225 Rain 1 1008 97 0 7.36 215 23:19 10.05.2020
3226 Rain 1 1008 97 0 7.36 215 22:54 10.05.2020
3227 Rain 1 1008 97 0 7.36 215 22:36 10.05.2020
3228 Clouds 0 1008 98 0 5.42 207 22:18 10.05.2020
3229 Clouds 0 1008 98 0 5.42 207 21:41 10.05.2020
3230 Clouds 0 1009 97 0 3.55 166 21:18 10.05.2020
3231 Clouds 0 1009 97 0 3.55 166 20:42 10.05.2020
3232 Clouds 1 1010 94 0 3.95 169 20:24 10.05.2020
3233 Clouds 1 1010 94 0 3.95 169 19:56 10.05.2020
3234 Clouds 1 1010 94 0 3.95 169 19:38 10.05.2020
3235 Clouds 1 1011 94 0 3.36 167 19:20 10.05.2020
3236 Clouds 1 1011 94 0 3.36 167 19:20 10.05.2020
3237 Clouds 1 1011 94 0 3.36 167 18:55 10.05.2020
3238 Clouds 1 1011 94 0 3.36 167 18:36 10.05.2020
3239 Clouds 0 1011 95 0 3.42 161 18:18 10.05.2020
3240 Clouds 0 1011 95 0 3.42 161 17:57 10.05.2020
3241 Clouds 0 1011 95 0 3.42 161 17:37 10.05.2020
3242 Clouds 0 1011 95 0 3.43 161 17:19 10.05.2020
3243 Clouds 0 1011 95 0 3.43 161 16:43 10.05.2020
3244 Clouds 0 1011 95 0 3.27 156 16:21 10.05.2020
3245 Clouds 0 1011 95 0 3.27 156 15:58 10.05.2020
3246 Clouds 0 1011 95 0 3.27 156 15:39 10.05.2020
3247 Clouds 0 1011 95 0 3.27 156 15:39 10.05.2020
3248 Clouds 0 1012 95 0 3.28 140 15:20 10.05.2020
3249 Clouds 0 1012 95 0 3.28 140 14:55 10.05.2020
3250 Clouds 0 1012 95 0 3.28 140 14:37 10.05.2020
3251 Clear 1 1012 94 0 2.41 128 14:18 10.05.2020
3252 Clear 1 1012 94 0 2.41 128 13:56 10.05.2020
3253 Clear 1 1012 94 0 2.41 128 13:36 10.05.2020
3254 Clear 1 1012 94 0 2.41 128 13:36 10.05.2020
3255 Clear 1 1012 94 0 2.41 128 13:36 10.05.2020
3256 Clear 1 1013 95 0 2.33 119 13:18 10.05.2020
3257 Clear 1 1013 95 0 2.33 119 12:42 10.05.2020
3258 Clear 0 1013 96 0 2.39 115 12:22 10.05.2020
3259 Clear 0 1013 96 0 2.39 115 11:58 10.05.2020
3260 Clear 0 1013 96 0 2.39 115 11:40 10.05.2020
3261 Clear 0 1013 98 0 2.24 126 11:21 10.05.2020
3262 Clear 0 1013 98 0 2.24 126 10:54 10.05.2020
3263 Clear 0 1013 98 0 2.24 126 10:54 10.05.2020
3264 Clear 0 1013 98 0 2.24 126 10:36 10.05.2020
3265 Clear 0 1013 97 0 2.45 132 10:18 10.05.2020
3266 Clear 0 1013 97 0 2.45 132 09:41 10.05.2020
3267 Clear 0 1012 97 0 1.93 138 09:23 10.05.2020
3268 Clear 0 1012 97 0 1.93 138 08:55 10.05.2020
3269 Clear 0 1012 97 0 1.93 138 08:37 10.05.2020
3270 Clouds -1 1013 97 0 1.87 159 08:18 10.05.2020
3271 Clouds -1 1013 97 0 1.87 159 07:38 10.05.2020
3272 Clouds -1 1013 97 0 1.68 183 07:19 10.05.2020
3273 Clouds -1 1013 97 0 1.68 183 06:50 10.05.2020
3274 Clouds -1 1013 97 0 1.89 201 06:23 10.05.2020
3275 Clouds -1 1013 97 0 1.89 201 06:23 10.05.2020
3276 Clouds -1 1013 97 0 1.89 201 05:44 10.05.2020
3277 Clouds -1 1013 97 0 2.25 220 04:42 10.05.2020
3278 Clouds -1 1013 97 0 2.79 231 04:23 10.05.2020
3279 Clouds -1 1013 97 0 2.79 231 03:43 10.05.2020
3280 Clouds -2 1014 98 0 3.45 230 02:59 10.05.2020
3281 Clouds -1 1014 98 0 3.64 235 02:24 10.05.2020
3282 Clouds -1 1014 98 0 3.64 235 01:57 10.05.2020
3283 Clouds -1 1014 98 0 3.64 235 01:57 10.05.2020
3284 Clouds -1 1014 98 0 3.64 235 01:39 10.05.2020
3285 Clouds -1 1014 98 0 4.15 239 01:18 10.05.2020
3286 Clouds -1 1014 98 0 4.15 239 00:42 10.05.2020
3287 Clouds -1 1014 98 0 4.48 241 00:20 10.05.2020
3288 Clouds -1 1014 98 0 4.48 241 23:40 09.05.2020
3289 Clouds -1 1013 98 0 4.97 242 23:21 09.05.2020
3290 Clouds -1 1013 98 0 4.97 242 22:57 09.05.2020
3291 Clouds -1 1013 98 0 4.97 242 22:38 09.05.2020
3292 Clouds -1 1013 98 0 5.32 241 22:20 09.05.2020
3293 Clouds -1 1013 98 0 5.32 241 21:55 09.05.2020
3294 Clouds -1 1013 98 0 5.32 241 21:37 09.05.2020
3295 Clouds -2 1014 98 0 5.29 239 21:18 09.05.2020
3296 Clouds -2 1014 98 0 5.29 239 20:54 09.05.2020
3297 Clouds -2 1014 98 0 5.29 239 20:36 09.05.2020
3298 Clouds -1 1014 98 0 5.76 246 20:18 09.05.2020
3299 Clouds -1 1014 98 0 5.76 246 19:39 09.05.2020
3300 Clouds 0 1013 98 0 6.12 246 19:20 09.05.2020
3301 Clouds 0 1013 98 0 6.12 246 18:55 09.05.2020
3302 Clouds 0 1013 98 0 6.12 246 18:37 09.05.2020
3303 Clouds 0 1013 98 0 6.12 246 18:37 09.05.2020
3304 Clouds 0 1013 97 0 5.99 242 18:18 09.05.2020
3305 Clouds 0 1013 97 0 5.99 242 17:41 09.05.2020
3306 Clouds 0 1013 97 0 5.49 236 17:22 09.05.2020
3307 Clouds 0 1013 97 0 5.49 236 16:41 09.05.2020
3308 Clouds 0 1013 98 0 5.55 237 16:20 09.05.2020
3309 Clouds 0 1013 98 0 5.55 237 15:46 09.05.2020
3310 Clouds 0 1013 98 0 6.37 239 15:28 09.05.2020
3311 Clouds 0 1013 98 0 6.37 239 14:59 09.05.2020
3312 Clouds 0 1013 98 0 6.37 239 14:41 09.05.2020
3313 Clouds 0 1013 98 0 7.27 237 14:20 09.05.2020
3314 Clouds 0 1013 98 0 7.27 237 13:58 09.05.2020
3315 Clouds 0 1013 98 0 7.27 237 13:40 09.05.2020
3316 Clouds 0 1013 98 0 7.39 238 13:20 09.05.2020
3317 Clouds 0 1013 98 0 7.39 238 12:43 09.05.2020
3318 Clouds 0 1013 98 0 7.9 238 12:23 09.05.2020
3319 Clouds 0 1013 98 0 7.9 238 11:59 09.05.2020
3320 Clouds 0 1013 98 0 7.9 238 11:41 09.05.2020
3321 Clouds -1 1012 98 0 8.01 239 11:19 09.05.2020
3322 Clouds -1 1012 98 0 8.01 239 10:47 09.05.2020
3323 Clouds 0 1011 98 0 8.1 240 10:26 09.05.2020
3324 Clouds 0 1011 98 0 8.1 240 09:58 09.05.2020
3325 Clouds 0 1011 98 0 8.1 240 09:39 09.05.2020
3326 Clouds 0 1011 98 0 8.5 238 09:19 09.05.2020
3327 Clouds -1 1011 98 0 8.51 237 08:51 09.05.2020
3328 Clouds -1 1011 98 0 8.51 237 08:33 09.05.2020
3329 Clouds 0 1011 98 0 8.33 236 07:51 09.05.2020
3330 Clouds 0 1011 98 0 8.33 236 07:33 09.05.2020
3331 Clouds 0 1010 97 0 7.78 234 06:55 09.05.2020
3332 Clouds -1 1009 97 0 7.7 235 06:26 09.05.2020
3333 Clouds -1 1009 97 0 7.7 235 05:49 09.05.2020
3334 Clear -1 1008 97 0 7.8 241 04:20 09.05.2020
3335 Clear -1 1008 97 0 7.8 241 03:38 09.05.2020
3336 Clear -2 1007 97 0 8.07 243 02:42 09.05.2020
3337 Clouds -1 1007 97 0 8.3 245 01:54 09.05.2020
3338 Clouds 0 1006 96 0 8.39 249 01:25 09.05.2020
3339 Clouds 0 1006 96 0 8.39 249 00:55 09.05.2020
3340 Clouds 0 1006 96 0 8.39 249 00:37 09.05.2020
3341 Clouds 0 1006 96 0 8.24 250 23:54 08.05.2020
3342 Clouds 0 1006 96 0 8.24 250 23:36 08.05.2020
3343 Clouds 0 1005 97 0 8.52 252 23:18 08.05.2020
3344 Clouds 0 1005 97 0 8.52 252 22:42 08.05.2020
3345 Clouds 0 1005 98 0 8.61 253 22:20 08.05.2020
3346 Clouds 0 1005 98 0 8.61 253 21:59 08.05.2020
3347 Clouds 0 1005 98 0 8.61 253 21:41 08.05.2020
3348 Clouds -1 1004 98 0 7.99 238 21:19 08.05.2020
3349 Clouds -1 1004 98 0 8.24 236 20:58 08.05.2020
3350 Clouds -1 1004 98 0 8.24 236 20:40 08.05.2020
3351 Clouds -1 1004 98 0 7.65 237 20:21 08.05.2020
3352 Clouds -1 1004 98 0 7.65 237 19:45 08.05.2020
3353 Clouds 0 1004 98 0 6.99 247 19:24 08.05.2020
3354 Clouds 0 1004 98 0 6.99 247 18:57 08.05.2020
3355 Clouds 0 1004 98 0 6.99 247 18:39 08.05.2020
3356 Clouds 0 1003 98 0 7.05 256 18:21 08.05.2020
3357 Clouds 0 1003 98 0 7.05 256 17:42 08.05.2020
3358 Clouds 0 1003 98 0 6.48 250 17:19 08.05.2020
3359 Clouds 0 1003 98 0 6.48 250 16:46 08.05.2020
3360 Clouds 0 1002 98 0 5.98 250 16:27 08.05.2020
3361 Clouds 0 1002 98 0 5.98 250 15:59 08.05.2020
3362 Clouds 0 1002 98 0 5.98 250 15:41 08.05.2020
3363 Clouds 0 1002 98 0 5.78 254 15:18 08.05.2020
3364 Clouds 0 1002 98 0 5.78 254 14:54 08.05.2020
3365 Clouds 0 1002 98 0 5.78 254 14:36 08.05.2020
3366 Clouds -1 1002 98 0 5.03 257 14:18 08.05.2020
3367 Clouds -1 1002 98 0 5.03 257 13:41 08.05.2020
3368 Clouds 0 1002 98 0 5.38 260 13:20 08.05.2020
3369 Clouds 0 1002 98 0 5.38 260 12:55 08.05.2020
3370 Clouds 0 1002 98 0 5.38 260 12:36 08.05.2020
3371 Clouds 0 1001 98 0 4.87 263 12:18 08.05.2020
3372 Clouds 0 1001 98 0 4.87 263 11:43 08.05.2020
3373 Clouds -1 1001 99 0 5.08 271 11:22 08.05.2020
3374 Clouds -1 1001 99 0 5.08 271 10:58 08.05.2020
3375 Clouds -1 1001 99 0 5.08 271 10:40 08.05.2020
3376 Clouds 0 999 99 0 5.25 285 10:19 08.05.2020
3377 Clouds 0 999 99 0 5.25 285 09:42 08.05.2020
3378 Clouds 0 999 98 0 4.75 288 09:20 08.05.2020
3379 Clouds 0 999 98 0 4.75 288 08:59 08.05.2020
3380 Clouds 0 999 98 0 4.75 288 08:40 08.05.2020
3381 Clouds 0 998 99 0 5.17 279 08:20 08.05.2020
3382 Clouds 0 998 99 0 5.17 279 07:41 08.05.2020
3383 Clouds 1 997 99 0 5.71 268 07:23 08.05.2020
3384 Clouds 1 997 99 0 5.71 268 06:49 08.05.2020
3385 Clouds 1 996 99 0 5.78 254 06:20 08.05.2020
3386 Clouds 1 996 99 0 5.78 254 05:35 08.05.2020
3387 Clouds 3 995 99 0 7.36 227 03:55 08.05.2020
3388 Clouds 3 995 99 0 7.33 220 02:31 08.05.2020
3389 Rain 4 995 99 0 8.35 213 01:44 08.05.2020
3390 Rain 4 995 99 0 9.03 207 01:21 08.05.2020
3391 Rain 4 995 99 0 9.03 207 00:48 08.05.2020
3392 Rain 4 995 99 0 9.82 200 00:28 08.05.2020
3393 Rain 4 995 99 0 9.82 200 23:57 07.05.2020
3394 Rain 4 995 99 0 9.82 200 23:39 07.05.2020
3395 Rain 4 996 99 0 9.19 195 23:21 07.05.2020
3396 Rain 4 996 99 0 9.19 195 22:42 07.05.2020
3397 Rain 4 997 99 0 7.79 187 22:21 07.05.2020
3398 Rain 4 997 99 0 7.79 187 21:58 07.05.2020
3399 Rain 4 997 99 0 7.79 187 21:39 07.05.2020
3400 Rain 4 998 99 0 6.17 187 21:20 07.05.2020
3401 Rain 4 998 99 0 6.17 187 20:59 07.05.2020
3402 Rain 4 998 99 0 6.17 187 20:41 07.05.2020
3403 Clouds 4 999 99 0 5.46 200 20:20 07.05.2020
3404 Clouds 4 999 99 0 5.46 200 20:20 07.05.2020
3405 Clouds 4 999 99 0 5.46 200 19:50 07.05.2020
3406 Rain 3 1000 99 0 4.51 193 19:24 07.05.2020
3407 Rain 3 1000 99 0 4.51 193 18:59 07.05.2020
3408 Rain 3 1000 99 0 4.51 193 18:39 07.05.2020
3409 Clouds 2 1001 99 0 3.68 196 18:20 07.05.2020
3410 Clouds 2 1001 99 0 3.68 196 17:43 07.05.2020
3411 Rain 2 1001 99 0 3.26 170 17:21 07.05.2020
3412 Rain 2 1001 99 0 3.26 170 16:43 07.05.2020
3413 Clouds 1 1002 99 0 3.94 132 16:20 07.05.2020
3414 Clouds 1 1002 99 0 3.94 132 15:58 07.05.2020
3415 Clouds 1 1002 99 0 3.94 132 15:39 07.05.2020
3416 Clouds 0 1003 99 0 4.93 110 15:19 07.05.2020
3417 Clouds 0 1003 99 0 4.93 110 14:59 07.05.2020
3418 Clouds 0 1003 99 0 4.93 110 14:41 07.05.2020
3419 Clouds 0 1004 99 0 6.42 106 14:19 07.05.2020
3420 Clouds 0 1004 99 0 6.42 106 13:42 07.05.2020
3421 Clouds -1 1005 99 0 6.33 106 13:24 07.05.2020
3422 Clouds -1 1005 99 0 6.33 106 12:44 07.05.2020
3423 Clouds -1 1006 98 0 6.91 107 12:20 07.05.2020
3424 Clouds -1 1006 98 0 6.91 107 11:57 07.05.2020
3425 Clouds -1 1006 98 0 6.91 107 11:38 07.05.2020
3426 Clouds -1 1006 97 0 7.65 106 11:20 07.05.2020
3427 Clouds -1 1006 97 0 7.65 106 10:41 07.05.2020
3428 Clouds -2 1007 96 0 7.55 110 10:21 07.05.2020
3429 Clouds -2 1007 96 0 7.55 110 09:41 07.05.2020
3430 Clouds -3 1008 95 0 6.94 118 09:20 07.05.2020
3431 Clouds -3 1008 95 0 6.94 118 08:56 07.05.2020
3432 Clouds -3 1008 95 0 6.94 118 08:38 07.05.2020
3433 Clouds -3 1009 95 0 7.62 112 08:19 07.05.2020
3434 Clouds -3 1009 95 0 7.62 112 07:44 07.05.2020
3435 Clouds -4 1010 95 0 6.71 113 07:25 07.05.2020
3436 Clouds -4 1010 95 0 6.71 113 06:48 07.05.2020
3437 Clouds -4 1010 95 0 6.2 118 06:23 07.05.2020
3438 Clouds -4 1010 95 0 6.2 118 05:29 07.05.2020
3439 Clouds -5 1012 94 0 5.41 123 03:55 07.05.2020
3440 Clouds -5 1013 94 0 5.39 124 03:24 07.05.2020
3441 Clouds -5 1013 94 0 5.39 124 02:42 07.05.2020
3442 Clouds -6 1014 93 0 4.59 118 01:44 07.05.2020
3443 Clouds -6 1015 93 0 4.77 122 01:23 07.05.2020
3444 Clouds -6 1015 93 0 4.77 122 00:45 07.05.2020
3445 Clouds -7 1015 94 0 3.93 124 00:27 07.05.2020
3446 Clouds -7 1015 94 0 3.93 124 23:47 06.05.2020
3447 Clouds -7 1016 94 0 3 141 23:25 06.05.2020
3448 Clouds -7 1016 94 0 3 141 22:58 06.05.2020
3449 Clouds -7 1016 94 0 3 141 22:58 06.05.2020
3450 Clouds -7 1016 94 0 3 141 22:39 06.05.2020
3451 Clouds -7 1017 94 0 2.86 148 22:19 06.05.2020
3452 Clouds -7 1017 94 0 2.86 148 22:19 06.05.2020
3453 Clouds -7 1017 94 0 2.86 148 21:56 06.05.2020
3454 Clouds -7 1017 94 0 2.86 148 21:38 06.05.2020
3455 Clear -7 1017 95 0 2.72 183 21:19 06.05.2020
3456 Clear -7 1017 95 0 2.72 183 20:42 06.05.2020
3457 Clouds -7 1017 95 0 2.27 186 20:24 06.05.2020
3458 Clouds -7 1017 95 0 2.27 186 19:58 06.05.2020
3459 Clouds -7 1017 95 0 2.27 186 19:58 06.05.2020
3460 Clouds -7 1017 95 0 2.27 186 19:39 06.05.2020
3461 Clouds -6 1017 94 0 1.07 127 19:20 06.05.2020
3462 Clouds -6 1017 94 0 1.07 127 18:59 06.05.2020
3463 Clouds -6 1017 94 0 1.07 127 18:40 06.05.2020
3464 Clouds -6 1017 94 0 1.07 127 18:40 06.05.2020
3465 Clouds -6 1018 94 0 0.34 310 18:21 06.05.2020
3466 Clouds -6 1018 94 0 0.34 310 17:59 06.05.2020
3467 Clouds -6 1018 94 0 0.34 310 17:39 06.05.2020
3468 Clouds -6 1018 94 0 1.63 300 17:21 06.05.2020
3469 Clouds -6 1018 94 0 1.63 300 16:58 06.05.2020
3470 Clouds -6 1018 94 0 1.63 300 16:40 06.05.2020
3471 Clouds -5 1018 95 0 2.56 301 16:21 06.05.2020
3472 Clouds -5 1018 95 0 2.56 301 15:58 06.05.2020
3473 Clouds -5 1018 95 0 2.56 301 15:40 06.05.2020
3474 Clouds -4 1018 95 0 2.81 307 15:20 06.05.2020
3475 Clouds -4 1018 95 0 2.81 307 14:45 06.05.2020
3476 Clouds -4 1018 95 0 3.7 310 14:20 06.05.2020
3477 Clouds -4 1018 95 0 3.7 310 13:59 06.05.2020
3478 Clouds -4 1018 95 0 3.7 310 13:41 06.05.2020
3479 Clouds -4 1017 95 0 4.36 313 13:22 06.05.2020
3480 Clouds -4 1017 95 0 4.36 313 12:54 06.05.2020
3481 Clouds -4 1017 95 0 4.36 313 12:36 06.05.2020
3482 Clouds -4 1017 95 0 5.14 315 12:18 06.05.2020
3483 Clouds -4 1017 95 0 5.14 315 11:40 06.05.2020
3484 Clouds -4 1016 95 0 5.58 315 11:21 06.05.2020
3485 Clouds -4 1016 95 0 5.58 315 10:57 06.05.2020
3486 Clouds -4 1016 95 0 5.58 315 10:37 06.05.2020
3487 Clouds -4 1015 95 0 5.99 318 10:19 06.05.2020
3488 Clouds -4 1015 95 0 5.99 318 09:43 06.05.2020
3489 Clouds -4 1015 96 0 5.86 318 09:22 06.05.2020
3490 Clouds -4 1015 96 0 5.86 318 08:49 06.05.2020
3491 Clouds -4 1014 96 0 6.27 315 08:23 06.05.2020
3492 Clouds -4 1014 96 0 6.27 315 07:59 06.05.2020
3493 Clouds -4 1014 96 0 6.27 315 07:39 06.05.2020
3494 Clouds -4 1013 96 0 6.27 313 07:20 06.05.2020
3495 Clouds -4 1013 96 0 6.27 313 06:51 06.05.2020
3496 Clouds -4 1012 96 0 6.07 314 06:22 06.05.2020
3497 Clouds -4 1012 96 0 6.07 314 05:54 06.05.2020
3498 Clouds -3 1012 96 0 6.12 320 05:36 06.05.2020
3499 Clouds -3 1012 96 0 6.12 320 04:31 06.05.2020
3500 Clouds -3 1011 96 0 6.34 321 03:38 06.05.2020
3501 Clouds -3 1010 97 0 6.85 318 03:19 06.05.2020
3502 Clouds -3 1010 97 0 6.85 318 02:29 06.05.2020
3503 Clouds -3 1009 97 0 7.03 316 01:54 06.05.2020
3504 Clouds -3 1009 97 0 7.03 316 01:54 06.05.2020
3505 Clouds -3 1008 97 0 6.51 315 01:30 06.05.2020
3506 Clouds -3 1008 97 0 6.51 315 00:53 06.05.2020
3507 Snow -2 1007 98 0 6.79 321 00:23 06.05.2020
3508 Snow -2 1007 98 0 6.79 321 23:55 05.05.2020
3509 Snow -2 1007 98 0 6.79 321 23:37 05.05.2020
3510 Clouds 0 1007 99 0 6.18 288 23:18 05.05.2020
3511 Clouds 0 1007 99 0 6.18 288 22:41 05.05.2020
3512 Clouds 0 1006 99 0 6.03 274 22:19 05.05.2020
3513 Clouds 0 1006 99 0 6.03 274 21:56 05.05.2020
3514 Clouds 0 1006 99 0 6.03 274 21:38 05.05.2020
3515 Snow 1 1006 98 0 5.83 256 21:19 05.05.2020
3516 Clouds 0 1006 97 0 5.84 274 21:19 05.05.2020
3517 Snow 1 1006 98 0 5.83 256 20:56 05.05.2020
3518 Snow 1 1006 98 0 5.83 256 20:38 05.05.2020
3519 Clouds 1 1006 98 0 6.45 246 20:18 05.05.2020
3520 Clouds 1 1006 98 0 6.45 246 19:42 05.05.2020
3521 Snow 1 1006 98 0 6.64 237 19:23 05.05.2020
3522 Snow 1 1006 98 0 6.64 237 18:58 05.05.2020
3523 Snow 1 1006 98 0 6.64 237 18:40 05.05.2020
3524 Snow 1 1006 98 0 7.09 238 18:20 05.05.2020
3525 Snow 1 1006 98 0 7.09 238 17:57 05.05.2020
3526 Snow 1 1006 98 0 7.09 238 17:39 05.05.2020
3527 Clouds 1 1007 97 0 7.54 243 17:21 05.05.2020
3528 Clouds 1 1007 97 0 7.54 243 16:54 05.05.2020
3529 Clouds 1 1007 97 0 7.54 243 16:36 05.05.2020
3530 Clouds 1 1007 97 0 7.41 245 16:18 05.05.2020
3531 Clouds 1 1007 97 0 7.41 245 15:40 05.05.2020
3532 Clouds 1 1007 98 0 7.9 242 15:21 05.05.2020
3533 Clouds 1 1007 98 0 7.9 242 14:55 05.05.2020
3534 Clouds 1 1007 98 0 7.9 242 14:37 05.05.2020
3535 Clouds 1 1007 98 0 7.94 244 14:19 05.05.2020
3536 Clouds 1 1007 98 0 7.95 242 13:57 05.05.2020
3537 Clouds 1 1007 98 0 7.95 242 13:38 05.05.2020
3538 Clouds 1 1007 97 0 8.12 249 13:19 05.05.2020
3539 Clouds 1 1007 97 0 8.12 249 13:19 05.05.2020
3540 Clouds 1 1007 97 0 8.12 249 12:57 05.05.2020
3541 Clouds 1 1007 96 0 8.12 249 12:38 05.05.2020
3542 Clouds 1 1006 97 0 7.9 249 12:19 05.05.2020
3543 Clouds 1 1006 97 0 7.9 249 11:41 05.05.2020
3544 Clouds 1 1006 96 0 7.96 246 11:20 05.05.2020
3545 Clouds 1 1006 96 0 7.96 246 10:56 05.05.2020
3546 Clouds 1 1006 96 0 7.96 246 10:38 05.05.2020
3547 Clouds 1 1006 95 0 8.45 243 10:19 05.05.2020
3548 Clouds 1 1006 95 0 8.45 243 09:55 05.05.2020
3549 Clouds 0 1007 96 0 7.88 242 09:36 05.05.2020
3550 Clouds 1 1007 97 0 7.86 244 09:18 05.05.2020
3551 Clouds 1 1007 97 0 7.86 244 08:40 05.05.2020
3552 Clouds 1 1006 97 0 7.46 240 08:18 05.05.2020
3553 Clouds 1 1006 97 0 7.46 240 07:44 05.05.2020
3554 Clouds 1 1006 97 0 7.04 241 07:23 05.05.2020
3555 Clouds 1 1006 97 0 7.04 241 06:58 05.05.2020
3556 Clouds 1 1006 97 0 7.04 241 06:40 05.05.2020
3557 Clouds 1 1006 96 0 6.67 226 06:19 05.05.2020
3558 Clouds 0 1006 95 0 6.9 199 05:28 05.05.2020
3559 Clouds -1 1008 97 0 7.35 178 02:46 05.05.2020
3560 Snow -2 1009 98 0 8.28 159 01:20 05.05.2020
3561 Snow -2 1009 98 0 8.28 159 00:49 05.05.2020
3562 Snow -3 1010 96 0 7.02 150 23:56 04.05.2020
3563 Snow -3 1010 96 0 7.02 150 23:38 04.05.2020
3564 Snow -3 1011 95 0 7.2 155 23:19 04.05.2020
3565 Snow -3 1011 95 0 7.2 155 22:55 04.05.2020
3566 Snow -3 1011 95 0 7.2 155 22:36 04.05.2020
3567 Clouds -3 1012 96 0 7.53 162 22:18 04.05.2020
3568 Clouds -3 1012 96 0 7.53 162 21:46 04.05.2020
3569 Clouds -3 1012 96 0 7.53 162 21:46 04.05.2020
3570 Clouds -3 1012 96 0 7.53 162 21:46 04.05.2020
3571 Clouds -3 1012 96 0 7.53 162 21:46 04.05.2020
3572 Clouds -3 1012 96 0 7.53 162 21:46 04.05.2020
3573 Clouds -4 1014 95 0 6.51 161 21:22 04.05.2020
3574 Clouds -4 1014 95 0 6.51 161 21:22 04.05.2020
3575 Clouds -4 1014 95 0 6.51 161 21:22 04.05.2020
3576 Clouds -4 1014 95 0 6.51 161 20:43 04.05.2020
3577 Clouds -5 1015 95 0 5.7 154 20:21 04.05.2020
3578 Clouds -5 1015 95 0 5.7 154 19:58 04.05.2020
3579 Clouds -5 1015 94 0 5.7 154 19:40 04.05.2020
3580 Clouds -5 1015 95 0 5.7 154 19:40 04.05.2020
3581 Clouds -5 1015 94 0 5.7 154 19:40 04.05.2020
3582 Clouds -5 1016 94 0 5.46 149 19:19 04.05.2020
3583 Clouds -5 1016 94 0 5.46 149 18:39 04.05.2020
3584 Clouds -6 1016 94 0 5.35 148 18:21 04.05.2020
3585 Clouds -6 1016 94 0 5.34 148 17:58 04.05.2020
3586 Clouds -6 1016 94 0 5.34 148 17:40 04.05.2020
3587 Clouds -5 1017 94 0 5.05 143 17:21 04.05.2020
3588 Clouds -5 1017 94 0 5.05 143 16:59 04.05.2020
3589 Clouds -5 1017 94 0 5.05 143 16:40 04.05.2020
3590 Clouds -5 1018 94 0 5.05 148 16:19 04.05.2020
3591 Clouds -5 1018 94 0 5.05 148 16:19 04.05.2020
3592 Clouds -5 1018 94 0 5.05 148 15:42 04.05.2020
3593 Clouds -4 1019 94 0 5.17 153 15:22 04.05.2020
3594 Clouds -4 1019 94 0 5.17 153 14:54 04.05.2020
3595 Clouds -4 1019 94 0 5.17 153 14:54 04.05.2020
3596 Clouds -4 1019 94 0 5.17 153 14:54 04.05.2020
3597 Clouds -4 1019 94 0 5.17 153 14:54 04.05.2020
3598 Clouds -4 1019 94 0 5.17 153 14:54 04.05.2020
3599 Clouds -4 1019 94 0 4.9 155 14:27 04.05.2020
3600 Clouds -4 1019 94 0 4.9 155 13:31 04.05.2020
3601 Clouds -4 1019 94 0 4.9 155 13:31 04.05.2020
3602 Clouds -4 1019 94 0 4.9 155 13:31 04.05.2020
3603 Clouds -4 1019 94 0 4.9 155 13:31 04.05.2020
3604 Clear -4 1020 94 0 4.62 162 12:44 04.05.2020
3605 Clear -4 1020 94 0 4.62 162 12:44 04.05.2020
3606 Clear -4 1020 94 0 4.62 162 12:44 04.05.2020
3607 Clear -4 1020 94 0 4.62 162 12:44 04.05.2020
3608 Clear -4 1020 94 0 4.62 162 12:44 04.05.2020
3609 Clear -4 1020 94 0 4.16 169 11:29 04.05.2020
3610 Clear -4 1020 94 0 4.16 169 11:29 04.05.2020
3611 Clear -4 1020 94 0 4.16 169 11:29 04.05.2020
3612 Clear -4 1020 94 0 4.16 169 11:29 04.05.2020
3613 Clear -4 1020 94 0 4.16 169 11:29 04.05.2020
3614 Clear -5 1020 95 0 3.46 165 09:31 04.05.2020
3615 Clear -6 1021 94 0 2.74 169 07:54 04.05.2020
3616 Clear -6 1021 94 0 2.74 169 07:35 04.05.2020
3617 Clear -7 1021 94 0 2.65 193 06:21 04.05.2020
3618 Clear -7 1021 94 0 2.65 193 06:21 04.05.2020
3619 Clear -7 1021 93 0 2.8 193 04:53 04.05.2020
3620 Clouds -8 1021 93 0 2.43 184 03:18 04.05.2020
3621 Clouds -8 1021 94 0 2.17 199 02:19 04.05.2020
3622 Clouds -8 1021 95 0 2 208 00:31 04.05.2020
3623 Clouds -8 1021 95 0 2 208 00:31 04.05.2020
3624 Clouds -8 1021 95 0 2 208 00:31 04.05.2020
3625 Clouds -8 1021 95 0 2 208 00:31 04.05.2020
3626 Clouds -8 1021 95 0 2.1 213 23:45 03.05.2020
3627 Clouds -8 1020 96 0 1.86 218 23:24 03.05.2020
3628 Clouds -8 1020 96 0 1.86 218 22:44 03.05.2020
3629 Clouds -8 1020 96 0 1.19 226 22:25 03.05.2020
3630 Clouds -8 1020 96 0 1.19 226 21:57 03.05.2020
3631 Clouds -8 1020 96 0 1.19 226 21:39 03.05.2020
3632 Clouds -7 1020 95 0 0.2 243 21:20 03.05.2020
3633 Clouds -7 1020 95 0 0.2 243 20:45 03.05.2020
3634 Clouds -7 1020 95 0 0.2 243 20:45 03.05.2020
3635 Clouds -7 1020 95 0 0.38 16 20:21 03.05.2020
3636 Clouds -7 1020 95 0 0.38 16 19:50 03.05.2020
3637 Clouds -7 1020 95 0 0.38 16 19:50 03.05.2020
3638 Clouds -7 1020 95 0 0.38 16 19:50 03.05.2020
3639 Clouds -7 1020 95 0 0.38 16 19:50 03.05.2020
3640 Clouds -7 1020 95 0 0.38 16 19:31 03.05.2020
3641 Clouds -6 1020 95 0 0.91 17 18:59 03.05.2020
3642 Clouds -6 1020 95 0 0.91 17 18:59 03.05.2020
3643 Clouds -6 1020 95 0 0.91 17 18:59 03.05.2020
3644 Clouds -6 1020 95 0 0.91 17 18:38 03.05.2020
3645 Clouds -6 1020 95 0 0.91 17 18:38 03.05.2020
3646 Clouds -6 1020 95 0 0.91 17 18:38 03.05.2020
3647 Clouds -6 1020 95 0 0.91 17 18:38 03.05.2020
3648 Clouds -6 1020 95 0 0.91 17 18:38 03.05.2020
3649 Clouds -5 1020 95 0 1.19 19 18:19 03.05.2020
3650 Clouds -5 1020 95 0 1.19 19 18:19 03.05.2020
3651 Clouds -5 1020 95 0 1.19 19 17:41 03.05.2020
3652 Clouds -4 1020 95 0 1.54 18 17:22 03.05.2020
3653 Clouds -4 1020 95 0 1.54 18 16:46 03.05.2020
3654 Clouds -4 1019 95 0 2.05 20 16:21 03.05.2020
3655 Clouds -4 1019 95 0 2.05 20 16:21 03.05.2020
3656 Clouds -4 1019 95 0 2.05 20 15:59 03.05.2020
3657 Clouds -4 1019 95 0 2.05 20 15:41 03.05.2020
3658 Clouds -4 1019 95 0 2.53 23 15:21 03.05.2020
3659 Clouds -4 1019 95 0 2.53 23 14:59 03.05.2020
3660 Clouds -4 1019 95 0 2.53 23 14:40 03.05.2020
3661 Clouds -4 1019 95 0 1.98 7 14:22 03.05.2020
3662 Clouds -4 1019 95 0 1.98 7 13:55 03.05.2020
3663 Clouds -4 1019 95 0 2.12 7 13:29 03.05.2020
3664 Clouds -4 1019 95 0 2.12 7 13:29 03.05.2020
3665 Clouds -4 1019 95 0 2.12 7 13:28 03.05.2020
3666 Clouds -4 1019 95 0 2.12 7 13:28 03.05.2020
3667 Clouds -4 1019 95 0 2.12 7 13:28 03.05.2020
3668 Clouds -4 1019 95 0 2.12 7 12:45 03.05.2020
3669 Clouds -4 1018 95 0 2.23 9 12:19 03.05.2020
3670 Clouds -4 1018 95 0 2.23 9 11:57 03.05.2020
3671 Clouds -4 1018 95 0 2.23 9 11:57 03.05.2020
3672 Clouds -4 1018 95 0 2.23 9 11:39 03.05.2020
3673 Clouds -4 1018 95 0 2.23 9 11:39 03.05.2020
3674 Clouds -4 1018 95 0 2.29 4 11:19 03.05.2020
3675 Clouds -4 1018 95 0 2.29 4 11:19 03.05.2020
3676 Clouds -4 1018 95 0 2.29 4 10:49 03.05.2020
3677 Clouds -4 1018 95 0 2.29 4 10:49 03.05.2020
3678 Clouds -4 1018 95 0 2.29 4 10:49 03.05.2020
3679 Clouds -4 1017 94 0 2.46 6 09:59 03.05.2020
3680 Clouds -4 1017 94 0 2.46 6 09:58 03.05.2020
3681 Clouds -4 1017 94 0 2.46 6 09:38 03.05.2020
3682 Clouds -4 1017 95 0 2.86 6 08:56 03.05.2020
3683 Clouds -4 1017 94 0 2.92 13 08:27 03.05.2020
3684 Clouds -4 1017 94 0 2.92 13 07:40 03.05.2020
3685 Clouds -4 1016 94 0 3.1 22 06:30 03.05.2020
3686 Clouds -4 1016 94 0 3.1 22 06:30 03.05.2020
3687 Clouds -4 1016 94 0 3.1 22 06:30 03.05.2020
3688 Clouds -4 1016 94 0 3.1 22 06:30 03.05.2020
3689 Clouds -4 1016 94 0 3.1 22 06:30 03.05.2020
3690 Clouds -4 1016 94 0 3.18 23 05:49 03.05.2020
3691 Clouds -4 1015 95 0 3.04 23 05:28 03.05.2020
3692 Clouds -4 1015 95 0 3.04 23 05:28 03.05.2020
3693 Clouds -4 1015 95 0 3.04 23 05:28 03.05.2020
3694 Clouds -4 1015 95 0 3.04 23 05:28 03.05.2020
3695 Clouds -4 1015 95 0 2.88 27 04:27 03.05.2020
3696 Clouds -4 1015 95 0 2.87 32 03:25 03.05.2020
3697 Clouds -4 1015 95 0 2.87 32 03:25 03.05.2020
3698 Clouds -4 1015 94 0 3.07 38 02:25 03.05.2020
3699 Clouds -4 1015 94 0 2.57 46 01:46 03.05.2020
3700 Clouds -4 1014 94 0 2.63 50 01:27 03.05.2020
3701 Clouds -4 1014 94 0 2.63 50 00:56 03.05.2020
3702 Clouds -4 1014 94 0 2.63 50 00:38 03.05.2020
3703 Clouds -4 1014 95 0 2.65 54 00:19 03.05.2020
3704 Clouds -4 1014 95 0 2.65 54 00:19 03.05.2020
3705 Clouds -4 1014 95 0 2.65 54 23:43 02.05.2020
3706 Clouds -5 1013 95 0 2.58 59 23:25 02.05.2020
3707 Clouds -5 1013 95 0 2.58 59 22:44 02.05.2020
3708 Clouds -5 1013 95 0 2.47 68 22:24 02.05.2020
3709 Clouds -5 1013 95 0 2.47 68 21:57 02.05.2020
3710 Clouds -5 1013 95 0 2.47 68 21:39 02.05.2020
3711 Clouds -5 1013 95 0 2.58 74 21:19 02.05.2020
3712 Clouds -5 1013 95 0 2.58 74 20:57 02.05.2020
3713 Clouds -5 1013 95 0 2.58 74 20:37 02.05.2020
3714 Clouds -6 1014 94 0 2.23 82 20:19 02.05.2020
3715 Clouds -6 1014 94 0 2.23 82 19:57 02.05.2020
3716 Clouds -6 1014 94 0 2.23 82 19:38 02.05.2020
3717 Clouds -6 1014 94 0 2.23 82 19:38 02.05.2020
3718 Clouds -6 1013 93 0 2.21 87 19:19 02.05.2020
3719 Clouds -6 1013 93 0 2.21 87 18:55 02.05.2020
3720 Clouds -6 1013 93 0 2.21 87 18:36 02.05.2020
3721 Clouds -5 1013 91 0 1.99 83 18:18 02.05.2020
3722 Clouds -5 1013 91 0 1.99 83 17:39 02.05.2020
3723 Clouds -5 1012 90 0 1.97 76 17:20 02.05.2020
3724 Clouds -5 1012 90 0 1.97 76 16:59 02.05.2020
3725 Clouds -5 1012 90 0 1.97 76 16:39 02.05.2020
3726 Clouds -5 1012 90 0 1.96 71 16:21 02.05.2020
3727 Clouds -5 1012 90 0 1.96 71 15:43 02.05.2020
3728 Clouds -4 1012 90 0 1.52 49 15:20 02.05.2020
3729 Clouds -4 1012 90 0 1.52 49 15:20 02.05.2020
3730 Clouds -4 1012 90 0 1.52 49 14:58 02.05.2020
3731 Clouds -4 1012 90 0 1.52 49 14:39 02.05.2020
3732 Clouds -3 1012 93 0 1.36 39 14:20 02.05.2020
3733 Clouds -3 1012 93 0 1.36 39 13:40 02.05.2020
3734 Clouds -3 1012 92 0 0.57 50 13:22 02.05.2020
3735 Clouds -3 1012 92 0 0.57 50 12:44 02.05.2020
3736 Clouds -4 1012 92 0 0.84 114 12:25 02.05.2020
3737 Clouds -4 1012 92 0 0.84 114 11:59 02.05.2020
3738 Clouds -4 1012 92 0 0.84 114 11:41 02.05.2020
3739 Clouds -4 1011 92 0 0.9 87 11:22 02.05.2020
3740 Clouds -4 1011 92 0 0.9 87 10:58 02.05.2020
3741 Clouds -4 1011 92 0 0.9 87 10:38 02.05.2020
3742 Clouds -5 1011 92 0 0.62 1 10:20 02.05.2020
3743 Clouds -5 1011 92 0 0.62 1 09:57 02.05.2020
3744 Clouds -5 1011 92 0 0.62 1 09:38 02.05.2020
3745 Clouds -5 1012 89 0 0.36 295 09:20 02.05.2020
3746 Clouds -5 1012 89 0 0.36 295 08:46 02.05.2020
3747 Clouds -6 1012 89 0 0.29 252 08:27 02.05.2020
3748 Clouds -6 1012 89 0 0.29 252 07:48 02.05.2020
3749 Clouds -6 1012 90 0 0.61 223 07:29 02.05.2020
3750 Clouds -6 1012 90 0 0.61 223 06:51 02.05.2020
3751 Clouds -7 1011 89 0 0.78 229 05:30 02.05.2020
3752 Clouds -7 1011 89 0 0.98 236 04:59 02.05.2020
3753 Clouds -9 1011 89 0 0.95 222 04:24 02.05.2020
3754 Clouds -9 1011 89 0 1.08 203 02:44 02.05.2020
3755 Clouds -10 1012 91 0 1.3 222 02:24 02.05.2020
3756 Clouds -10 1012 91 0 1.3 222 01:49 02.05.2020
3757 Clouds -10 1012 91 0 1.21 229 00:48 02.05.2020
3758 Clouds -10 1012 91 0 1.37 216 00:29 02.05.2020
3759 Clouds -10 1012 91 0 1.37 216 23:58 01.05.2020
3760 Clouds -10 1012 91 0 1.37 216 23:39 01.05.2020
3761 Clouds -9 1011 92 0 1.59 185 23:20 01.05.2020
3762 Clouds -9 1011 92 0 1.59 185 22:55 01.05.2020
3763 Clouds -9 1011 92 0 1.59 185 22:55 01.05.2020
3764 Clouds -9 1011 92 0 1.59 185 22:37 01.05.2020
3765 Clouds -9 1011 92 0 1.33 169 22:18 01.05.2020
3766 Clouds -9 1011 92 0 1.33 169 21:55 01.05.2020
3767 Clouds -9 1012 91 0 2.08 162 21:36 01.05.2020
3768 Clouds -9 1012 92 0 2.26 151 21:18 01.05.2020
3769 Clouds -9 1012 92 0 2.26 151 20:54 01.05.2020
3770 Clouds -9 1012 92 0 2.26 151 20:36 01.05.2020
3771 Clouds -8 1013 92 0 2.55 147 20:18 01.05.2020
3772 Clouds -8 1013 92 0 2.55 147 19:41 01.05.2020
3773 Clouds -7 1013 92 0 3.23 140 19:22 01.05.2020
3774 Clouds -7 1013 92 0 3.23 140 18:57 01.05.2020
3775 Clouds -7 1013 92 0 3.23 140 18:38 01.05.2020
3776 Clouds -6 1013 93 0 3.85 132 18:19 01.05.2020
3777 Clouds -6 1013 93 0 3.85 132 17:56 01.05.2020
3778 Clouds -6 1013 93 0 3.85 132 17:37 01.05.2020
3779 Clouds -5 1013 93 0 4.06 122 17:19 01.05.2020
3780 Clouds -5 1013 93 0 4.06 122 16:55 01.05.2020
3781 Clouds -5 1013 93 0 4.06 122 16:37 01.05.2020
3782 Clouds -4 1013 94 0 4.08 120 16:18 01.05.2020
3783 Clouds -4 1013 94 0 4.08 120 15:42 01.05.2020
3784 Clouds -4 1013 94 0 4.35 116 15:23 01.05.2020
3785 Clouds -4 1013 94 0 4.35 116 14:54 01.05.2020
3786 Clouds -4 1013 94 0 4.35 116 14:36 01.05.2020
3787 Clouds -3 1014 95 0 3.56 121 14:18 01.05.2020
3788 Clouds -3 1014 95 0 3.56 121 13:40 01.05.2020
3789 Clouds -3 1014 94 0 4.03 120 13:22 01.05.2020
3790 Clouds -3 1014 94 0 4.03 120 12:56 01.05.2020
3791 Clouds -3 1014 94 0 4.03 120 12:37 01.05.2020
3792 Clouds -3 1014 94 0 4.35 117 12:19 01.05.2020
3793 Clouds -3 1014 94 0 4.35 117 11:43 01.05.2020
3794 Clouds -4 1014 94 0 4.52 116 11:25 01.05.2020
3795 Clouds -4 1014 94 0 4.52 116 10:59 01.05.2020
3796 Clouds -4 1014 94 0 4.52 116 10:40 01.05.2020
3797 Clouds -4 1014 94 0 4.85 117 10:20 01.05.2020
3798 Clouds -4 1014 94 0 4.85 117 09:44 01.05.2020
3799 Clouds -5 1015 92 0 4.93 120 09:20 01.05.2020
3800 Clouds -5 1015 92 0 4.93 120 08:59 01.05.2020
3801 Clouds -5 1015 92 0 4.93 120 08:41 01.05.2020
3802 Clouds -6 1015 91 0 5.26 119 08:22 01.05.2020
3803 Clouds -6 1015 91 0 5.26 119 07:46 01.05.2020
3804 Clouds -6 1015 90 0 5.07 117 07:23 01.05.2020
3805 Clouds -6 1015 90 0 5.07 117 06:50 01.05.2020
3806 Clouds -7 1015 90 0 4.73 119 05:36 01.05.2020
3807 Clouds -7 1014 91 0 4.61 120 04:47 01.05.2020
3808 Clouds -8 1016 92 0 5.69 121 03:24 01.05.2020
3809 Clouds -8 1016 92 0 5.69 121 02:45 01.05.2020
3810 Clouds -8 1016 92 0 5.24 123 02:19 01.05.2020
3811 Clouds -8 1016 92 0 5.85 123 01:28 01.05.2020
3812 Clouds -8 1016 92 0 5.85 123 00:59 01.05.2020
3813 Clouds -8 1016 92 0 5.85 123 00:37 01.05.2020
3814 Clear -7 1015 93 0 6.62 119 00:18 01.05.2020
3815 Clear -7 1015 93 0 6.62 119 23:55 30.04.2020
3816 Clear -7 1015 93 0 6.62 119 23:37 30.04.2020
3817 Clear -7 1015 93 0 7.2 114 23:18 30.04.2020
3818 Clear -7 1015 93 0 7.2 114 22:41 30.04.2020
3819 Clear -6 1016 93 0 7.46 111 22:20 30.04.2020
3820 Clear -6 1016 93 0 7.46 111 21:56 30.04.2020
3821 Clear -7 1016 92 0 7.72 114 21:37 30.04.2020
3822 Clear -6 1017 92 0 7.87 113 21:19 30.04.2020
3823 Clear -6 1017 92 0 7.87 113 20:43 30.04.2020
3824 Clear -6 1017 93 0 8.03 112 20:19 30.04.2020
3825 Clear -6 1017 93 0 8.03 112 19:58 30.04.2020
3826 Clear -6 1017 93 0 8.03 112 19:40 30.04.2020
3827 Clear -6 1017 93 0 8.31 112 19:22 30.04.2020
3828 Clear -6 1017 93 0 8.31 112 18:56 30.04.2020
3829 Clear -6 1017 93 0 8.31 112 18:37 30.04.2020
3830 Clear -6 1017 93 0 8.45 111 18:18 30.04.2020
3831 Clear -6 1017 93 0 8.45 111 17:42 30.04.2020
3832 Clear -5 1017 93 0 8.45 108 17:22 30.04.2020
3833 Clear -5 1017 93 0 8.45 108 16:59 30.04.2020
3834 Clear -5 1017 93 0 8.45 108 16:59 30.04.2020
3835 Clear -5 1017 93 0 8.45 108 16:41 30.04.2020
3836 Clear -5 1017 93 0 8.51 106 16:20 30.04.2020
3837 Clear -5 1017 93 0 8.51 106 15:58 30.04.2020
3838 Clear -5 1017 93 0 8.51 106 15:40 30.04.2020
3839 Clear -5 1017 93 0 8.65 106 15:21 30.04.2020
3840 Clear -5 1017 93 0 8.65 106 14:42 30.04.2020
3841 Clear -4 1018 93 0 8.55 104 14:20 30.04.2020
3842 Clear -4 1018 93 0 8.55 104 13:58 30.04.2020
3843 Clear -4 1018 93 0 8.55 104 13:39 30.04.2020
3844 Clear -4 1018 93 0 8.32 104 13:21 30.04.2020
3845 Clear -4 1018 93 0 8.32 104 12:58 30.04.2020
3846 Clear -4 1018 93 0 8.32 104 12:39 30.04.2020
3847 Clear -5 1018 93 0 8.39 104 12:18 30.04.2020
3848 Clear -5 1018 93 0 8.39 104 11:38 30.04.2020
3849 Clear -5 1018 92 0 8.52 104 11:19 30.04.2020
3850 Clear -5 1018 92 0 8.52 104 11:19 30.04.2020
3851 Clear -5 1018 92 0 8.52 104 10:57 30.04.2020
3852 Clear -5 1018 92 0 8.52 104 10:38 30.04.2020
3853 Clear -5 1018 93 0 8.79 104 10:18 30.04.2020
3854 Clear -5 1018 93 0 8.79 104 09:44 30.04.2020
3855 Clear -5 1018 93 0 8.8 102 09:24 30.04.2020
3856 Clear -5 1018 93 0 8.8 102 08:58 30.04.2020
3857 Clear -5 1018 93 0 8.8 102 08:39 30.04.2020
3858 Clear -6 1018 93 0 8.85 102 08:20 30.04.2020
3859 Clear -6 1018 93 0 8.85 102 07:43 30.04.2020
3860 Clear -6 1018 94 0 8.93 101 07:24 30.04.2020
3861 Clear -6 1018 94 0 8.93 101 06:48 30.04.2020
3862 Clear -6 1018 94 0 8.87 97 05:49 30.04.2020
3863 Clear -6 1018 94 0 8.87 97 05:30 30.04.2020
3864 Clear -6 1018 94 0 8.33 96 04:33 30.04.2020
3865 Clear -6 1018 94 0 7.85 100 03:53 30.04.2020
3866 Clouds -6 1018 94 0 7.63 105 02:43 30.04.2020
3867 Clouds -7 1018 94 0 7.32 106 02:23 30.04.2020
3868 Clouds -7 1018 95 0 7.13 107 01:35 30.04.2020
3869 Clouds -7 1018 95 0 7.08 107 00:42 30.04.2020
3870 Clouds -6 1017 95 0 7.25 105 00:19 30.04.2020
3871 Clouds -6 1017 95 0 7.25 105 23:56 29.04.2020
3872 Clouds -6 1017 95 0 7.25 105 23:36 29.04.2020
3873 Clouds -6 1017 95 0 7.37 101 23:18 29.04.2020
3874 Clouds -6 1017 95 0 7.37 101 23:18 29.04.2020
3875 Clouds -6 1017 95 0 7.37 101 22:40 29.04.2020
3876 Clouds -5 1017 95 0 7.74 97 22:21 29.04.2020
3877 Clouds -5 1017 95 0 7.74 97 21:57 29.04.2020
3878 Clouds -5 1018 94 0 7.3 99 21:36 29.04.2020
3879 Clouds -5 1018 95 0 7.58 99 21:18 29.04.2020
3880 Clouds -5 1018 95 0 7.58 99 20:40 29.04.2020
3881 Clouds -5 1018 95 0 7.86 98 20:20 29.04.2020
3882 Clouds -5 1018 95 0 7.86 98 19:58 29.04.2020
3883 Clouds -5 1018 95 0 7.86 98 19:40 29.04.2020
3884 Clouds -5 1018 95 0 7.86 98 19:40 29.04.2020
3885 Clouds -4 1017 95 0 8.07 97 19:19 29.04.2020
3886 Clouds -4 1017 95 0 8.07 97 18:43 29.04.2020
3887 Clouds -4 1017 95 0 8.17 95 18:24 29.04.2020
3888 Clouds -4 1017 95 0 8.17 95 17:57 29.04.2020
3889 Clouds -4 1017 95 0 8.17 95 17:57 29.04.2020
3890 Clouds -4 1017 95 0 8.17 95 17:39 29.04.2020
3891 Clouds -4 1017 95 0 8.22 93 17:20 29.04.2020
3892 Clouds -4 1017 95 0 8.22 93 16:38 29.04.2020
3893 Clouds -4 1017 95 0 8.12 90 16:19 29.04.2020
3894 Clouds -4 1017 95 0 8.12 90 15:57 29.04.2020
3895 Clouds -4 1017 95 0 8.12 90 15:39 29.04.2020
3896 Clouds -4 1017 95 0 8.34 91 15:20 29.04.2020
3897 Clouds -4 1017 95 0 8.34 91 14:57 29.04.2020
3898 Clouds -4 1017 95 0 7.83 87 14:38 29.04.2020
3899 Clouds -4 1017 95 0 7.96 85 14:18 29.04.2020
3900 Clouds -4 1017 95 0 7.96 85 13:42 29.04.2020
3901 Clouds -4 1016 95 0 8.05 82 13:20 29.04.2020
3902 Clouds -4 1016 95 0 8.05 82 12:59 29.04.2020
3903 Clouds -4 1016 95 0 8.05 82 12:39 29.04.2020
3904 Clouds -4 1016 95 0 8.12 80 12:19 29.04.2020
3905 Clouds -4 1016 95 0 8.12 80 11:40 29.04.2020
3906 Clouds -4 1016 95 0 8.13 80 11:21 29.04.2020
3907 Clouds -4 1016 95 0 8.13 80 10:59 29.04.2020
3908 Clouds -4 1016 95 0 8.13 80 10:37 29.04.2020
3909 Clouds -4 1016 94 0 8.21 79 10:19 29.04.2020
3910 Clouds -4 1016 94 0 8.21 79 09:42 29.04.2020
3911 Clouds -4 1016 95 0 7.84 80 09:24 29.04.2020
3912 Clouds -4 1016 95 0 7.84 80 08:57 29.04.2020
3913 Clouds -4 1016 95 0 7.84 80 08:39 29.04.2020
3914 Clouds -4 1016 96 0 7.7 80 08:20 29.04.2020
3915 Clouds -4 1016 96 0 7.7 80 07:42 29.04.2020
3916 Clouds -4 1015 96 0 7.36 80 07:23 29.04.2020
3917 Clouds -4 1015 96 0 7.36 80 06:50 29.04.2020
3918 Clouds -4 1015 96 0 7.36 80 06:31 29.04.2020
3919 Clouds -4 1015 96 0 6.51 80 05:21 29.04.2020
3920 Clouds -4 1015 96 0 6.51 80 04:45 29.04.2020
3921 Clouds -4 1015 96 0 6.47 75 04:18 29.04.2020
3922 Clouds -4 1015 96 0 6.58 73 02:42 29.04.2020
3923 Clouds -4 1015 96 0 5.87 71 01:44 29.04.2020
3924 Clouds -4 1014 95 0 5.24 72 01:23 29.04.2020
3925 Clouds -4 1014 95 0 5.24 72 00:41 29.04.2020
3926 Clouds -4 1014 95 0 4.97 79 00:19 29.04.2020
3927 Clouds -4 1014 95 0 4.97 79 23:49 28.04.2020
3928 Clouds -4 1014 96 0 5.37 87 23:24 28.04.2020
3929 Clouds -4 1014 96 0 5.37 87 22:55 28.04.2020
3930 Clouds -4 1014 96 0 5.37 87 22:37 28.04.2020
3931 Clouds -3 1014 97 0 4.71 88 22:18 28.04.2020
3932 Clouds -3 1014 97 0 4.71 88 21:54 28.04.2020
3933 Clouds -3 1014 97 0 3.59 75 21:36 28.04.2020
3934 Clouds -4 1014 96 0 3.3 66 21:18 28.04.2020
3935 Clouds -4 1014 96 0 3.3 66 20:54 28.04.2020
3936 Clouds -4 1014 96 0 3.3 66 20:36 28.04.2020
3937 Clouds -4 1014 96 0 3.18 59 20:18 28.04.2020
3938 Clouds -4 1014 96 0 3.18 59 19:42 28.04.2020
3939 Clouds -5 1014 96 0 2.97 61 19:22 28.04.2020
3940 Clouds -5 1014 96 0 2.97 61 19:22 28.04.2020
3941 Clouds -5 1014 96 0 2.97 61 18:59 28.04.2020
3942 Clouds -5 1014 96 0 2.97 61 18:40 28.04.2020
3943 Clouds -5 1013 95 0 2.89 66 18:19 28.04.2020
3944 Clouds -5 1013 95 0 2.89 66 18:19 28.04.2020
3945 Clouds -5 1013 95 0 2.89 66 17:57 28.04.2020
3946 Clouds -5 1013 95 0 2.89 66 17:36 28.04.2020
3947 Clouds -4 1013 95 0 3.28 68 17:18 28.04.2020
3948 Clouds -4 1013 95 0 3.28 68 16:42 28.04.2020
3949 Clouds -4 1013 95 0 3.73 67 16:23 28.04.2020
3950 Clouds -4 1013 95 0 3.73 67 15:57 28.04.2020
3951 Clouds -4 1013 95 0 3.73 67 15:39 28.04.2020
3952 Clouds -4 1013 95 0 3.9 63 15:21 28.04.2020
3953 Clouds -4 1013 95 0 3.9 63 14:58 28.04.2020
3954 Clouds -4 1013 95 0 3.9 63 14:58 28.04.2020
3955 Clouds -4 1013 95 0 3.9 63 14:40 28.04.2020
3956 Clouds -3 1013 95 0 3.64 59 14:21 28.04.2020
3957 Clouds -3 1013 95 0 3.53 60 14:21 28.04.2020
3958 Clouds -3 1013 95 0 3.53 60 13:57 28.04.2020
3959 Clouds -3 1013 95 0 3.53 60 13:38 28.04.2020
3960 Clouds -3 1012 96 0 3.52 58 13:19 28.04.2020
3961 Clouds -3 1012 96 0 3.52 58 12:44 28.04.2020
3962 Clouds -3 1012 96 0 3.58 60 12:24 28.04.2020
3963 Clouds -3 1012 96 0 3.58 60 11:45 28.04.2020
3964 Clouds -3 1012 96 0 3.82 63 11:24 28.04.2020
3965 Clouds -3 1012 96 0 3.82 63 10:59 28.04.2020
3966 Clouds -3 1012 96 0 3.82 63 10:59 28.04.2020
3967 Clouds -3 1012 96 0 3.82 63 10:39 28.04.2020
3968 Clouds -3 1012 96 0 3.82 63 10:39 28.04.2020
3969 Clouds -3 1012 96 0 4.15 57 10:19 28.04.2020
3970 Clouds -3 1012 96 0 4.15 57 09:57 28.04.2020
3971 Clouds -3 1012 96 0 4.15 57 09:38 28.04.2020
3972 Clouds -3 1012 97 0 4.14 55 09:20 28.04.2020
3973 Clouds -3 1012 97 0 4.14 55 08:45 28.04.2020
3974 Clouds -3 1012 97 0 4.19 52 08:26 28.04.2020
3975 Clouds -3 1012 97 0 4.19 52 07:45 28.04.2020
3976 Clouds -3 1011 98 0 3.87 50 07:20 28.04.2020
3977 Clouds -3 1011 98 0 3.87 50 06:50 28.04.2020
3978 Clouds -3 1011 98 0 3.57 52 06:22 28.04.2020
3979 Clouds -3 1011 98 0 3.57 52 05:41 28.04.2020
3980 Clouds -3 1010 98 0 3.05 52 05:20 28.04.2020
3981 Clouds -3 1010 98 0 1.77 32 02:59 28.04.2020
3982 Clouds -3 1010 98 0 0.95 349 02:33 28.04.2020
3983 Clouds -3 1010 98 0 1.3 338 01:23 28.04.2020
3984 Clouds -3 1010 98 0 1.3 338 00:55 28.04.2020
3985 Clouds -2 1010 98 0 1.49 325 00:23 28.04.2020
3986 Clouds -2 1010 98 0 1.49 325 23:47 27.04.2020
3987 Clouds -2 1009 98 0 1.52 321 23:24 27.04.2020
3988 Clouds -2 1009 98 0 1.52 321 22:55 27.04.2020
3989 Clouds -2 1010 97 0 1.35 322 22:37 27.04.2020
3990 Clouds -2 1009 97 0 1.9 328 22:19 27.04.2020
3991 Clouds -2 1009 97 0 1.9 328 21:56 27.04.2020
3992 Clouds -2 1009 97 0 1.9 328 21:38 27.04.2020
3993 Clouds -2 1009 97 0 2.06 315 21:18 27.04.2020
3994 Clouds -2 1009 97 0 2.06 315 20:43 27.04.2020
3995 Clouds -2 1009 97 0 2.11 301 20:22 27.04.2020
3996 Clouds -2 1009 97 0 2.11 301 20:22 27.04.2020
3997 Clouds -2 1009 97 0 2.11 301 19:58 27.04.2020
3998 Clouds -2 1009 97 0 2.11 301 19:39 27.04.2020
3999 Clouds -2 1009 97 0 2.09 297 19:20 27.04.2020
4000 Clouds -2 1009 97 0 2.09 297 18:57 27.04.2020
4001 Clouds -2 1009 97 0 2.09 297 18:39 27.04.2020
4002 Clouds -2 1008 97 0 2.13 303 18:19 27.04.2020
4003 Clouds -2 1008 97 0 2.13 303 17:43 27.04.2020
4004 Clouds -1 1008 97 0 1.83 299 17:21 27.04.2020
4005 Clouds -1 1008 97 0 1.83 299 16:58 27.04.2020
4006 Clouds -1 1008 97 0 1.83 299 16:39 27.04.2020
4007 Clouds -1 1008 97 0 1.83 299 16:39 27.04.2020
4008 Clouds -1 1007 97 0 1.48 301 16:20 27.04.2020
4009 Clouds -1 1007 97 0 1.48 301 15:56 27.04.2020
4010 Clouds -1 1007 97 0 1.48 301 15:38 27.04.2020
4011 Clouds -1 1007 97 0 1.48 301 15:38 27.04.2020
4012 Clouds -1 1007 97 0 0.72 330 15:18 27.04.2020
4013 Clouds -1 1007 97 0 0.72 330 14:42 27.04.2020
4014 Clouds -2 1007 97 0 0.33 330 14:23 27.04.2020
4015 Clouds -2 1007 97 0 0.33 330 13:59 27.04.2020
4016 Clouds -2 1007 97 0 0.33 330 13:41 27.04.2020
4017 Clouds -2 1007 97 0 0.33 330 13:19 27.04.2020
4018 Clouds -2 1007 97 0 0.33 330 12:44 27.04.2020
4019 Clouds -2 1006 96 0 0.89 285 12:24 27.04.2020
4020 Clouds -2 1006 96 0 0.89 285 11:59 27.04.2020
4021 Clouds -2 1006 96 0 0.89 285 11:40 27.04.2020
4022 Clouds -2 1006 96 0 0.89 285 11:19 27.04.2020
4023 Clouds -2 1006 96 0 0.89 285 11:19 27.04.2020
4024 Clouds -2 1006 96 0 0.89 285 10:56 27.04.2020
4025 Clouds -2 1006 96 0 0.89 285 10:37 27.04.2020
4026 Clouds -2 1006 96 0 0.89 285 10:19 27.04.2020
4027 Clouds -2 1006 96 0 0.89 285 09:43 27.04.2020
4028 Clouds -2 1005 97 0 1.38 193 09:18 27.04.2020
4029 Clouds -2 1005 97 0 1.38 193 08:53 27.04.2020
4030 Clouds -2 1005 97 0 1.38 193 08:34 27.04.2020
4031 Clouds -2 1005 97 0 1.38 193 07:58 27.04.2020
4032 Clouds -2 1005 97 0 1.38 193 07:40 27.04.2020
4033 Clouds -2 1005 97 0 1.38 193 07:18 27.04.2020
4034 Clouds -2 1005 97 0 1.38 193 06:39 27.04.2020
4035 Clouds -3 1003 97 0 2.16 175 06:19 27.04.2020
4036 Clouds -3 1003 97 0 2.16 175 05:48 27.04.2020
4037 Clouds -3 1003 97 0 2.16 175 04:40 27.04.2020
4038 Clouds -3 1003 97 0 2.16 175 03:49 27.04.2020
4039 Snow -3 1003 98 0 3.21 165 02:40 27.04.2020
4040 Snow -3 1003 98 0 3.21 165 01:22 27.04.2020
4041 Snow -3 1003 98 0 3.21 165 00:45 27.04.2020
4042 Snow -3 1002 98 0 3.21 145 00:19 27.04.2020
4043 Snow -3 1002 98 0 3.21 145 23:55 26.04.2020
4044 Snow -3 1002 98 0 3.21 145 23:37 26.04.2020
4045 Snow -3 1002 98 0 3.21 145 23:18 26.04.2020
4046 Snow -3 1002 98 0 3.21 145 22:55 26.04.2020
4047 Snow -3 1002 98 0 3.21 145 22:55 26.04.2020
4048 Snow -3 1002 98 0 3.21 145 22:37 26.04.2020
4049 Snow -3 1002 98 0 3.21 145 22:18 26.04.2020
4050 Snow -3 1002 98 0 3.21 145 21:55 26.04.2020
4051 Snow -3 1002 98 0 3.21 145 21:37 26.04.2020
4052 Snow -2 1002 98 0 3.61 147 21:18 26.04.2020
4053 Snow -2 1002 98 0 3.61 147 20:39 26.04.2020
4054 Snow -2 1002 98 0 3.61 147 20:20 26.04.2020
4055 Snow -2 1002 98 0 3.61 147 19:59 26.04.2020
4056 Snow -2 1002 98 0 3.61 147 19:38 26.04.2020
4057 Snow -2 1002 98 0 3.61 147 19:19 26.04.2020
4058 Snow -2 1002 98 0 3.61 147 18:44 26.04.2020
4059 Snow -2 1001 98 0 2.87 148 18:25 26.04.2020
4060 Snow -2 1001 98 0 2.87 148 18:25 26.04.2020
4061 Snow -2 1001 98 0 2.87 148 17:56 26.04.2020
4062 Snow -2 1001 98 0 2.87 148 17:38 26.04.2020
4063 Snow -2 1001 98 0 2.87 148 17:18 26.04.2020
4064 Snow -2 1001 98 0 2.87 148 16:40 26.04.2020
4065 Snow -2 1001 98 0 2.87 148 16:22 26.04.2020
4066 Snow -2 1001 98 0 2.87 148 15:59 26.04.2020
4067 Snow -2 1001 98 0 2.87 148 15:40 26.04.2020
4068 Snow -2 1001 98 0 2.87 148 15:40 26.04.2020
4069 Snow -1 1001 97 0 3.2 164 15:21 26.04.2020
4070 Snow -1 1001 97 0 3.2 164 14:56 26.04.2020
4071 Snow -1 1001 97 0 3.2 164 14:38 26.04.2020
4072 Clouds -1 1001 97 0 2.7 173 14:18 26.04.2020
4073 Clouds -1 1001 97 0 2.7 173 13:54 26.04.2020
4074 Clouds -1 1001 97 0 2.7 173 13:36 26.04.2020
4075 Clouds -1 1001 97 0 2.7 173 13:18 26.04.2020
4076 Clouds -1 1001 97 0 2.7 173 12:40 26.04.2020
4077 Clouds -2 1000 96 0 4.16 174 12:21 26.04.2020
4078 Clouds -2 1000 96 0 4.16 174 12:21 26.04.2020
4079 Clouds -2 1000 96 0 4.16 174 11:59 26.04.2020
4080 Clouds -2 1000 96 0 4.16 174 11:40 26.04.2020
4081 Clouds -2 1000 96 0 4.16 174 11:21 26.04.2020
4082 Clouds -2 1000 96 0 4.16 174 10:56 26.04.2020
4083 Clouds -2 1000 96 0 4.16 174 10:37 26.04.2020
4084 Clouds -2 1000 96 0 4.16 174 10:18 26.04.2020
4085 Clouds -2 1000 96 0 4.16 174 09:40 26.04.2020
4086 Clouds -3 999 96 0 5.33 175 09:21 26.04.2020
4087 Clouds -3 999 96 0 5.33 175 08:56 26.04.2020
4088 Clouds -3 999 96 0 5.33 175 08:37 26.04.2020
4089 Clouds -3 999 96 0 5.33 175 08:18 26.04.2020
4090 Clouds -3 999 96 0 5.33 175 07:46 26.04.2020
4091 Clouds -3 999 96 0 5.33 175 07:21 26.04.2020
4092 Clouds -3 999 96 0 5.33 175 06:43 26.04.2020
4093 Clouds -5 998 95 0 5.36 168 05:57 26.04.2020
4094 Clouds -5 998 95 0 5.36 168 05:38 26.04.2020
4095 Clouds -5 998 95 0 5.36 168 04:56 26.04.2020
4096 Clouds -5 998 95 0 5.36 168 04:22 26.04.2020
4097 Clouds -6 997 95 0 4.81 178 02:47 26.04.2020
4098 Clouds -5 997 96 0 5.53 180 02:28 26.04.2020
4099 Clouds -5 997 96 0 5.53 180 01:46 26.04.2020
4100 Clouds -5 997 96 0 5.53 180 01:25 26.04.2020
4101 Clouds -5 997 96 0 5.53 180 00:39 26.04.2020
4102 Clouds -5 995 94 0 6.25 180 00:19 26.04.2020
4103 Clouds -5 995 94 0 6.25 180 23:39 25.04.2020
4104 Clouds -5 995 94 0 6.25 180 23:20 25.04.2020
4105 Clouds -5 995 94 0 6.25 180 22:57 25.04.2020
4106 Clouds -5 995 94 0 6.25 180 22:39 25.04.2020
4107 Clouds -5 995 94 0 6.25 180 22:19 25.04.2020
4108 Clouds -5 995 94 0 6.25 180 21:40 25.04.2020
4109 Clouds -5 994 94 0 7.31 180 21:20 25.04.2020
4110 Clouds -5 994 94 0 7.31 180 20:58 25.04.2020
4111 Clouds -5 994 94 0 7.31 180 20:40 25.04.2020
4112 Clouds -5 994 94 0 7.31 180 20:21 25.04.2020
4113 Clouds -5 994 94 0 7.31 180 19:55 25.04.2020
4114 Clouds -5 994 94 0 7.31 180 19:37 25.04.2020
4115 Clouds -5 994 94 0 7.31 180 19:18 25.04.2020
4116 Clouds -5 994 94 0 7.31 180 18:39 25.04.2020
4117 Clouds -4 994 95 0 6.72 177 18:21 25.04.2020
4118 Clouds -4 994 95 0 6.72 177 17:58 25.04.2020
4119 Clouds -4 994 95 0 6.72 177 17:38 25.04.2020
4120 Clouds -4 994 95 0 6.72 177 17:19 25.04.2020
4121 Clouds -4 994 95 0 6.72 177 16:56 25.04.2020
4122 Clouds -4 994 95 0 6.72 177 16:38 25.04.2020
4123 Clouds -4 994 95 0 6.72 177 16:19 25.04.2020
4124 Clouds -4 994 95 0 6.72 177 15:41 25.04.2020
4125 Clouds -4 994 95 0 6.72 177 15:41 25.04.2020
4126 Clouds -4 993 95 0 7.67 185 15:20 25.04.2020
4127 Clouds -4 993 95 0 7.67 185 14:58 25.04.2020
4128 Clouds -4 993 94 0 7.53 183 14:39 25.04.2020
4129 Clouds -4 993 94 0 7.53 183 14:20 25.04.2020
4130 Clouds -4 993 94 0 7.53 183 13:44 25.04.2020
4131 Clouds -4 993 94 0 7.53 183 13:22 25.04.2020
4132 Clouds -4 993 94 0 7.53 183 12:59 25.04.2020
4133 Clouds -4 993 94 0 7.53 183 12:41 25.04.2020
4134 Clouds -4 992 93 0 7.68 180 12:21 25.04.2020
4135 Clouds -4 992 93 0 7.68 180 11:59 25.04.2020
4136 Clouds -4 992 93 0 7.68 180 11:41 25.04.2020
4137 Clouds -4 992 93 0 7.68 180 11:22 25.04.2020
4138 Clouds -4 992 93 0 7.68 180 10:45 25.04.2020
4139 Clouds -4 992 93 0 7.68 180 10:26 25.04.2020
4140 Clouds -4 992 93 0 7.68 180 09:57 25.04.2020
4141 Clouds -4 992 93 0 7.68 180 09:39 25.04.2020
4142 Clouds -5 991 93 0 8.14 184 09:21 25.04.2020
4143 Clouds -5 991 93 0 8.14 184 08:41 25.04.2020
4144 Clouds -5 991 93 0 8.14 184 08:41 25.04.2020
4145 Clouds -5 991 93 0 8.14 184 08:22 25.04.2020
4146 Clouds -4 991 93 0 8.59 186 07:59 25.04.2020
4147 Clouds -5 991 93 0 8.14 184 07:41 25.04.2020
4148 Clouds -5 991 93 0 8.14 184 06:57 25.04.2020
4149 Clouds -5 991 93 0 8.14 184 06:36 25.04.2020
4150 Clouds -5 989 94 0 8.94 185 05:42 25.04.2020
4151 Clouds -5 989 94 0 8.82 184 05:24 25.04.2020
4152 Clouds -5 989 95 0 8.44 190 03:29 25.04.2020
4153 Clouds -5 989 95 0 8.72 190 02:36 25.04.2020
4154 Clouds -5 989 95 0 8.72 190 01:56 25.04.2020
4155 Clouds -5 989 95 0 8.72 190 01:37 25.04.2020
4156 Clouds -5 989 95 0 8.72 190 01:18 25.04.2020
4157 Clouds -5 989 95 0 8.72 190 00:38 25.04.2020
4158 Clouds -4 987 94 0 9.05 200 23:59 24.04.2020
4159 Clouds -4 987 94 0 9.05 200 23:40 24.04.2020
4160 Clouds -4 987 94 0 9.05 200 23:20 24.04.2020
4161 Clouds -4 987 94 0 9.05 200 22:41 24.04.2020
4162 Clouds -4 987 94 0 9.05 200 22:20 24.04.2020
4163 Clouds -4 987 94 0 9.05 200 21:57 24.04.2020
4164 Clouds -4 987 94 0 9.05 200 21:39 24.04.2020
4165 Clouds -4 986 94 0 10.1 204 21:21 24.04.2020
4166 Clouds -4 986 94 0 10.1 204 20:56 24.04.2020
4167 Clouds -4 986 94 0 10.1 204 20:38 24.04.2020
4168 Clouds -4 986 94 0 10.1 204 20:18 24.04.2020
4169 Clouds -4 986 94 0 10.1 204 19:43 24.04.2020
4170 Clouds -4 986 94 0 10.1 204 19:25 24.04.2020
4171 Clouds -4 986 94 0 10.1 204 18:46 24.04.2020
4172 Clouds -3 984 94 0 10.78 207 18:28 24.04.2020
4173 Clouds -3 984 94 0 10.78 207 17:59 24.04.2020
4174 Clouds -3 984 94 0 10.78 207 17:41 24.04.2020
4175 Clouds -3 984 94 0 10.78 207 17:22 24.04.2020
4176 Clouds -3 984 94 0 10.78 207 16:58 24.04.2020
4177 Clouds -3 984 94 0 10.78 207 16:40 24.04.2020
4178 Clouds -3 984 94 0 10.78 207 16:21 24.04.2020
4179 Clouds -3 984 94 0 10.78 207 15:55 24.04.2020
4180 Clouds -3 984 94 0 10.78 207 15:37 24.04.2020
4181 Snow -3 983 93 0 11.53 220 15:18 24.04.2020
4182 Snow -3 983 93 0 11.53 220 14:40 24.04.2020
4183 Snow -3 983 93 0 11.53 220 14:20 24.04.2020
4184 Clouds -3 983 93 0 11.29 220 13:45 24.04.2020
4185 Clouds -3 983 93 0 11.29 220 13:27 24.04.2020
4186 Clouds -3 983 93 0 11.29 220 12:59 24.04.2020
4187 Clouds -3 983 93 0 11.29 220 12:41 24.04.2020
4188 Snow -3 979 93 0 12.76 223 12:21 24.04.2020
4189 Snow -3 979 93 0 12.76 223 11:57 24.04.2020
4190 Snow -3 979 93 0 12.76 223 11:37 24.04.2020
4191 Snow -3 979 93 0 12.76 223 11:19 24.04.2020
4192 Snow -3 979 93 0 12.76 223 10:39 24.04.2020
4193 Snow -3 979 93 0 12.76 223 10:20 24.04.2020
4194 Snow -3 979 93 0 12.76 223 09:58 24.04.2020
4195 Snow -3 979 93 0 12.76 223 09:39 24.04.2020
4196 Snow -3 976 94 0 13.94 223 09:21 24.04.2020
4197 Snow -3 976 94 0 13.94 223 08:55 24.04.2020
4198 Snow -3 976 94 0 13.94 223 08:37 24.04.2020
4199 Snow -3 976 94 0 13.94 223 08:18 24.04.2020
4200 Snow -3 976 94 0 13.94 223 07:43 24.04.2020
4201 Snow -3 976 94 0 13.94 223 07:24 24.04.2020
4202 Snow -3 976 94 0 13.94 223 06:49 24.04.2020
4203 Snow -3 976 94 0 13.94 223 06:30 24.04.2020
4204 Snow -4 973 95 0 13.2 232 05:42 24.04.2020
4205 Snow -4 973 95 0 13.2 232 04:25 24.04.2020
4206 Snow -4 973 96 0 11.85 247 02:58 24.04.2020
4207 Snow -4 973 96 0 11.85 247 02:37 24.04.2020
4208 Snow -4 973 96 0 11.26 246 01:57 24.04.2020
4209 Snow -4 973 96 0 11.26 246 00:58 24.04.2020
4210 Snow -5 971 97 0 10 273 00:21 24.04.2020
4211 Snow -5 971 97 0 10 273 00:21 24.04.2020
4212 Snow -5 971 97 0 10 273 23:54 23.04.2020
4213 Snow -5 971 97 0 10 273 23:36 23.04.2020
4214 Snow -5 971 97 0 10 273 23:18 23.04.2020
4215 Snow -5 971 97 0 10 273 22:54 23.04.2020
4216 Snow -5 971 97 0 10 273 22:36 23.04.2020
4217 Snow -5 971 97 0 10 273 22:18 23.04.2020
4218 Snow -5 971 97 0 10 273 21:54 23.04.2020
4219 Snow -5 971 97 0 10 273 21:36 23.04.2020
4220 Snow -4 970 97 0 8.91 297 21:18 23.04.2020
4221 Snow -4 970 97 0 8.91 297 20:41 23.04.2020
4222 Snow -4 970 97 0 8.91 297 20:21 23.04.2020
4223 Snow -4 970 97 0 8.91 297 19:56 23.04.2020
4224 Snow -4 970 97 0 8.91 297 19:38 23.04.2020
4225 Snow -4 970 97 0 8.91 297 19:20 23.04.2020
4226 Snow -4 970 97 0 8.91 297 18:55 23.04.2020
4227 Snow -4 970 97 0 8.91 297 18:36 23.04.2020
4228 Snow -3 970 98 0 8.26 317 18:18 23.04.2020
4229 Snow -3 970 98 0 8.26 317 17:40 23.04.2020
4230 Snow -3 970 98 0 8.26 317 17:22 23.04.2020
4231 Snow -3 970 98 0 8.26 317 16:57 23.04.2020
4232 Snow -3 970 98 0 8.26 317 16:38 23.04.2020
4233 Snow -3 970 98 0 8.26 317 16:19 23.04.2020
4234 Snow -3 970 98 0 8.26 317 16:19 23.04.2020
4235 Snow -3 970 98 0 8.26 317 15:42 23.04.2020
4236 Snow -3 970 98 0 9.79 346 15:23 23.04.2020
4237 Snow -3 970 98 0 9.79 346 14:57 23.04.2020
4238 Snow -3 970 98 0 9.79 346 14:38 23.04.2020
4239 Snow -3 970 98 0 8.77 353 14:19 23.04.2020
4240 Snow -3 970 98 0 8.77 353 13:55 23.04.2020
4241 Snow -3 970 98 0 8.77 353 13:36 23.04.2020
4242 Snow -3 970 98 0 8.77 353 13:18 23.04.2020
4243 Snow -3 970 98 0 8.77 353 12:42 23.04.2020
4244 Snow -3 971 98 0 13.17 14 12:24 23.04.2020
4245 Snow -3 971 98 0 13.17 14 11:56 23.04.2020
4246 Snow -3 971 98 0 13.17 14 11:38 23.04.2020
4247 Snow -3 971 98 0 13.17 14 11:18 23.04.2020
4248 Snow -3 971 98 0 13.17 14 10:41 23.04.2020
4249 Snow -3 971 98 0 13.17 14 10:21 23.04.2020
4250 Snow -3 971 98 0 13.17 14 09:41 23.04.2020
4251 Snow -4 977 97 0 16.46 33 09:20 23.04.2020
4252 Snow -4 977 97 0 16.46 33 08:59 23.04.2020
4253 Snow -4 977 97 0 16.46 33 08:59 23.04.2020
4254 Snow -4 977 97 0 16.46 33 08:40 23.04.2020
4255 Snow -4 977 97 0 16.46 33 08:21 23.04.2020
4256 Snow -4 977 97 0 16.46 33 07:42 23.04.2020
4257 Snow -4 977 97 0 16.46 33 07:23 23.04.2020
4258 Snow -4 977 97 0 16.46 33 06:48 23.04.2020
4259 Snow -4 984 97 0 14.07 33 06:22 23.04.2020
4260 Snow -4 984 97 0 14.07 33 05:23 23.04.2020
4261 Snow -4 984 97 0 14.07 33 04:51 23.04.2020
4262 Clouds -4 993 95 0 8.16 41 02:24 23.04.2020
4263 Clouds -4 992 95 0 9.21 41 01:46 23.04.2020
4264 Clouds -4 992 95 0 9.21 41 01:24 23.04.2020
4265 Clouds -4 992 95 0 9.21 41 00:45 23.04.2020
4266 Clouds -4 992 95 0 9.21 41 00:45 23.04.2020
4267 Clouds -6 997 94 0 2.81 41 00:18 23.04.2020
4268 Clouds -6 997 94 0 2.81 41 23:48 22.04.2020
4269 Clouds -6 997 94 0 2.81 41 23:23 22.04.2020
4270 Clouds -6 997 94 0 2.81 41 22:55 22.04.2020
4271 Clouds -6 997 94 0 2.81 41 22:36 22.04.2020
4272 Clouds -6 997 94 0 2.81 41 22:18 22.04.2020
4273 Clouds -6 997 94 0 2.81 41 21:55 22.04.2020
4274 Clouds -7 998 95 0 2.19 41 21:37 22.04.2020
4275 Clouds -6 1001 96 0 3.97 204 21:18 22.04.2020
4276 Clouds -6 1001 96 0 3.97 204 20:43 22.04.2020
4277 Clouds -6 1001 96 0 3.97 204 20:19 22.04.2020
4278 Clouds -6 1001 96 0 3.97 204 19:57 22.04.2020
4279 Clouds -6 1001 96 0 3.97 204 19:38 22.04.2020
4280 Clouds -6 1001 96 0 3.97 204 19:19 22.04.2020
4281 Clouds -6 1001 96 0 3.97 204 18:58 22.04.2020
4282 Clouds -6 1001 96 0 3.97 204 18:40 22.04.2020
4283 Snow -4 1003 95 0 6.22 201 18:22 22.04.2020
4284 Snow -4 1003 95 0 6.22 201 17:55 22.04.2020
4285 Snow -4 1003 95 0 6.22 201 17:37 22.04.2020
4286 Snow -4 1003 95 0 6.22 201 17:18 22.04.2020
4287 Snow -4 1003 95 0 6.22 201 16:41 22.04.2020
4288 Snow -4 1003 95 0 6.22 201 16:22 22.04.2020
4289 Snow -4 1003 95 0 6.22 201 15:43 22.04.2020
4290 Snow -3 1003 95 0 6.69 217 15:24 22.04.2020
4291 Snow -3 1003 95 0 6.69 217 14:59 22.04.2020
4292 Snow -3 1003 95 0 6.69 217 14:59 22.04.2020
4293 Snow -3 1003 95 0 6.69 217 14:38 22.04.2020
4294 Snow -3 1003 95 0 7 213 14:20 22.04.2020
4295 Snow -3 1003 95 0 7 213 13:56 22.04.2020
4296 Snow -3 1003 95 0 7 213 13:37 22.04.2020
4297 Snow -3 1003 95 0 7 213 13:19 22.04.2020
4298 Snow -3 1003 95 0 7 213 12:41 22.04.2020
4299 Snow -3 1003 95 0 8.27 219 12:22 22.04.2020
4300 Snow -3 1003 95 0 8.27 219 11:41 22.04.2020
4301 Snow -3 1003 95 0 8.27 219 11:22 22.04.2020
4302 Snow -3 1003 95 0 8.27 219 10:59 22.04.2020
4303 Snow -3 1003 95 0 8.27 219 10:41 22.04.2020
4304 Snow -3 1003 95 0 8.27 219 10:20 22.04.2020
4305 Snow -3 1004 95 0 8.16 218 09:41 22.04.2020
4306 Clouds -4 1003 95 0 8.31 217 09:23 22.04.2020
4307 Clouds -4 1003 95 0 8.31 217 08:59 22.04.2020
4308 Clouds -4 1003 95 0 8.31 217 08:40 22.04.2020
4309 Clouds -4 1003 95 0 8.31 217 08:22 22.04.2020
4310 Clouds -4 1003 95 0 8.31 217 07:53 22.04.2020
4311 Clouds -4 1003 95 0 8.31 217 07:29 22.04.2020
4312 Clouds -4 1003 95 0 8.31 217 06:53 22.04.2020
4313 Clouds -4 1003 95 0 7.6 223 06:23 22.04.2020
4314 Clouds -4 1003 95 0 7.6 223 05:37 22.04.2020
4315 Clouds -4 1003 95 0 7.6 223 04:30 22.04.2020
4316 Clouds -6 1004 95 0 5.82 235 02:51 22.04.2020
4317 Clouds -6 1004 95 0 5.33 237 01:53 22.04.2020
4318 Clouds -6 1004 95 0 5.33 237 01:27 22.04.2020
4319 Clouds -6 1004 95 0 5.33 237 00:57 22.04.2020
4320 Clouds -6 1004 95 0 5.33 237 00:37 22.04.2020
4321 Snow -4 1003 94 0 6.78 256 00:19 22.04.2020
4322 Snow -4 1003 94 0 6.78 256 23:41 21.04.2020
4323 Snow -4 1003 94 0 6.78 256 23:19 21.04.2020
4324 Snow -4 1003 94 0 6.78 256 22:40 21.04.2020
4325 Snow -4 1003 94 0 6.78 256 22:22 21.04.2020
4326 Snow -4 1003 94 0 6.78 256 21:59 21.04.2020
4327 Snow -4 1003 94 0 6.78 256 21:41 21.04.2020
4328 Clouds -5 1003 94 0 6.79 253 21:22 21.04.2020
4329 Clouds -5 1003 94 0 6.73 257 20:56 21.04.2020
4330 Clouds -5 1003 94 0 6.79 253 20:38 21.04.2020
4331 Clouds -5 1003 94 0 6.79 253 20:20 21.04.2020
4332 Clouds -5 1003 94 0 6.73 257 19:41 21.04.2020
4333 Clouds -5 1003 94 0 6.73 257 19:20 21.04.2020
4334 Clouds -5 1003 94 0 6.73 257 19:20 21.04.2020
4335 Clouds -5 1003 94 0 6.79 253 18:58 21.04.2020
4336 Clouds -5 1003 94 0 6.79 253 18:39 21.04.2020
4337 Snow -3 1002 96 0 8.47 285 18:19 21.04.2020
4338 Snow -3 1002 97 0 8.57 283 17:57 21.04.2020
4339 Snow -3 1002 96 0 8.47 285 17:38 21.04.2020
4340 Snow -3 1002 96 0 8.47 285 17:18 21.04.2020
4341 Snow -3 1002 97 0 8.57 283 16:39 21.04.2020
4342 Snow -3 1002 97 0 8.57 283 16:19 21.04.2020
4343 Snow -3 1002 97 0 8.57 283 15:57 21.04.2020
4344 Snow -3 1002 97 0 8.57 283 15:39 21.04.2020
4345 Snow -1 1002 96 0 7.61 227 15:21 21.04.2020
4346 Snow -1 1002 96 0 7.61 227 14:57 21.04.2020
4347 Snow -1 1002 96 0 7.61 227 14:39 21.04.2020
4348 Snow -1 1002 96 0 7.61 227 14:21 21.04.2020
4349 Snow -1 1002 96 0 7.61 227 13:42 21.04.2020
4350 Snow -1 1002 96 0 7.61 227 13:42 21.04.2020
4351 Snow -1 1002 96 0 7.61 227 13:23 21.04.2020
4352 Snow -1 1002 96 0 7.61 227 12:57 21.04.2020
4353 Snow -1 1002 96 0 7.61 227 12:37 21.04.2020
4354 Snow -1 1002 97 0 8.28 221 12:18 21.04.2020
4355 Snow -1 1002 97 0 8.28 221 11:55 21.04.2020
4356 Snow -1 1002 97 0 8.28 221 11:55 21.04.2020
4357 Snow -1 1002 97 0 8.28 221 11:36 21.04.2020
4358 Snow -1 1002 97 0 8.28 221 11:18 21.04.2020
4359 Snow -1 1002 97 0 8.28 221 10:56 21.04.2020
4360 Snow -1 1002 97 0 8.28 221 10:38 21.04.2020
4361 Snow -1 1002 97 0 8.28 221 10:19 21.04.2020
4362 Snow -1 1003 97 0 8.61 221 09:37 21.04.2020
4363 Snow -1 1004 97 0 9.63 222 09:19 21.04.2020
4364 Snow -1 1004 97 0 9.63 222 08:57 21.04.2020
4365 Snow -1 1004 97 0 9.63 222 08:38 21.04.2020
4366 Snow -1 1004 97 0 9.63 222 08:19 21.04.2020
4367 Snow -1 1004 97 0 9.63 222 07:43 21.04.2020
4368 Snow -1 1004 97 0 9.63 222 07:22 21.04.2020
4369 Snow -1 1004 97 0 9.63 222 06:47 21.04.2020
4370 Snow -2 1006 97 0 11.19 220 06:20 21.04.2020
4371 Snow -2 1006 97 0 11.19 220 05:48 21.04.2020
4372 Snow -2 1006 97 0 11.19 220 03:48 21.04.2020
4373 Snow -1 1008 96 0 10.56 222 03:27 21.04.2020
4374 Snow -1 1008 96 0 10.74 223 01:46 21.04.2020
4375 Snow -1 1008 96 0 10.74 223 00:53 21.04.2020
4376 Snow -1 1008 96 0 10.74 223 00:32 21.04.2020
4377 Snow -1 1010 97 0 10.76 214 23:44 20.04.2020
4378 Snow -1 1010 97 0 10.76 214 23:25 20.04.2020
4379 Snow -1 1010 97 0 10.76 214 22:57 20.04.2020
4380 Snow -1 1010 97 0 10.76 214 22:38 20.04.2020
4381 Snow -1 1010 97 0 10.76 214 22:19 20.04.2020
4382 Snow -1 1010 97 0 10.76 214 21:56 20.04.2020
4383 Snow -1 1009 97 0 10.02 213 21:38 20.04.2020
4384 Snow -1 1012 97 0 9.27 224 21:19 20.04.2020
4385 Snow -1 1012 97 0 9.27 224 20:56 20.04.2020
4386 Snow -1 1012 97 0 9.27 224 20:37 20.04.2020
4387 Snow -1 1012 97 0 9.27 224 20:18 20.04.2020
4388 Snow -1 1012 97 0 9.27 224 19:55 20.04.2020
4389 Snow -1 1012 97 0 9.27 224 19:37 20.04.2020
4390 Snow -1 1012 97 0 9.27 224 19:18 20.04.2020
4391 Snow -1 1012 97 0 9.27 224 18:42 20.04.2020
4392 Clouds -1 1012 97 0 8.03 235 18:22 20.04.2020
4393 Clouds -1 1012 97 0 8.03 235 18:22 20.04.2020
4394 Clouds -1 1012 97 0 8.03 235 17:55 20.04.2020
4395 Clouds -1 1012 97 0 8.03 235 17:37 20.04.2020
4396 Clouds -1 1012 97 0 8.03 235 17:19 20.04.2020
4397 Clouds -1 1012 97 0 8.03 235 16:43 20.04.2020
4398 Clouds -1 1012 97 0 8.03 235 16:21 20.04.2020
4399 Clouds -1 1012 97 0 8.03 235 15:58 20.04.2020
4400 Clouds -1 1012 97 0 8.03 235 15:39 20.04.2020
4401 Clouds 0 1013 97 0 7.67 234 15:21 20.04.2020
4402 Clouds 0 1013 97 0 7.67 234 14:55 20.04.2020
4403 Clouds 0 1013 97 0 7.67 234 14:55 20.04.2020
4404 Clouds 0 1013 97 0 7.67 234 14:36 20.04.2020
4405 Clouds 0 1012 97 0 7.59 233 14:18 20.04.2020
4406 Clouds 0 1012 97 0 7.59 233 13:41 20.04.2020
4407 Clouds 0 1012 97 0 7.59 233 13:22 20.04.2020
4408 Clouds 0 1012 97 0 7.59 233 12:45 20.04.2020
4409 Clouds 0 1011 98 0 6.64 232 12:26 20.04.2020
4410 Clouds 0 1011 98 0 6.64 232 11:59 20.04.2020
4411 Clouds 0 1011 98 0 6.64 232 11:59 20.04.2020
4412 Clouds 0 1011 98 0 6.64 232 11:39 20.04.2020
4413 Clouds 0 1011 98 0 6.64 232 11:20 20.04.2020
4414 Clouds 0 1011 98 0 6.64 232 10:56 20.04.2020
4415 Clouds 0 1011 98 0 6.64 232 10:38 20.04.2020
4416 Clouds 0 1011 98 0 6.64 232 10:19 20.04.2020
4417 Clouds 0 1011 98 0 6.64 232 09:44 20.04.2020
4418 Clouds 0 1011 98 0 6.63 223 09:26 20.04.2020
4419 Clouds 0 1011 98 0 6.63 223 08:59 20.04.2020
4420 Clouds 0 1011 98 0 6.63 223 08:41 20.04.2020
4421 Clouds 0 1011 98 0 6.63 223 08:19 20.04.2020
4422 Clouds 0 1011 98 0 6.63 223 07:52 20.04.2020
4423 Clouds 0 1011 98 0 6.63 223 07:29 20.04.2020
4424 Clouds 0 1011 98 0 6.63 223 07:29 20.04.2020
4425 Clouds 0 1011 98 0 6.63 223 06:55 20.04.2020
4426 Clouds 0 1011 98 0 6.63 223 06:35 20.04.2020
4427 Clouds -1 1010 98 0 6.68 226 05:33 20.04.2020
4428 Clouds -1 1010 98 0 6.68 226 03:45 20.04.2020
4429 Clouds -1 1009 98 0 8.04 237 02:44 20.04.2020
4430 Clouds -1 1009 97 0 8.13 233 01:32 20.04.2020
4431 Clouds -1 1009 97 0 8.13 233 00:59 20.04.2020
4432 Clouds -1 1009 97 0 8.13 233 00:34 20.04.2020
4433 Snow -1 1007 98 0 8.35 230 23:56 19.04.2020
4434 Snow -1 1007 98 0 8.35 230 23:37 19.04.2020
4435 Snow -1 1007 98 0 8.35 230 23:19 19.04.2020
4436 Snow -1 1007 98 0 8.35 230 22:40 19.04.2020
4437 Snow -1 1007 98 0 8.35 230 22:21 19.04.2020
4438 Snow -1 1007 98 0 8.35 230 21:57 19.04.2020
4439 Snow -1 1007 98 0 8.35 230 21:38 19.04.2020
4440 Snow -1 1006 98 0 7.95 232 21:20 19.04.2020
4441 Snow -1 1006 98 0 7.95 232 20:41 19.04.2020
4442 Snow -1 1006 98 0 7.95 232 20:21 19.04.2020
4443 -273 0 0 0 0 0 19:59 19.04.2020
4444 Snow -1 1006 98 0 7.95 232 19:41 19.04.2020
4445 Snow -1 1006 98 0 7.95 232 19:22 19.04.2020
4446 Snow -1 1006 98 0 7.95 232 18:58 19.04.2020
4447 Snow -1 1006 98 0 7.95 232 18:39 19.04.2020
4448 Snow -1 1005 98 0 7.52 236 18:20 19.04.2020
4449 Snow -1 1005 98 0 7.52 236 17:57 19.04.2020
4450 Snow -1 1005 98 0 7.52 236 17:39 19.04.2020
4451 Snow -1 1005 98 0 7.52 236 17:21 19.04.2020
4452 Snow -1 1005 98 0 7.52 236 16:57 19.04.2020
4453 Snow -1 1005 98 0 7.52 236 16:38 19.04.2020
4454 Snow -1 1005 98 0 7.52 236 16:19 19.04.2020
4455 Snow -1 1005 98 0 7.52 236 15:43 19.04.2020
4456 Snow -1 1003 98 0 6.83 253 15:22 19.04.2020
4457 Snow -1 1003 98 0 6.83 253 14:55 19.04.2020
4458 Snow -1 1004 98 0 5.85 249 14:37 19.04.2020
4459 Snow -1 1004 98 0 5.85 249 14:19 19.04.2020
4460 Snow -1 1004 98 0 5.85 249 13:40 19.04.2020
4461 Snow -1 1004 98 0 5.85 249 13:21 19.04.2020
4462 Snow -1 1004 98 0 5.85 249 12:50 19.04.2020
4463 Clouds -1 1003 98 0 4.98 252 12:25 19.04.2020
4464 Clouds -1 1003 98 0 4.98 252 11:59 19.04.2020
4465 Clouds -1 1003 98 0 4.98 252 11:37 19.04.2020
4466 Clouds -1 1003 98 0 4.98 252 11:19 19.04.2020
4467 Clouds -1 1003 98 0 4.98 252 10:56 19.04.2020
4468 Clouds -1 1003 98 0 4.98 252 10:38 19.04.2020
4469 Clouds -1 1003 98 0 4.98 252 10:19 19.04.2020
4470 Clouds -1 1003 98 0 4.98 252 09:45 19.04.2020
4471 Snow 0 1002 98 0 4.89 246 09:27 19.04.2020
4472 Snow -1 1003 98 0 4.2 251 08:41 19.04.2020
4473 Snow -1 1003 98 0 4.2 251 08:23 19.04.2020
4474 Snow -1 1003 99 0 3.65 259 07:59 19.04.2020
4475 Snow -1 1003 98 0 4.2 251 07:41 19.04.2020
4476 Snow -1 1003 98 0 4.2 251 07:22 19.04.2020
4477 Snow -1 1002 99 0 2.62 239 06:29 19.04.2020
4478 Snow -1 1002 99 0 2.62 239 05:55 19.04.2020
4479 Snow -1 1002 99 0 2.62 239 04:43 19.04.2020
4480 Snow -1 1003 99 0 2.12 279 02:59 19.04.2020
4481 Snow 0 1003 99 0 1.55 285 02:21 19.04.2020
4482 Snow 0 1003 99 0 1.55 285 01:38 19.04.2020
4483 Snow 0 1003 99 0 1.55 285 00:48 19.04.2020
4484 Snow 0 1003 98 0 1.21 347 00:25 19.04.2020
4485 Snow 0 1003 98 0 1.21 347 23:48 18.04.2020
4486 Snow 0 1003 98 0 1.21 347 23:22 18.04.2020
4487 Snow 0 1003 98 0 1.21 347 22:59 18.04.2020
4488 Snow 0 1003 98 0 1.21 347 22:40 18.04.2020
4489 Snow 0 1003 98 0 1.21 347 22:21 18.04.2020
4490 Snow 0 1003 98 0 1.21 347 21:56 18.04.2020
4491 Snow 0 1003 98 0 1.21 347 21:37 18.04.2020
4492 Snow -1 1004 99 0 3.78 333 21:19 18.04.2020
4493 Snow -1 1004 99 0 3.78 333 20:42 18.04.2020
4494 Snow -1 1004 99 0 3.78 333 20:22 18.04.2020
4495 Snow -1 1004 99 0 3.78 333 19:56 18.04.2020
4496 Snow -1 1004 99 0 3.78 333 19:56 18.04.2020
4497 Snow -1 1004 99 0 3.78 333 19:37 18.04.2020
4498 Snow -1 1004 99 0 3.78 333 19:19 18.04.2020
4499 Snow -1 1004 99 0 3.78 333 18:38 18.04.2020
4500 Clouds -1 1004 98 0 2.91 11 18:19 18.04.2020
4501 Clouds -1 1004 98 0 2.91 11 18:19 18.04.2020
4502 Clouds -1 1004 98 0 2.91 11 17:43 18.04.2020
4503 Clouds -1 1004 98 0 2.91 11 17:21 18.04.2020
4504 Clouds -1 1004 98 0 2.91 11 16:58 18.04.2020
4505 Clouds -1 1004 98 0 2.91 11 16:38 18.04.2020
4506 Clouds -1 1004 98 0 2.91 11 16:20 18.04.2020
4507 Clouds -1 1004 98 0 2.91 11 15:40 18.04.2020
4508 Clouds 0 1005 95 0 3.01 42 15:22 18.04.2020
4509 Clouds 0 1005 95 0 3.01 42 14:47 18.04.2020
4510 Clouds 0 1005 95 0 3.01 42 14:47 18.04.2020
4511 Clouds 0 1005 95 0 3.01 42 14:29 18.04.2020
4512 Clouds 0 1005 96 0 2.45 41 13:59 18.04.2020
4513 Clouds 0 1005 96 0 2.45 41 13:41 18.04.2020
4514 Clouds 0 1005 96 0 2.45 41 13:20 18.04.2020
4515 Clouds 0 1005 96 0 2.45 41 12:42 18.04.2020
4516 Clouds 0 1005 96 0 1.04 112 12:24 18.04.2020
4517 Clouds 0 1005 96 0 1.04 112 11:56 18.04.2020
4518 Clouds 0 1005 96 0 1.04 112 11:37 18.04.2020
4519 Clouds 0 1005 96 0 1.04 112 11:19 18.04.2020
4520 Clouds 0 1005 96 0 1.04 112 10:41 18.04.2020
4521 Clouds 0 1005 96 0 1.04 112 10:19 18.04.2020
4522 Clouds 0 1005 96 0 1.04 112 09:58 18.04.2020
4523 Clouds 0 1005 97 0 1 190 09:38 18.04.2020
4524 Clouds 0 1004 99 0 2.78 209 09:20 18.04.2020
4525 Clouds 0 1004 99 0 2.78 209 08:42 18.04.2020
4526 Clouds 0 1004 99 0 2.78 209 08:21 18.04.2020
4527 Clouds 0 1004 99 0 2.78 209 07:41 18.04.2020
4528 Clouds 0 1004 99 0 2.78 209 07:20 18.04.2020
4529 Clouds 0 1004 99 0 2.78 209 06:38 18.04.2020
4530 Clouds 0 1002 98 0 4.08 224 05:48 18.04.2020
4531 Clouds 0 1002 98 0 4.08 224 04:54 18.04.2020
4532 Clouds 0 1002 98 0 4.08 224 04:29 18.04.2020
4533 Rain 1 1001 96 0 3.64 214 02:58 18.04.2020
4534 Rain 1 1001 96 0 3.64 214 02:40 18.04.2020
4535 Rain 1 1000 97 0 2.42 204 02:19 18.04.2020
4536 Rain 1 1000 97 0 2.42 204 01:37 18.04.2020
4537 Rain 1 1000 97 0 2.42 204 00:54 18.04.2020
4538 Rain 1 999 97 0 5.33 120 00:24 18.04.2020
4539 Rain 1 999 97 0 5.33 120 23:57 17.04.2020
4540 Rain 1 999 97 0 5.33 120 23:57 17.04.2020
4541 Rain 1 999 97 0 5.33 120 23:39 17.04.2020
4542 Rain 1 999 97 0 5.33 120 23:19 17.04.2020
4543 Rain 1 999 97 0 5.33 120 22:56 17.04.2020
4544 Rain 1 999 97 0 5.33 120 22:38 17.04.2020
4545 Rain 1 999 97 0 5.33 120 22:19 17.04.2020
4546 Rain 1 999 97 0 5.33 120 21:44 17.04.2020
4547 Rain 1 1001 96 0 7.22 117 21:22 17.04.2020
4548 Rain 1 1001 96 0 7.22 117 20:58 17.04.2020
4549 Rain 1 1001 96 0 7.22 117 20:38 17.04.2020
4550 Rain 1 1001 96 0 7.22 117 20:19 17.04.2020
4551 Rain 1 1001 96 0 7.22 117 19:58 17.04.2020
4552 Rain 1 1001 96 0 7.22 117 19:40 17.04.2020
4553 Rain 1 1001 96 0 7.22 117 19:22 17.04.2020
4554 Rain 1 1001 96 0 7.22 117 18:44 17.04.2020
4555 Rain 1 1001 93 0 9.67 118 18:24 17.04.2020
4556 Rain 1 1001 93 0 9.67 118 18:24 17.04.2020
4557 Rain 1 1001 93 0 9.67 118 18:24 17.04.2020
4558 Rain 1 1001 93 0 9.67 118 17:55 17.04.2020
4559 Rain 1 1001 93 0 9.67 118 17:37 17.04.2020
4560 Rain 1 1001 93 0 9.67 118 17:18 17.04.2020
4561 Rain 1 1001 93 0 9.67 118 17:18 17.04.2020
4562 Rain 1 1001 93 0 9.67 118 16:42 17.04.2020
4563 Rain 1 1001 93 0 9.67 118 16:22 17.04.2020
4564 Rain 1 1001 93 0 9.67 118 16:22 17.04.2020
4565 Rain 1 1001 93 0 9.67 118 15:42 17.04.2020
4566 Clouds 1 1002 92 0 11.79 113 15:24 17.04.2020
4567 Clouds 1 1002 92 0 11.79 113 14:57 17.04.2020
4568 Clouds 1 1001 92 0 11.36 115 14:38 17.04.2020
4569 Clouds 1 1001 92 0 11.36 115 14:20 17.04.2020
4570 Clouds 1 1001 92 0 11.36 115 13:41 17.04.2020
4571 Clouds 1 1001 92 0 11.36 115 13:22 17.04.2020
4572 Clouds 1 1001 92 0 11.36 115 13:22 17.04.2020
4573 Clouds 1 1001 92 0 11.36 115 12:59 17.04.2020
4574 Clouds 1 1001 92 0 11.36 115 12:41 17.04.2020
4575 Clouds 0 1002 96 0 12.96 113 12:22 17.04.2020
4576 Clouds 0 1002 96 0 12.96 113 11:40 17.04.2020
4577 Clouds 0 1002 96 0 12.96 113 11:19 17.04.2020
4578 Clouds 0 1002 96 0 12.96 113 10:55 17.04.2020
4579 Clouds 0 1002 96 0 12.96 113 10:37 17.04.2020
4580 Clouds 0 1002 96 0 12.96 113 10:18 17.04.2020
4581 Clouds 0 1002 96 0 12.96 113 09:40 17.04.2020
4582 Clouds -2 1004 97 0 11.1 105 09:20 17.04.2020
4583 Clouds -2 1004 97 0 11.1 105 08:56 17.04.2020
4584 Clouds -2 1004 97 0 11.1 105 08:37 17.04.2020
4585 Clouds -2 1004 97 0 11.1 105 08:18 17.04.2020
4586 Clouds -2 1004 97 0 11.1 105 07:43 17.04.2020
4587 Clouds -2 1004 97 0 11.1 105 07:20 17.04.2020
4588 Clouds -2 1004 97 0 11.1 105 06:45 17.04.2020
4589 Clouds -5 1006 95 0 10.78 105 06:22 17.04.2020
4590 Clouds -5 1006 95 0 10.78 105 04:27 17.04.2020
4591 Clouds -4 1008 94 0 10.17 110 03:19 17.04.2020
4592 Clouds -4 1008 94 0 10.44 112 01:58 17.04.2020
4593 Clouds -4 1008 94 0 10.44 112 01:24 17.04.2020
4594 Clouds -4 1008 94 0 10.44 112 00:30 17.04.2020
4595 Clouds -5 1009 93 0 10.34 114 23:56 16.04.2020
4596 Clouds -5 1009 93 0 10.34 114 23:38 16.04.2020
4597 Clouds -5 1009 93 0 10.34 114 23:19 16.04.2020
4598 Clouds -5 1009 93 0 10.34 114 22:55 16.04.2020
4599 Clouds -5 1009 93 0 10.34 114 22:36 16.04.2020
4600 Clouds -5 1009 93 0 10.34 114 22:18 16.04.2020
4601 Clouds -5 1010 92 0 9.78 113 21:41 16.04.2020
4602 Clouds -5 1012 90 0 10.59 118 21:20 16.04.2020
4603 Clouds -5 1012 90 0 10.59 118 20:57 16.04.2020
4604 Clouds -5 1012 90 0 10.59 118 20:38 16.04.2020
4605 Clouds -5 1012 90 0 10.59 118 20:19 16.04.2020
4606 Clouds -5 1012 90 0 10.59 118 19:40 16.04.2020
4607 Clouds -5 1012 90 0 10.59 118 19:20 16.04.2020
4608 Clouds -5 1012 90 0 10.59 118 18:58 16.04.2020
4609 Clouds -5 1012 90 0 10.59 118 18:39 16.04.2020
4610 Clouds -4 1012 90 0 11.08 118 18:21 16.04.2020
4611 Clouds -4 1012 90 0 11.08 118 17:55 16.04.2020
4612 Clouds -4 1012 90 0 11.08 118 17:37 16.04.2020
4613 Clouds -4 1012 90 0 11.08 118 17:18 16.04.2020
4614 Clouds -4 1012 90 0 11.08 118 16:41 16.04.2020
4615 Clouds -4 1012 90 0 11.08 118 16:19 16.04.2020
4616 Clouds -4 1012 90 0 11.08 118 15:45 16.04.2020
4617 Clouds -2 1014 90 0 11.13 114 15:19 16.04.2020
4618 Clouds -2 1014 90 0 11.13 114 14:58 16.04.2020
4619 Clouds -2 1014 90 0 11.13 114 14:39 16.04.2020
4620 Clouds -3 1013 90 0 11.37 113 14:20 16.04.2020
4621 Clouds -3 1013 90 0 11.37 113 13:57 16.04.2020
4622 Clouds -3 1013 90 0 11.37 113 13:37 16.04.2020
4623 Clouds -3 1013 90 0 11.37 113 13:37 16.04.2020
4624 Clouds -3 1013 90 0 11.37 113 13:19 16.04.2020
4625 Clouds -3 1013 90 0 11.37 113 12:56 16.04.2020
4626 Clouds -3 1013 90 0 11.37 113 12:37 16.04.2020
4627 Clouds -2 1015 91 0 9.9 112 12:18 16.04.2020
4628 Clouds -2 1015 91 0 9.9 112 11:55 16.04.2020
4629 Clouds -2 1015 91 0 9.9 112 11:36 16.04.2020
4630 Clouds -2 1015 91 0 9.9 112 11:18 16.04.2020
4631 Clouds -2 1015 91 0 9.9 112 10:40 16.04.2020
4632 Clouds -2 1015 91 0 9.9 112 10:19 16.04.2020
4633 Clouds -2 1015 91 0 9.9 112 09:58 16.04.2020
4634 Clear -1 1015 92 0 7.98 111 09:38 16.04.2020
4635 Clouds -2 1016 96 0 6.78 106 09:19 16.04.2020
4636 Clouds -2 1016 96 0 6.78 106 08:42 16.04.2020
4637 Clouds -2 1016 96 0 6.78 106 08:23 16.04.2020
4638 Clouds -2 1016 96 0 6.78 106 07:46 16.04.2020
4639 Clouds -2 1016 96 0 6.78 106 07:46 16.04.2020
4640 Clouds -2 1016 96 0 6.58 107 07:27 16.04.2020
4641 Clouds -2 1016 96 0 6.78 106 06:45 16.04.2020
4642 Clouds -2 1017 97 0 5.73 109 06:26 16.04.2020
4643 Clouds -2 1017 97 0 5.73 109 05:37 16.04.2020
4644 Clouds -2 1017 97 0 5.73 109 04:28 16.04.2020
4645 Clear -3 1018 95 0 4.32 117 03:24 16.04.2020
4646 Clear -3 1018 95 0 4.32 117 02:49 16.04.2020
4647 Clear -3 1018 95 0 4.02 116 02:31 16.04.2020
4648 Clear -3 1018 95 0 4.02 116 01:19 16.04.2020
4649 Clear -3 1018 95 0 4.02 116 00:37 16.04.2020
4650 Clear -2 1018 95 0 3.22 132 23:59 15.04.2020
4651 Clear -2 1018 95 0 3.22 132 23:41 15.04.2020
4652 Clear -2 1018 95 0 3.22 132 23:22 15.04.2020
4653 Clear -2 1018 95 0 3.22 132 22:41 15.04.2020
4654 Clear -2 1018 95 0 3.22 132 22:22 15.04.2020
4655 Clear -2 1018 95 0 3.22 132 22:22 15.04.2020
4656 Clear -2 1018 95 0 3.22 132 21:59 15.04.2020
4657 Clear -2 1018 95 0 3.22 132 21:41 15.04.2020
4658 Clouds -2 1019 96 0 3.46 116 21:23 15.04.2020
4659 Clouds -2 1019 96 0 3.46 116 20:58 15.04.2020
4660 Clouds -2 1019 96 0 3.46 116 20:40 15.04.2020
4661 Clouds -2 1019 96 0 3.46 116 20:40 15.04.2020
4662 Clouds -2 1019 96 0 3.46 116 20:22 15.04.2020
4663 Clouds -2 1019 96 0 3.46 116 20:22 15.04.2020
4664 Clouds -2 1019 96 0 3.46 116 19:46 15.04.2020
4665 Clouds -2 1019 96 0 3.46 116 19:46 15.04.2020
4666 Clouds -2 1019 96 0 3.46 116 19:21 15.04.2020
4667 Clouds -2 1019 96 0 3.46 116 18:57 15.04.2020
4668 Clouds -2 1019 96 0 3.46 116 18:39 15.04.2020
4669 Clouds -2 1019 96 0 3.85 113 18:21 15.04.2020
4670 Clouds -2 1019 96 0 3.85 113 17:55 15.04.2020
4671 Clouds -2 1019 96 0 3.85 113 17:36 15.04.2020
4672 Clouds -2 1019 96 0 3.85 113 17:36 15.04.2020
4673 Clouds -2 1019 96 0 3.85 113 17:18 15.04.2020
4674 Clouds -2 1019 96 0 3.85 113 17:18 15.04.2020
4675 Clouds -2 1019 96 0 3.85 113 16:54 15.04.2020
4676 Clouds -2 1019 96 0 3.85 113 16:36 15.04.2020
4677 Clouds -2 1019 96 0 3.85 113 16:18 15.04.2020
4678 Clouds -2 1019 96 0 3.85 113 15:55 15.04.2020
4679 Clouds -2 1019 96 0 3.85 113 15:36 15.04.2020
4680 Clouds 0 1020 93 0 4.38 115 15:18 15.04.2020
4681 Clouds 0 1020 93 0 4.38 115 14:41 15.04.2020
4682 Clouds 0 1022 95 0 4.38 114 14:23 15.04.2020
4683 Clouds 0 1022 95 0 4.38 114 13:59 15.04.2020
4684 Clouds 0 1022 95 0 4.38 114 13:40 15.04.2020
4685 Clouds 0 1022 95 0 4.38 114 13:21 15.04.2020
4686 Clouds 0 1022 95 0 4.38 114 12:58 15.04.2020
4687 Clouds 0 1022 95 0 4.38 114 12:39 15.04.2020
4688 Clouds 0 1022 93 0 2.63 116 12:21 15.04.2020
4689 Clouds 0 1022 93 0 2.63 116 11:57 15.04.2020
4690 Clouds 0 1022 93 0 2.63 116 11:38 15.04.2020
4691 Clouds 0 1022 93 0 2.63 116 11:20 15.04.2020
4692 Clouds 0 1022 93 0 2.63 116 10:38 15.04.2020
4693 Clouds 0 1022 93 0 2.63 116 10:19 15.04.2020
4694 Clouds 0 1022 93 0 2.63 116 09:56 15.04.2020
4695 Clouds 0 1022 93 0 2.63 116 09:38 15.04.2020
4696 Clouds -1 1022 95 0 2.78 150 09:19 15.04.2020
4697 Clouds -1 1022 95 0 2.78 150 08:42 15.04.2020
4698 Clouds -1 1022 95 0 2.78 150 08:23 15.04.2020
4699 Clouds -1 1022 95 0 2.78 150 07:59 15.04.2020
4700 Clouds -1 1022 95 0 2.78 150 07:40 15.04.2020
4701 -273 0 0 0 0 0 06:59 15.04.2020
4702 Clouds -2 1022 95 0 2.64 149 06:24 15.04.2020
4703 Clouds -2 1022 95 0 2.64 149 05:34 15.04.2020
4704 Clouds -2 1022 95 0 2.64 149 04:47 15.04.2020
4705 Clouds -2 1022 95 0 2.64 149 04:18 15.04.2020
4706 Clouds -3 1022 95 0 2.94 163 03:22 15.04.2020
4707 Clouds -3 1022 95 0 2.94 163 02:45 15.04.2020
4708 Clouds -3 1022 95 0 2.94 163 01:51 15.04.2020
4709 Clouds -3 1022 95 0 2.94 163 01:25 15.04.2020
4710 Clouds -3 1022 95 0 2.94 163 00:47 15.04.2020
4711 Clouds -4 1021 95 0 3.26 156 00:24 15.04.2020
4712 Clouds -4 1021 95 0 3.26 156 23:55 14.04.2020
4713 Clouds -4 1021 95 0 3.26 156 23:37 14.04.2020
4714 Clouds -4 1021 95 0 3.26 156 23:19 14.04.2020
4715 Clouds -4 1021 95 0 3.26 156 22:56 14.04.2020
4716 Clouds -4 1021 95 0 3.26 156 22:38 14.04.2020
4717 Clouds -4 1021 95 0 3.26 156 22:20 14.04.2020
4718 Clouds -4 1021 95 0 3.26 156 21:56 14.04.2020
4719 Clouds -4 1021 95 0 3.26 156 21:37 14.04.2020
4720 Clouds -4 1021 95 0 2.48 157 21:18 14.04.2020
4721 Clouds -4 1021 95 0 2.71 160 20:41 14.04.2020
4722 Clouds -4 1021 95 0 2.71 160 20:23 14.04.2020
4723 Clouds -4 1021 95 0 2.48 157 19:59 14.04.2020
4724 Clouds -4 1021 95 0 2.48 157 19:40 14.04.2020
4725 Clouds -4 1021 95 0 2.48 157 19:21 14.04.2020
4726 Clouds -4 1021 95 0 2.71 160 18:57 14.04.2020
4727 Clouds -4 1021 95 0 2.48 157 18:39 14.04.2020
4728 Clouds -4 1021 95 0 2.71 160 18:39 14.04.2020
4729 Clouds -4 1021 95 0 3.29 172 18:20 14.04.2020
4730 Clouds -4 1021 95 0 3.17 173 17:56 14.04.2020
4731 Clouds -4 1021 95 0 3.17 173 17:37 14.04.2020
4732 Clouds -4 1021 95 0 3.17 173 17:19 14.04.2020
4733 Clouds -4 1021 95 0 3.17 173 16:43 14.04.2020
4734 Clouds -4 1021 95 0 3.29 172 16:24 14.04.2020
4735 Clouds -4 1021 95 0 3.29 172 15:58 14.04.2020
4736 Clouds -4 1021 95 0 3.29 172 15:58 14.04.2020
4737 Clouds -4 1021 95 0 3.17 173 15:58 14.04.2020
4738 Clouds -4 1021 95 0 3.29 172 15:40 14.04.2020
4739 Clouds -4 1021 94 0 4.13 162 15:21 14.04.2020
4740 Clouds -4 1021 94 0 4.13 166 14:59 14.04.2020
4741 Clouds -4 1021 94 0 4.13 166 14:40 14.04.2020
4742 Clouds -4 1021 94 0 4.13 162 14:21 14.04.2020
4743 Clouds -4 1021 94 0 4.13 162 13:56 14.04.2020
4744 Clouds -4 1021 94 0 4.13 162 13:38 14.04.2020
4745 Clouds -4 1021 94 0 4.13 162 13:20 14.04.2020
4746 Clouds -4 1021 94 0 4.13 162 12:41 14.04.2020
4747 Clouds -5 1021 91 0 4.48 140 12:21 14.04.2020
4748 Clouds -5 1021 91 0 4.48 140 12:21 14.04.2020
4749 Clouds -5 1021 91 0 4.48 140 11:55 14.04.2020
4750 Clouds -5 1021 91 0 4.48 140 11:37 14.04.2020
4751 Clouds -5 1021 91 0 4.48 140 11:18 14.04.2020
4752 Clouds -5 1021 91 0 4.48 140 10:43 14.04.2020
4753 Clouds -5 1021 91 0 4.48 140 10:23 14.04.2020
4754 Clouds -5 1021 91 0 4.48 140 09:43 14.04.2020
4755 Clouds -6 1022 93 0 5.17 130 09:25 14.04.2020
4756 Clouds -6 1022 93 0 5.17 130 08:59 14.04.2020
4757 Clouds -6 1022 93 0 5.17 130 08:41 14.04.2020
4758 Clouds -6 1022 93 0 5.17 130 08:22 14.04.2020
4759 Clouds -6 1022 93 0 5.17 130 07:53 14.04.2020
4760 Clouds -6 1022 93 0 5.17 130 07:53 14.04.2020
4761 Clouds -6 1022 93 0 5.17 130 07:30 14.04.2020
4762 Clouds -6 1022 93 0 5.17 130 06:48 14.04.2020
4763 Clouds -7 1022 93 0 6.28 120 06:18 14.04.2020
4764 Clouds -7 1022 93 0 6.28 120 03:52 14.04.2020
4765 Clouds -7 1023 93 0 5.93 117 02:54 14.04.2020
4766 Clouds -8 1023 93 0 5.75 119 01:39 14.04.2020
4767 Clouds -8 1023 93 0 5.75 119 01:18 14.04.2020
4768 Clouds -8 1023 93 0 5.75 119 00:36 14.04.2020
4769 Clouds -8 1023 92 0 4.36 119 00:18 14.04.2020
4770 Clouds -8 1023 92 0 4.36 119 23:40 13.04.2020
4771 Clouds -8 1023 92 0 4.36 119 23:22 13.04.2020
4772 Clouds -8 1023 92 0 4.36 119 22:57 13.04.2020
4773 Clouds -8 1023 92 0 4.36 119 22:39 13.04.2020
4774 Clouds -8 1023 92 0 4.36 119 22:20 13.04.2020
4775 Clouds -8 1023 92 0 4.36 119 21:55 13.04.2020
4776 Clouds -8 1023 92 0 4.36 119 21:36 13.04.2020
4777 Clouds -8 1023 92 0 2.61 129 21:18 13.04.2020
4778 Clouds -8 1023 92 0 2.61 129 20:41 13.04.2020
4779 Clouds -8 1023 92 0 2.61 129 20:20 13.04.2020
4780 Clouds -8 1023 92 0 2.61 129 19:59 13.04.2020
4781 Clouds -8 1023 92 0 2.61 129 19:38 13.04.2020
4782 Clouds -8 1023 92 0 2.61 129 19:19 13.04.2020
4783 Clouds -8 1023 92 0 2.61 129 19:19 13.04.2020
4784 Clouds -8 1023 92 0 2.61 129 18:58 13.04.2020
4785 Clouds -8 1023 92 0 2.61 129 18:39 13.04.2020
4786 Clouds -8 1023 93 0 1.47 168 18:20 13.04.2020
4787 Clouds -8 1023 93 0 1.47 168 18:20 13.04.2020
4788 Clouds -8 1023 93 0 1.47 168 17:58 13.04.2020
4789 Clouds -8 1023 93 0 1.47 168 17:38 13.04.2020
4790 Clouds -8 1023 93 0 1.47 168 17:19 13.04.2020
4791 Clouds -8 1023 93 0 1.47 168 16:58 13.04.2020
4792 Clouds -8 1023 93 0 1.47 168 16:58 13.04.2020
4793 Clouds -8 1023 93 0 1.47 168 16:40 13.04.2020
4794 Clouds -8 1023 93 0 1.47 168 16:20 13.04.2020
4795 Clouds -8 1023 93 0 1.47 168 16:20 13.04.2020
4796 Clouds -8 1023 93 0 1.47 168 15:57 13.04.2020
4797 Clouds -8 1023 93 0 1.47 168 15:38 13.04.2020
4798 Clouds -6 1022 95 0 2.22 216 15:20 13.04.2020
4799 Clouds -6 1022 95 0 2.22 216 14:42 13.04.2020
4800 Clouds -6 1022 95 0 2.22 216 14:24 13.04.2020
4801 Clouds -6 1022 95 0 2.25 214 13:57 13.04.2020
4802 Clouds -6 1022 95 0 2.25 214 13:39 13.04.2020
4803 Clouds -6 1022 95 0 2.25 214 13:21 13.04.2020
4804 Clouds -6 1022 95 0 2.25 214 12:59 13.04.2020
4805 Clouds -6 1022 95 0 2.25 214 12:40 13.04.2020
4806 Clouds -6 1021 96 0 3.1 225 12:20 13.04.2020
4807 Clouds -6 1021 96 0 2.74 224 11:58 13.04.2020
4808 Clouds -6 1021 96 0 3.1 225 11:40 13.04.2020
4809 Clouds -6 1021 96 0 3.1 225 11:18 13.04.2020
4810 Clouds -6 1021 96 0 3.1 225 10:55 13.04.2020
4811 Clouds -6 1021 96 0 3.1 225 10:37 13.04.2020
4812 Clouds -6 1021 96 0 3.1 225 10:18 13.04.2020
4813 Clouds -6 1021 96 0 3.1 225 09:44 13.04.2020
4814 Clouds -8 1020 96 0 3.67 227 09:26 13.04.2020
4815 Clouds -8 1020 96 0 3.67 227 08:48 13.04.2020
4816 Clouds -8 1020 96 0 3.67 227 08:29 13.04.2020
4817 Clouds -8 1020 96 0 3.67 227 07:58 13.04.2020
4818 Clouds -8 1020 96 0 3.67 227 07:38 13.04.2020
4819 Clouds -8 1020 96 0 3.67 227 07:19 13.04.2020
4820 Clouds -8 1020 96 0 3.67 227 06:46 13.04.2020
4821 Clouds -10 1020 96 0 4.3 227 05:53 13.04.2020
4822 Clouds -10 1020 96 0 4.3 227 05:27 13.04.2020
4823 Clouds -10 1020 96 0 4.3 227 04:50 13.04.2020
4824 Clouds -10 1020 96 0 4.3 227 04:20 13.04.2020
4825 Clouds -10 1020 96 0 4.3 227 03:44 13.04.2020
4826 Clouds -10 1018 96 0 4.54 220 02:48 13.04.2020
4827 Clouds -10 1018 96 0 4.71 220 01:48 13.04.2020
4828 Clouds -10 1018 96 0 4.71 220 01:30 13.04.2020
4829 Clouds -10 1018 96 0 4.71 220 00:53 13.04.2020
4830 Clouds -10 1018 96 0 4.71 220 00:31 13.04.2020
4831 Clouds -9 1017 96 0 5.27 221 23:58 12.04.2020
4832 Clouds -9 1017 96 0 5.27 221 23:40 12.04.2020
4833 Clouds -9 1017 96 0 5.27 221 23:21 12.04.2020
4834 Clouds -9 1017 96 0 5.27 221 22:55 12.04.2020
4835 Clouds -9 1017 96 0 5.27 221 22:36 12.04.2020
4836 Clouds -9 1017 96 0 5.27 221 22:18 12.04.2020
4837 Clouds -10 1018 96 0 4.86 218 21:38 12.04.2020
4838 Clouds -8 1017 96 0 5.08 213 21:20 12.04.2020
4839 Clouds -8 1017 96 0 5.08 213 20:44 12.04.2020
4840 Clouds -8 1017 96 0 5.08 213 20:44 12.04.2020
4841 Clouds -8 1017 96 0 5.08 213 20:24 12.04.2020
4842 Clouds -8 1017 96 0 5.08 213 19:59 12.04.2020
4843 Clouds -8 1017 96 0 5.08 213 19:41 12.04.2020
4844 Clouds -8 1017 96 0 5.08 213 19:20 12.04.2020
4845 Clouds -8 1017 96 0 5.08 213 18:58 12.04.2020
4846 Clouds -8 1017 96 0 5.08 213 18:58 12.04.2020
4847 Clouds -8 1017 96 0 5.08 213 18:39 12.04.2020
4848 Clouds -5 1016 96 0 6.29 233 18:19 12.04.2020
4849 Clouds -5 1016 96 0 6.29 233 17:55 12.04.2020
4850 Clouds -5 1016 96 0 6.29 233 17:37 12.04.2020
4851 Clouds -5 1016 96 0 6.29 233 17:37 12.04.2020
4852 Clouds -5 1016 96 0 6.29 233 17:18 12.04.2020
4853 Clouds -5 1016 96 0 6.29 233 16:41 12.04.2020
4854 Clouds -5 1016 96 0 6.29 233 16:22 12.04.2020
4855 Clouds -5 1016 96 0 6.29 233 15:53 12.04.2020
4856 Clouds -5 1016 96 0 6.29 233 15:35 12.04.2020
4857 Snow -5 1015 96 0 7.13 225 14:58 12.04.2020
4858 Snow -5 1015 96 0 7.13 225 14:39 12.04.2020
4859 Clouds -6 1015 96 0 7.06 224 14:20 12.04.2020
4860 Clouds -6 1015 96 0 7.06 224 13:56 12.04.2020
4861 Clouds -6 1015 96 0 7.06 224 13:36 12.04.2020
4862 Clouds -6 1015 96 0 7.06 224 13:18 12.04.2020
4863 Clouds -6 1015 96 0 7.06 224 12:45 12.04.2020
4864 Clouds -6 1014 95 0 8.31 215 12:21 12.04.2020
4865 Clouds -6 1014 95 0 8.31 215 11:58 12.04.2020
4866 Clouds -6 1014 95 0 8.31 215 11:37 12.04.2020
4867 Clouds -6 1014 95 0 8.31 215 11:37 12.04.2020
4868 Clouds -6 1014 95 0 8.31 215 11:18 12.04.2020
4869 Clouds -6 1014 95 0 8.31 215 10:55 12.04.2020
4870 Clouds -6 1014 95 0 8.31 215 10:37 12.04.2020
4871 Clouds -6 1014 95 0 8.31 215 10:19 12.04.2020
4872 Clouds -6 1014 95 0 8.31 215 09:55 12.04.2020
4873 Clouds -7 1015 96 0 8.09 216 09:37 12.04.2020
4874 Clouds -8 1013 95 0 7.88 214 09:19 12.04.2020
4875 Clouds -8 1013 95 0 7.88 214 08:47 12.04.2020
4876 Clouds -8 1013 95 0 7.88 214 08:28 12.04.2020
4877 Clouds -8 1013 95 0 7.88 214 07:46 12.04.2020
4878 Clouds -8 1013 95 0 7.88 214 07:19 12.04.2020
4879 Clouds -8 1013 95 0 7.88 214 06:37 12.04.2020
4880 Clouds -8 1013 96 0 7.08 214 06:00 12.04.2020
4881 Clouds -8 1013 96 0 7.08 214 05:41 12.04.2020
4882 Clouds -8 1013 96 0 7.08 214 03:48 12.04.2020
4883 Snow -9 1012 96 0 6.33 217 03:25 12.04.2020
4884 Snow -9 1012 96 0 6.33 217 02:35 12.04.2020
4885 Snow -8 1012 96 0 6.6 217 01:53 12.04.2020
4886 Snow -8 1012 96 0 6.6 217 01:21 12.04.2020
4887 Snow -8 1012 96 0 6.6 217 00:42 12.04.2020
4888 Snow -9 1010 96 0 6.24 225 00:20 12.04.2020
4889 Snow -9 1010 96 0 6.24 225 23:47 11.04.2020
4890 Snow -9 1010 96 0 6.24 225 23:26 11.04.2020
4891 Snow -9 1010 96 0 6.24 225 22:57 11.04.2020
4892 Snow -9 1010 96 0 6.24 225 22:36 11.04.2020
4893 Snow -9 1010 96 0 6.24 225 22:18 11.04.2020
4894 Snow -9 1010 96 0 6.24 225 21:54 11.04.2020
4895 Snow -9 1010 96 0 6.24 225 21:36 11.04.2020
4896 Clouds -7 1009 97 0 5.99 234 21:18 11.04.2020
4897 Clouds -7 1009 97 0 5.99 234 20:54 11.04.2020
4898 Clouds -7 1009 97 0 5.99 234 20:54 11.04.2020
4899 Clouds -7 1009 97 0 5.99 234 20:36 11.04.2020
4900 Clouds -7 1009 97 0 5.99 234 20:36 11.04.2020
4901 Clouds -7 1009 97 0 5.99 234 20:18 11.04.2020
4902 Clouds -7 1009 97 0 5.99 234 19:54 11.04.2020
4903 Clouds -7 1009 97 0 5.99 234 19:36 11.04.2020
4904 Clouds -7 1009 97 0 5.99 234 19:18 11.04.2020
4905 Clouds -7 1009 97 0 5.99 234 18:54 11.04.2020
4906 Clouds -7 1009 97 0 5.99 234 18:54 11.04.2020
4907 Clouds -7 1009 97 0 5.99 234 18:36 11.04.2020
4908 Clouds -8 1008 96 0 4.25 223 18:18 11.04.2020
4909 Clouds -8 1008 96 0 4.25 223 18:18 11.04.2020
4910 Clouds -8 1008 96 0 4.25 223 17:55 11.04.2020
4911 Clouds -8 1008 96 0 4.25 223 17:36 11.04.2020
4912 Clouds -8 1008 96 0 4.25 223 17:18 11.04.2020
4913 Clouds -8 1008 96 0 4.25 223 16:41 11.04.2020
4914 Clouds -8 1008 96 0 4.25 223 16:21 11.04.2020
4915 Clouds -8 1008 96 0 4.25 223 15:40 11.04.2020
4916 Clouds -8 1008 96 0 4.25 223 15:40 11.04.2020
4917 Clouds -6 1006 94 0 2.33 252 15:20 11.04.2020
4918 Clouds -6 1006 94 0 2.33 252 14:57 11.04.2020
4919 Clouds -6 1006 95 0 2.54 254 14:39 11.04.2020
4920 Clouds -6 1006 95 0 2.54 254 14:20 11.04.2020
4921 Clouds -6 1006 95 0 2.54 254 13:41 11.04.2020
4922 Clouds -6 1006 95 0 2.54 254 13:23 11.04.2020
4923 Clouds -6 1006 95 0 2.54 254 12:57 11.04.2020
4924 Clouds -6 1006 95 0 2.54 254 12:37 11.04.2020
4925 Clouds -6 1005 93 0 0.93 35 12:18 11.04.2020
4926 Clouds -6 1005 93 0 0.93 35 11:41 11.04.2020
4927 Clouds -6 1005 93 0 0.93 35 11:20 11.04.2020
4928 Clouds -6 1005 93 0 0.93 35 10:56 11.04.2020
4929 Clouds -6 1005 93 0 0.93 35 10:37 11.04.2020
4930 Clouds -6 1005 93 0 0.93 35 10:18 11.04.2020
4931 Clouds -6 1005 93 0 0.93 35 09:55 11.04.2020
4932 Clouds -6 1006 93 0 0.41 199 09:37 11.04.2020
4933 Clouds -7 1005 94 0 0.53 113 09:18 11.04.2020
4934 Clouds -7 1005 94 0 0.53 113 08:42 11.04.2020
4935 Clouds -7 1005 94 0 0.53 113 08:23 11.04.2020
4936 Clouds -7 1005 94 0 0.53 113 07:43 11.04.2020
4937 Clouds -7 1005 94 0 0.53 113 07:24 11.04.2020
4938 Clouds -7 1005 94 0 0.53 113 06:37 11.04.2020
4939 Clouds -10 1006 94 0 2.57 210 05:58 11.04.2020
4940 Clouds -10 1006 94 0 2.57 210 04:26 11.04.2020
4941 Clouds -11 1007 95 0 4.65 204 02:53 11.04.2020
4942 Clear -11 1006 95 0 4.66 205 01:27 11.04.2020
4943 Clear -11 1006 95 0 4.66 205 00:57 11.04.2020
4944 Clear -11 1006 95 0 4.66 205 00:39 11.04.2020
4945 Clear -10 1006 95 0 5.56 208 00:18 11.04.2020
4946 Clear -10 1006 95 0 5.56 208 23:43 10.04.2020
4947 Clear -10 1006 95 0 5.56 208 23:19 10.04.2020
4948 Clear -10 1006 95 0 5.56 208 22:58 10.04.2020
4949 Clear -10 1006 95 0 5.56 208 22:39 10.04.2020
4950 Clear -10 1006 95 0 5.56 208 22:20 10.04.2020
4951 Clear -10 1006 95 0 5.56 208 21:42 10.04.2020
4952 Clear -10 1006 95 0 5.56 208 21:42 10.04.2020
4953 Clouds -9 1006 95 0 6.43 224 21:22 10.04.2020
4954 Clouds -9 1006 95 0 6.43 224 20:59 10.04.2020
4955 Clouds -9 1006 95 0 6.43 224 20:40 10.04.2020
4956 Clouds -9 1006 95 0 6.43 224 20:21 10.04.2020
4957 Clouds -9 1006 95 0 6.43 224 19:56 10.04.2020
4958 Clouds -9 1006 95 0 6.43 224 19:38 10.04.2020
4959 Clouds -9 1006 95 0 6.43 224 19:38 10.04.2020
4960 Clouds -9 1006 95 0 6.43 224 19:19 10.04.2020
4961 Clouds -9 1006 95 0 6.43 224 18:56 10.04.2020
4962 Clouds -9 1006 95 0 6.43 224 18:38 10.04.2020
4963 Clouds -7 1004 93 0 6.36 228 18:20 10.04.2020
4964 Clouds -7 1004 93 0 6.36 228 17:57 10.04.2020
4965 Clouds -7 1004 93 0 6.36 228 17:57 10.04.2020
4966 Clouds -7 1004 93 0 6.36 228 17:39 10.04.2020
4967 Clouds -7 1004 93 0 6.36 228 17:19 10.04.2020
4968 Clouds -7 1004 93 0 6.36 228 16:46 10.04.2020
4969 Clouds -7 1004 93 0 6.36 228 16:24 10.04.2020
4970 Clouds -7 1004 93 0 6.36 228 15:59 10.04.2020
4971 Clouds -7 1004 93 0 6.36 228 15:40 10.04.2020
4972 Clouds -6 1002 92 0 6.57 268 15:21 10.04.2020
4973 Clouds -6 1002 92 0 6.57 268 14:59 10.04.2020
4974 Clouds -6 1002 92 0 6.88 273 14:41 10.04.2020
4975 Clouds -6 1002 92 0 6.88 273 14:23 10.04.2020
4976 Clouds -6 1002 92 0 6.88 273 13:56 10.04.2020
4977 Clouds -6 1002 92 0 6.88 273 13:38 10.04.2020
4978 Clouds -6 1002 92 0 6.88 273 13:20 10.04.2020
4979 Clouds -6 1002 92 0 6.88 273 12:42 10.04.2020
4980 Clouds -7 997 91 0 10.26 288 12:21 10.04.2020
4981 Clouds -7 997 91 0 10.26 288 11:54 10.04.2020
4982 Clouds -7 997 91 0 10.26 288 11:36 10.04.2020
4983 Clouds -7 997 91 0 10.26 288 11:18 10.04.2020
4984 Clouds -7 997 91 0 10.26 288 10:41 10.04.2020
4985 Clouds -7 997 91 0 10.26 288 10:22 10.04.2020
4986 Clouds -7 997 91 0 10.26 288 09:44 10.04.2020
4987 Snow -7 991 96 0 11.38 284 09:24 10.04.2020
4988 Snow -7 991 96 0 11.38 284 08:55 10.04.2020
4989 Snow -7 991 96 0 11.38 284 08:37 10.04.2020
4990 Snow -7 991 96 0 11.38 284 08:18 10.04.2020
4991 Snow -7 991 96 0 11.38 284 08:18 10.04.2020
4992 Snow -7 991 96 0 11.38 284 07:42 10.04.2020
4993 Snow -7 991 96 0 11.38 284 07:21 10.04.2020
4994 Snow -7 991 96 0 11.38 284 06:45 10.04.2020
4995 Snow -3 986 97 0 9.08 238 06:25 10.04.2020
4996 Snow -3 986 97 0 9.08 238 05:35 10.04.2020
4997 Snow -3 986 97 0 9.08 238 04:57 10.04.2020
4998 Snow -3 986 97 0 9.08 238 03:37 10.04.2020
4999 Clouds -2 984 97 0 7.77 234 02:59 10.04.2020
5000 Clouds -2 984 97 0 7.77 234 02:38 10.04.2020
5001 Clouds -2 983 97 0 7.31 239 02:19 10.04.2020
5002 Clouds -2 983 97 0 7.31 239 01:29 10.04.2020
5003 Clouds -2 983 97 0 7.31 239 00:49 10.04.2020
5004 Snow -1 983 97 0 7.5 251 00:22 10.04.2020
5005 Snow -1 983 97 0 7.5 251 23:44 09.04.2020
5006 Snow -1 983 97 0 7.5 251 23:25 09.04.2020
5007 Snow -1 983 97 0 7.5 251 22:59 09.04.2020
5008 Snow -1 983 97 0 7.5 251 22:40 09.04.2020
5009 Snow -1 983 97 0 7.5 251 22:22 09.04.2020
5010 Snow -1 983 97 0 7.5 251 21:43 09.04.2020
5011 Snow 0 983 95 0 7.99 226 21:25 09.04.2020
5012 Snow 0 983 96 0 8 209 20:56 09.04.2020
5013 Snow 0 983 96 0 8 209 20:38 09.04.2020
5014 Snow 0 983 96 0 8 209 20:19 09.04.2020
5015 Snow 0 983 96 0 8 209 19:40 09.04.2020
5016 Snow 0 983 96 0 8 209 19:22 09.04.2020
5017 Snow 0 983 96 0 8 209 18:43 09.04.2020
5018 Snow -1 985 98 0 5.38 198 18:22 09.04.2020
5019 Snow -1 985 98 0 5.38 198 17:59 09.04.2020
5020 Snow -1 985 98 0 5.38 198 17:39 09.04.2020
5021 Snow -1 985 98 0 5.38 198 17:19 09.04.2020
5022 Snow -1 985 98 0 5.38 198 16:41 09.04.2020
5023 Snow -1 985 98 0 5.38 198 16:20 09.04.2020
5024 Snow -1 985 98 0 5.38 198 15:57 09.04.2020
5025 Snow -1 985 98 0 5.38 198 15:38 09.04.2020
5026 Snow -1 986 97 0 5.83 225 15:19 09.04.2020
5027 Snow -1 986 97 0 5.83 225 14:56 09.04.2020
5028 Snow -1 986 97 0 5.96 225 14:38 09.04.2020
5029 Snow -1 986 97 0 5.96 225 14:20 09.04.2020
5030 Snow -1 986 97 0 5.96 225 14:20 09.04.2020
5031 Snow -1 986 97 0 5.96 225 14:20 09.04.2020
5032 Snow -1 986 97 0 5.96 225 13:42 09.04.2020
5033 Snow -1 986 97 0 5.96 225 13:24 09.04.2020
5034 Snow -1 986 97 0 5.96 225 12:58 09.04.2020
5035 Snow -1 986 97 0 5.96 225 12:38 09.04.2020
5036 Snow -1 987 97 0 6.35 243 12:20 09.04.2020
5037 Snow -1 987 97 0 6.35 243 11:44 09.04.2020
5038 Snow -1 987 97 0 6.35 243 11:20 09.04.2020
5039 Snow -1 987 97 0 6.35 243 10:59 09.04.2020
5040 Snow -1 987 97 0 6.35 243 10:41 09.04.2020
5041 Snow -1 987 97 0 6.35 243 10:22 09.04.2020
5042 Snow -1 987 97 0 6.35 243 09:57 09.04.2020
5043 Snow -1 987 97 0 6.35 243 09:39 09.04.2020
5044 Snow -6 987 97 0 5.68 224 09:20 09.04.2020
5045 Snow -6 987 97 0 5.68 224 08:44 09.04.2020
5046 Snow -6 987 97 0 5.68 224 08:24 09.04.2020
5047 Snow -6 987 97 0 5.68 224 07:59 09.04.2020
5048 Snow -6 987 97 0 5.68 224 07:37 09.04.2020
5049 Snow -6 987 97 0 5.68 224 07:18 09.04.2020
5050 Snow -9 989 96 0 4.83 219 06:28 09.04.2020
5051 Snow -9 989 96 0 4.83 219 05:47 09.04.2020
5052 Snow -9 989 96 0 4.83 219 04:39 09.04.2020
5053 Clouds -11 992 94 0 4.49 232 02:35 09.04.2020
5054 Clouds -11 990 95 0 4.49 235 01:45 09.04.2020
5055 Clouds -11 990 95 0 4.49 235 01:27 09.04.2020
5056 Clouds -11 990 95 0 4.49 235 00:44 09.04.2020
5057 Clouds -14 993 91 0 3.38 241 00:20 09.04.2020
5058 Clouds -14 993 91 0 3.38 241 23:59 08.04.2020
5059 Clouds -14 993 91 0 3.38 241 23:41 08.04.2020
5060 Clouds -14 993 91 0 3.38 241 23:22 08.04.2020
5061 Clouds -14 993 91 0 3.38 241 22:44 08.04.2020
5062 Clouds -14 993 91 0 3.38 241 22:24 08.04.2020
5063 Clouds -14 993 91 0 3.38 241 21:57 08.04.2020
5064 Clouds -14 993 91 0 3.38 241 21:39 08.04.2020
5065 Clear -14 997 90 0 1.39 254 21:21 08.04.2020
5066 Clear -14 997 90 0 1.39 254 20:58 08.04.2020
5067 Clear -14 997 90 0 1.39 254 20:39 08.04.2020
5068 Clear -14 997 90 0 1.39 254 20:20 08.04.2020
5069 Clear -14 997 90 0 1.39 254 19:58 08.04.2020
5070 Clear -14 997 90 0 1.39 254 19:37 08.04.2020
5071 Clear -14 997 90 0 1.39 254 19:19 08.04.2020
5072 Clear -14 997 90 0 1.39 254 18:44 08.04.2020
5073 Clear -13 1001 93 0 0.49 309 18:24 08.04.2020
5074 Clear -13 1001 93 0 0.49 309 17:56 08.04.2020
5075 Clear -13 1001 93 0 0.49 309 17:38 08.04.2020
5076 Clear -13 1001 93 0 0.49 309 17:19 08.04.2020
5077 Clear -13 1001 93 0 0.49 309 16:42 08.04.2020
5078 Clear -13 1001 93 0 0.49 309 16:23 08.04.2020
5079 Clear -13 1001 93 0 0.49 309 15:58 08.04.2020
5080 Clear -13 1001 93 0 0.49 309 15:38 08.04.2020
5081 Clouds -10 1005 93 0 1.34 316 15:20 08.04.2020
5082 Clouds -10 1005 93 0 1.34 316 14:45 08.04.2020
5083 Clouds -10 1005 93 0 1.34 316 14:25 08.04.2020
5084 Clouds -10 1005 94 0 1.23 343 13:56 08.04.2020
5085 Clouds -10 1005 94 0 1.23 343 13:37 08.04.2020
5086 Clouds -10 1005 94 0 1.23 343 13:19 08.04.2020
5087 Clouds -10 1005 94 0 1.23 343 12:42 08.04.2020
5088 Clouds -10 1008 94 0 0.41 50 12:18 08.04.2020
5089 Clouds -10 1008 94 0 0.41 50 11:58 08.04.2020
5090 Clouds -10 1008 94 0 0.41 50 11:39 08.04.2020
5091 Clouds -10 1008 94 0 0.41 50 11:21 08.04.2020
5092 Clouds -10 1008 94 0 0.41 50 10:56 08.04.2020
5093 Clouds -10 1008 94 0 0.41 50 10:56 08.04.2020
5094 Clouds -10 1008 94 0 0.41 50 10:37 08.04.2020
5095 Clouds -10 1008 94 0 0.41 50 10:18 08.04.2020
5096 Clouds -10 1008 94 0 0.41 50 09:55 08.04.2020
5097 Clouds -10 1008 94 0 0.41 50 09:36 08.04.2020
5098 Clouds -11 1010 94 0 0.97 110 09:18 08.04.2020
5099 Clouds -11 1010 94 0 0.97 110 08:42 08.04.2020
5100 Clouds -11 1010 94 0 0.97 110 08:22 08.04.2020
5101 Clouds -11 1010 94 0 0.97 110 07:44 08.04.2020
5102 Clouds -11 1010 94 0 0.97 110 07:25 08.04.2020
5103 Clouds -11 1010 94 0 0.97 110 06:55 08.04.2020
5104 Clouds -13 1013 94 0 0.28 251 05:56 08.04.2020
5105 Clouds -13 1013 94 0 0.28 251 03:34 08.04.2020
5106 Clouds -15 1016 94 0 0.4 42 02:49 08.04.2020
5107 Clouds -15 1016 94 0 0.27 62 02:19 08.04.2020
5108 Clouds -15 1016 94 0 0.27 62 01:30 08.04.2020
5109 Clouds -15 1016 94 0 0.27 62 01:30 08.04.2020
5110 Clouds -15 1016 94 0 0.27 62 00:59 08.04.2020
5111 Clouds -15 1016 94 0 0.27 62 00:59 08.04.2020
5112 Clouds -15 1016 94 0 0.27 62 00:40 08.04.2020
5113 Clouds -14 1017 95 0 1.14 1 00:20 08.04.2020
5114 Clouds -14 1017 95 0 1.14 1 23:39 07.04.2020
5115 Clouds -14 1017 95 0 1.14 1 23:20 07.04.2020
5116 Clouds -14 1017 95 0 1.14 1 22:57 07.04.2020
5117 Clouds -14 1017 95 0 1.14 1 22:38 07.04.2020
5118 Clouds -14 1017 95 0 1.14 1 22:19 07.04.2020
5119 Clouds -14 1017 95 0 1.14 1 21:56 07.04.2020
5120 Clouds -14 1017 95 0 2.07 19 21:38 07.04.2020
5121 Clouds -13 1017 95 0 2.58 8 21:19 07.04.2020
5122 Clouds -13 1017 95 0 2.58 8 20:55 07.04.2020
5123 Clouds -13 1017 95 0 2.58 8 20:55 07.04.2020
5124 Clouds -13 1017 95 0 2.58 8 20:36 07.04.2020
5125 Clouds -13 1017 95 0 2.58 8 20:18 07.04.2020
5126 Clouds -13 1017 95 0 2.58 8 20:18 07.04.2020
5127 Clouds -13 1017 95 0 2.58 8 19:55 07.04.2020
5128 Clouds -13 1017 95 0 2.58 8 19:36 07.04.2020
5129 Clouds -13 1017 95 0 2.58 8 19:18 07.04.2020
5130 Clouds -13 1017 95 0 2.58 8 19:18 07.04.2020
5131 Clouds -13 1017 95 0 2.58 8 18:41 07.04.2020
5132 Clouds -11 1018 96 0 3.7 7 18:21 07.04.2020
5133 Clouds -11 1018 96 0 3.7 7 17:59 07.04.2020
5134 Clouds -11 1018 96 0 3.7 7 17:40 07.04.2020
5135 Clouds -11 1018 96 0 3.7 7 17:20 07.04.2020
5136 Clouds -11 1018 96 0 3.7 7 16:45 07.04.2020
5137 Clouds -11 1018 96 0 3.7 7 16:26 07.04.2020
5138 Clouds -11 1018 96 0 3.7 7 15:46 07.04.2020
5139 Clouds -9 1018 96 0 4.34 3 15:27 07.04.2020
5140 Clouds -9 1018 96 0 4.34 3 14:58 07.04.2020
5141 Clouds -9 1018 96 0 4.34 3 14:38 07.04.2020
5142 Clouds -10 1018 96 0 4.19 1 14:20 07.04.2020
5143 Clouds -10 1018 96 0 4.19 1 13:43 07.04.2020
5144 Clouds -10 1018 96 0 4.19 1 13:20 07.04.2020
5145 Clouds -10 1018 96 0 4.19 1 12:58 07.04.2020
5146 Clouds -10 1018 96 0 4.19 1 12:39 07.04.2020
5147 Clouds -10 1017 96 0 4.46 1 12:21 07.04.2020
5148 Clouds -10 1017 96 0 4.46 1 11:58 07.04.2020
5149 Clouds -10 1017 96 0 4.46 1 11:40 07.04.2020
5150 Clouds -10 1017 96 0 4.46 1 11:20 07.04.2020
5151 Clouds -10 1017 96 0 4.46 1 10:54 07.04.2020
5152 Clouds -10 1017 96 0 4.46 1 10:36 07.04.2020
5153 Clouds -10 1017 96 0 4.46 1 10:18 07.04.2020
5154 Clouds -10 1017 96 0 4.46 1 09:40 07.04.2020
5155 Clouds -11 1017 96 0 4.6 351 09:18 07.04.2020
5156 Clouds -11 1017 96 0 4.6 351 08:40 07.04.2020
5157 Clouds -11 1017 96 0 4.6 351 08:22 07.04.2020
5158 Clouds -11 1017 96 0 4.6 351 07:55 07.04.2020
5159 Clouds -11 1017 96 0 4.6 351 07:37 07.04.2020
5160 Clouds -11 1017 96 0 4.6 351 07:18 07.04.2020
5161 Clouds -11 1017 96 0 4.6 351 06:39 07.04.2020
5162 Clouds -11 1016 96 0 4.17 345 06:18 07.04.2020
5163 Clouds -11 1016 96 0 4.17 345 05:26 07.04.2020
5164 Clouds -11 1016 96 0 4.17 345 04:31 07.04.2020
5165 Clouds -12 1016 96 0 3.97 338 03:23 07.04.2020
5166 Clouds -12 1016 96 0 3.97 338 02:47 07.04.2020
5167 Clouds -12 1015 96 0 3.9 336 01:43 07.04.2020
5168 Clouds -12 1015 96 0 3.9 336 01:22 07.04.2020
5169 Clouds -11 1013 96 0 4.05 327 00:26 07.04.2020
5170 Clouds -11 1013 96 0 4.05 327 23:44 06.04.2020
5171 Clouds -11 1013 96 0 4.05 327 23:23 06.04.2020
5172 Clouds -11 1013 96 0 4.05 327 22:56 06.04.2020
5173 Clouds -11 1013 96 0 4.05 327 22:37 06.04.2020
5174 Clouds -11 1013 96 0 4.05 327 22:19 06.04.2020
5175 Clouds -11 1013 96 0 4.05 327 21:56 06.04.2020
5176 Clouds -11 1013 96 0 4.05 327 21:37 06.04.2020
5177 Clouds -12 1013 95 0 3.6 328 21:18 06.04.2020
5178 Clouds -12 1013 95 0 3.6 328 20:41 06.04.2020
5179 Clouds -12 1013 95 0 3.6 328 20:21 06.04.2020
5180 Clouds -12 1013 95 0 3.6 328 19:58 06.04.2020
5181 Clouds -12 1013 95 0 3.6 328 19:39 06.04.2020
5182 Clouds -12 1013 95 0 3.6 328 19:20 06.04.2020
5183 Clouds -12 1013 95 0 3.6 328 18:43 06.04.2020
5184 Clouds -11 1012 95 0 3.41 317 18:24 06.04.2020
5185 Clouds -11 1012 95 0 3.41 317 17:59 06.04.2020
5186 Clouds -11 1012 95 0 3.41 317 17:41 06.04.2020
5187 Clouds -11 1012 95 0 3.41 317 17:19 06.04.2020
5188 Clouds -11 1012 95 0 3.41 317 16:49 06.04.2020
5189 Clouds -11 1012 95 0 3.41 317 16:30 06.04.2020
5190 Clouds -9 1010 95 0 2.74 326 14:59 06.04.2020
5191 Clouds -9 1010 95 0 2.74 326 14:59 06.04.2020
5192 Clouds -9 1010 95 0 2.74 326 14:59 06.04.2020
5193 Clouds -9 1010 95 0 2.74 326 14:59 06.04.2020
5194 Clouds -9 1010 95 0 3 333 13:45 06.04.2020
5195 Clouds -9 1010 95 0 3 333 13:22 06.04.2020
5196 Clouds -9 1010 95 0 3 333 12:47 06.04.2020
5197 Clouds -9 1010 95 0 3 333 12:20 06.04.2020
5198 Clouds -8 1008 96 0 3.67 312 11:45 06.04.2020
5199 Clouds -8 1008 96 0 3.67 312 11:26 06.04.2020
5200 Clouds -8 1008 96 0 3.67 312 11:26 06.04.2020
5201 Clouds -8 1008 96 0 3.67 312 11:25 06.04.2020
5202 Clouds -8 1008 96 0 3.67 312 11:25 06.04.2020
5203 Clouds -8 1008 96 0 3.67 312 10:43 06.04.2020
5204 Clouds -8 1008 96 0 3.67 312 10:21 06.04.2020
5205 Clouds -8 1008 96 0 3.67 312 10:21 06.04.2020
5206 Clouds -8 1008 96 0 3.67 312 10:21 06.04.2020
5207 Clouds -8 1008 96 0 3.67 312 10:21 06.04.2020
5208 Clouds -8 1008 96 0 3.67 312 10:21 06.04.2020
5209 Clouds -8 1008 96 0 3.67 312 09:41 06.04.2020
5210 Clouds -8 1008 96 0 3.67 312 09:41 06.04.2020
5211 Clouds -8 1008 96 0 3.67 312 09:41 06.04.2020
5212 Clouds -8 1008 96 0 3.67 312 09:41 06.04.2020
5213 Clouds -8 1008 96 0 3.67 312 09:41 06.04.2020
5214 Clouds -7 1007 97 0 2.81 295 09:20 06.04.2020
5215 Clouds -7 1007 97 0 2.81 295 08:49 06.04.2020
5216 Clouds -7 1007 97 0 2.81 295 08:29 06.04.2020
5217 Clouds -7 1007 97 0 2.81 295 08:29 06.04.2020
5218 Clouds -7 1007 97 0 2.81 295 07:23 06.04.2020
5219 Clouds -7 1007 97 0 2.81 295 06:28 06.04.2020
5220 Snow -8 1006 97 0 3.2 246 05:56 06.04.2020
5221 Snow -8 1006 97 0 3.2 246 05:55 06.04.2020
5222 Snow -8 1006 97 0 3.2 246 05:55 06.04.2020
5223 Snow -8 1006 97 0 3.2 246 04:18 06.04.2020
5224 Snow -7 1005 97 0 3.31 220 02:54 06.04.2020
5225 Snow -7 1005 97 0 3.17 223 01:56 06.04.2020
5226 Snow -7 1005 97 0 3.17 223 00:58 06.04.2020
5227 Snow -7 1005 97 0 3.17 223 00:28 06.04.2020
5228 Clouds -8 1004 97 0 3.17 222 23:55 05.04.2020
5229 Clouds -8 1004 97 0 3.17 222 23:37 05.04.2020
5230 Clouds -8 1004 97 0 3.17 222 23:19 05.04.2020
5231 Clouds -8 1004 97 0 3.17 222 22:54 05.04.2020
5232 Clouds -8 1004 97 0 3.17 222 22:36 05.04.2020
5233 Clouds -8 1004 97 0 3.17 222 22:18 05.04.2020
5234 Clouds -8 1004 97 0 3.17 222 21:41 05.04.2020
5235 Clouds -8 1004 97 0 3.17 222 21:23 05.04.2020
5236 Clouds -7 1004 97 0 3.51 216 20:24 05.04.2020
5237 Clouds -7 1004 97 0 3.51 216 20:24 05.04.2020
5238 Clouds -7 1004 97 0 3.51 216 20:24 05.04.2020
5239 Clouds -7 1004 97 0 3.51 216 19:43 05.04.2020
5240 Clouds -7 1004 97 0 3.51 216 19:23 05.04.2020
5241 Clouds -7 1004 97 0 3.51 216 18:48 05.04.2020
5242 Clouds -7 1004 97 0 4.07 215 18:18 05.04.2020
5243 Clouds -7 1004 97 0 4.07 215 18:18 05.04.2020
5244 Clouds -7 1004 97 0 4.07 215 17:47 05.04.2020
5245 Clouds -7 1004 97 0 4.07 215 17:47 05.04.2020
5246 Clouds -7 1004 97 0 4.07 215 17:47 05.04.2020
5247 Clouds -7 1004 97 0 4.07 215 17:47 05.04.2020
5248 Clouds -7 1004 97 0 4.07 215 17:47 05.04.2020
5249 Clouds -7 1004 97 0 4.07 215 17:22 05.04.2020
5250 Clouds -7 1004 97 0 4.07 215 16:47 05.04.2020
5251 Clouds -7 1004 97 0 4.07 215 16:19 05.04.2020
5252 Clouds -7 1004 97 0 4.07 215 16:19 05.04.2020
5253 Clouds -7 1004 97 0 4.07 215 15:45 05.04.2020
5254 Clouds -7 1004 97 0 4.07 215 15:26 05.04.2020
5255 Clouds -4 1003 95 0 5.02 231 14:48 05.04.2020
5256 Clouds -4 1003 95 0 5.02 231 14:48 05.04.2020
5257 Clouds -4 1003 95 0 5.02 231 14:48 05.04.2020
5258 Clouds -4 1003 95 0 5.02 231 14:48 05.04.2020
5259 Clouds -4 1003 95 0 5.02 231 14:48 05.04.2020
5260 Clouds -5 1003 96 0 4.86 223 13:59 05.04.2020
5261 Clouds -5 1003 96 0 4.86 223 13:40 05.04.2020
5262 Clouds -5 1003 96 0 4.86 223 13:40 05.04.2020
5263 Clouds -5 1003 96 0 4.86 223 13:40 05.04.2020
5264 Clouds -5 1003 96 0 4.86 223 13:40 05.04.2020
5265 Clouds -5 1003 96 0 4.86 223 13:40 05.04.2020
5266 Clouds -4 1002 97 0 5.32 224 12:20 05.04.2020
5267 Clouds -4 1002 97 0 5.32 224 12:20 05.04.2020
5268 Clouds -4 1002 97 0 5.32 224 12:20 05.04.2020
5269 Clouds -4 1002 97 0 5.32 224 11:39 05.04.2020
5270 Clouds -4 1002 97 0 5.32 224 11:19 05.04.2020
5271 Clouds -4 1002 97 0 5.32 224 10:47 05.04.2020
5272 Clouds -4 1002 97 0 5.32 224 10:23 05.04.2020
5273 Clouds -4 1002 97 0 5.32 224 09:53 05.04.2020
5274 Clouds -6 1002 96 0 5.56 221 09:27 05.04.2020
5275 Clouds -6 1002 96 0 5.56 221 09:27 05.04.2020
5276 Clouds -6 1002 96 0 5.56 221 09:27 05.04.2020
5277 Clouds -6 1001 97 0 5.57 231 08:31 05.04.2020
5278 Clouds -6 1001 97 0 5.57 231 08:31 05.04.2020
5279 Clouds -6 1001 97 0 5.57 231 08:31 05.04.2020
5280 Clouds -6 1001 97 0 5.57 231 08:31 05.04.2020
5281 Clouds -6 1001 97 0 5.57 231 08:31 05.04.2020
5282 Clouds -6 1001 97 0 5.57 231 06:55 05.04.2020
5283 Clouds -6 1001 97 0 5.57 231 06:51 05.04.2020
5284 Clouds -6 1001 97 0 5.57 231 06:51 05.04.2020
5285 Clouds -6 1001 97 0 5.57 231 06:49 05.04.2020
5286 Clouds -6 1001 97 0 5.57 231 06:49 05.04.2020
5287 Clouds -7 1000 97 0 5.8 230 04:31 05.04.2020
5288 Clouds -7 1000 97 0 5.8 230 03:28 05.04.2020
5289 Clouds -6 998 97 0 5.63 238 02:19 05.04.2020
5290 Clouds -7 998 97 0 5.96 235 01:42 05.04.2020
5291 Clouds -7 998 97 0 5.96 235 01:22 05.04.2020
5292 Clouds -7 998 97 0 5.96 235 00:37 05.04.2020
5293 Snow -2 995 97 0 6.44 252 00:18 05.04.2020
5294 Snow -2 995 97 0 6.44 252 23:41 04.04.2020
5295 Snow -2 995 97 0 6.44 252 23:22 04.04.2020
5296 Snow -2 995 97 0 6.44 252 22:57 04.04.2020
5297 Snow -2 995 97 0 6.44 252 22:39 04.04.2020
5298 Snow -2 995 97 0 6.44 252 22:20 04.04.2020
5299 Snow -2 995 97 0 6.44 252 21:57 04.04.2020
5300 Snow -2 995 97 0 6.44 252 21:39 04.04.2020
5301 Snow 0 994 96 0 5.97 227 21:19 04.04.2020
5302 Snow 0 994 96 0 5.97 227 20:55 04.04.2020
5303 Snow 0 994 96 0 5.97 227 20:36 04.04.2020
5304 Snow 0 994 96 0 5.97 227 20:18 04.04.2020
5305 Snow 0 994 96 0 5.97 227 19:41 04.04.2020
5306 Snow 0 994 96 0 5.97 227 19:21 04.04.2020
5307 Snow 0 994 96 0 5.97 227 18:59 04.04.2020
5308 Snow 0 994 96 0 5.97 227 18:39 04.04.2020
5309 Snow 0 994 96 0 5.97 227 18:21 04.04.2020
5310 Snow 0 994 96 0 5.97 227 18:21 04.04.2020
5311 Snow 0 993 96 0 6.03 220 17:58 04.04.2020
5312 Snow 0 993 96 0 6.03 220 17:39 04.04.2020
5313 Snow 0 993 96 0 6.03 220 17:19 04.04.2020
5314 Snow 0 993 96 0 6.03 220 16:45 04.04.2020
5315 Snow 0 993 96 0 6.03 220 16:27 04.04.2020
5316 Snow 0 993 96 0 6.03 220 15:59 04.04.2020
5317 Snow 0 993 96 0 6.03 220 15:39 04.04.2020
5318 Snow 1 993 95 0 8.02 227 15:19 04.04.2020
5319 Snow 1 993 95 0 8.02 227 14:55 04.04.2020
5320 Snow 1 993 95 0 8.02 227 14:37 04.04.2020
5321 Snow 1 992 95 0 7.48 226 14:18 04.04.2020
5322 Snow 1 992 95 0 7.48 226 13:42 04.04.2020
5323 Snow 1 992 95 0 7.48 226 13:22 04.04.2020
5324 Snow 1 992 95 0 7.48 226 12:58 04.04.2020
5325 Snow 1 992 95 0 7.48 226 12:40 04.04.2020
5326 Snow 1 992 95 0 8.59 202 12:20 04.04.2020
5327 Snow 1 992 95 0 8.59 202 11:42 04.04.2020
5328 Snow 1 992 95 0 8.59 202 11:23 04.04.2020
5329 Snow 1 992 95 0 8.59 202 10:59 04.04.2020
5330 Snow 1 992 95 0 8.59 202 10:41 04.04.2020
5331 Snow 1 992 95 0 8.59 202 10:23 04.04.2020
5332 Snow 1 992 95 0 8.59 202 09:57 04.04.2020
5333 Snow 1 992 95 0 8.59 202 09:39 04.04.2020
5334 Snow 1 992 95 0 8.24 200 09:20 04.04.2020
5335 Snow 1 993 95 0 8.12 200 08:44 04.04.2020
5336 Snow 1 993 95 0 8.12 200 08:25 04.04.2020
5337 Snow 1 993 95 0 8.12 200 07:59 04.04.2020
5338 Snow 1 993 95 0 8.12 200 07:40 04.04.2020
5339 Snow 1 993 95 0 8.12 200 07:21 04.04.2020
5340 Snow 1 993 95 0 8.12 200 06:40 04.04.2020
5341 Snow -2 995 98 0 5.15 171 05:52 04.04.2020
5342 Snow -2 995 98 0 5.15 171 05:52 04.04.2020
5343 Snow -2 995 98 0 5.15 171 05:33 04.04.2020
5344 Snow -2 995 98 0 5.15 171 04:34 04.04.2020
5345 Snow -2 995 98 0 5.15 171 03:57 04.04.2020
5346 Snow -2 995 98 0 5.15 171 03:37 04.04.2020
5347 Snow -6 996 97 0 5.97 128 02:48 04.04.2020
5348 Snow -5 996 97 0 5.72 133 02:29 04.04.2020
5349 Snow -5 996 97 0 5.72 133 01:46 04.04.2020
5350 Snow -5 996 97 0 5.72 133 01:20 04.04.2020
5351 Snow -5 996 97 0 5.72 133 00:43 04.04.2020
5352 Snow -5 996 97 0 5.72 133 00:23 04.04.2020
5353 Clouds -8 997 95 0 4.38 115 23:38 03.04.2020
5354 Clouds -8 997 95 0 4.38 115 23:19 03.04.2020
5355 Clouds -8 997 95 0 4.38 115 22:41 03.04.2020
5356 Clouds -8 997 95 0 4.38 115 22:20 03.04.2020
5357 Clouds -8 997 95 0 4.38 115 21:59 03.04.2020
5358 Clouds -8 997 95 0 4.38 115 21:40 03.04.2020
5359 Clouds -9 997 95 0 3.91 120 21:21 03.04.2020
5360 Clouds -11 999 95 0 3.05 153 20:56 03.04.2020
5361 Clouds -11 999 95 0 3.05 153 20:36 03.04.2020
5362 Clouds -11 999 95 0 3.05 153 20:36 03.04.2020
5363 Clouds -11 999 95 0 3.05 153 20:18 03.04.2020
5364 Clouds -11 999 95 0 3.05 153 19:55 03.04.2020
5365 Clouds -11 999 95 0 3.05 153 19:36 03.04.2020
5366 Clouds -11 999 95 0 3.05 153 19:18 03.04.2020
5367 Clouds -11 999 95 0 3.05 153 18:57 03.04.2020
5368 Clouds -11 999 95 0 3.05 153 18:39 03.04.2020
5369 Clouds -11 999 95 0 3.05 153 18:21 03.04.2020
5370 Clouds -11 998 94 0 3.23 178 17:41 03.04.2020
5371 Clouds -11 998 94 0 3.23 178 17:20 03.04.2020
5372 Clouds -11 998 94 0 3.23 178 16:56 03.04.2020
5373 Clouds -11 998 94 0 3.23 178 16:37 03.04.2020
5374 Clouds -11 998 94 0 3.23 178 16:19 03.04.2020
5375 Clouds -11 998 94 0 3.23 178 15:56 03.04.2020
5376 Clouds -11 998 94 0 3.23 178 15:37 03.04.2020
5377 Clouds -10 997 94 0 3.92 207 15:19 03.04.2020
5378 Clouds -10 997 94 0 3.92 207 14:40 03.04.2020
5379 Clouds -10 997 93 0 4.11 208 14:22 03.04.2020
5380 Clouds -10 997 93 0 4.11 208 13:54 03.04.2020
5381 Clouds -10 997 93 0 4.11 208 13:36 03.04.2020
5382 Clouds -10 997 93 0 4.11 208 13:18 03.04.2020
5383 Clouds -10 997 93 0 4.11 208 12:42 03.04.2020
5384 Clouds -10 995 93 0 5.79 230 12:19 03.04.2020
5385 Clouds -10 995 93 0 5.79 230 11:56 03.04.2020
5386 Clouds -10 995 93 0 5.79 230 11:37 03.04.2020
5387 Clouds -10 995 93 0 5.79 230 11:18 03.04.2020
5388 Clouds -10 995 93 0 5.79 230 10:57 03.04.2020
5389 Clouds -10 995 93 0 5.79 230 10:57 03.04.2020
5390 Clouds -10 995 93 0 5.79 230 10:38 03.04.2020
5391 Clouds -10 995 93 0 5.79 230 10:20 03.04.2020
5392 Clouds -10 995 93 0 5.79 230 10:20 03.04.2020
5393 Clouds -10 995 93 0 5.79 230 09:56 03.04.2020
5394 Clouds -10 995 93 0 5.79 230 09:37 03.04.2020
5395 Clouds -10 995 93 0 5.79 230 09:37 03.04.2020
5396 Clouds -12 994 93 0 6.37 239 09:19 03.04.2020
5397 Clouds -12 994 93 0 6.37 239 08:44 03.04.2020
5398 Clouds -12 994 93 0 6.37 239 08:25 03.04.2020
5399 Clouds -12 994 93 0 6.37 239 07:57 03.04.2020
5400 Clouds -12 994 93 0 6.37 239 07:39 03.04.2020
5401 Clouds -12 994 93 0 6.37 239 07:20 03.04.2020
5402 Clouds -12 994 93 0 6.37 239 06:28 03.04.2020
5403 Clouds -12 994 93 0 6.37 239 06:28 03.04.2020
5404 Clouds -14 991 92 0 5.46 278 05:43 03.04.2020
5405 Clouds -14 991 92 0 5.46 278 04:27 03.04.2020
5406 Clouds -14 991 92 0 5.46 278 03:33 03.04.2020
5407 Clouds -14 988 92 0 8.5 294 02:39 03.04.2020
5408 Clouds -14 987 92 0 8.49 293 01:25 03.04.2020
5409 Clouds -14 987 92 0 8.49 293 00:47 03.04.2020
5410 Clouds -14 987 92 0 8.49 293 00:29 03.04.2020
5411 Snow -13 983 93 0 8.76 292 23:54 02.04.2020
5412 Snow -13 983 93 0 8.76 292 23:36 02.04.2020
5413 Snow -13 983 93 0 8.76 292 23:18 02.04.2020
5414 Snow -13 983 93 0 8.76 292 22:41 02.04.2020
5415 Snow -13 983 93 0 8.76 292 22:22 02.04.2020
5416 Snow -13 983 93 0 8.76 292 21:58 02.04.2020
5417 Snow -13 983 93 0 8.76 292 21:37 02.04.2020
5418 Snow -12 980 94 0 8.98 289 21:18 02.04.2020
5419 Snow -12 980 94 0 9.54 290 20:44 02.04.2020
5420 Snow -12 980 94 0 9.54 290 20:24 02.04.2020
5421 Snow -12 980 94 0 9.54 290 19:57 02.04.2020
5422 Snow -12 980 94 0 9.54 290 19:38 02.04.2020
5423 Snow -12 980 94 0 9.54 290 19:20 02.04.2020
5424 Snow -12 980 94 0 9.54 290 18:43 02.04.2020
5425 Snow -12 980 94 0 9.54 290 18:21 02.04.2020
5426 Snow -10 977 95 0 8.91 243 17:59 02.04.2020
5427 Snow -10 977 95 0 8.91 243 17:59 02.04.2020
5428 Snow -10 977 95 0 8.91 243 17:41 02.04.2020
5429 Snow -10 977 95 0 8.91 243 17:22 02.04.2020
5430 Snow -10 977 95 0 8.91 243 16:58 02.04.2020
5431 Snow -10 977 95 0 8.91 243 16:39 02.04.2020
5432 Snow -10 977 95 0 8.91 243 16:21 02.04.2020
5433 Snow -10 977 95 0 8.91 243 15:56 02.04.2020
5434 Snow -10 977 95 0 8.91 243 15:38 02.04.2020
5435 Snow -8 976 95 0 7.99 231 15:18 02.04.2020
5436 Snow -8 976 95 0 7.99 231 14:55 02.04.2020
5437 Snow -8 976 95 0 7.99 231 14:37 02.04.2020
5438 Snow -8 977 95 0 7.22 237 14:18 02.04.2020
5439 Snow -8 977 95 0 7.22 237 13:40 02.04.2020
5440 Snow -8 977 95 0 7.22 237 13:21 02.04.2020
5441 Snow -8 977 95 0 7.22 237 12:59 02.04.2020
5442 Snow -8 977 95 0 7.22 237 12:41 02.04.2020
5443 Snow -6 977 95 0 4.91 207 12:19 02.04.2020
5444 Snow -6 977 95 0 4.91 207 11:57 02.04.2020
5445 Snow -6 977 95 0 4.91 207 11:38 02.04.2020
5446 Snow -6 977 95 0 4.91 207 11:19 02.04.2020
5447 Snow -6 977 95 0 4.91 207 10:55 02.04.2020
5448 Snow -6 977 95 0 4.91 207 10:37 02.04.2020
5449 Snow -6 977 95 0 4.91 207 10:19 02.04.2020
5450 Snow -6 977 95 0 4.91 207 09:56 02.04.2020
5451 Snow -6 977 95 0 4.91 207 09:38 02.04.2020
5452 Snow -7 980 96 0 4.5 131 09:19 02.04.2020
5453 Snow -7 980 96 0 4.5 131 08:46 02.04.2020
5454 Snow -7 980 96 0 4.5 131 08:26 02.04.2020
5455 Snow -7 980 96 0 4.5 131 07:45 02.04.2020
5456 Snow -7 980 96 0 4.5 131 07:21 02.04.2020
5457 Snow -7 980 96 0 4.5 131 06:58 02.04.2020
5458 Snow -7 980 96 0 4.5 131 06:22 02.04.2020
5459 Snow -9 984 96 0 9.28 93 05:45 02.04.2020
5460 Snow -9 984 96 0 9.28 93 04:35 02.04.2020
5461 Clouds -11 990 94 0 8.86 89 01:52 02.04.2020
5462 Clouds -11 990 94 0 8.86 89 00:51 02.04.2020
5463 Clouds -11 990 94 0 8.86 89 00:29 02.04.2020
5464 Clouds -11 996 93 0 6.23 83 23:57 01.04.2020
5465 Clouds -11 996 93 0 6.23 83 23:37 01.04.2020
5466 Clouds -11 996 93 0 6.23 83 23:37 01.04.2020
5467 Clouds -11 996 93 0 6.23 83 23:18 01.04.2020
5468 Clouds -11 996 93 0 6.23 83 22:41 01.04.2020
5469 Clouds -11 996 93 0 6.23 83 22:22 01.04.2020
5470 Clouds -11 996 93 0 6.23 83 21:57 01.04.2020
5471 Clouds -11 996 93 0 6.23 83 21:57 01.04.2020
5472 Clouds -11 996 93 0 6.23 83 21:38 01.04.2020
5473 Clouds -12 1001 93 0 4.6 122 21:18 01.04.2020
5474 Clouds -12 1002 93 0 4.83 124 20:55 01.04.2020
5475 Clouds -12 1002 93 0 4.83 124 20:37 01.04.2020
5476 Clouds -12 1002 93 0 4.83 124 20:18 01.04.2020
5477 Clouds -12 1002 93 0 4.83 124 19:43 01.04.2020
5478 Clouds -12 1002 93 0 4.83 124 19:22 01.04.2020
5479 Clouds -12 1002 93 0 4.83 124 18:59 01.04.2020
5480 Clouds -12 1002 93 0 4.83 124 18:40 01.04.2020
5481 Clouds -12 1002 93 0 4.83 124 18:21 01.04.2020
5482 Clouds -11 1004 93 0 3.31 131 17:55 01.04.2020
5483 Clouds -11 1004 93 0 3.31 131 17:36 01.04.2020
5484 Clouds -11 1004 93 0 3.31 131 17:18 01.04.2020
5485 Clouds -11 1004 93 0 3.31 131 16:43 01.04.2020
5486 Clouds -11 1004 93 0 3.31 131 16:25 01.04.2020
5487 Clouds -11 1004 93 0 3.31 131 15:59 01.04.2020
5488 Clouds -11 1004 93 0 3.31 131 15:41 01.04.2020
5489 Clouds -11 1004 93 0 3.31 131 15:22 01.04.2020
5490 Clouds -11 1006 93 0 2.94 167 14:58 01.04.2020
5491 Clouds -11 1006 93 0 2.94 167 14:39 01.04.2020
5492 Clouds -11 1006 93 0 2.94 167 14:20 01.04.2020
5493 Clouds -11 1006 92 0 2.84 160 13:58 01.04.2020
5494 Clouds -11 1006 92 0 2.84 160 13:38 01.04.2020
5495 Clouds -11 1006 92 0 2.84 160 13:19 01.04.2020
5496 Clouds -11 1006 92 0 2.84 160 12:56 01.04.2020
5497 Clouds -11 1006 92 0 2.84 160 12:36 01.04.2020
5498 Clear -11 1007 92 0 2.98 191 12:18 01.04.2020
5499 Clear -11 1007 92 0 2.98 191 11:44 01.04.2020
5500 Clear -11 1007 92 0 2.98 191 11:24 01.04.2020
5501 Clear -11 1007 92 0 2.98 191 10:59 01.04.2020
5502 Clear -11 1007 92 0 2.98 191 10:38 01.04.2020
5503 Clear -11 1007 92 0 2.98 191 10:20 01.04.2020
5504 Clear -11 1007 92 0 2.98 191 09:57 01.04.2020
5505 Clear -11 1007 92 0 2.98 191 09:39 01.04.2020
5506 Clouds -12 1007 93 0 3.37 196 09:19 01.04.2020
5507 Clouds -12 1008 93 0 3.19 199 08:42 01.04.2020
5508 Clouds -12 1008 93 0 3.19 199 08:18 01.04.2020
5509 Clouds -12 1008 93 0 3.19 199 07:46 01.04.2020
5510 Clouds -12 1008 93 0 3.19 199 07:21 01.04.2020
5511 Clouds -12 1008 93 0 3.19 199 06:52 01.04.2020
5512 Clouds -12 1008 93 0 3.19 199 06:27 01.04.2020
5513 Clouds -14 1007 94 0 3.07 207 05:58 01.04.2020
5514 Clouds -14 1007 94 0 3.07 207 04:36 01.04.2020
5515 Clouds -14 1007 94 0 3.07 207 03:33 01.04.2020
5516 Clouds -15 1008 94 0 2.66 220 02:57 01.04.2020
5517 Clouds -15 1007 94 0 2.72 223 01:59 01.04.2020
5518 Clouds -15 1007 94 0 2.72 223 01:40 01.04.2020
5519 Clouds -15 1007 94 0 2.72 223 01:19 01.04.2020
5520 Clouds -15 1007 94 0 2.72 223 00:46 01.04.2020
5521 Clouds -15 1007 94 0 2.72 223 00:21 01.04.2020
5522 Clouds -14 1006 94 0 1.94 240 23:48 31.03.2020
5523 Clouds -14 1006 94 0 1.94 240 23:27 31.03.2020
5524 Clouds -14 1006 94 0 1.94 240 22:59 31.03.2020
5525 Clouds -14 1006 94 0 1.94 240 22:37 31.03.2020
5526 Clouds -14 1006 94 0 1.94 240 22:19 31.03.2020
5527 Clouds -14 1006 94 0 1.94 240 21:57 31.03.2020
5528 Clouds -14 1006 94 0 1.94 240 21:39 31.03.2020
5529 Clouds -14 1006 94 0 1.46 244 21:20 31.03.2020
5530 Clouds -14 1006 94 0 1.46 244 20:55 31.03.2020
5531 Clouds -14 1006 94 0 1.46 244 20:36 31.03.2020
5532 Clouds -14 1006 94 0 1.46 244 20:36 31.03.2020
5533 Clouds -14 1006 94 0 1.46 244 20:36 31.03.2020
5534 Clouds -14 1006 94 0 1.46 244 20:36 31.03.2020
5535 Clouds -14 1006 94 0 1.46 244 20:18 31.03.2020
5536 Clouds -14 1006 94 0 1.46 244 19:42 31.03.2020
5537 Clouds -14 1006 94 0 1.46 244 19:24 31.03.2020
5538 Clouds -14 1006 94 0 1.46 244 18:59 31.03.2020
5539 Clouds -14 1006 94 0 1.46 244 18:59 31.03.2020
5540 Clouds -14 1006 94 0 1.46 244 18:40 31.03.2020
5541 Clouds -14 1005 93 0 1.54 302 18:19 31.03.2020
5542 Clouds -14 1005 93 0 1.54 302 17:55 31.03.2020
5543 Clouds -14 1005 93 0 1.54 302 17:37 31.03.2020
5544 Clouds -14 1005 93 0 1.54 302 17:19 31.03.2020
5545 Clouds -14 1005 93 0 1.54 302 16:41 31.03.2020
5546 Clouds -14 1005 93 0 1.54 302 16:20 31.03.2020
5547 Clouds -14 1005 93 0 1.54 302 15:58 31.03.2020
5548 Clouds -14 1005 93 0 1.54 302 15:40 31.03.2020
5549 Clouds -14 1005 93 0 1.54 302 15:22 31.03.2020
5550 Clouds -12 1005 94 0 2.78 309 14:58 31.03.2020
5551 Clouds -12 1005 94 0 2.78 309 14:39 31.03.2020
5552 Clouds -12 1004 94 0 2.9 320 14:21 31.03.2020
5553 Clouds -12 1004 94 0 2.9 320 13:43 31.03.2020
5554 Clouds -12 1004 94 0 2.9 320 13:20 31.03.2020
5555 Clouds -12 1004 94 0 2.9 320 12:59 31.03.2020
5556 Clouds -12 1004 94 0 2.9 320 12:40 31.03.2020
5557 Snow -11 1002 96 0 4.66 336 12:19 31.03.2020
5558 Snow -11 1002 96 0 4.66 336 12:19 31.03.2020
5559 Snow -11 1002 96 0 4.66 336 11:41 31.03.2020
5560 Snow -11 1002 96 0 4.66 336 11:20 31.03.2020
5561 Snow -11 1002 96 0 4.66 336 10:59 31.03.2020
5562 Snow -11 1002 96 0 4.66 336 10:41 31.03.2020
5563 Snow -11 1002 96 0 4.66 336 10:22 31.03.2020
5564 Snow -11 1002 96 0 4.66 336 09:59 31.03.2020
5565 Snow -11 1002 96 0 4.66 336 09:41 31.03.2020
5566 Snow -11 1003 95 0 4.24 330 09:22 31.03.2020
5567 Snow -9 1001 96 0 4.43 350 08:57 31.03.2020
5568 Snow -9 1001 96 0 4.43 350 08:38 31.03.2020
5569 Snow -9 1001 96 0 4.43 350 08:19 31.03.2020
5570 Snow -9 1001 96 0 4.43 350 08:19 31.03.2020
5571 Snow -9 1001 96 0 4.43 350 07:56 31.03.2020
5572 Snow -9 1001 96 0 4.43 350 07:37 31.03.2020
5573 Snow -9 1001 96 0 4.43 350 07:18 31.03.2020
5574 Snow -9 1001 96 0 4.43 350 06:45 31.03.2020
5575 Snow -8 999 97 0 1.1 12 06:18 31.03.2020
5576 Snow -8 999 97 0 1.1 12 05:39 31.03.2020
5577 Snow -8 999 97 0 1.1 12 03:34 31.03.2020
5578 Snow -7 999 96 0 5.02 225 01:54 31.03.2020
5579 Snow -7 999 96 0 5.02 225 01:34 31.03.2020
5580 Snow -7 999 96 0 5.02 225 00:47 31.03.2020
5581 Snow -7 999 96 0 5.02 225 00:25 31.03.2020
5582 Snow -7 998 97 0 4.9 228 23:42 30.03.2020
5583 Snow -7 998 97 0 4.9 228 23:20 30.03.2020
5584 Snow -7 998 97 0 4.9 228 22:58 30.03.2020
5585 Snow -7 998 97 0 4.9 228 22:39 30.03.2020
5586 Snow -7 998 97 0 4.9 228 22:21 30.03.2020
5587 Snow -7 998 97 0 4.9 228 21:58 30.03.2020
5588 Snow -7 998 97 0 4.9 228 21:39 30.03.2020
5589 Snow -7 998 97 0 4.9 228 21:21 30.03.2020
5590 Clouds -7 997 97 0 2.49 212 20:59 30.03.2020
5591 Clouds -7 997 97 0 2.49 212 20:39 30.03.2020
5592 Clouds -7 997 97 0 2.49 212 20:20 30.03.2020
5593 Clouds -7 997 97 0 2.49 212 19:57 30.03.2020
5594 Clouds -7 997 97 0 2.49 212 19:39 30.03.2020
5595 Clouds -7 997 97 0 2.49 212 19:20 30.03.2020
5596 Clouds -7 997 97 0 2.49 212 18:44 30.03.2020
5597 Clouds -7 997 97 0 2.49 212 18:26 30.03.2020
5598 Clouds -6 996 96 0 3.74 176 17:58 30.03.2020
5599 Clouds -6 996 96 0 3.74 176 17:40 30.03.2020
5600 Clouds -6 996 96 0 3.74 176 17:22 30.03.2020
5601 Clouds -6 996 96 0 3.74 176 16:59 30.03.2020
5602 Clouds -6 996 96 0 3.74 176 16:40 30.03.2020
5603 Clouds -6 996 96 0 3.74 176 16:21 30.03.2020
5604 Clouds -6 996 96 0 3.74 176 15:56 30.03.2020
5605 Clouds -6 996 96 0 3.74 176 15:56 30.03.2020
5606 Clouds -6 996 96 0 3.74 176 15:38 30.03.2020
5607 Snow -5 996 96 0 6.58 208 15:20 30.03.2020
5608 Snow -5 996 96 0 6.58 208 14:56 30.03.2020
5609 Snow -5 996 96 0 6.58 208 14:37 30.03.2020
5610 Snow -5 996 96 0 6.58 208 14:18 30.03.2020
5611 Snow -5 996 96 0 6.58 208 14:18 30.03.2020
5612 Snow -4 996 96 0 5.24 197 13:56 30.03.2020
5613 Snow -4 996 96 0 5.24 197 13:37 30.03.2020
5614 Snow -4 996 96 0 5.24 197 13:19 30.03.2020
5615 Snow -4 996 96 0 5.24 197 12:44 30.03.2020
5616 Snow -4 996 96 0 5.24 197 12:21 30.03.2020
5617 Snow -5 994 96 0 5.08 187 11:58 30.03.2020
5618 Snow -5 994 96 0 5.08 187 11:39 30.03.2020
5619 Snow -5 994 96 0 5.08 187 11:21 30.03.2020
5620 Snow -5 994 96 0 5.08 187 10:42 30.03.2020
5621 Snow -5 994 96 0 5.08 187 10:23 30.03.2020
5622 Snow -5 994 96 0 5.08 187 09:59 30.03.2020
5623 Snow -5 994 96 0 5.08 187 09:40 30.03.2020
5624 Snow -7 994 95 0 4.73 183 09:19 30.03.2020
5625 Snow -7 994 95 0 4.73 183 08:54 30.03.2020
5626 Snow -7 994 95 0 4.73 183 08:36 30.03.2020
5627 Snow -7 994 95 0 4.73 183 08:18 30.03.2020
5628 Snow -7 994 95 0 4.73 183 07:41 30.03.2020
5629 Snow -7 994 95 0 4.73 183 07:20 30.03.2020
5630 Snow -7 994 95 0 4.73 183 06:39 30.03.2020
5631 Snow -7 992 96 0 3.6 148 06:19 30.03.2020
5632 Snow -7 992 96 0 3.6 148 05:39 30.03.2020
5633 Snow -7 992 96 0 3.6 148 04:28 30.03.2020
5634 Snow -7 992 96 0 3.6 148 03:52 30.03.2020
5635 Snow -7 991 96 0 3.06 111 02:44 30.03.2020
5636 Snow -6 991 97 0 2.65 137 01:54 30.03.2020
5637 Snow -6 991 97 0 2.65 137 00:57 30.03.2020
5638 Snow -6 991 97 0 2.65 137 00:26 30.03.2020
5639 Snow -7 989 96 0 3.56 113 23:55 29.03.2020
5640 Snow -7 989 96 0 3.56 113 23:36 29.03.2020
5641 Snow -7 989 96 0 3.56 113 23:18 29.03.2020
5642 Snow -7 989 96 0 3.56 113 22:40 29.03.2020
5643 Snow -7 989 96 0 3.56 113 22:20 29.03.2020
5644 Snow -7 989 96 0 3.56 113 21:59 29.03.2020
5645 Snow -7 989 96 0 3.56 113 21:37 29.03.2020
5646 Snow -7 989 97 0 5.8 90 21:19 29.03.2020
5647 Snow -7 989 97 0 5.8 90 20:55 29.03.2020
5648 Snow -7 989 97 0 5.8 90 20:37 29.03.2020
5649 Snow -7 989 97 0 5.8 90 20:18 29.03.2020
5650 Snow -7 989 97 0 5.8 90 20:18 29.03.2020
5651 Snow -7 989 97 0 5.8 90 20:18 29.03.2020
5652 Snow -7 989 97 0 5.8 90 19:55 29.03.2020
5653 Snow -7 989 97 0 5.8 90 19:37 29.03.2020
5654 Snow -7 989 97 0 5.8 90 19:19 29.03.2020
5655 Snow -7 989 97 0 5.8 90 18:55 29.03.2020
5656 Snow -7 989 97 0 5.8 90 18:37 29.03.2020
5657 Snow -7 986 96 0 5.81 102 18:18 29.03.2020
5658 Snow -7 986 96 0 5.81 102 17:54 29.03.2020
5659 Snow -7 986 96 0 5.81 102 17:36 29.03.2020
5660 Snow -7 986 96 0 5.81 102 17:18 29.03.2020
5661 Snow -7 986 96 0 5.81 102 17:18 29.03.2020
5662 Snow -7 986 96 0 5.81 102 16:55 29.03.2020
5663 Snow -7 986 96 0 5.81 102 16:36 29.03.2020
5664 Snow -7 986 96 0 5.81 102 16:36 29.03.2020
5665 Snow -7 986 96 0 5.81 102 16:36 29.03.2020
5666 Snow -7 986 96 0 5.81 102 16:36 29.03.2020
5667 Snow -7 986 96 0 5.81 102 16:36 29.03.2020
5668 Snow -7 986 96 0 5.81 102 16:18 29.03.2020
5669 Snow -7 986 96 0 5.81 102 15:40 29.03.2020
5670 Snow -7 986 96 0 5.81 102 15:22 29.03.2020
5671 Snow -5 987 97 0 6.26 123 14:57 29.03.2020
5672 Snow -5 987 97 0 6.26 123 14:38 29.03.2020
5673 Snow -5 987 97 0 6.26 123 14:19 29.03.2020
5674 Snow -5 988 97 0 6.08 125 13:56 29.03.2020
5675 Snow -5 988 97 0 6.08 125 13:37 29.03.2020
5676 Snow -5 988 97 0 6.08 125 13:19 29.03.2020
5677 Snow -5 988 97 0 6.08 125 12:55 29.03.2020
5678 Snow -5 988 97 0 6.08 125 12:37 29.03.2020
5679 Snow -3 986 98 0 7.84 125 12:18 29.03.2020
5680 Snow -3 986 98 0 7.84 125 11:39 29.03.2020
5681 Snow -3 986 98 0 7.84 125 11:21 29.03.2020
5682 Snow -3 986 98 0 7.84 125 10:55 29.03.2020
5683 Snow -3 986 98 0 7.84 125 10:37 29.03.2020
5684 Snow -3 986 98 0 7.84 125 10:18 29.03.2020
5685 Snow -3 986 98 0 7.84 125 09:39 29.03.2020
5686 Snow -3 989 97 0 11.24 115 09:19 29.03.2020
5687 Snow -4 988 97 0 11.13 107 08:52 29.03.2020
5688 Snow -4 988 97 0 11.13 107 08:28 29.03.2020
5689 Snow -4 988 97 0 11.13 107 07:58 29.03.2020
5690 Snow -4 988 97 0 11.13 107 07:39 29.03.2020
5691 Snow -4 988 97 0 11.13 107 07:20 29.03.2020
5692 Clouds -5 990 96 0 9.14 118 04:59 29.03.2020
5693 Clouds -5 990 96 0 9.14 118 03:48 29.03.2020
5694 Clouds -5 990 96 0 9.14 118 03:26 29.03.2020
5695 Clouds -5 994 97 0 5.76 121 01:50 29.03.2020
5696 Clouds -5 995 96 0 6.14 123 01:23 29.03.2020
5697 Clouds -5 995 96 0 6.14 123 00:53 29.03.2020
5698 Clouds -5 995 96 0 6.14 123 00:30 29.03.2020
5699 Clouds -5 995 96 0 6.14 123 23:42 28.03.2020
5700 Clouds -5 995 96 0 6.14 123 23:23 28.03.2020
5701 Clouds -5 996 95 0 3.96 138 22:57 28.03.2020
5702 Clouds -5 996 95 0 3.96 138 22:37 28.03.2020
5703 Clouds -5 996 95 0 3.96 138 22:19 28.03.2020
5704 Clouds -5 996 95 0 3.96 138 21:42 28.03.2020
5705 Clouds -5 996 95 0 3.96 138 21:24 28.03.2020
5706 Clouds -5 996 95 0 3.96 138 20:58 28.03.2020
5707 Clouds -5 996 95 0 3.96 138 20:39 28.03.2020
5708 Clouds -6 996 95 0 3.17 117 20:21 28.03.2020
5709 Clouds -6 997 94 0 2.43 62 19:56 28.03.2020
5710 Clouds -6 997 94 0 2.43 62 19:37 28.03.2020
5711 Clouds -6 997 94 0 2.43 62 19:37 28.03.2020
5712 Clouds -6 997 94 0 2.43 62 19:19 28.03.2020
5713 Clouds -6 997 94 0 2.43 62 18:55 28.03.2020
5714 Clouds -6 997 94 0 2.43 62 18:36 28.03.2020
5715 Clouds -6 997 94 0 2.43 62 18:18 28.03.2020
5716 Clouds -6 997 94 0 2.43 62 17:38 28.03.2020
5717 Snow -3 996 95 0 1.1 21 17:19 28.03.2020
5718 Snow -3 996 95 0 1.1 21 16:42 28.03.2020
5719 Snow -3 996 95 0 1.1 21 16:20 28.03.2020
5720 Snow -3 996 95 0 1.1 21 15:56 28.03.2020
5721 Snow -3 996 95 0 1.1 21 15:38 28.03.2020
5722 Snow -3 996 95 0 1.1 21 15:18 28.03.2020
5723 Snow -3 996 95 0 1.1 21 14:42 28.03.2020
5724 Snow -3 996 95 0 1.1 21 14:22 28.03.2020
5725 Snow -3 998 95 0 3.41 262 13:57 28.03.2020
5726 Snow -3 998 95 0 3.41 262 13:37 28.03.2020
5727 Snow -2 998 96 0 4.31 263 13:18 28.03.2020
5728 Snow -2 998 96 0 4.31 263 12:38 28.03.2020
5729 Snow -2 998 96 0 4.31 263 12:19 28.03.2020
5730 Snow -2 998 96 0 4.31 263 11:42 28.03.2020
5731 Snow -2 998 96 0 4.31 263 11:21 28.03.2020
5732 Clouds -3 997 94 0 7.91 279 10:55 28.03.2020
5733 Clouds -3 997 94 0 7.91 279 10:36 28.03.2020
5734 Clouds -3 997 94 0 7.91 279 10:18 28.03.2020
5735 Clouds -3 997 94 0 7.91 279 09:40 28.03.2020
5736 Clouds -3 997 94 0 7.91 279 09:22 28.03.2020
5737 Clouds -3 997 94 0 7.91 279 08:45 28.03.2020
5738 Clouds -3 997 94 0 8.55 281 08:25 28.03.2020
5739 Clouds -3 997 95 0 11.18 281 07:59 28.03.2020
5740 Clouds -3 997 95 0 11.18 281 07:41 28.03.2020
5741 Clouds -3 997 95 0 11.18 281 06:54 28.03.2020
5742 Clouds -3 997 95 0 11.18 281 06:29 28.03.2020
5743 Clouds -3 997 95 0 11.18 281 05:38 28.03.2020
5744 Snow -2 996 96 0 9.99 271 05:19 28.03.2020
5745 Snow -2 996 96 0 9.99 271 04:39 28.03.2020
5746 Snow -2 996 96 0 9.99 271 02:52 28.03.2020
5747 Snow -1 997 97 0 9.24 265 01:48 28.03.2020
5748 Snow -1 997 97 0 9.44 267 01:23 28.03.2020
5749 Snow -1 997 97 0 9.24 265 00:52 28.03.2020
5750 Snow -1 997 97 0 9.24 265 00:28 28.03.2020
5751 Snow -1 997 97 0 9.24 265 23:44 27.03.2020
5752 Snow -1 997 97 0 9.24 265 23:26 27.03.2020
5753 Snow -3 997 97 0 7.86 238 22:57 27.03.2020
5754 Snow -3 997 97 0 7.86 238 22:39 27.03.2020
5755 Snow -3 997 97 0 7.86 238 22:21 27.03.2020
5756 Snow -3 997 97 0 7.86 238 21:58 27.03.2020
5757 Snow -3 997 97 0 7.86 238 21:40 27.03.2020
5758 Snow -3 997 97 0 7.86 238 21:22 27.03.2020
5759 Snow -3 997 97 0 7.86 238 20:57 27.03.2020
5760 Snow -3 997 97 0 7.55 232 20:39 27.03.2020
5761 Snow -2 1000 97 0 7.83 252 20:19 27.03.2020
5762 Snow -2 1000 97 0 8.21 252 20:19 27.03.2020
5763 Snow -2 1000 97 0 7.83 252 20:19 27.03.2020
5764 Snow -2 1000 97 0 7.83 252 19:55 27.03.2020
5765 Snow -2 1000 97 0 7.83 252 19:55 27.03.2020
5766 Snow -2 1000 97 0 7.83 252 19:36 27.03.2020
5767 Snow -2 1000 97 0 7.83 252 19:18 27.03.2020
5768 Snow -2 1000 97 0 7.83 252 18:42 27.03.2020
5769 Snow -2 1000 97 0 7.83 252 18:22 27.03.2020
5770 Snow -2 1000 97 0 7.83 252 17:54 27.03.2020
5771 Snow -2 1000 97 0 7.83 252 17:36 27.03.2020
5772 Snow -3 1002 98 0 5.06 224 17:18 27.03.2020
5773 Snow -3 1002 98 0 5.06 224 16:41 27.03.2020
5774 Snow -3 1002 98 0 5.06 224 16:23 27.03.2020
5775 Snow -3 1002 98 0 5.06 224 15:43 27.03.2020
5776 Snow -3 1002 98 0 5.06 224 15:25 27.03.2020
5777 Snow -3 1002 98 0 5.06 224 14:48 27.03.2020
5778 Snow -3 1002 98 0 5.06 224 14:27 27.03.2020
5779 Clouds -5 1004 94 0 4.94 278 13:58 27.03.2020
5780 Clouds -5 1004 94 0 4.94 278 13:40 27.03.2020
5781 Clouds -5 1004 94 0 4.94 278 13:21 27.03.2020
5782 Clouds -5 1004 94 0 4.7 274 12:57 27.03.2020
5783 Clouds -5 1004 94 0 4.7 274 12:39 27.03.2020
5784 Clouds -5 1004 94 0 4.7 274 12:19 27.03.2020
5785 Clouds -5 1004 94 0 4.7 274 11:41 27.03.2020
5786 Clouds -5 1004 94 0 4.7 274 11:23 27.03.2020
5787 Clouds -5 1004 94 0 4.7 274 11:23 27.03.2020
5788 Clouds -4 1003 93 0 7.7 302 10:55 27.03.2020
5789 Clouds -4 1003 93 0 7.7 302 10:37 27.03.2020
5790 Clouds -4 1003 93 0 7.7 302 10:19 27.03.2020
5791 Clouds -4 1003 93 0 7.7 302 09:57 27.03.2020
5792 Clouds -4 1003 93 0 7.7 302 09:37 27.03.2020
5793 Clouds -4 1003 93 0 7.7 302 09:18 27.03.2020
5794 Clouds -4 1003 93 0 7.7 302 08:56 27.03.2020
5795 Clouds -4 1003 93 0 7.7 302 08:38 27.03.2020
5796 Clouds -5 1002 94 0 7.63 314 08:20 27.03.2020
5797 Clouds -5 1002 94 0 7.63 314 07:50 27.03.2020
5798 Clouds -5 1002 94 0 7.63 314 07:24 27.03.2020
5799 Clouds -5 1002 94 0 7.63 314 06:53 27.03.2020
5800 Clouds -5 1002 94 0 7.63 314 06:35 27.03.2020
5801 Clouds -5 999 94 0 8.26 312 04:24 27.03.2020
5802 Clouds -5 999 94 0 8.26 312 02:36 27.03.2020
5803 Clouds -4 997 97 0 7.5 302 01:23 27.03.2020
5804 Clouds -4 997 97 0 7.5 302 00:50 27.03.2020
5805 Clouds -4 997 97 0 7.5 302 00:24 27.03.2020
5806 Clouds -4 997 97 0 7.5 302 23:44 26.03.2020
5807 Clouds -4 997 97 0 7.5 302 23:22 26.03.2020
5808 Clouds -5 994 97 0 5.55 298 22:59 26.03.2020
5809 Clouds -5 994 97 0 5.55 298 22:38 26.03.2020
5810 Clouds -5 994 97 0 5.55 298 22:19 26.03.2020
5811 Clouds -5 994 97 0 5.55 298 21:56 26.03.2020
5812 Clouds -5 994 97 0 5.55 298 21:37 26.03.2020
5813 Clouds -5 994 97 0 5.55 298 21:18 26.03.2020
5814 Clouds -5 994 97 0 5.55 298 20:56 26.03.2020
5815 Clouds -5 994 97 0 5.55 298 20:37 26.03.2020
5816 Clouds -4 993 98 0 5.61 302 20:19 26.03.2020
5817 Clouds -4 993 98 0 5.61 302 19:54 26.03.2020
5818 Clouds -4 993 98 0 5.61 302 19:36 26.03.2020
5819 Clouds -4 993 98 0 5.61 302 19:18 26.03.2020
5820 Clouds -4 993 98 0 5.61 302 18:41 26.03.2020
5821 Clouds -4 993 98 0 5.61 302 18:23 26.03.2020
5822 Clouds -4 993 98 0 5.61 302 17:55 26.03.2020
5823 Clouds -4 993 98 0 5.61 302 17:37 26.03.2020
5824 Clouds -2 990 97 0 6.29 301 17:18 26.03.2020
5825 Clouds -2 990 97 0 6.29 301 16:39 26.03.2020
5826 Clouds -2 990 97 0 6.29 301 16:21 26.03.2020
5827 Clouds -2 990 97 0 6.29 301 15:56 26.03.2020
5828 Clouds -2 990 97 0 6.29 301 15:38 26.03.2020
5829 Clouds -2 990 97 0 6.29 301 15:38 26.03.2020
5830 Clouds -2 990 97 0 6.29 301 15:20 26.03.2020
5831 Clouds -2 990 97 0 6.29 301 14:43 26.03.2020
5832 Clouds -2 990 97 0 6.29 301 14:25 26.03.2020
5833 Snow -1 988 97 0 7.95 307 13:59 26.03.2020
5834 Snow -1 988 97 0 7.95 307 13:40 26.03.2020
5835 Snow -1 988 97 0 7.95 307 13:21 26.03.2020
5836 Snow -1 988 97 0 7.95 307 13:21 26.03.2020
5837 Snow -1 988 97 0 7.79 306 12:39 26.03.2020
5838 Snow -1 988 97 0 7.79 306 12:21 26.03.2020
5839 Snow -1 988 97 0 7.79 306 11:56 26.03.2020
5840 Snow -1 988 97 0 7.79 306 11:56 26.03.2020
5841 Snow -1 988 97 0 7.79 306 11:37 26.03.2020
5842 Snow -1 985 98 0 9.14 315 11:19 26.03.2020
5843 Snow -1 985 98 0 9.14 315 10:42 26.03.2020
5844 Snow -1 985 98 0 9.14 315 10:20 26.03.2020
5845 Snow -1 985 98 0 9.14 315 09:46 26.03.2020
5846 Snow -1 985 98 0 9.14 315 09:24 26.03.2020
5847 Snow -1 985 98 0 9.14 315 08:58 26.03.2020
5848 Snow -1 985 98 0 9.14 315 08:40 26.03.2020
5849 Snow -1 986 98 0 8.59 314 08:22 26.03.2020
5850 Snow -1 984 98 0 5.49 286 07:56 26.03.2020
5851 Snow -1 984 98 0 5.49 286 07:38 26.03.2020
5852 Snow -1 984 98 0 5.49 286 07:19 26.03.2020
5853 Snow -1 984 98 0 5.49 286 06:33 26.03.2020
5854 Snow -1 984 98 0 5.49 286 05:47 26.03.2020
5855 Snow -1 983 98 0 6.2 209 03:46 26.03.2020
5856 Snow -1 983 98 0 6.2 209 02:58 26.03.2020
5857 Snow -2 987 98 0 8.22 194 01:51 26.03.2020
5858 Snow -2 987 98 0 8.22 194 01:18 26.03.2020
5859 Snow -2 986 98 0 7.96 194 00:32 26.03.2020
5860 Snow -2 986 98 0 7.96 194 23:44 25.03.2020
5861 Snow -2 986 98 0 7.96 194 23:24 25.03.2020
5862 Snow -2 989 98 0 7.6 199 22:54 25.03.2020
5863 Snow -2 989 98 0 7.6 199 22:36 25.03.2020
5864 Snow -2 989 98 0 7.6 199 22:18 25.03.2020
5865 Snow -2 989 98 0 7.6 199 21:42 25.03.2020
5866 Snow -2 989 98 0 7.6 199 21:23 25.03.2020
5867 Snow -2 989 98 0 7.6 199 20:58 25.03.2020
5868 Snow -2 989 98 0 7.6 199 20:38 25.03.2020
5869 Snow -1 994 97 0 7.75 228 20:19 25.03.2020
5870 Snow 0 994 98 0 7.65 226 19:55 25.03.2020
5871 Snow 0 994 98 0 7.65 226 19:36 25.03.2020
5872 Snow 0 994 98 0 7.65 226 19:18 25.03.2020
5873 Snow 0 994 98 0 7.65 226 18:42 25.03.2020
5874 Snow 0 994 98 0 7.65 226 18:24 25.03.2020
5875 Snow 0 994 98 0 7.65 226 17:58 25.03.2020
5876 Snow 0 994 98 0 7.65 226 17:40 25.03.2020
5877 Snow 0 994 98 0 7.65 226 17:21 25.03.2020
5878 Snow 0 995 97 0 8.16 242 16:55 25.03.2020
5879 Snow 0 995 97 0 8.75 240 16:37 25.03.2020
5880 Snow 0 995 97 0 8.75 240 16:19 25.03.2020
5881 Snow 0 995 97 0 8.75 240 15:42 25.03.2020
5882 Snow 0 995 97 0 8.75 240 15:20 25.03.2020
5883 Snow 0 995 97 0 8.75 240 14:56 25.03.2020
5884 Snow 0 995 97 0 8.75 240 14:37 25.03.2020
5885 Snow 1 996 93 0 9.01 255 14:19 25.03.2020
5886 Snow 1 996 94 0 9.26 255 13:44 25.03.2020
5887 Snow 1 996 93 0 9.01 255 13:22 25.03.2020
5888 Snow 1 996 93 0 9.01 255 12:39 25.03.2020
5889 Snow 1 996 94 0 9.26 255 12:20 25.03.2020
5890 Snow 1 996 94 0 9.26 255 11:57 25.03.2020
5891 Snow 1 996 94 0 9.26 255 11:39 25.03.2020
5892 -273 0 0 0 0 0 11:20 25.03.2020
5893 Snow 0 995 96 0 12.08 257 10:57 25.03.2020
5894 Snow 0 995 96 0 12.08 257 10:39 25.03.2020
5895 Snow 0 995 96 0 12.08 257 10:18 25.03.2020
5896 Snow 0 995 96 0 12.08 257 09:43 25.03.2020
5897 Snow 0 995 96 0 12.08 257 09:25 25.03.2020
5898 Snow 0 995 96 0 12.08 257 08:58 25.03.2020
5899 Snow 0 995 96 0 12.08 257 08:58 25.03.2020
5900 Snow 0 995 96 0 12.08 257 08:39 25.03.2020
5901 Snow -2 997 97 0 11.69 223 08:20 25.03.2020
5902 Snow -2 997 97 0 11.69 223 07:44 25.03.2020
5903 Snow -2 997 97 0 11.69 223 07:24 25.03.2020
5904 Snow -2 997 97 0 11.69 223 06:50 25.03.2020
5905 Snow -2 997 97 0 11.69 223 06:29 25.03.2020
5906 Snow -2 997 97 0 11.69 223 06:29 25.03.2020
5907 Snow -2 997 97 0 11.69 223 05:58 25.03.2020
5908 Snow -2 997 97 0 11.69 223 05:37 25.03.2020
5909 Snow -3 1000 97 0 10.76 220 04:41 25.03.2020
5910 Snow -3 1000 97 0 10.76 220 03:52 25.03.2020
5911 Snow -3 1000 97 0 10.76 220 03:29 25.03.2020
5912 Snow -3 1005 97 0 10.6 219 01:31 25.03.2020
5913 Snow -3 1004 97 0 10.83 219 00:49 25.03.2020
5914 Snow -3 1004 97 0 10.83 219 00:26 25.03.2020
5915 Snow -3 1004 97 0 10.83 219 23:50 24.03.2020
5916 Snow -3 1004 97 0 10.83 219 23:28 24.03.2020
5917 Snow -3 1007 97 0 9.74 219 22:57 24.03.2020
5918 Snow -3 1007 97 0 9.74 219 22:38 24.03.2020
5919 Snow -3 1007 97 0 9.74 219 22:19 24.03.2020
5920 Snow -3 1007 97 0 9.74 219 21:57 24.03.2020
5921 Snow -3 1007 97 0 9.74 219 21:38 24.03.2020
5922 Snow -3 1007 97 0 9.74 219 21:18 24.03.2020
5923 Snow -3 1007 97 0 9.74 219 20:57 24.03.2020
5924 Snow -3 1007 97 0 9.74 219 20:39 24.03.2020
5925 Snow -3 1007 97 0 9.74 219 20:21 24.03.2020
5926 Snow -3 1011 97 0 9.46 233 19:45 24.03.2020
5927 Snow -3 1011 97 0 9.46 233 19:20 24.03.2020
5928 Snow -3 1011 97 0 9.46 233 18:56 24.03.2020
5929 Snow -3 1011 97 0 9.46 233 18:37 24.03.2020
5930 Snow -3 1011 97 0 9.46 233 18:19 24.03.2020
5931 Snow -3 1011 97 0 9.46 233 17:56 24.03.2020
5932 Snow -3 1011 97 0 9.46 233 17:37 24.03.2020
5933 Snow -1 1012 98 0 8.93 233 17:19 24.03.2020
5934 Snow -1 1011 96 0 9.12 233 16:54 24.03.2020
5935 Snow -1 1011 96 0 9.12 233 16:36 24.03.2020
5936 Snow -1 1011 96 0 9.12 233 16:36 24.03.2020
5937 Snow -1 1011 96 0 9.12 233 16:18 24.03.2020
5938 Snow -1 1011 96 0 9.12 233 15:42 24.03.2020
5939 Snow -1 1011 96 0 9.12 233 15:23 24.03.2020
5940 Snow -1 1011 96 0 9.12 233 14:44 24.03.2020
5941 Snow -1 1012 98 0 8.93 233 14:22 24.03.2020
5942 Clouds -2 1014 97 0 8.69 238 13:58 24.03.2020
5943 Clouds -2 1014 97 0 8.69 238 13:40 24.03.2020
5944 Clouds -2 1013 97 0 9.13 246 13:21 24.03.2020
5945 Clouds -2 1013 97 0 9.13 246 12:42 24.03.2020
5946 Clouds -2 1013 97 0 9.13 246 12:24 24.03.2020
5947 Clouds -2 1013 97 0 9.13 246 11:41 24.03.2020
5948 Clouds -1 1012 90 0 9.01 251 11:21 24.03.2020
5949 Clouds -2 1012 87 0 10.33 252 10:59 24.03.2020
5950 Clouds -2 1012 87 0 10.33 252 10:40 24.03.2020
5951 Clouds -2 1012 87 0 10.33 252 10:18 24.03.2020
5952 Clouds -2 1012 87 0 10.33 252 10:18 24.03.2020
5953 Clouds -2 1012 87 0 10.33 252 09:46 24.03.2020
5954 Clouds -2 1012 87 0 10.33 252 09:26 24.03.2020
5955 Clouds -2 1012 87 0 10.33 252 08:57 24.03.2020
5956 Clouds -2 1012 87 0 10.33 252 08:37 24.03.2020
5957 Snow -1 1012 88 0 11.24 258 08:18 24.03.2020
5958 Snow -1 1012 88 0 11.24 258 07:44 24.03.2020
5959 Snow -1 1012 88 0 11.24 258 07:22 24.03.2020
5960 Snow -1 1012 88 0 11.24 258 07:22 24.03.2020
5961 Snow -1 1012 88 0 11.24 258 06:40 24.03.2020
5962 Snow -1 1012 88 0 11.24 258 06:18 24.03.2020
5963 Clear -2 1011 96 0 9.25 264 04:51 24.03.2020
5964 Clear -2 1011 96 0 9.25 264 03:22 24.03.2020
5965 Clear -2 1011 96 0 9.25 264 02:43 24.03.2020
5966 Clouds -2 1010 87 0 9.64 267 00:57 24.03.2020
5967 Clouds -2 1010 87 0 9.64 267 00:28 24.03.2020
5968 Clouds -2 1010 87 0 9.64 267 23:58 23.03.2020
5969 Clouds -2 1010 87 0 9.64 267 23:38 23.03.2020
5970 Snow -2 1007 86 0 11.03 271 23:19 23.03.2020
5971 Snow -2 1007 86 0 11.03 271 22:44 23.03.2020
5972 Snow -2 1007 86 0 11.03 271 22:23 23.03.2020
5973 Snow -2 1007 86 0 11.03 271 21:55 23.03.2020
5974 Snow -2 1007 86 0 11.03 271 21:37 23.03.2020
5975 Snow -2 1007 86 0 11.03 271 21:18 23.03.2020
5976 Snow -2 1007 86 0 11.03 271 21:18 23.03.2020
5977 Snow -2 1007 86 0 11.03 271 20:44 23.03.2020
5978 Snow -2 1007 83 0 10.77 273 20:26 23.03.2020
5979 Snow -1 1006 94 0 15.34 261 19:59 23.03.2020
5980 Snow -1 1006 94 0 15.34 261 19:41 23.03.2020
5981 Snow -1 1006 94 0 15.34 261 19:22 23.03.2020
5982 Snow -1 1006 94 0 15.34 261 18:54 23.03.2020
5983 Snow -1 1006 94 0 15.34 261 18:36 23.03.2020
5984 Snow -1 1006 94 0 15.34 261 18:18 23.03.2020
5985 Snow -1 1006 94 0 15.34 261 17:41 23.03.2020
5986 Snow 0 1006 86 0 11.67 265 17:20 23.03.2020
5987 Snow 0 1006 86 0 11.67 265 16:44 23.03.2020
5988 Snow 0 1006 86 0 11.67 265 16:26 23.03.2020
5989 Snow 0 1006 86 0 11.67 265 15:59 23.03.2020
5990 Snow 0 1006 86 0 11.67 265 15:39 23.03.2020
5991 Snow 0 1006 86 0 11.67 265 15:19 23.03.2020
5992 Snow 0 1006 86 0 11.67 265 14:37 23.03.2020
5993 Snow -1 1007 93 0 12.31 258 14:19 23.03.2020
5994 Snow -1 1007 93 0 12.31 258 13:57 23.03.2020
5995 Snow -1 1007 93 0 12.31 258 13:38 23.03.2020
5996 Snow -1 1007 93 0 12.31 258 13:20 23.03.2020
5997 Snow -1 1007 90 0 12.9 262 12:43 23.03.2020
5998 Snow -1 1007 90 0 12.9 262 12:23 23.03.2020
5999 Snow -1 1007 90 0 12.9 262 11:56 23.03.2020
6000 Snow -1 1007 90 0 12.9 262 11:37 23.03.2020
6001 Snow -2 1007 88 0 13.36 249 11:19 23.03.2020
6002 Snow -2 1007 88 0 13.36 249 10:56 23.03.2020
6003 Snow -2 1007 88 0 13.36 249 10:36 23.03.2020
6004 Snow -2 1007 88 0 13.36 249 10:18 23.03.2020
6005 Snow -2 1007 88 0 13.36 249 09:42 23.03.2020
6006 Snow -2 1007 88 0 13.36 249 09:20 23.03.2020
6007 Snow -2 1007 88 0 13.36 249 08:38 23.03.2020
6008 Snow -3 1010 89 0 12.59 242 08:20 23.03.2020
6009 Snow -3 1010 89 0 12.59 242 07:54 23.03.2020
6010 Snow -3 1010 89 0 12.59 242 07:34 23.03.2020
6011 Snow -3 1010 89 0 12.59 242 06:58 23.03.2020
6012 Snow -3 1010 89 0 12.59 242 06:40 23.03.2020
6013 Snow -3 1010 89 0 12.59 242 05:44 23.03.2020
6014 Snow -4 1011 92 0 11.7 238 04:41 23.03.2020
6015 Snow -4 1011 92 0 11.7 238 02:59 23.03.2020
6016 Snow -6 1014 93 0 10.6 229 01:50 23.03.2020
6017 Snow -6 1013 93 0 10.8 227 00:50 23.03.2020
6018 Snow -6 1013 93 0 10.8 227 00:31 23.03.2020
6019 Snow -6 1013 93 0 10.8 227 23:45 22.03.2020
6020 Snow -6 1013 93 0 10.8 227 23:25 22.03.2020
6021 Clouds -10 1015 92 0 7.78 224 22:44 22.03.2020
6022 Clouds -10 1015 92 0 7.78 224 22:22 22.03.2020
6023 Clouds -10 1015 92 0 7.78 224 21:55 22.03.2020
6024 Clouds -10 1015 92 0 7.78 224 21:36 22.03.2020
6025 Clouds -10 1015 92 0 7.78 224 21:18 22.03.2020
6026 Clouds -10 1015 92 0 7.78 224 20:45 22.03.2020
6027 Clouds -10 1015 92 0 7.78 224 20:25 22.03.2020
6028 Clear -13 1017 83 0 5.15 245 19:58 22.03.2020
6029 Clear -13 1017 83 0 5.15 245 19:39 22.03.2020
6030 Clear -13 1017 83 0 5.15 245 19:20 22.03.2020
6031 Clear -13 1017 83 0 5.15 245 18:58 22.03.2020
6032 Clear -13 1017 83 0 5.15 245 18:40 22.03.2020
6033 Clear -13 1017 83 0 5.15 245 18:21 22.03.2020
6034 Clear -13 1017 83 0 5.15 245 17:57 22.03.2020
6035 Clear -13 1017 83 0 5.15 245 17:38 22.03.2020
6036 Clear -13 1016 88 0 4.33 271 17:20 22.03.2020
6037 Clear -13 1016 88 0 4.33 271 16:57 22.03.2020
6038 Clear -13 1016 88 0 4.33 271 16:39 22.03.2020
6039 -273 0 0 0 0 0 16:20 22.03.2020
6040 Clear -13 1016 88 0 4.33 271 15:40 22.03.2020
6041 Clear -13 1016 88 0 4.33 271 15:40 22.03.2020
6042 Clear -13 1016 88 0 4.33 271 15:21 22.03.2020
6043 Clear -13 1016 88 0 4.33 271 14:46 22.03.2020
6044 Clear -11 1016 89 0 3.94 276 14:19 22.03.2020
6045 Clear -11 1016 89 0 3.94 276 13:44 22.03.2020
6046 Clear -11 1016 89 0 4.04 284 13:20 22.03.2020
6047 Clear -11 1016 89 0 4.04 284 12:59 22.03.2020
6048 Clear -11 1016 89 0 4.04 284 12:41 22.03.2020
6049 Clear -11 1016 89 0 4.04 284 12:19 22.03.2020
6050 Clear -11 1016 89 0 4.04 284 11:43 22.03.2020
6051 Clear -11 1016 89 0 4.04 284 11:43 22.03.2020
6052 Clear -11 1016 89 0 4.04 284 11:25 22.03.2020
6053 Clear -10 1015 88 0 4.45 289 10:58 22.03.2020
6054 Clear -10 1015 88 0 4.45 289 10:40 22.03.2020
6055 Clear -10 1015 88 0 4.45 289 10:22 22.03.2020
6056 Clear -10 1015 88 0 4.45 289 10:22 22.03.2020
6057 Clear -10 1015 88 0 4.45 289 09:46 22.03.2020
6058 Clear -10 1015 88 0 4.45 289 09:46 22.03.2020
6059 Clear -10 1015 88 0 4.45 289 09:27 22.03.2020
6060 Clear -10 1015 88 0 4.45 289 08:48 22.03.2020
6061 Clear -10 1015 88 0 4.45 289 08:48 22.03.2020
6062 Clear -10 1015 88 0 4.45 289 08:30 22.03.2020
6063 Clear -12 1014 90 0 3.6 275 07:55 22.03.2020
6064 Clear -12 1014 90 0 3.6 275 07:37 22.03.2020
6065 Clear -12 1014 90 0 3.6 275 06:41 22.03.2020
6066 Clear -12 1014 90 0 3.6 275 05:47 22.03.2020
6067 Clear -14 1012 93 0 3.81 287 04:39 22.03.2020
6068 Clouds -14 1011 93 0 4.31 305 01:47 22.03.2020
6069 Clouds -15 1011 86 0 4.67 297 00:50 22.03.2020
6070 Clouds -15 1011 86 0 4.67 297 00:31 22.03.2020
6071 Clouds -15 1011 86 0 4.67 297 23:46 21.03.2020
6072 Clouds -15 1011 86 0 4.67 297 23:22 21.03.2020
6073 Clouds -15 1009 91 0 4.46 316 22:58 21.03.2020
6074 Clouds -15 1009 91 0 4.46 316 22:38 21.03.2020
6075 Clouds -15 1009 91 0 4.46 316 22:19 21.03.2020
6076 Clouds -15 1009 91 0 4.46 316 21:57 21.03.2020
6077 Clouds -15 1009 91 0 4.46 316 21:38 21.03.2020
6078 Clouds -15 1009 91 0 4.46 316 21:19 21.03.2020
6079 Clouds -15 1009 91 0 4.46 316 20:42 21.03.2020
6080 Clouds -15 1009 91 0 5.1 311 20:22 21.03.2020
6081 Clouds -13 1008 89 0 5.08 301 19:55 21.03.2020
6082 Clouds -13 1008 89 0 5.08 301 19:36 21.03.2020
6083 Clouds -13 1008 89 0 5.08 301 19:18 21.03.2020
6084 Clouds -13 1008 89 0 5.08 301 19:18 21.03.2020
6085 Clouds -13 1008 89 0 5.08 301 18:41 21.03.2020
6086 Clouds -13 1008 89 0 5.08 301 18:20 21.03.2020
6087 Clouds -13 1008 89 0 5.08 301 17:58 21.03.2020
6088 Clouds -13 1008 89 0 5.08 301 17:40 21.03.2020
6089 Clouds -13 1008 89 0 5.08 301 17:22 21.03.2020
6090 Clouds -14 1006 85 0 4.53 298 16:42 21.03.2020
6091 Clouds -14 1006 85 0 4.53 298 16:23 21.03.2020
6092 Clouds -14 1006 85 0 4.53 298 15:58 21.03.2020
6093 Clouds -14 1006 85 0 4.53 298 15:40 21.03.2020
6094 Clouds -14 1006 85 0 4.53 298 15:21 21.03.2020
6095 Clouds -14 1006 85 0 4.53 298 14:55 21.03.2020
6096 Clouds -14 1006 85 0 4.53 298 14:37 21.03.2020
6097 Clouds -10 1004 90 0 5.22 319 14:19 21.03.2020
6098 Clouds -10 1004 90 0 5.22 319 13:57 21.03.2020
6099 Clouds -10 1004 90 0 5.22 319 13:57 21.03.2020
6100 Clouds -10 1004 90 0 5.22 319 13:38 21.03.2020
6101 Clouds -11 1005 91 0 4.49 324 13:20 21.03.2020
6102 Clouds -11 1005 91 0 4.49 324 12:41 21.03.2020
6103 Clouds -11 1005 91 0 4.49 324 12:21 21.03.2020
6104 Clouds -11 1005 91 0 4.49 324 11:59 21.03.2020
6105 Clouds -11 1005 91 0 4.49 324 11:39 21.03.2020
6106 Clouds -11 1005 91 0 4.49 324 11:39 21.03.2020
6107 Clouds -12 1003 91 0 4.2 271 11:20 21.03.2020
6108 Clouds -12 1003 91 0 4.2 271 10:58 21.03.2020
6109 Clouds -12 1003 91 0 4.2 271 10:58 21.03.2020
6110 Clouds -12 1003 91 0 4.2 271 10:40 21.03.2020
6111 Clouds -12 1003 91 0 4.2 271 10:22 21.03.2020
6112 Clouds -12 1003 91 0 4.2 271 09:59 21.03.2020
6113 Clouds -12 1003 91 0 4.2 271 09:39 21.03.2020
6114 Clouds -12 1003 91 0 4.2 271 09:20 21.03.2020
6115 Clouds -12 1003 91 0 4.2 271 08:55 21.03.2020
6116 Clouds -12 1003 91 0 4.2 271 08:37 21.03.2020
6117 Clouds -15 1001 92 0 4.21 257 08:19 21.03.2020
6118 Clouds -16 1002 93 0 3.83 249 07:37 21.03.2020
6119 Clouds -16 1002 93 0 3.83 249 07:19 21.03.2020
6120 Clouds -16 1002 93 0 3.83 249 06:44 21.03.2020
6121 Clouds -16 1002 93 0 3.83 249 06:24 21.03.2020
6122 Clouds -16 1002 93 0 3.83 249 05:40 21.03.2020
6123 Clear -19 1000 95 0 2.99 266 03:49 21.03.2020
6124 Clear -19 1000 95 0 2.99 266 02:37 21.03.2020
6125 Clouds -20 1000 97 0 3.49 298 01:44 21.03.2020
6126 Clouds -21 1000 96 0 3.1 292 01:23 21.03.2020
6127 Clouds -21 1000 96 0 3.1 292 00:39 21.03.2020
6128 Clouds -21 1000 96 0 3.1 292 00:21 21.03.2020
6129 Clouds -21 1000 96 0 3.1 292 23:42 20.03.2020
6130 Clouds -21 1000 96 0 3.1 292 23:22 20.03.2020
6131 Clouds -19 998 96 0 4.19 321 22:44 20.03.2020
6132 Clouds -19 998 96 0 4.19 321 22:25 20.03.2020
6133 Clouds -19 998 96 0 4.19 321 21:58 20.03.2020
6134 Clouds -19 998 96 0 4.19 321 21:40 20.03.2020
6135 Clouds -19 998 96 0 4.19 321 21:20 20.03.2020
6136 Clouds -19 998 96 0 4.19 321 20:58 20.03.2020
6137 Clouds -19 998 96 0 4.19 321 20:40 20.03.2020
6138 Snow -17 997 95 0 5.35 334 20:20 20.03.2020
6139 Snow -17 997 95 0 5.35 334 19:48 20.03.2020
6140 Snow -17 997 95 0 5.35 334 19:20 20.03.2020
6141 Snow -17 997 95 0 5.35 334 18:58 20.03.2020
6142 Snow -17 997 95 0 5.35 334 18:38 20.03.2020
6143 Snow -17 997 95 0 5.35 334 18:20 20.03.2020
6144 Snow -17 997 95 0 5.35 334 17:56 20.03.2020
6145 Snow -17 997 95 0 5.35 334 17:37 20.03.2020
6146 Snow -17 996 94 0 5.94 336 17:18 20.03.2020
6147 Snow -17 996 94 0 5.94 336 16:41 20.03.2020
6148 Snow -17 996 94 0 5.94 336 16:21 20.03.2020
6149 Snow -17 996 94 0 5.94 336 15:45 20.03.2020
6150 Snow -17 996 94 0 5.94 336 15:23 20.03.2020
6151 Snow -17 996 94 0 5.94 336 14:59 20.03.2020
6152 Snow -17 996 94 0 5.94 336 14:59 20.03.2020
6153 Snow -17 996 94 0 5.94 336 14:41 20.03.2020
6154 Snow -17 996 94 0 5.94 336 14:20 20.03.2020
6155 Snow -16 995 93 0 5.07 348 13:48 20.03.2020
6156 Snow -16 995 93 0 5.07 348 13:24 20.03.2020
6157 Snow -16 995 93 0 5.07 348 13:24 20.03.2020
6158 Clouds -16 996 93 0 4.63 339 12:58 20.03.2020
6159 Clouds -16 996 93 0 4.63 339 12:38 20.03.2020
6160 Clouds -16 996 93 0 4.63 339 12:19 20.03.2020
6161 Clouds -16 996 93 0 4.63 339 11:39 20.03.2020
6162 Clouds -16 996 93 0 4.63 339 11:20 20.03.2020
6163 Snow -17 995 92 0 4.11 5 10:55 20.03.2020
6164 Snow -17 995 92 0 4.11 5 10:37 20.03.2020
6165 Snow -17 995 92 0 4.11 5 10:18 20.03.2020
6166 Snow -17 995 92 0 4.11 5 10:18 20.03.2020
6167 Snow -17 995 92 0 4.11 5 09:45 20.03.2020
6168 Snow -17 995 92 0 4.11 5 09:21 20.03.2020
6169 Snow -17 995 92 0 4.11 5 08:57 20.03.2020
6170 Snow -17 995 92 0 4.11 5 08:38 20.03.2020
6171 Snow -18 995 96 0 4.47 54 08:18 20.03.2020
6172 Snow -18 994 95 0 3.95 50 07:39 20.03.2020
6173 Snow -18 994 95 0 3.95 50 07:21 20.03.2020
6174 Snow -18 994 95 0 3.95 50 06:42 20.03.2020
6175 Snow -18 994 95 0 3.95 50 06:18 20.03.2020
6176 Snow -19 994 98 0 5.26 80 04:38 20.03.2020
6177 Snow -19 994 98 0 5.26 80 02:51 20.03.2020
6178 Snow -19 996 100 0 6.15 85 01:50 20.03.2020
6179 Clouds -19 995 100 0 6.38 93 00:45 20.03.2020
6180 Clouds -19 995 100 0 6.38 93 00:23 20.03.2020
6181 Clouds -19 995 100 0 6.38 93 23:42 19.03.2020
6182 Clouds -19 995 100 0 6.38 93 23:23 19.03.2020
6183 Clouds -20 995 99 0 6.94 97 22:41 19.03.2020
6184 Clouds -20 995 99 0 6.94 97 22:23 19.03.2020
6185 Clouds -20 995 99 0 6.94 97 21:58 19.03.2020
6186 Clouds -20 995 99 0 6.94 97 21:38 19.03.2020
6187 Clouds -20 995 99 0 6.94 97 21:19 19.03.2020
6188 Clouds -20 995 99 0 6.94 97 20:44 19.03.2020
6189 Clouds -19 996 100 0 6.79 99 20:25 19.03.2020
6190 Clouds -19 997 100 0 7.42 98 19:59 19.03.2020
6191 Clouds -19 997 100 0 7.42 98 19:39 19.03.2020
6192 Clouds -19 997 100 0 7.42 98 19:21 19.03.2020
6193 Clouds -19 997 100 0 7.42 98 18:58 19.03.2020
6194 Clouds -19 997 100 0 7.42 98 18:40 19.03.2020
6195 Clouds -19 997 100 0 7.42 98 18:22 19.03.2020
6196 Clouds -19 997 100 0 7.42 98 17:54 19.03.2020
6197 Clouds -19 997 100 0 7.42 98 17:36 19.03.2020
6198 Clouds -18 997 97 0 7.81 93 17:18 19.03.2020
6199 Clouds -18 997 97 0 7.81 93 16:41 19.03.2020
6200 Clouds -18 997 97 0 7.81 93 16:21 19.03.2020
6201 Clouds -18 997 97 0 7.81 93 15:42 19.03.2020
6202 Clouds -18 997 97 0 7.81 93 15:23 19.03.2020
6203 Clouds -18 997 97 0 7.81 93 14:43 19.03.2020
6204 Clouds -18 997 97 0 7.81 93 14:23 19.03.2020
6205 Clouds -17 997 92 0 8.3 84 13:57 19.03.2020
6206 Clouds -17 997 92 0 8.3 84 13:37 19.03.2020
6207 Clouds -18 999 94 0 7.78 86 13:18 19.03.2020
6208 Clouds -18 999 94 0 7.78 86 12:41 19.03.2020
6209 Clouds -18 999 94 0 7.78 86 12:23 19.03.2020
6210 Clouds -18 999 94 0 7.78 86 11:58 19.03.2020
6211 Clouds -18 999 94 0 7.78 86 11:40 19.03.2020
6212 Clouds -18 999 94 0 7.78 86 11:22 19.03.2020
6213 Clouds -16 998 95 0 7.69 76 10:42 19.03.2020
6214 Clouds -16 998 95 0 7.69 76 10:21 19.03.2020
6215 Clouds -16 998 95 0 7.69 76 09:58 19.03.2020
6216 Clouds -16 998 95 0 7.69 76 09:38 19.03.2020
6217 Clouds -16 998 95 0 7.69 76 09:19 19.03.2020
6218 Clouds -16 998 95 0 7.69 76 08:45 19.03.2020
6219 Clouds -16 998 95 0 7.69 76 08:21 19.03.2020
6220 Clouds -15 998 97 0 5.45 69 07:47 19.03.2020
6221 Clouds -15 998 97 0 5.45 69 07:28 19.03.2020
6222 Clouds -15 998 97 0 5.45 69 06:49 19.03.2020
6223 Clouds -15 998 97 0 5.45 69 05:52 19.03.2020
6224 Clouds -14 996 94 0 3.01 53 05:19 19.03.2020
6225 Clouds -14 996 94 0 3.01 53 04:40 19.03.2020
6226 Clouds -14 996 94 0 3.01 53 03:20 19.03.2020
6227 Clouds -13 995 93 0 2.74 29 01:27 19.03.2020
6228 Clouds -13 995 93 0 2.74 29 00:35 19.03.2020
6229 Clouds -13 995 93 0 2.74 29 23:57 18.03.2020
6230 Clouds -13 995 93 0 2.74 29 23:31 18.03.2020
6231 Clouds -11 994 89 0 1.52 343 22:58 18.03.2020
6232 Clouds -11 994 89 0 1.52 343 22:40 18.03.2020
6233 Clouds -11 994 89 0 1.52 343 22:21 18.03.2020
6234 Clouds -11 994 89 0 1.52 343 21:43 18.03.2020
6235 Clouds -11 994 89 0 1.52 343 21:43 18.03.2020
6236 Clouds -11 994 89 0 1.52 343 21:22 18.03.2020
6237 Clouds -11 994 89 0 1.52 343 20:59 18.03.2020
6238 Clouds -11 994 89 0 1.52 343 20:40 18.03.2020
6239 Clouds -11 994 89 0 1.52 343 20:40 18.03.2020
6240 Clouds -10 993 93 0 2.25 250 20:20 18.03.2020
6241 Clouds -10 993 93 0 2.25 250 19:58 18.03.2020
6242 Clouds -10 993 93 0 2.25 250 19:39 18.03.2020
6243 Clouds -10 993 93 0 2.25 250 19:20 18.03.2020
6244 Clouds -10 993 93 0 2.25 250 18:42 18.03.2020
6245 Clouds -10 993 93 0 2.25 250 18:21 18.03.2020
6246 Clouds -10 993 93 0 2.25 250 17:59 18.03.2020
6247 Clouds -10 993 93 0 2.25 250 17:59 18.03.2020
6248 Clouds -10 993 93 0 2.25 250 17:41 18.03.2020
6249 Clouds -10 993 93 0 2.25 250 17:22 18.03.2020
6250 Clouds -10 992 96 0 2.18 245 16:58 18.03.2020
6251 Clouds -10 992 96 0 2.18 245 16:40 18.03.2020
6252 Clouds -10 992 96 0 2.18 245 16:20 18.03.2020
6253 Clouds -10 992 96 0 2.18 245 16:20 18.03.2020
6254 Clouds -10 992 96 0 2.18 245 15:45 18.03.2020
6255 Clouds -10 992 96 0 2.18 245 15:23 18.03.2020
6256 Clouds -10 992 96 0 2.18 245 14:57 18.03.2020
6257 Clouds -10 992 96 0 2.18 245 14:39 18.03.2020
6258 Clouds -9 992 84 0 2.63 249 14:20 18.03.2020
6259 Clouds -9 992 84 0 2.63 249 13:39 18.03.2020
6260 Clouds -8 993 81 0 3.66 276 13:19 18.03.2020
6261 Clouds -8 993 81 0 3.66 276 12:42 18.03.2020
6262 Clouds -8 993 81 0 3.66 276 12:20 18.03.2020
6263 Clouds -8 993 81 0 3.66 276 11:41 18.03.2020
6264 Clouds -8 993 81 0 3.66 276 11:22 18.03.2020
6265 Clouds -8 992 77 0 3.79 285 10:59 18.03.2020
6266 Clouds -8 992 77 0 3.79 285 10:39 18.03.2020
6267 Clouds -8 992 77 0 3.79 285 10:20 18.03.2020
6268 Clouds -8 992 77 0 3.79 285 09:59 18.03.2020
6269 Clouds -8 992 77 0 3.79 285 09:39 18.03.2020
6270 Clouds -8 992 77 0 3.79 285 09:21 18.03.2020
6271 Clouds -8 992 77 0 3.79 285 08:40 18.03.2020
6272 Clouds -8 992 75 0 4.51 288 08:21 18.03.2020
6273 Clouds -8 992 73 0 5.58 282 07:49 18.03.2020
6274 Clouds -8 992 73 0 5.58 282 07:31 18.03.2020
6275 Clouds -8 992 73 0 5.58 282 06:54 18.03.2020
6276 Clouds -8 992 73 0 5.58 282 06:35 18.03.2020
6277 Clouds -8 992 73 0 5.58 282 05:37 18.03.2020
6278 Clouds -9 993 72 0 6.61 295 04:32 18.03.2020
6279 Clouds -9 993 72 0 6.61 295 03:21 18.03.2020
6280 Clouds -9 993 72 0 6.61 295 02:35 18.03.2020
6281 Clouds -8 992 72 0 8.61 288 01:32 18.03.2020
6282 Clouds -8 992 71 0 8.21 287 00:42 18.03.2020
6283 Clouds -11 992 83 0 5.72 280 00:21 18.03.2020
6284 Clouds -8 992 71 0 8.21 287 23:41 17.03.2020
6285 Clouds -7 990 71 0 10.42 283 23:20 17.03.2020
6286 Clouds -9 989 77 0 9 290 22:42 17.03.2020
6287 Clouds -7 990 71 0 10.42 283 22:24 17.03.2020
6288 Clouds -7 990 71 0 10.42 283 21:43 17.03.2020
6289 Clouds -7 990 71 0 10.42 283 21:23 17.03.2020
6290 Clouds -7 990 71 0 10.42 283 20:57 17.03.2020
6291 Clouds -7 990 71 0 10.42 283 20:37 17.03.2020
6292 Clouds -8 988 93 0 7.83 226 20:19 17.03.2020
6293 Clouds -8 988 93 0 7.83 226 19:41 17.03.2020
6294 Clouds -8 988 93 0 7.83 226 19:18 17.03.2020
6295 Clouds -8 988 93 0 7.83 226 18:57 17.03.2020
6296 Clouds -8 988 93 0 7.83 226 18:39 17.03.2020
6297 Clouds -8 988 93 0 7.83 226 18:21 17.03.2020
6298 Clouds -8 988 93 0 7.83 226 18:21 17.03.2020
6299 Clouds -8 988 93 0 7.83 226 17:55 17.03.2020
6300 Clouds -8 988 93 0 7.83 226 17:36 17.03.2020
6301 Clouds -6 989 84 0 6.19 294 17:18 17.03.2020
6302 Clouds -6 989 84 0 6.19 294 16:41 17.03.2020
6303 Clouds -6 989 84 0 6.19 294 16:19 17.03.2020
6304 Clouds -6 989 84 0 6.19 294 15:44 17.03.2020
6305 Clouds -6 989 84 0 6.19 294 15:22 17.03.2020
6306 Clouds -6 989 84 0 6.19 294 14:44 17.03.2020
6307 Clouds -6 989 84 0 6.19 294 14:24 17.03.2020
6308 Clouds -8 989 88 0 4.36 250 13:57 17.03.2020
6309 Clouds -8 989 88 0 4.36 250 13:39 17.03.2020
6310 Clouds -8 988 88 0 4.73 239 13:21 17.03.2020
6311 Clouds -8 988 88 0 4.73 239 13:21 17.03.2020
6312 Clouds -9 988 87 0 4.17 256 12:43 17.03.2020
6313 Clouds -8 988 88 0 4.73 239 12:24 17.03.2020
6314 Clouds -8 988 88 0 4.73 239 11:48 17.03.2020
6315 Clouds -9 988 87 0 4.17 256 11:29 17.03.2020
6316 Clouds -7 986 88 0 4.79 319 10:58 17.03.2020
6317 Clouds -7 986 88 0 4.79 319 10:40 17.03.2020
6318 Clouds -6 987 91 0 3.58 305 10:22 17.03.2020
6319 Clouds -6 987 91 0 3.58 305 09:59 17.03.2020
6320 Clouds -6 987 91 0 3.58 305 09:40 17.03.2020
6321 Clouds -6 987 91 0 3.58 305 09:19 17.03.2020
6322 Clouds -6 987 91 0 3.58 305 08:48 17.03.2020
6323 Clouds -7 986 88 0 4.79 319 08:23 17.03.2020
6324 Snow -6 985 92 0 2.6 323 07:56 17.03.2020
6325 Snow -6 985 92 0 2.6 323 07:38 17.03.2020
6326 Snow -6 985 92 0 2.6 323 07:19 17.03.2020
6327 Snow -6 985 92 0 2.6 323 06:38 17.03.2020
6328 Snow -6 985 92 0 2.6 323 05:58 17.03.2020
6329 Snow -7 986 94 0 2.41 231 03:58 17.03.2020
6330 Snow -7 986 94 0 2.41 231 03:58 17.03.2020
6331 Snow -7 986 94 0 2.41 231 02:54 17.03.2020
6332 Clouds -8 989 93 0 5.18 224 01:49 17.03.2020
6333 Clouds -8 989 93 0 5.18 224 01:25 17.03.2020
6334 Clouds -9 989 93 0 4.8 222 00:46 17.03.2020
6335 Clouds -9 989 93 0 4.8 222 23:48 16.03.2020
6336 Clouds -9 989 93 0 4.8 222 23:48 16.03.2020
6337 Clouds -9 989 93 0 4.8 222 23:30 16.03.2020
6338 Clouds -8 990 94 0 6 228 22:42 16.03.2020
6339 Clouds -8 990 94 0 6 228 22:24 16.03.2020
6340 Clouds -8 990 94 0 6 228 21:58 16.03.2020
6341 Clouds -8 990 94 0 6 228 21:40 16.03.2020
6342 Clouds -8 990 94 0 6 228 21:21 16.03.2020
6343 Clouds -8 990 94 0 6 228 20:56 16.03.2020
6344 Clouds -8 990 94 0 6 228 20:37 16.03.2020
6345 Clouds -7 991 91 0 7.48 219 20:19 16.03.2020
6346 Clouds -7 991 91 0 7.48 219 19:41 16.03.2020
6347 Clouds -7 991 91 0 7.48 219 19:20 16.03.2020
6348 Clouds -7 991 91 0 7.48 219 18:43 16.03.2020
6349 Clouds -7 991 91 0 7.48 219 18:22 16.03.2020
6350 Clouds -7 991 91 0 7.48 219 17:56 16.03.2020
6351 Clouds -7 991 91 0 7.48 219 17:56 16.03.2020
6352 Clouds -7 991 91 0 7.48 219 17:37 16.03.2020
6353 Clouds -5 991 89 0 8.16 229 17:18 16.03.2020
6354 Clouds -5 991 89 0 8.16 229 16:45 16.03.2020
6355 Clouds -5 991 89 0 8.16 229 16:27 16.03.2020
6356 Clouds -5 991 89 0 8.16 229 15:46 16.03.2020
6357 Clouds -5 991 89 0 8.16 229 15:28 16.03.2020
6358 Clouds -5 991 89 0 8.16 229 14:49 16.03.2020
6359 Clouds -5 991 89 0 8.16 229 14:28 16.03.2020
6360 Snow -4 991 89 0 9.84 234 13:59 16.03.2020
6361 Snow -4 991 89 0 9.84 234 13:41 16.03.2020
6362 Snow -4 991 89 0 9.84 234 13:22 16.03.2020
6363 Snow -4 992 90 0 10.09 233 12:45 16.03.2020
6364 Snow -4 992 90 0 10.09 233 12:24 16.03.2020
6365 Snow -4 992 90 0 10.09 233 11:56 16.03.2020
6366 Snow -4 992 90 0 10.09 233 11:37 16.03.2020
6367 Snow -4 991 91 0 11.21 242 11:18 16.03.2020
6368 Snow -4 991 91 0 11.21 242 10:40 16.03.2020
6369 Snow -4 991 91 0 11.21 242 10:19 16.03.2020
6370 Snow -4 991 91 0 11.21 242 09:42 16.03.2020
6371 Snow -4 991 91 0 11.21 242 09:24 16.03.2020
6372 Snow -4 991 91 0 11.21 242 08:53 16.03.2020
6373 Snow -4 991 91 0 11.21 242 08:25 16.03.2020
6374 Snow -8 992 87 0 13.21 212 07:49 16.03.2020
6375 Snow -8 992 87 0 13.21 212 07:25 16.03.2020
6376 Snow -8 992 87 0 13.21 212 06:54 16.03.2020
6377 Snow -8 992 87 0 13.21 212 06:25 16.03.2020
6378 Clouds -13 995 87 0 12.36 193 04:55 16.03.2020
6379 Clouds -13 995 87 0 12.36 193 02:42 16.03.2020
6380 Clouds -13 999 80 0 11.98 191 00:52 16.03.2020
6381 Clouds -13 999 80 0 11.98 191 00:33 16.03.2020
6382 Clouds -13 999 80 0 11.98 191 23:46 15.03.2020
6383 Clouds -13 1002 76 0 10.05 204 23:20 15.03.2020
6384 Clouds -13 1002 76 0 10.05 204 22:42 15.03.2020
6385 Clouds -13 1002 76 0 10.05 204 22:22 15.03.2020
6386 Clouds -13 1002 76 0 10.05 204 22:22 15.03.2020
6387 Clouds -13 1002 76 0 10.05 204 21:56 15.03.2020
6388 Clouds -13 1002 76 0 10.05 204 21:56 15.03.2020
6389 Clouds -13 1002 76 0 10.05 204 21:37 15.03.2020
6390 Clouds -13 1002 76 0 10.05 204 21:18 15.03.2020
6391 Clouds -13 1002 76 0 10.05 204 20:42 15.03.2020
6392 Clouds -13 1003 80 0 9.16 217 20:20 15.03.2020
6393 Clouds -13 1004 82 0 8.9 217 19:58 15.03.2020
6394 Clouds -13 1004 82 0 8.9 217 19:38 15.03.2020
6395 Clouds -13 1004 82 0 8.9 217 19:19 15.03.2020
6396 Clouds -13 1004 82 0 8.9 217 18:55 15.03.2020
6397 Clouds -13 1004 82 0 8.9 217 18:37 15.03.2020
6398 Clouds -13 1004 82 0 8.9 217 18:19 15.03.2020
6399 Clouds -13 1004 82 0 8.9 217 17:41 15.03.2020
6400 Clouds -13 1004 82 0 8.9 217 17:21 15.03.2020
6401 Clear -15 1005 85 0 6.13 208 16:58 15.03.2020
6402 Clear -15 1005 85 0 6.13 208 16:58 15.03.2020
6403 Clear -15 1005 85 0 6.13 208 16:38 15.03.2020
6404 Clear -15 1005 85 0 6.13 208 16:19 15.03.2020
6405 Clear -15 1005 85 0 6.13 208 15:45 15.03.2020
6406 Clear -15 1005 85 0 6.13 208 15:27 15.03.2020
6407 Clear -15 1005 85 0 6.13 208 14:57 15.03.2020
6408 Clear -15 1005 85 0 6.13 208 14:38 15.03.2020
6409 Clear -14 1005 84 0 3.89 239 14:18 15.03.2020
6410 Clear -14 1005 84 0 3.89 239 14:18 15.03.2020
6411 Clear -14 1005 84 0 3.89 239 13:54 15.03.2020
6412 Clear -14 1005 84 0 3.89 239 13:36 15.03.2020
6413 Clear -14 1005 85 0 4.3 240 13:18 15.03.2020
6414 Clear -14 1005 84 0 3.89 239 13:18 15.03.2020
6415 Clear -14 1005 85 0 4.3 240 12:39 15.03.2020
6416 Clear -14 1005 85 0 4.3 240 12:21 15.03.2020
6417 Clear -14 1005 85 0 4.3 240 11:43 15.03.2020
6418 Clear -14 1005 85 0 4.3 240 11:24 15.03.2020
6419 Clear -13 1003 83 0 4.11 277 10:57 15.03.2020
6420 Clear -13 1003 83 0 4.11 277 10:39 15.03.2020
6421 Clear -13 1003 83 0 4.11 277 10:21 15.03.2020
6422 Clear -13 1003 83 0 4.11 277 09:42 15.03.2020
6423 Clear -13 1003 83 0 4.11 277 09:23 15.03.2020
6424 Clear -13 1003 83 0 4.11 277 08:58 15.03.2020
6425 Clear -13 1003 83 0 4.11 277 08:40 15.03.2020
6426 Clouds -16 1001 90 0 3.58 308 08:18 15.03.2020
6427 Clouds -16 1001 90 0 3.58 308 07:44 15.03.2020
6428 Clouds -16 1001 90 0 3.58 308 06:59 15.03.2020
6429 Clouds -16 1001 90 0 3.58 308 06:35 15.03.2020
6430 Clouds -16 1001 90 0 3.58 308 05:46 15.03.2020
6431 Clouds -16 998 95 0 4.91 288 04:49 15.03.2020
6432 Clouds -16 998 95 0 4.91 288 04:29 15.03.2020
6433 Clouds -16 998 95 0 4.91 288 03:55 15.03.2020
6434 Clouds -16 998 95 0 4.91 288 02:48 15.03.2020
6435 Clouds -16 996 78 0 7.23 237 01:56 15.03.2020
6436 Clouds -15 996 81 0 8.1 242 00:51 15.03.2020
6437 Clouds -15 996 81 0 8.1 242 00:28 15.03.2020
6438 Clouds -15 996 81 0 8.1 242 23:58 14.03.2020
6439 Clouds -15 996 81 0 8.1 242 23:37 14.03.2020
6440 Clouds -16 994 81 0 4.13 234 23:19 14.03.2020
6441 Clouds -16 994 81 0 4.13 234 22:44 14.03.2020
6442 Clouds -16 994 81 0 4.13 234 22:26 14.03.2020
6443 Clouds -16 994 81 0 4.13 234 21:57 14.03.2020
6444 Clouds -16 994 81 0 4.13 234 21:37 14.03.2020
6445 Clouds -16 994 81 0 4.13 234 21:19 14.03.2020
6446 Clouds -16 994 81 0 4.13 234 21:19 14.03.2020
6447 Clouds -16 994 81 0 4.13 234 20:59 14.03.2020
6448 Clouds -16 994 81 0 4.13 234 20:41 14.03.2020
6449 Clouds -15 993 80 0 1.51 336 20:20 14.03.2020
6450 Clouds -17 993 81 0 2 260 20:20 14.03.2020
6451 Clouds -15 993 80 0 1.51 336 19:58 14.03.2020
6452 Clouds -15 993 80 0 1.51 336 19:39 14.03.2020
6453 Clouds -15 993 80 0 1.51 336 19:19 14.03.2020
6454 Clouds -15 993 80 0 1.51 336 18:37 14.03.2020
6455 Clouds -15 993 80 0 1.51 336 18:19 14.03.2020
6456 Clouds -15 993 80 0 1.51 336 17:40 14.03.2020
6457 Clouds -15 993 80 0 1.51 336 17:21 14.03.2020
6458 Clouds -15 992 79 0 4.04 8 16:41 14.03.2020
6459 Clouds -15 992 79 0 4.04 8 16:23 14.03.2020
6460 Clouds -15 992 79 0 4.04 8 15:59 14.03.2020
6461 Clouds -15 992 79 0 4.04 8 15:27 14.03.2020
6462 Clouds -15 992 79 0 4.04 8 14:59 14.03.2020
6463 Clouds -15 992 79 0 4.04 8 14:37 14.03.2020
6464 Clouds -14 989 77 0 5.69 12 14:19 14.03.2020
6465 Clouds -14 989 77 0 5.69 12 13:54 14.03.2020
6466 Clouds -14 989 77 0 5.69 12 13:36 14.03.2020
6467 Clouds -14 989 77 0 5.69 12 13:18 14.03.2020
6468 Clouds -14 989 75 0 6 7 12:42 14.03.2020
6469 Clouds -14 989 75 0 6 7 12:23 14.03.2020
6470 Clouds -14 989 75 0 6 7 11:43 14.03.2020
6471 Clouds -14 989 75 0 6 7 11:25 14.03.2020
6472 Clouds -13 986 72 0 6.61 11 10:47 14.03.2020
6473 Clouds -13 986 72 0 6.61 11 10:47 14.03.2020
6474 Clouds -13 986 72 0 6.61 11 10:28 14.03.2020
6475 Clouds -13 986 72 0 6.61 11 09:59 14.03.2020
6476 Clouds -13 986 72 0 6.61 11 09:40 14.03.2020
6477 Clouds -13 986 72 0 6.61 11 09:20 14.03.2020
6478 Clouds -13 986 72 0 6.61 11 08:46 14.03.2020
6479 Clouds -13 985 79 0 7.19 11 08:26 14.03.2020
6480 Clouds -13 983 84 0 7.4 17 07:40 14.03.2020
6481 Clouds -13 983 84 0 7.4 17 07:21 14.03.2020
6482 Clouds -13 983 84 0 7.4 17 06:55 14.03.2020
6483 Clouds -13 983 84 0 7.4 17 06:34 14.03.2020
6484 Clouds -13 981 92 0 6.99 8 04:55 14.03.2020
6485 Clouds -13 981 92 0 6.99 8 03:34 14.03.2020
6486 Clouds -13 981 92 0 6.99 8 02:48 14.03.2020
6487 Snow -11 978 90 0 7.51 356 01:46 14.03.2020
6488 Snow -11 977 90 0 8.2 350 00:34 14.03.2020
6489 Snow -11 977 90 0 8.2 350 23:42 13.03.2020
6490 Snow -11 977 90 0 8.2 350 23:23 13.03.2020
6491 Snow -9 973 90 0 8.78 337 22:44 13.03.2020
6492 Snow -9 973 90 0 8.78 337 22:22 13.03.2020
6493 Snow -9 973 90 0 8.78 337 21:41 13.03.2020
6494 Snow -9 973 90 0 8.78 337 21:19 13.03.2020
6495 Snow -9 973 90 0 8.78 337 20:43 13.03.2020
6496 Snow -10 973 90 0 7.88 332 20:23 13.03.2020
6497 Snow -8 969 91 0 9.55 339 19:58 13.03.2020
6498 Snow -8 969 91 0 9.55 339 19:39 13.03.2020
6499 Snow -8 969 91 0 9.55 339 19:19 13.03.2020
6500 Snow -8 969 91 0 9.55 339 18:43 13.03.2020
6501 Snow -8 969 91 0 9.55 339 18:23 13.03.2020
6502 Snow -8 969 91 0 9.55 339 17:43 13.03.2020
6503 Snow -8 969 91 0 9.55 339 17:21 13.03.2020
6504 Snow -2 966 96 0 8.4 227 16:57 13.03.2020
6505 Snow -2 966 96 0 8.4 227 16:38 13.03.2020
6506 Snow -2 966 96 0 8.4 227 16:20 13.03.2020
6507 Snow -2 966 96 0 8.4 227 15:45 13.03.2020
6508 Snow -2 966 96 0 8.4 227 15:22 13.03.2020
6509 Snow -2 966 96 0 8.4 227 14:58 13.03.2020
6510 Snow -2 966 96 0 8.4 227 14:40 13.03.2020
6511 Snow -2 966 96 0 8.4 227 14:21 13.03.2020
6512 Snow 0 965 95 0 10.73 222 13:42 13.03.2020
6513 Snow 0 965 95 0 10.73 222 13:24 13.03.2020
6514 Snow 0 966 95 0 10.1 221 12:59 13.03.2020
6515 Snow 0 966 95 0 10.1 221 12:38 13.03.2020
6516 Snow 0 966 95 0 10.1 221 12:19 13.03.2020
6517 Snow 0 966 95 0 10.1 221 11:55 13.03.2020
6518 Snow 0 966 95 0 10.1 221 11:36 13.03.2020
6519 Snow 0 966 97 0 11.14 219 11:18 13.03.2020
6520 Snow 0 966 97 0 11.14 219 10:46 13.03.2020
6521 Snow 0 966 97 0 11.14 219 10:25 13.03.2020
6522 Snow 0 966 97 0 11.14 219 09:48 13.03.2020
6523 Snow 0 966 97 0 11.14 219 09:28 13.03.2020
6524 Snow 0 966 97 0 11.14 219 08:59 13.03.2020
6525 Snow 0 966 97 0 11.14 219 08:38 13.03.2020
6526 Snow 0 968 98 0 6.78 176 08:20 13.03.2020
6527 Snow 0 968 98 0 5.84 164 07:44 13.03.2020
6528 Snow 0 968 98 0 5.84 164 07:25 13.03.2020
6529 Snow 0 968 98 0 5.84 164 06:46 13.03.2020
6530 Snow 0 968 98 0 5.84 164 06:21 13.03.2020
6531 Snow 0 968 98 0 5.84 164 05:45 13.03.2020
6532 Snow -2 971 97 0 4.39 111 04:57 13.03.2020
6533 Snow -2 971 97 0 4.39 111 04:25 13.03.2020
6534 Snow -2 971 97 0 4.39 111 02:42 13.03.2020
6535 Snow -4 976 96 0 4.91 127 01:37 13.03.2020
6536 Snow -3 975 96 0 4.53 123 01:18 13.03.2020
6537 Snow -3 975 96 0 4.53 123 00:39 13.03.2020
6538 Snow -3 975 96 0 4.53 123 00:18 13.03.2020
6539 Snow -3 975 96 0 4.53 123 23:38 12.03.2020
6540 Snow -4 979 95 0 4.62 131 23:19 12.03.2020
6541 Snow -4 979 95 0 4.62 131 22:44 12.03.2020
6542 Snow -4 979 95 0 4.62 131 22:25 12.03.2020
6543 Snow -4 979 95 0 4.62 131 21:55 12.03.2020
6544 Snow -4 979 95 0 4.62 131 21:37 12.03.2020
6545 Snow -4 979 95 0 4.62 131 21:18 12.03.2020
6546 Snow -4 979 95 0 4.62 131 20:42 12.03.2020
6547 Snow -6 982 94 0 5.55 133 20:20 12.03.2020
6548 Snow -5 983 95 0 6.31 131 19:42 12.03.2020
6549 Snow -5 983 95 0 6.31 131 19:21 12.03.2020
6550 Snow -5 983 95 0 6.31 131 18:59 12.03.2020
6551 Snow -5 983 95 0 6.31 131 18:41 12.03.2020
6552 Snow -5 983 95 0 6.31 131 18:22 12.03.2020
6553 Snow -5 983 95 0 6.31 131 17:41 12.03.2020
6554 Clouds -4 987 85 0 6 148 17:22 12.03.2020
6555 Clouds -4 987 85 0 6 148 16:59 12.03.2020
6556 Clouds -4 987 85 0 6 148 16:40 12.03.2020
6557 Clouds -4 987 85 0 6 148 16:22 12.03.2020
6558 Clouds -4 987 85 0 6 148 15:48 12.03.2020
6559 Clouds -4 987 85 0 6 148 15:28 12.03.2020
6560 Clouds -4 987 85 0 6 148 14:55 12.03.2020
6561 Clouds -4 987 85 0 6 148 14:37 12.03.2020
6562 Clouds -5 990 88 0 6.79 148 14:18 12.03.2020
6563 Clouds -5 990 88 0 6.79 148 13:38 12.03.2020
6564 Clouds -5 990 88 0 6.79 148 13:20 12.03.2020
6565 Clouds -4 990 87 0 6.88 150 12:43 12.03.2020
6566 Clouds -4 990 87 0 6.88 150 12:24 12.03.2020
6567 Clouds -4 990 87 0 6.88 150 11:59 12.03.2020
6568 Clouds -4 990 87 0 6.88 150 11:59 12.03.2020
6569 Clouds -4 990 87 0 6.88 150 11:39 12.03.2020
6570 Clouds -4 990 87 0 6.88 150 11:21 12.03.2020
6571 Snow -9 994 90 0 8.66 134 10:59 12.03.2020
6572 Snow -9 994 90 0 8.66 134 10:41 12.03.2020
6573 Snow -9 994 90 0 8.66 134 10:23 12.03.2020
6574 Snow -9 994 90 0 8.66 134 09:49 12.03.2020
6575 Snow -9 994 90 0 8.66 134 09:29 12.03.2020
6576 Snow -9 994 90 0 8.66 134 08:55 12.03.2020
6577 Snow -9 994 90 0 8.66 134 08:37 12.03.2020
6578 Clouds -11 998 89 0 10.27 126 08:18 12.03.2020
6579 Clouds -11 998 89 0 10.27 126 07:47 12.03.2020
6580 Clouds -11 998 89 0 10.27 126 07:21 12.03.2020
6581 Clouds -11 998 89 0 10.27 126 06:18 12.03.2020
6582 Clouds -11 998 89 0 10.27 126 05:33 12.03.2020
6583 Clouds -13 1001 91 0 8.38 127 02:54 12.03.2020
6584 Clouds -12 1004 90 0 5.56 138 01:43 12.03.2020
6585 Clouds -12 1004 90 0 6.69 135 01:21 12.03.2020
6586 Clouds -12 1004 90 0 6.69 135 00:42 12.03.2020
6587 Clouds -12 1004 90 0 6.69 135 23:57 11.03.2020
6588 Clouds -12 1004 90 0 6.69 135 23:28 11.03.2020
6589 Clouds -12 1005 92 0 3.18 165 22:58 11.03.2020
6590 Clouds -12 1005 92 0 3.18 165 22:39 11.03.2020
6591 Clouds -12 1005 92 0 3.18 165 22:21 11.03.2020
6592 Clouds -12 1005 92 0 3.18 165 21:56 11.03.2020
6593 Clouds -12 1005 92 0 3.18 165 21:37 11.03.2020
6594 Clouds -12 1005 92 0 3.18 165 21:19 11.03.2020
6595 Clouds -12 1005 92 0 3.18 165 20:55 11.03.2020
6596 Clouds -12 1005 92 0 3.18 165 20:55 11.03.2020
6597 Clouds -12 1005 92 0 3.18 165 20:55 11.03.2020
6598 Clouds -12 1005 92 0 3.18 165 20:36 11.03.2020
6599 Clear -14 1004 96 0 1.15 313 20:18 11.03.2020
6600 Clear -14 1004 96 0 1.15 313 19:42 11.03.2020
6601 Clear -14 1004 96 0 1.15 313 19:23 11.03.2020
6602 Clear -14 1004 96 0 1.15 313 18:56 11.03.2020
6603 Clear -14 1004 96 0 1.15 313 18:36 11.03.2020
6604 Clear -14 1004 96 0 1.15 313 18:18 11.03.2020
6605 Clear -14 1004 96 0 1.15 313 17:40 11.03.2020
6606 Clear -14 1004 96 0 1.15 313 17:21 11.03.2020
6607 Clear -12 1002 87 0 4.41 314 16:56 11.03.2020
6608 Clear -12 1002 87 0 4.41 314 16:38 11.03.2020
6609 Clear -12 1002 87 0 4.41 314 16:19 11.03.2020
6610 Clear -12 1002 87 0 4.41 314 15:42 11.03.2020
6611 Clear -12 1002 87 0 4.41 314 15:22 11.03.2020
6612 Clear -12 1002 87 0 4.41 314 14:44 11.03.2020
6613 Clear -12 1002 87 0 4.41 314 14:23 11.03.2020
6614 Clouds -10 998 77 0 8.12 311 13:59 11.03.2020
6615 Clouds -10 998 77 0 8.12 311 13:39 11.03.2020
6616 Clouds -9 998 76 0 8.31 317 13:21 11.03.2020
6617 Clouds -9 998 76 0 8.31 317 12:41 11.03.2020
6618 Clouds -9 998 76 0 8.31 317 12:21 11.03.2020
6619 Clouds -9 998 76 0 8.31 317 11:57 11.03.2020
6620 Clouds -9 998 76 0 8.31 317 11:57 11.03.2020
6621 Clouds -9 998 76 0 8.31 317 11:38 11.03.2020
6622 Clouds -6 990 77 0 12.52 303 11:19 11.03.2020
6623 Clouds -6 990 77 0 12.52 303 10:43 11.03.2020
6624 Clouds -6 990 77 0 12.52 303 10:19 11.03.2020
6625 Clouds -6 990 77 0 12.52 303 09:44 11.03.2020
6626 Clouds -6 990 77 0 12.52 303 09:25 11.03.2020
6627 Clouds -6 990 77 0 12.52 303 08:58 11.03.2020
6628 Clouds -6 990 77 0 12.52 303 08:40 11.03.2020
6629 Snow -3 982 75 0 17.28 271 08:19 11.03.2020
6630 Snow -5 985 75 0 14.95 289 07:44 11.03.2020
6631 Snow -5 985 75 0 14.95 289 07:19 11.03.2020
6632 Snow -5 985 75 0 14.95 289 06:46 11.03.2020
6633 Snow -5 985 75 0 14.95 289 05:41 11.03.2020
6634 Snow -1 982 86 0 13.01 245 04:50 11.03.2020
6635 Snow -1 982 86 0 13.01 245 02:30 11.03.2020
6636 Snow -1 984 93 0 11.02 239 01:43 11.03.2020
6637 Snow -1 983 92 0 10.95 239 00:49 11.03.2020
6638 Snow -1 983 92 0 10.95 239 00:21 11.03.2020
6639 Snow -1 983 92 0 10.95 239 23:43 10.03.2020
6640 Snow -1 983 92 0 10.95 239 23:22 10.03.2020
6641 Snow 0 985 94 0 11.54 245 22:41 10.03.2020
6642 Snow 0 985 94 0 11.54 245 22:20 10.03.2020
6643 Snow 0 985 94 0 11.54 245 21:57 10.03.2020
6644 Snow 0 985 94 0 11.54 245 21:39 10.03.2020
6645 Snow 0 985 94 0 11.54 245 21:20 10.03.2020
6646 Snow 0 985 94 0 11.54 245 20:59 10.03.2020
6647 Snow 0 985 94 0 11.54 245 20:41 10.03.2020
6648 Snow 0 986 94 0 11.08 240 20:19 10.03.2020
6649 Clouds 0 986 95 0 11.61 239 19:57 10.03.2020
6650 Clouds 0 986 95 0 11.61 239 19:39 10.03.2020
6651 Clouds 0 986 95 0 11.61 239 19:21 10.03.2020
6652 Clouds 0 986 95 0 11.61 239 18:45 10.03.2020
6653 Clouds 0 986 95 0 11.61 239 18:45 10.03.2020
6654 Clouds 0 986 95 0 11.61 239 18:27 10.03.2020
6655 Clouds 0 986 95 0 11.61 239 17:58 10.03.2020
6656 Clouds 0 986 95 0 11.61 239 17:40 10.03.2020
6657 Clouds 0 986 95 0 11.61 239 17:21 10.03.2020
6658 Snow 0 989 97 0 10.46 248 16:40 10.03.2020
6659 Snow 0 989 97 0 10.46 248 16:20 10.03.2020
6660 Snow 0 989 97 0 10.46 248 15:58 10.03.2020
6661 Snow 0 989 97 0 10.46 248 15:39 10.03.2020
6662 Snow 0 989 97 0 10.46 248 15:19 10.03.2020
6663 Snow 0 989 97 0 10.46 248 14:57 10.03.2020
6664 Snow 0 989 97 0 10.46 248 14:39 10.03.2020
6665 Snow 0 989 96 0 10.62 258 14:18 10.03.2020
6666 Snow 0 989 96 0 10.62 258 13:42 10.03.2020
6667 Snow 0 989 96 0 10.62 258 13:42 10.03.2020
6668 Snow 0 989 96 0 10.62 258 13:24 10.03.2020
6669 Snow 1 990 97 0 10.46 254 12:42 10.03.2020
6670 Snow 1 990 97 0 10.46 254 12:21 10.03.2020
6671 Snow 1 990 97 0 10.46 254 11:59 10.03.2020
6672 Snow 1 990 97 0 10.46 254 11:41 10.03.2020
6673 Snow 1 990 97 0 10.46 254 11:23 10.03.2020
6674 Clouds 0 988 96 0 12.03 259 10:54 10.03.2020
6675 Clouds 0 988 96 0 12.03 259 10:36 10.03.2020
6676 Clouds 0 988 96 0 12.03 259 10:18 10.03.2020
6677 Clouds 0 988 96 0 12.03 259 09:42 10.03.2020
6678 Clouds 0 988 96 0 12.03 259 09:19 10.03.2020
6679 Clouds 0 988 96 0 12.03 259 08:53 10.03.2020
6680 Clouds 0 988 96 0 12.03 259 08:33 10.03.2020
6681 Snow 0 986 96 0 12.83 261 07:52 10.03.2020
6682 Snow 0 986 96 0 12.83 261 07:32 10.03.2020
6683 Snow 0 986 96 0 12.83 261 06:50 10.03.2020
6684 Snow 0 986 96 0 12.83 261 06:31 10.03.2020
6685 Snow 0 986 96 0 12.83 261 05:42 10.03.2020
6686 Snow 1 986 96 0 11.57 246 04:53 10.03.2020
6687 Snow 1 986 96 0 11.57 246 04:24 10.03.2020
6688 Snow 1 986 96 0 11.57 246 02:46 10.03.2020
6689 Snow -1 989 94 0 11.97 223 01:31 10.03.2020
6690 Snow -1 989 94 0 11.97 223 00:50 10.03.2020
6691 Snow -1 989 94 0 11.97 223 00:27 10.03.2020
6692 Snow -1 989 94 0 11.97 223 23:41 09.03.2020
6693 Snow -1 989 94 0 11.97 223 23:22 09.03.2020
6694 Snow -2 993 95 0 9.6 215 22:56 09.03.2020
6695 Snow -2 993 95 0 9.6 215 22:37 09.03.2020
6696 Snow -2 993 95 0 9.6 215 22:18 09.03.2020
6697 Snow -2 993 95 0 9.6 215 21:42 09.03.2020
6698 Snow -2 993 95 0 9.6 215 21:22 09.03.2020
6699 Snow -2 993 95 0 9.6 215 20:58 09.03.2020
6700 Snow -2 993 95 0 9.6 215 20:39 09.03.2020
6701 Snow -3 998 90 0 8.19 201 20:20 09.03.2020
6702 Snow -3 998 90 0 8.19 201 19:45 09.03.2020
6703 Snow -3 998 90 0 8.19 201 19:26 09.03.2020
6704 Snow -3 998 90 0 8.19 201 18:59 09.03.2020
6705 Snow -3 998 90 0 8.19 201 18:40 09.03.2020
6706 Snow -3 998 90 0 8.19 201 18:20 09.03.2020
6707 Snow -3 998 90 0 8.19 201 17:58 09.03.2020
6708 Snow -3 998 90 0 8.19 201 17:38 09.03.2020
6709 Snow -4 1003 94 0 5.15 191 17:20 09.03.2020
6710 Snow -4 1003 94 0 5.15 191 16:58 09.03.2020
6711 Snow -4 1003 94 0 5.15 191 16:40 09.03.2020
6712 Snow -4 1003 94 0 5.15 191 16:22 09.03.2020
6713 Snow -4 1003 94 0 5.15 191 15:58 09.03.2020
6714 Snow -4 1003 94 0 5.15 191 15:39 09.03.2020
6715 Snow -4 1003 94 0 5.15 191 15:21 09.03.2020
6716 Snow -4 1003 94 0 5.15 191 14:57 09.03.2020
6717 Snow -4 1003 94 0 5.15 191 14:37 09.03.2020
6718 Snow -3 1005 94 0 5.27 211 14:19 09.03.2020
6719 Snow -3 1005 94 0 5.27 211 13:55 09.03.2020
6720 Snow -3 1005 94 0 5.27 211 13:37 09.03.2020
6721 Snow -3 1005 95 0 4.85 212 13:18 09.03.2020
6722 Snow -3 1005 95 0 4.85 212 12:42 09.03.2020
6723 Snow -3 1005 95 0 4.85 212 12:22 09.03.2020
6724 Snow -3 1005 95 0 4.85 212 12:22 09.03.2020
6725 Snow -3 1005 95 0 4.85 212 11:54 09.03.2020
6726 Snow -3 1005 95 0 4.85 212 11:36 09.03.2020
6727 Snow -4 1007 92 0 4.52 223 11:18 09.03.2020
6728 Snow -4 1007 92 0 4.52 223 10:54 09.03.2020
6729 Snow -4 1007 92 0 4.52 223 10:36 09.03.2020
6730 Snow -4 1007 92 0 4.52 223 10:18 09.03.2020
6731 Snow -4 1007 92 0 4.52 223 09:38 09.03.2020
6732 Snow -4 1007 92 0 4.52 223 09:19 09.03.2020
6733 Snow -4 1007 92 0 4.52 223 08:44 09.03.2020
6734 Snow -5 1007 91 0 4.95 220 08:25 09.03.2020
6735 Snow -7 1007 93 0 5.47 207 07:41 09.03.2020
6736 Snow -7 1007 93 0 5.47 207 07:22 09.03.2020
6737 Snow -7 1007 93 0 5.47 207 06:46 09.03.2020
6738 Snow -7 1007 93 0 5.47 207 06:25 09.03.2020
6739 Snow -7 1007 93 0 5.47 207 05:52 09.03.2020
6740 Snow -7 1007 93 0 5.47 207 05:34 09.03.2020
6741 Snow -8 1009 94 0 3.95 206 04:43 09.03.2020
6742 Snow -8 1009 94 0 3.95 206 04:22 09.03.2020
6743 Snow -8 1009 94 0 3.95 206 03:20 09.03.2020
6744 Clouds -11 1009 95 0 2.19 203 01:41 09.03.2020
6745 Clouds -11 1009 95 0 3.29 218 00:38 09.03.2020
6746 Clouds -11 1009 95 0 3.29 218 00:20 09.03.2020
6747 Clouds -11 1009 95 0 3.29 218 23:48 08.03.2020
6748 Clouds -11 1009 95 0 3.29 218 23:23 08.03.2020
6749 Snow -12 1009 93 0 1.77 216 22:57 08.03.2020
6750 Snow -12 1009 93 0 1.77 216 22:57 08.03.2020
6751 Snow -12 1009 93 0 1.77 216 22:38 08.03.2020
6752 Snow -12 1009 93 0 1.77 216 22:20 08.03.2020
6753 Snow -12 1009 93 0 1.77 216 21:54 08.03.2020
6754 Snow -12 1009 93 0 1.77 216 21:36 08.03.2020
6755 Snow -12 1009 93 0 1.77 216 21:18 08.03.2020
6756 Snow -12 1009 93 0 1.77 216 20:39 08.03.2020
6757 Snow -12 1009 93 0 0.4 193 20:21 08.03.2020
6758 Snow -12 1009 93 0 0.4 193 20:21 08.03.2020
6759 Snow -13 1008 93 0 2.55 326 19:56 08.03.2020
6760 Snow -13 1008 93 0 2.55 326 19:37 08.03.2020
6761 Snow -13 1008 93 0 2.55 326 19:18 08.03.2020
6762 Snow -13 1008 93 0 2.55 326 18:41 08.03.2020
6763 Snow -13 1008 93 0 2.55 326 18:23 08.03.2020
6764 Snow -13 1008 93 0 2.55 326 17:56 08.03.2020
6765 Snow -13 1008 93 0 2.55 326 17:37 08.03.2020
6766 Clouds -14 1007 92 0 5.18 319 17:18 08.03.2020
6767 Clouds -14 1007 92 0 5.18 319 16:45 08.03.2020
6768 Clouds -14 1007 92 0 5.18 319 16:27 08.03.2020
6769 Clouds -14 1007 92 0 5.18 319 15:56 08.03.2020
6770 Clouds -14 1007 92 0 5.18 319 15:56 08.03.2020
6771 Clouds -14 1007 92 0 5.18 319 15:37 08.03.2020
6772 Clouds -14 1007 92 0 5.18 319 15:19 08.03.2020
6773 Clouds -14 1007 92 0 5.18 319 14:40 08.03.2020
6774 Clouds -14 1007 92 0 5.18 319 14:21 08.03.2020
6775 Clouds -14 1007 92 0 5.18 319 14:21 08.03.2020
6776 Clouds -14 1007 92 0 5.18 319 14:21 08.03.2020
6777 Clouds -13 1005 88 0 7.34 315 13:57 08.03.2020
6778 Clouds -13 1005 88 0 7.34 315 13:38 08.03.2020
6779 Clouds -15 1005 91 0 6.7 314 13:19 08.03.2020
6780 Clouds -15 1005 91 0 6.7 314 12:39 08.03.2020
6781 Clouds -15 1005 91 0 6.7 314 12:20 08.03.2020
6782 Clouds -15 1005 91 0 6.7 314 11:54 08.03.2020
6783 Clouds -15 1005 91 0 6.7 314 11:36 08.03.2020
6784 Clouds -14 1003 90 0 8.25 314 11:18 08.03.2020
6785 Clouds -14 1003 90 0 8.25 314 10:41 08.03.2020
6786 Clouds -14 1003 90 0 8.25 314 10:23 08.03.2020
6787 Clouds -14 1003 90 0 8.25 314 09:40 08.03.2020
6788 Clouds -14 1003 90 0 8.25 314 09:22 08.03.2020
6789 Clouds -14 1003 90 0 8.25 314 08:50 08.03.2020
6790 Clouds -14 1003 90 0 8.25 314 08:27 08.03.2020
6791 Clouds -15 999 92 0 8.7 318 07:51 08.03.2020
6792 Clouds -15 999 92 0 8.7 318 07:29 08.03.2020
6793 Clouds -15 999 92 0 8.7 318 06:58 08.03.2020
6794 Clouds -15 999 92 0 8.7 318 06:37 08.03.2020
6795 Clouds -15 999 92 0 8.7 318 06:18 08.03.2020
6796 Snow -13 995 93 0 7.61 315 05:18 08.03.2020
6797 Snow -13 995 93 0 7.61 315 03:50 08.03.2020
6798 Snow -13 995 93 0 7.61 315 02:28 08.03.2020
6799 Snow -11 992 91 0 6.57 307 01:22 08.03.2020
6800 Snow -10 992 92 0 6.55 306 00:43 08.03.2020
6801 Snow -10 992 92 0 6.55 306 00:24 08.03.2020
6802 Snow -10 992 92 0 6.55 306 23:43 07.03.2020
6803 Snow -10 992 92 0 6.55 306 23:22 07.03.2020
6804 Snow -5 990 93 0 8.45 282 22:40 07.03.2020
6805 Snow -5 990 93 0 8.45 282 22:21 07.03.2020
6806 Snow -5 990 93 0 8.45 282 21:48 07.03.2020
6807 Snow -5 990 93 0 8.45 282 21:25 07.03.2020
6808 Snow -5 990 93 0 8.45 282 20:42 07.03.2020
6809 Snow -5 990 94 0 8.01 289 20:24 07.03.2020
6810 Snow -3 989 96 0 6.05 225 19:59 07.03.2020
6811 Snow -3 989 96 0 6.05 225 19:40 07.03.2020
6812 Snow -3 989 96 0 6.05 225 19:20 07.03.2020
6813 Snow -3 989 96 0 6.05 225 18:42 07.03.2020
6814 Snow -3 989 96 0 6.05 225 18:24 07.03.2020
6815 Snow -3 989 96 0 6.05 225 17:56 07.03.2020
6816 Snow -3 989 96 0 6.05 225 17:38 07.03.2020
6817 Snow -4 988 95 0 5.94 236 17:18 07.03.2020
6818 Snow -4 988 95 0 5.94 236 16:42 07.03.2020
6819 Snow -4 988 95 0 5.94 236 16:23 07.03.2020
6820 Snow -4 988 95 0 5.94 236 15:58 07.03.2020
6821 Snow -4 988 95 0 5.94 236 15:40 07.03.2020
6822 Snow -4 988 95 0 5.94 236 15:21 07.03.2020
6823 Snow -4 988 95 0 5.94 236 15:21 07.03.2020
6824